<?xml version="1.0" encoding="UTF-8" standalone="no" ?>
<gpx xmlns="http://www.topografix.com/GPX/1/1" xmlns:xsi="http://www.w3.org/2001/XMLSchema-instance" xsi:schemaLocation="http://www.topografix.com/GPX/1/1 http://www.topografix.com/GPX/1/1/gpx.xsd" version="1.1" creator="VisuGPX - https://www.visugpx.com">
  <metadata>
    <name>Pravouta - Bec Charvet</name>
    <desc><![CDATA[
]]></desc>
  </metadata>
  <trk>
    <name><![CDATA[Pravouta - Bec Charvet_1]]></name>
    <extensions>
      <line xmlns="http://www.topografix.com/GPX/gpx_style/0/2">
        <color>0000FF</color>
        <width>4</width>
      </line>
    </extensions>
    <trkseg>
      <trkpt lat="45.2912" lon="5.84753">
        <ele>1001.4379882812</ele>
        <time>2017-12-22T07:32:39Z</time>
      </trkpt>
      <trkpt lat="45.29115" lon="5.84752">
        <ele>999.43798828125</ele>
        <time>2017-12-22T07:33:28Z</time>
      </trkpt>
      <trkpt lat="45.29111" lon="5.84751">
        <ele>998.43798828125</ele>
        <time>2017-12-22T07:33:41Z</time>
      </trkpt>
      <trkpt lat="45.29107" lon="5.84746">
        <ele>998.43798828125</ele>
        <time>2017-12-22T07:33:44Z</time>
      </trkpt>
      <trkpt lat="45.29104" lon="5.84739">
        <ele>999.43798828125</ele>
        <time>2017-12-22T07:33:49Z</time>
      </trkpt>
      <trkpt lat="45.29106" lon="5.84733">
        <ele>999.43798828125</ele>
        <time>2017-12-22T07:33:55Z</time>
      </trkpt>
      <trkpt lat="45.29103" lon="5.84727">
        <ele>999.43798828125</ele>
        <time>2017-12-22T07:34:16Z</time>
      </trkpt>
      <trkpt lat="45.29103" lon="5.8472">
        <ele>998.43798828125</ele>
        <time>2017-12-22T07:35:42Z</time>
      </trkpt>
      <trkpt lat="45.291" lon="5.84713">
        <ele>998.43701171875</ele>
        <time>2017-12-22T07:35:47Z</time>
      </trkpt>
      <trkpt lat="45.29097" lon="5.84707">
        <ele>999.43701171875</ele>
        <time>2017-12-22T07:35:52Z</time>
      </trkpt>
      <trkpt lat="45.29096" lon="5.847">
        <ele>1004.4370117188</ele>
        <time>2017-12-22T07:36:05Z</time>
      </trkpt>
      <trkpt lat="45.291" lon="5.84697">
        <ele>1007.4370117188</ele>
        <time>2017-12-22T07:36:14Z</time>
      </trkpt>
      <trkpt lat="45.29104" lon="5.84692">
        <ele>1009.4370117188</ele>
        <time>2017-12-22T07:36:19Z</time>
      </trkpt>
      <trkpt lat="45.29107" lon="5.84688">
        <ele>1009.4370117188</ele>
        <time>2017-12-22T07:36:23Z</time>
      </trkpt>
      <trkpt lat="45.29111" lon="5.84684">
        <ele>1010.4370117188</ele>
        <time>2017-12-22T07:36:28Z</time>
      </trkpt>
      <trkpt lat="45.29114" lon="5.84679">
        <ele>1011.4370117188</ele>
        <time>2017-12-22T07:36:34Z</time>
      </trkpt>
      <trkpt lat="45.29114" lon="5.84672">
        <ele>1011.4370117188</ele>
        <time>2017-12-22T07:36:41Z</time>
      </trkpt>
      <trkpt lat="45.29111" lon="5.84667">
        <ele>1011.4370117188</ele>
        <time>2017-12-22T07:36:47Z</time>
      </trkpt>
      <trkpt lat="45.29108" lon="5.84661">
        <ele>1013.4370117188</ele>
        <time>2017-12-22T07:36:53Z</time>
      </trkpt>
      <trkpt lat="45.29107" lon="5.84655">
        <ele>1015.4370117188</ele>
        <time>2017-12-22T07:36:59Z</time>
      </trkpt>
      <trkpt lat="45.29104" lon="5.84648">
        <ele>1016.4370117188</ele>
        <time>2017-12-22T07:37:06Z</time>
      </trkpt>
      <trkpt lat="45.29102" lon="5.84641">
        <ele>1018.4370117188</ele>
        <time>2017-12-22T07:37:12Z</time>
      </trkpt>
      <trkpt lat="45.29099" lon="5.84635">
        <ele>1017.4370117188</ele>
        <time>2017-12-22T07:37:17Z</time>
      </trkpt>
      <trkpt lat="45.29097" lon="5.8463">
        <ele>1018.4370117188</ele>
        <time>2017-12-22T07:37:22Z</time>
      </trkpt>
      <trkpt lat="45.29094" lon="5.84624">
        <ele>1019.4370117188</ele>
        <time>2017-12-22T07:37:28Z</time>
      </trkpt>
      <trkpt lat="45.29091" lon="5.84618">
        <ele>1020.4370117188</ele>
        <time>2017-12-22T07:37:33Z</time>
      </trkpt>
      <trkpt lat="45.29088" lon="5.84613">
        <ele>1020.4370117188</ele>
        <time>2017-12-22T07:37:38Z</time>
      </trkpt>
      <trkpt lat="45.29094" lon="5.84614">
        <ele>1020.4370117188</ele>
        <time>2017-12-22T07:37:46Z</time>
      </trkpt>
      <trkpt lat="45.29099" lon="5.84617">
        <ele>1021.4370117188</ele>
        <time>2017-12-22T07:37:50Z</time>
      </trkpt>
      <trkpt lat="45.29104" lon="5.84619">
        <ele>1022.4370117188</ele>
        <time>2017-12-22T07:37:54Z</time>
      </trkpt>
      <trkpt lat="45.29108" lon="5.8462">
        <ele>1022.4370117188</ele>
        <time>2017-12-22T07:38:02Z</time>
      </trkpt>
      <trkpt lat="45.29113" lon="5.84619">
        <ele>1023.4370117188</ele>
        <time>2017-12-22T07:38:07Z</time>
      </trkpt>
      <trkpt lat="45.29118" lon="5.84618">
        <ele>1024.4370117188</ele>
        <time>2017-12-22T07:38:12Z</time>
      </trkpt>
      <trkpt lat="45.29123" lon="5.84614">
        <ele>1025.4370117188</ele>
        <time>2017-12-22T07:38:24Z</time>
      </trkpt>
      <trkpt lat="45.29127" lon="5.84611">
        <ele>1026.4370117188</ele>
        <time>2017-12-22T07:38:28Z</time>
      </trkpt>
      <trkpt lat="45.29132" lon="5.84607">
        <ele>1026.4370117188</ele>
        <time>2017-12-22T07:38:32Z</time>
      </trkpt>
      <trkpt lat="45.29136" lon="5.84603">
        <ele>1028.4370117188</ele>
        <time>2017-12-22T07:38:36Z</time>
      </trkpt>
      <trkpt lat="45.29141" lon="5.84598">
        <ele>1029.4370117188</ele>
        <time>2017-12-22T07:38:40Z</time>
      </trkpt>
      <trkpt lat="45.29144" lon="5.84593">
        <ele>1030.4370117188</ele>
        <time>2017-12-22T07:38:44Z</time>
      </trkpt>
      <trkpt lat="45.29148" lon="5.84589">
        <ele>1031.4370117188</ele>
        <time>2017-12-22T07:38:48Z</time>
      </trkpt>
      <trkpt lat="45.29153" lon="5.84585">
        <ele>1032.4370117188</ele>
        <time>2017-12-22T07:38:52Z</time>
      </trkpt>
      <trkpt lat="45.29158" lon="5.84584">
        <ele>1033.4370117188</ele>
        <time>2017-12-22T07:38:56Z</time>
      </trkpt>
      <trkpt lat="45.29162" lon="5.84584">
        <ele>1033.4370117188</ele>
        <time>2017-12-22T07:39:00Z</time>
      </trkpt>
      <trkpt lat="45.29167" lon="5.84583">
        <ele>1033.4370117188</ele>
        <time>2017-12-22T07:39:04Z</time>
      </trkpt>
      <trkpt lat="45.29172" lon="5.84582">
        <ele>1033.4370117188</ele>
        <time>2017-12-22T07:39:08Z</time>
      </trkpt>
      <trkpt lat="45.29177" lon="5.84582">
        <ele>1034.4370117188</ele>
        <time>2017-12-22T07:39:12Z</time>
      </trkpt>
      <trkpt lat="45.29182" lon="5.84579">
        <ele>1034.4370117188</ele>
        <time>2017-12-22T07:39:16Z</time>
      </trkpt>
      <trkpt lat="45.29186" lon="5.84574">
        <ele>1036.4370117188</ele>
        <time>2017-12-22T07:39:20Z</time>
      </trkpt>
      <trkpt lat="45.2919" lon="5.84569">
        <ele>1035.4370117188</ele>
        <time>2017-12-22T07:39:45Z</time>
      </trkpt>
      <trkpt lat="45.29194" lon="5.84563">
        <ele>1035.4370117188</ele>
        <time>2017-12-22T07:39:52Z</time>
      </trkpt>
      <trkpt lat="45.29197" lon="5.84558">
        <ele>1034.4370117188</ele>
        <time>2017-12-22T07:39:56Z</time>
      </trkpt>
      <trkpt lat="45.29199" lon="5.84552">
        <ele>1033.4370117188</ele>
        <time>2017-12-22T07:40:01Z</time>
      </trkpt>
      <trkpt lat="45.29196" lon="5.84545">
        <ele>1035.4370117188</ele>
        <time>2017-12-22T07:40:08Z</time>
      </trkpt>
      <trkpt lat="45.29193" lon="5.84539">
        <ele>1038.4370117188</ele>
        <time>2017-12-22T07:40:13Z</time>
      </trkpt>
      <trkpt lat="45.29194" lon="5.84532">
        <ele>1037.4370117188</ele>
        <time>2017-12-22T07:40:18Z</time>
      </trkpt>
      <trkpt lat="45.29196" lon="5.84525">
        <ele>1037.4370117188</ele>
        <time>2017-12-22T07:40:22Z</time>
      </trkpt>
      <trkpt lat="45.29199" lon="5.84518">
        <ele>1038.4370117188</ele>
        <time>2017-12-22T07:40:27Z</time>
      </trkpt>
      <trkpt lat="45.29202" lon="5.84513">
        <ele>1040.4370117188</ele>
        <time>2017-12-22T07:40:32Z</time>
      </trkpt>
      <trkpt lat="45.29204" lon="5.84507">
        <ele>1040.4370117188</ele>
        <time>2017-12-22T07:40:36Z</time>
      </trkpt>
      <trkpt lat="45.29207" lon="5.84501">
        <ele>1041.4370117188</ele>
        <time>2017-12-22T07:40:41Z</time>
      </trkpt>
      <trkpt lat="45.2921" lon="5.84495">
        <ele>1041.4370117188</ele>
        <time>2017-12-22T07:40:46Z</time>
      </trkpt>
      <trkpt lat="45.29213" lon="5.84489">
        <ele>1041.4370117188</ele>
        <time>2017-12-22T07:40:51Z</time>
      </trkpt>
      <trkpt lat="45.29215" lon="5.84483">
        <ele>1042.4370117188</ele>
        <time>2017-12-22T07:40:56Z</time>
      </trkpt>
      <trkpt lat="45.29218" lon="5.84476">
        <ele>1044.4370117188</ele>
        <time>2017-12-22T07:41:02Z</time>
      </trkpt>
      <trkpt lat="45.2922" lon="5.8447">
        <ele>1044.4370117188</ele>
        <time>2017-12-22T07:41:07Z</time>
      </trkpt>
      <trkpt lat="45.29222" lon="5.84463">
        <ele>1047.4370117188</ele>
        <time>2017-12-22T07:41:12Z</time>
      </trkpt>
      <trkpt lat="45.29223" lon="5.84456">
        <ele>1048.4370117188</ele>
        <time>2017-12-22T07:41:17Z</time>
      </trkpt>
      <trkpt lat="45.29225" lon="5.84449">
        <ele>1049.4370117188</ele>
        <time>2017-12-22T07:41:22Z</time>
      </trkpt>
      <trkpt lat="45.29228" lon="5.84443">
        <ele>1050.4370117188</ele>
        <time>2017-12-22T07:41:28Z</time>
      </trkpt>
      <trkpt lat="45.29231" lon="5.84437">
        <ele>1051.4370117188</ele>
        <time>2017-12-22T07:41:34Z</time>
      </trkpt>
      <trkpt lat="45.29233" lon="5.84429">
        <ele>1053.4370117188</ele>
        <time>2017-12-22T07:41:40Z</time>
      </trkpt>
      <trkpt lat="45.29234" lon="5.84423">
        <ele>1054.4370117188</ele>
        <time>2017-12-22T07:41:45Z</time>
      </trkpt>
      <trkpt lat="45.29236" lon="5.84417">
        <ele>1054.4370117188</ele>
        <time>2017-12-22T07:41:49Z</time>
      </trkpt>
      <trkpt lat="45.29239" lon="5.84411">
        <ele>1056.4370117188</ele>
        <time>2017-12-22T07:41:54Z</time>
      </trkpt>
      <trkpt lat="45.29241" lon="5.84406">
        <ele>1057.4370117188</ele>
        <time>2017-12-22T07:41:59Z</time>
      </trkpt>
      <trkpt lat="45.29244" lon="5.844">
        <ele>1059.4370117188</ele>
        <time>2017-12-22T07:42:04Z</time>
      </trkpt>
      <trkpt lat="45.29246" lon="5.84393">
        <ele>1059.4370117188</ele>
        <time>2017-12-22T07:42:09Z</time>
      </trkpt>
      <trkpt lat="45.29251" lon="5.84388">
        <ele>1062.4370117188</ele>
        <time>2017-12-22T07:42:16Z</time>
      </trkpt>
      <trkpt lat="45.29255" lon="5.84384">
        <ele>1063.4370117188</ele>
        <time>2017-12-22T07:42:22Z</time>
      </trkpt>
      <trkpt lat="45.29259" lon="5.84378">
        <ele>1062.4370117188</ele>
        <time>2017-12-22T07:42:27Z</time>
      </trkpt>
      <trkpt lat="45.29263" lon="5.84375">
        <ele>1062.4370117188</ele>
        <time>2017-12-22T07:42:31Z</time>
      </trkpt>
      <trkpt lat="45.29268" lon="5.84372">
        <ele>1063.4370117188</ele>
        <time>2017-12-22T07:42:38Z</time>
      </trkpt>
      <trkpt lat="45.29272" lon="5.84367">
        <ele>1064.4370117188</ele>
        <time>2017-12-22T07:42:43Z</time>
      </trkpt>
      <trkpt lat="45.29276" lon="5.84362">
        <ele>1068.4370117188</ele>
        <time>2017-12-22T07:42:49Z</time>
      </trkpt>
      <trkpt lat="45.29273" lon="5.84356">
        <ele>1070.4370117188</ele>
        <time>2017-12-22T07:42:56Z</time>
      </trkpt>
      <trkpt lat="45.29269" lon="5.84351">
        <ele>1072.4370117188</ele>
        <time>2017-12-22T07:43:01Z</time>
      </trkpt>
      <trkpt lat="45.29273" lon="5.84347">
        <ele>1075.4370117188</ele>
        <time>2017-12-22T07:43:11Z</time>
      </trkpt>
      <trkpt lat="45.29278" lon="5.84343">
        <ele>1078.4370117188</ele>
        <time>2017-12-22T07:43:19Z</time>
      </trkpt>
      <trkpt lat="45.29282" lon="5.84339">
        <ele>1079.4370117188</ele>
        <time>2017-12-22T07:43:25Z</time>
      </trkpt>
      <trkpt lat="45.29285" lon="5.84334">
        <ele>1082.4370117188</ele>
        <time>2017-12-22T07:43:32Z</time>
      </trkpt>
      <trkpt lat="45.29288" lon="5.84329">
        <ele>1082.4370117188</ele>
        <time>2017-12-22T07:43:37Z</time>
      </trkpt>
      <trkpt lat="45.29292" lon="5.84323">
        <ele>1083.4370117188</ele>
        <time>2017-12-22T07:43:42Z</time>
      </trkpt>
      <trkpt lat="45.29295" lon="5.84318">
        <ele>1084.4370117188</ele>
        <time>2017-12-22T07:43:47Z</time>
      </trkpt>
      <trkpt lat="45.29298" lon="5.84312">
        <ele>1083.4370117188</ele>
        <time>2017-12-22T07:43:52Z</time>
      </trkpt>
      <trkpt lat="45.29302" lon="5.84308">
        <ele>1084.4370117188</ele>
        <time>2017-12-22T07:43:59Z</time>
      </trkpt>
      <trkpt lat="45.29305" lon="5.84303">
        <ele>1084.4370117188</ele>
        <time>2017-12-22T07:44:04Z</time>
      </trkpt>
      <trkpt lat="45.29309" lon="5.84297">
        <ele>1085.4370117188</ele>
        <time>2017-12-22T07:44:09Z</time>
      </trkpt>
      <trkpt lat="45.29307" lon="5.84291">
        <ele>1087.4370117188</ele>
        <time>2017-12-22T07:44:16Z</time>
      </trkpt>
      <trkpt lat="45.29302" lon="5.84288">
        <ele>1084.4370117188</ele>
        <time>2017-12-22T07:44:31Z</time>
      </trkpt>
      <trkpt lat="45.29298" lon="5.84286">
        <ele>1087.4370117188</ele>
        <time>2017-12-22T07:45:44Z</time>
      </trkpt>
      <trkpt lat="45.29294" lon="5.84283">
        <ele>1085.4370117188</ele>
        <time>2017-12-22T07:45:48Z</time>
      </trkpt>
      <trkpt lat="45.29289" lon="5.84279">
        <ele>1087.4370117188</ele>
        <time>2017-12-22T07:45:52Z</time>
      </trkpt>
      <trkpt lat="45.29284" lon="5.84277">
        <ele>1092.4370117188</ele>
        <time>2017-12-22T07:45:57Z</time>
      </trkpt>
      <trkpt lat="45.29282" lon="5.84269">
        <ele>1098.4370117188</ele>
        <time>2017-12-22T07:46:03Z</time>
      </trkpt>
      <trkpt lat="45.29281" lon="5.84262">
        <ele>1101.4370117188</ele>
        <time>2017-12-22T07:46:12Z</time>
      </trkpt>
      <trkpt lat="45.29283" lon="5.84254">
        <ele>1100.4370117188</ele>
        <time>2017-12-22T07:46:16Z</time>
      </trkpt>
      <trkpt lat="45.29287" lon="5.84249">
        <ele>1099.4370117188</ele>
        <time>2017-12-22T07:46:20Z</time>
      </trkpt>
      <trkpt lat="45.2929" lon="5.84244">
        <ele>1099.4370117188</ele>
        <time>2017-12-22T07:46:24Z</time>
      </trkpt>
      <trkpt lat="45.29294" lon="5.84238">
        <ele>1100.4370117188</ele>
        <time>2017-12-22T07:46:33Z</time>
      </trkpt>
      <trkpt lat="45.29296" lon="5.84232">
        <ele>1103.4370117188</ele>
        <time>2017-12-22T07:46:37Z</time>
      </trkpt>
      <trkpt lat="45.29297" lon="5.84225">
        <ele>1100.4370117188</ele>
        <time>2017-12-22T07:46:40Z</time>
      </trkpt>
      <trkpt lat="45.293" lon="5.8422">
        <ele>1104.4370117188</ele>
        <time>2017-12-22T07:46:55Z</time>
      </trkpt>
      <trkpt lat="45.29303" lon="5.84215">
        <ele>1104.4370117188</ele>
        <time>2017-12-22T07:46:58Z</time>
      </trkpt>
      <trkpt lat="45.29307" lon="5.84211">
        <ele>1105.4370117188</ele>
        <time>2017-12-22T07:47:02Z</time>
      </trkpt>
      <trkpt lat="45.29312" lon="5.84212">
        <ele>1106.4370117188</ele>
        <time>2017-12-22T07:47:08Z</time>
      </trkpt>
      <trkpt lat="45.29317" lon="5.84211">
        <ele>1107.4370117188</ele>
        <time>2017-12-22T07:47:11Z</time>
      </trkpt>
      <trkpt lat="45.29322" lon="5.84212">
        <ele>1109.4370117188</ele>
        <time>2017-12-22T07:47:15Z</time>
      </trkpt>
      <trkpt lat="45.29328" lon="5.84214">
        <ele>1110.4370117188</ele>
        <time>2017-12-22T07:47:18Z</time>
      </trkpt>
      <trkpt lat="45.29334" lon="5.84214">
        <ele>1109.4370117188</ele>
        <time>2017-12-22T07:47:21Z</time>
      </trkpt>
      <trkpt lat="45.29338" lon="5.84215">
        <ele>1110.4370117188</ele>
        <time>2017-12-22T07:47:23Z</time>
      </trkpt>
      <trkpt lat="45.29345" lon="5.84215">
        <ele>1108.4370117188</ele>
        <time>2017-12-22T07:47:26Z</time>
      </trkpt>
      <trkpt lat="45.2935" lon="5.84218">
        <ele>1108.4370117188</ele>
        <time>2017-12-22T07:47:33Z</time>
      </trkpt>
      <trkpt lat="45.29355" lon="5.84221">
        <ele>1111.4370117188</ele>
        <time>2017-12-22T07:47:36Z</time>
      </trkpt>
      <trkpt lat="45.2936" lon="5.84223">
        <ele>1111.4370117188</ele>
        <time>2017-12-22T07:47:45Z</time>
      </trkpt>
      <trkpt lat="45.29365" lon="5.84221">
        <ele>1110.4370117188</ele>
        <time>2017-12-22T07:48:01Z</time>
      </trkpt>
      <trkpt lat="45.29369" lon="5.84217">
        <ele>1106.4370117188</ele>
        <time>2017-12-22T07:48:08Z</time>
      </trkpt>
      <trkpt lat="45.29373" lon="5.84216">
        <ele>1107.4370117188</ele>
        <time>2017-12-22T07:48:14Z</time>
      </trkpt>
      <trkpt lat="45.29379" lon="5.84215">
        <ele>1107.4370117188</ele>
        <time>2017-12-22T07:48:19Z</time>
      </trkpt>
      <trkpt lat="45.29383" lon="5.84218">
        <ele>1114.4370117188</ele>
        <time>2017-12-22T07:48:27Z</time>
      </trkpt>
      <trkpt lat="45.29389" lon="5.84223">
        <ele>1114.4370117188</ele>
        <time>2017-12-22T07:48:31Z</time>
      </trkpt>
      <trkpt lat="45.29394" lon="5.84223">
        <ele>1113.4370117188</ele>
        <time>2017-12-22T07:48:35Z</time>
      </trkpt>
      <trkpt lat="45.29398" lon="5.84221">
        <ele>1113.4370117188</ele>
        <time>2017-12-22T07:48:38Z</time>
      </trkpt>
      <trkpt lat="45.29404" lon="5.84221">
        <ele>1111.4370117188</ele>
        <time>2017-12-22T07:48:41Z</time>
      </trkpt>
      <trkpt lat="45.29409" lon="5.84225">
        <ele>1114.4370117188</ele>
        <time>2017-12-22T07:48:51Z</time>
      </trkpt>
      <trkpt lat="45.29414" lon="5.84227">
        <ele>1116.4370117188</ele>
        <time>2017-12-22T07:48:57Z</time>
      </trkpt>
      <trkpt lat="45.29419" lon="5.84225">
        <ele>1115.4370117188</ele>
        <time>2017-12-22T07:48:59Z</time>
      </trkpt>
      <trkpt lat="45.29427" lon="5.84223">
        <ele>1115.4379882812</ele>
        <time>2017-12-22T07:49:02Z</time>
      </trkpt>
      <trkpt lat="45.29467" lon="5.84222">
        <ele>1150.4379882812</ele>
        <time>2017-12-22T07:49:39Z</time>
      </trkpt>
      <trkpt lat="45.29474" lon="5.8423">
        <ele>1148.4379882812</ele>
        <time>2017-12-22T07:49:47Z</time>
      </trkpt>
      <trkpt lat="45.29479" lon="5.84229">
        <ele>1135.4379882812</ele>
        <time>2017-12-22T07:49:51Z</time>
      </trkpt>
      <trkpt lat="45.29483" lon="5.84233">
        <ele>1137.4379882812</ele>
        <time>2017-12-22T07:49:59Z</time>
      </trkpt>
      <trkpt lat="45.29489" lon="5.84237">
        <ele>1139.4379882812</ele>
        <time>2017-12-22T07:50:04Z</time>
      </trkpt>
      <trkpt lat="45.29494" lon="5.8424">
        <ele>1138.4379882812</ele>
        <time>2017-12-22T07:50:08Z</time>
      </trkpt>
      <trkpt lat="45.29498" lon="5.84236">
        <ele>1137.4379882812</ele>
        <time>2017-12-22T07:50:11Z</time>
      </trkpt>
      <trkpt lat="45.29503" lon="5.84239">
        <ele>1142.4379882812</ele>
        <time>2017-12-22T07:50:19Z</time>
      </trkpt>
      <trkpt lat="45.29507" lon="5.84239">
        <ele>1142.4379882812</ele>
        <time>2017-12-22T07:50:22Z</time>
      </trkpt>
      <trkpt lat="45.29512" lon="5.84238">
        <ele>1141.4379882812</ele>
        <time>2017-12-22T07:50:26Z</time>
      </trkpt>
      <trkpt lat="45.29517" lon="5.84238">
        <ele>1139.4379882812</ele>
        <time>2017-12-22T07:50:30Z</time>
      </trkpt>
      <trkpt lat="45.2952" lon="5.84244">
        <ele>1141.4379882812</ele>
        <time>2017-12-22T07:50:33Z</time>
      </trkpt>
      <trkpt lat="45.29525" lon="5.84248">
        <ele>1143.4379882812</ele>
        <time>2017-12-22T07:50:39Z</time>
      </trkpt>
      <trkpt lat="45.2953" lon="5.84251">
        <ele>1140.4379882812</ele>
        <time>2017-12-22T07:50:46Z</time>
      </trkpt>
      <trkpt lat="45.29536" lon="5.84251">
        <ele>1144.4379882812</ele>
        <time>2017-12-22T07:50:51Z</time>
      </trkpt>
      <trkpt lat="45.29542" lon="5.84253">
        <ele>1148.4379882812</ele>
        <time>2017-12-22T07:50:59Z</time>
      </trkpt>
      <trkpt lat="45.29547" lon="5.84256">
        <ele>1147.4379882812</ele>
        <time>2017-12-22T07:51:03Z</time>
      </trkpt>
      <trkpt lat="45.29551" lon="5.84254">
        <ele>1148.4379882812</ele>
        <time>2017-12-22T07:51:08Z</time>
      </trkpt>
      <trkpt lat="45.29555" lon="5.8426">
        <ele>1152.4379882812</ele>
        <time>2017-12-22T07:51:13Z</time>
      </trkpt>
      <trkpt lat="45.29559" lon="5.84256">
        <ele>1154.4379882812</ele>
        <time>2017-12-22T07:51:19Z</time>
      </trkpt>
      <trkpt lat="45.29564" lon="5.84255">
        <ele>1153.4379882812</ele>
        <time>2017-12-22T07:51:28Z</time>
      </trkpt>
      <trkpt lat="45.29565" lon="5.84247">
        <ele>1157.4379882812</ele>
        <time>2017-12-22T07:51:33Z</time>
      </trkpt>
      <trkpt lat="45.29566" lon="5.84239">
        <ele>1157.4379882812</ele>
        <time>2017-12-22T07:51:37Z</time>
      </trkpt>
      <trkpt lat="45.2957" lon="5.84241">
        <ele>1159.4379882812</ele>
        <time>2017-12-22T07:51:45Z</time>
      </trkpt>
      <trkpt lat="45.29575" lon="5.84243">
        <ele>1159.4379882812</ele>
        <time>2017-12-22T07:51:51Z</time>
      </trkpt>
      <trkpt lat="45.29578" lon="5.84237">
        <ele>1160.4379882812</ele>
        <time>2017-12-22T07:51:58Z</time>
      </trkpt>
      <trkpt lat="45.29583" lon="5.84236">
        <ele>1160.4379882812</ele>
        <time>2017-12-22T07:52:03Z</time>
      </trkpt>
      <trkpt lat="45.29586" lon="5.84242">
        <ele>1165.4379882812</ele>
        <time>2017-12-22T07:52:18Z</time>
      </trkpt>
      <trkpt lat="45.29591" lon="5.84244">
        <ele>1164.4379882812</ele>
        <time>2017-12-22T07:52:24Z</time>
      </trkpt>
      <trkpt lat="45.29595" lon="5.84247">
        <ele>1165.4379882812</ele>
        <time>2017-12-22T07:52:28Z</time>
      </trkpt>
      <trkpt lat="45.29599" lon="5.84251">
        <ele>1165.4379882812</ele>
        <time>2017-12-22T07:52:34Z</time>
      </trkpt>
      <trkpt lat="45.29601" lon="5.84244">
        <ele>1169.4379882812</ele>
        <time>2017-12-22T07:52:46Z</time>
      </trkpt>
      <trkpt lat="45.29606" lon="5.84243">
        <ele>1169.4379882812</ele>
        <time>2017-12-22T07:52:52Z</time>
      </trkpt>
      <trkpt lat="45.29611" lon="5.84242">
        <ele>1167.4379882812</ele>
        <time>2017-12-22T07:52:56Z</time>
      </trkpt>
      <trkpt lat="45.29616" lon="5.84244">
        <ele>1166.4379882812</ele>
        <time>2017-12-22T07:53:00Z</time>
      </trkpt>
      <trkpt lat="45.2962" lon="5.84242">
        <ele>1168.4379882812</ele>
        <time>2017-12-22T07:53:05Z</time>
      </trkpt>
      <trkpt lat="45.29624" lon="5.84243">
        <ele>1171.4379882812</ele>
        <time>2017-12-22T07:53:10Z</time>
      </trkpt>
      <trkpt lat="45.29629" lon="5.84243">
        <ele>1176.4379882812</ele>
        <time>2017-12-22T07:53:19Z</time>
      </trkpt>
      <trkpt lat="45.29635" lon="5.84251">
        <ele>1174.4379882812</ele>
        <time>2017-12-22T07:53:31Z</time>
      </trkpt>
      <trkpt lat="45.2964" lon="5.84252">
        <ele>1173.4379882812</ele>
        <time>2017-12-22T07:53:37Z</time>
      </trkpt>
      <trkpt lat="45.29646" lon="5.84254">
        <ele>1174.4379882812</ele>
        <time>2017-12-22T07:53:41Z</time>
      </trkpt>
      <trkpt lat="45.29651" lon="5.84254">
        <ele>1173.4379882812</ele>
        <time>2017-12-22T07:53:47Z</time>
      </trkpt>
      <trkpt lat="45.29656" lon="5.84255">
        <ele>1178.4379882812</ele>
        <time>2017-12-22T07:53:52Z</time>
      </trkpt>
      <trkpt lat="45.29661" lon="5.84257">
        <ele>1176.4379882812</ele>
        <time>2017-12-22T07:53:57Z</time>
      </trkpt>
      <trkpt lat="45.29666" lon="5.84258">
        <ele>1176.4379882812</ele>
        <time>2017-12-22T07:54:01Z</time>
      </trkpt>
      <trkpt lat="45.29671" lon="5.84258">
        <ele>1178.4379882812</ele>
        <time>2017-12-22T07:54:04Z</time>
      </trkpt>
      <trkpt lat="45.29676" lon="5.84258">
        <ele>1178.4379882812</ele>
        <time>2017-12-22T07:54:07Z</time>
      </trkpt>
      <trkpt lat="45.29679" lon="5.84251">
        <ele>1185.4379882812</ele>
        <time>2017-12-22T07:54:17Z</time>
      </trkpt>
      <trkpt lat="45.29682" lon="5.84245">
        <ele>1184.4379882812</ele>
        <time>2017-12-22T07:54:47Z</time>
      </trkpt>
      <trkpt lat="45.29682" lon="5.84238">
        <ele>1186.4379882812</ele>
        <time>2017-12-22T07:54:51Z</time>
      </trkpt>
      <trkpt lat="45.29681" lon="5.84231">
        <ele>1187.4379882812</ele>
        <time>2017-12-22T07:54:56Z</time>
      </trkpt>
      <trkpt lat="45.2968" lon="5.84224">
        <ele>1188.4379882812</ele>
        <time>2017-12-22T07:55:11Z</time>
      </trkpt>
      <trkpt lat="45.29684" lon="5.8422">
        <ele>1186.4379882812</ele>
        <time>2017-12-22T07:55:15Z</time>
      </trkpt>
      <trkpt lat="45.29688" lon="5.84219">
        <ele>1187.4379882812</ele>
        <time>2017-12-22T07:55:20Z</time>
      </trkpt>
      <trkpt lat="45.29692" lon="5.84213">
        <ele>1184.4379882812</ele>
        <time>2017-12-22T07:55:22Z</time>
      </trkpt>
      <trkpt lat="45.29697" lon="5.84213">
        <ele>1185.4379882812</ele>
        <time>2017-12-22T07:55:27Z</time>
      </trkpt>
      <trkpt lat="45.29701" lon="5.84215">
        <ele>1186.4379882812</ele>
        <time>2017-12-22T07:55:30Z</time>
      </trkpt>
      <trkpt lat="45.29707" lon="5.84213">
        <ele>1187.4379882812</ele>
        <time>2017-12-22T07:55:35Z</time>
      </trkpt>
      <trkpt lat="45.29711" lon="5.84209">
        <ele>1189.4379882812</ele>
        <time>2017-12-22T07:55:38Z</time>
      </trkpt>
      <trkpt lat="45.29716" lon="5.84206">
        <ele>1189.4379882812</ele>
        <time>2017-12-22T07:55:43Z</time>
      </trkpt>
      <trkpt lat="45.29716" lon="5.84199">
        <ele>1191.4379882812</ele>
        <time>2017-12-22T07:55:47Z</time>
      </trkpt>
      <trkpt lat="45.29714" lon="5.84191">
        <ele>1194.4379882812</ele>
        <time>2017-12-22T07:55:52Z</time>
      </trkpt>
      <trkpt lat="45.29717" lon="5.84186">
        <ele>1193.4379882812</ele>
        <time>2017-12-22T07:55:59Z</time>
      </trkpt>
      <trkpt lat="45.29722" lon="5.84184">
        <ele>1198.4379882812</ele>
        <time>2017-12-22T07:56:06Z</time>
      </trkpt>
      <trkpt lat="45.29726" lon="5.84182">
        <ele>1199.4379882812</ele>
        <time>2017-12-22T07:56:13Z</time>
      </trkpt>
      <trkpt lat="45.29731" lon="5.84184">
        <ele>1201.4379882812</ele>
        <time>2017-12-22T07:56:16Z</time>
      </trkpt>
      <trkpt lat="45.29736" lon="5.84183">
        <ele>1202.4379882812</ele>
        <time>2017-12-22T07:56:20Z</time>
      </trkpt>
      <trkpt lat="45.29742" lon="5.84182">
        <ele>1206.4379882812</ele>
        <time>2017-12-22T07:56:27Z</time>
      </trkpt>
      <trkpt lat="45.29747" lon="5.84181">
        <ele>1207.4379882812</ele>
        <time>2017-12-22T07:56:31Z</time>
      </trkpt>
      <trkpt lat="45.29753" lon="5.84181">
        <ele>1205.4379882812</ele>
        <time>2017-12-22T07:56:34Z</time>
      </trkpt>
      <trkpt lat="45.29757" lon="5.84183">
        <ele>1209.4379882812</ele>
        <time>2017-12-22T07:56:40Z</time>
      </trkpt>
      <trkpt lat="45.29762" lon="5.84184">
        <ele>1210.4379882812</ele>
        <time>2017-12-22T07:56:43Z</time>
      </trkpt>
      <trkpt lat="45.29765" lon="5.84189">
        <ele>1209.4379882812</ele>
        <time>2017-12-22T07:56:47Z</time>
      </trkpt>
      <trkpt lat="45.2977" lon="5.84192">
        <ele>1212.4379882812</ele>
        <time>2017-12-22T07:56:52Z</time>
      </trkpt>
      <trkpt lat="45.29774" lon="5.84189">
        <ele>1210.4379882812</ele>
        <time>2017-12-22T07:56:55Z</time>
      </trkpt>
      <trkpt lat="45.29778" lon="5.8419">
        <ele>1211.4379882812</ele>
        <time>2017-12-22T07:56:58Z</time>
      </trkpt>
      <trkpt lat="45.29782" lon="5.84194">
        <ele>1210.4379882812</ele>
        <time>2017-12-22T07:57:03Z</time>
      </trkpt>
      <trkpt lat="45.29786" lon="5.84199">
        <ele>1209.4379882812</ele>
        <time>2017-12-22T07:57:07Z</time>
      </trkpt>
      <trkpt lat="45.2979" lon="5.84205">
        <ele>1211.4379882812</ele>
        <time>2017-12-22T07:57:14Z</time>
      </trkpt>
      <trkpt lat="45.29794" lon="5.84208">
        <ele>1212.4379882812</ele>
        <time>2017-12-22T07:57:17Z</time>
      </trkpt>
      <trkpt lat="45.29799" lon="5.84207">
        <ele>1213.4379882812</ele>
        <time>2017-12-22T07:57:24Z</time>
      </trkpt>
      <trkpt lat="45.29803" lon="5.84208">
        <ele>1214.4379882812</ele>
        <time>2017-12-22T07:57:30Z</time>
      </trkpt>
      <trkpt lat="45.29806" lon="5.84202">
        <ele>1218.4379882812</ele>
        <time>2017-12-22T07:57:34Z</time>
      </trkpt>
      <trkpt lat="45.29806" lon="5.84193">
        <ele>1219.4379882812</ele>
        <time>2017-12-22T07:57:39Z</time>
      </trkpt>
      <trkpt lat="45.29809" lon="5.84187">
        <ele>1221.4379882812</ele>
        <time>2017-12-22T07:57:43Z</time>
      </trkpt>
      <trkpt lat="45.29815" lon="5.84184">
        <ele>1224.4379882812</ele>
        <time>2017-12-22T07:57:52Z</time>
      </trkpt>
      <trkpt lat="45.2982" lon="5.84188">
        <ele>1223.4379882812</ele>
        <time>2017-12-22T07:57:55Z</time>
      </trkpt>
      <trkpt lat="45.29824" lon="5.8419">
        <ele>1224.4379882812</ele>
        <time>2017-12-22T07:58:00Z</time>
      </trkpt>
      <trkpt lat="45.29828" lon="5.84186">
        <ele>1226.4379882812</ele>
        <time>2017-12-22T07:58:06Z</time>
      </trkpt>
      <trkpt lat="45.29828" lon="5.84179">
        <ele>1224.4379882812</ele>
        <time>2017-12-22T07:58:10Z</time>
      </trkpt>
      <trkpt lat="45.29833" lon="5.84175">
        <ele>1222.4379882812</ele>
        <time>2017-12-22T07:58:18Z</time>
      </trkpt>
      <trkpt lat="45.29838" lon="5.84174">
        <ele>1226.4379882812</ele>
        <time>2017-12-22T07:58:28Z</time>
      </trkpt>
      <trkpt lat="45.29843" lon="5.84173">
        <ele>1230.4379882812</ele>
        <time>2017-12-22T07:58:34Z</time>
      </trkpt>
      <trkpt lat="45.29849" lon="5.84168">
        <ele>1231.4379882812</ele>
        <time>2017-12-22T07:58:39Z</time>
      </trkpt>
      <trkpt lat="45.29854" lon="5.84169">
        <ele>1230.4379882812</ele>
        <time>2017-12-22T07:58:45Z</time>
      </trkpt>
      <trkpt lat="45.29859" lon="5.84171">
        <ele>1235.4379882812</ele>
        <time>2017-12-22T07:58:51Z</time>
      </trkpt>
      <trkpt lat="45.29864" lon="5.84173">
        <ele>1237.4379882812</ele>
        <time>2017-12-22T07:58:57Z</time>
      </trkpt>
      <trkpt lat="45.29869" lon="5.84174">
        <ele>1238.4379882812</ele>
        <time>2017-12-22T07:59:01Z</time>
      </trkpt>
      <trkpt lat="45.29873" lon="5.84179">
        <ele>1240.4379882812</ele>
        <time>2017-12-22T07:59:07Z</time>
      </trkpt>
      <trkpt lat="45.29878" lon="5.84181">
        <ele>1240.4379882812</ele>
        <time>2017-12-22T07:59:10Z</time>
      </trkpt>
      <trkpt lat="45.29882" lon="5.84179">
        <ele>1242.4379882812</ele>
        <time>2017-12-22T07:59:13Z</time>
      </trkpt>
      <trkpt lat="45.29888" lon="5.84183">
        <ele>1242.4379882812</ele>
        <time>2017-12-22T07:59:19Z</time>
      </trkpt>
      <trkpt lat="45.29893" lon="5.8418">
        <ele>1245.4379882812</ele>
        <time>2017-12-22T07:59:25Z</time>
      </trkpt>
      <trkpt lat="45.29898" lon="5.8418">
        <ele>1246.4379882812</ele>
        <time>2017-12-22T07:59:29Z</time>
      </trkpt>
      <trkpt lat="45.29902" lon="5.84175">
        <ele>1246.4379882812</ele>
        <time>2017-12-22T07:59:34Z</time>
      </trkpt>
      <trkpt lat="45.29906" lon="5.84171">
        <ele>1247.4379882812</ele>
        <time>2017-12-22T07:59:43Z</time>
      </trkpt>
      <trkpt lat="45.29911" lon="5.84169">
        <ele>1246.4379882812</ele>
        <time>2017-12-22T07:59:45Z</time>
      </trkpt>
      <trkpt lat="45.29916" lon="5.84165">
        <ele>1251.4379882812</ele>
        <time>2017-12-22T07:59:48Z</time>
      </trkpt>
      <trkpt lat="45.29921" lon="5.84165">
        <ele>1255.4379882812</ele>
        <time>2017-12-22T07:59:53Z</time>
      </trkpt>
      <trkpt lat="45.29925" lon="5.84161">
        <ele>1256.4379882812</ele>
        <time>2017-12-22T07:59:57Z</time>
      </trkpt>
      <trkpt lat="45.29926" lon="5.84154">
        <ele>1255.4379882812</ele>
        <time>2017-12-22T08:00:03Z</time>
      </trkpt>
      <trkpt lat="45.2993" lon="5.84149">
        <ele>1258.4379882812</ele>
        <time>2017-12-22T08:00:08Z</time>
      </trkpt>
      <trkpt lat="45.29934" lon="5.84147">
        <ele>1258.4379882812</ele>
        <time>2017-12-22T08:00:17Z</time>
      </trkpt>
      <trkpt lat="45.29939" lon="5.84148">
        <ele>1259.4379882812</ele>
        <time>2017-12-22T08:00:20Z</time>
      </trkpt>
      <trkpt lat="45.29944" lon="5.84146">
        <ele>1264.4379882812</ele>
        <time>2017-12-22T08:00:36Z</time>
      </trkpt>
      <trkpt lat="45.29948" lon="5.84148">
        <ele>1266.4379882812</ele>
        <time>2017-12-22T08:00:44Z</time>
      </trkpt>
      <trkpt lat="45.29955" lon="5.84148">
        <ele>1266.4389648438</ele>
        <time>2017-12-22T08:00:48Z</time>
      </trkpt>
      <trkpt lat="45.29959" lon="5.84149">
        <ele>1266.4389648438</ele>
        <time>2017-12-22T08:00:52Z</time>
      </trkpt>
      <trkpt lat="45.29966" lon="5.84149">
        <ele>1269.4389648438</ele>
        <time>2017-12-22T08:00:56Z</time>
      </trkpt>
      <trkpt lat="45.2997" lon="5.84144">
        <ele>1267.4389648438</ele>
        <time>2017-12-22T08:00:59Z</time>
      </trkpt>
      <trkpt lat="45.29975" lon="5.84145">
        <ele>1270.4389648438</ele>
        <time>2017-12-22T08:01:06Z</time>
      </trkpt>
      <trkpt lat="45.2998" lon="5.84141">
        <ele>1270.4389648438</ele>
        <time>2017-12-22T08:01:11Z</time>
      </trkpt>
      <trkpt lat="45.29985" lon="5.84141">
        <ele>1272.4389648438</ele>
        <time>2017-12-22T08:01:15Z</time>
      </trkpt>
      <trkpt lat="45.29989" lon="5.84139">
        <ele>1274.4389648438</ele>
        <time>2017-12-22T08:01:24Z</time>
      </trkpt>
      <trkpt lat="45.29994" lon="5.84138">
        <ele>1274.4389648438</ele>
        <time>2017-12-22T08:01:30Z</time>
      </trkpt>
      <trkpt lat="45.3" lon="5.84136">
        <ele>1273.4389648438</ele>
        <time>2017-12-22T08:01:34Z</time>
      </trkpt>
      <trkpt lat="45.30004" lon="5.84135">
        <ele>1274.4389648438</ele>
        <time>2017-12-22T08:01:37Z</time>
      </trkpt>
      <trkpt lat="45.30009" lon="5.84133">
        <ele>1272.4389648438</ele>
        <time>2017-12-22T08:01:40Z</time>
      </trkpt>
      <trkpt lat="45.30009" lon="5.84126">
        <ele>1273.4389648438</ele>
        <time>2017-12-22T08:01:45Z</time>
      </trkpt>
      <trkpt lat="45.30006" lon="5.84119">
        <ele>1275.4389648438</ele>
        <time>2017-12-22T08:01:48Z</time>
      </trkpt>
      <trkpt lat="45.30002" lon="5.84114">
        <ele>1276.4389648438</ele>
        <time>2017-12-22T08:01:54Z</time>
      </trkpt>
      <trkpt lat="45.29998" lon="5.8411">
        <ele>1275.4389648438</ele>
        <time>2017-12-22T08:01:57Z</time>
      </trkpt>
      <trkpt lat="45.29994" lon="5.84106">
        <ele>1275.4389648438</ele>
        <time>2017-12-22T08:02:01Z</time>
      </trkpt>
      <trkpt lat="45.2999" lon="5.84104">
        <ele>1274.4389648438</ele>
        <time>2017-12-22T08:02:04Z</time>
      </trkpt>
      <trkpt lat="45.29986" lon="5.841">
        <ele>1275.4389648438</ele>
        <time>2017-12-22T08:02:07Z</time>
      </trkpt>
      <trkpt lat="45.29981" lon="5.84096">
        <ele>1276.4379882812</ele>
        <time>2017-12-22T08:02:12Z</time>
      </trkpt>
      <trkpt lat="45.29976" lon="5.84094">
        <ele>1278.4379882812</ele>
        <time>2017-12-22T08:02:15Z</time>
      </trkpt>
      <trkpt lat="45.29971" lon="5.84095">
        <ele>1279.4379882812</ele>
        <time>2017-12-22T08:02:19Z</time>
      </trkpt>
      <trkpt lat="45.29966" lon="5.84089">
        <ele>1279.4379882812</ele>
        <time>2017-12-22T08:02:23Z</time>
      </trkpt>
      <trkpt lat="45.29963" lon="5.84077">
        <ele>1275.4379882812</ele>
        <time>2017-12-22T08:02:27Z</time>
      </trkpt>
      <trkpt lat="45.29962" lon="5.8407">
        <ele>1276.4379882812</ele>
        <time>2017-12-22T08:02:31Z</time>
      </trkpt>
      <trkpt lat="45.29962" lon="5.84063">
        <ele>1278.4379882812</ele>
        <time>2017-12-22T08:02:35Z</time>
      </trkpt>
      <trkpt lat="45.29967" lon="5.84063">
        <ele>1279.4379882812</ele>
        <time>2017-12-22T08:02:43Z</time>
      </trkpt>
      <trkpt lat="45.29972" lon="5.8406">
        <ele>1277.4379882812</ele>
        <time>2017-12-22T08:02:48Z</time>
      </trkpt>
      <trkpt lat="45.29975" lon="5.84064">
        <ele>1279.4379882812</ele>
        <time>2017-12-22T08:02:51Z</time>
      </trkpt>
      <trkpt lat="45.29981" lon="5.84069">
        <ele>1279.4379882812</ele>
        <time>2017-12-22T08:02:55Z</time>
      </trkpt>
      <trkpt lat="45.29984" lon="5.84075">
        <ele>1280.4379882812</ele>
        <time>2017-12-22T08:02:59Z</time>
      </trkpt>
      <trkpt lat="45.2999" lon="5.84075">
        <ele>1279.4379882812</ele>
        <time>2017-12-22T08:03:02Z</time>
      </trkpt>
      <trkpt lat="45.29997" lon="5.84075">
        <ele>1281.4379882812</ele>
        <time>2017-12-22T08:03:06Z</time>
      </trkpt>
      <trkpt lat="45.30003" lon="5.84074">
        <ele>1284.4389648438</ele>
        <time>2017-12-22T08:03:12Z</time>
      </trkpt>
      <trkpt lat="45.30008" lon="5.84072">
        <ele>1285.4389648438</ele>
        <time>2017-12-22T08:03:14Z</time>
      </trkpt>
      <trkpt lat="45.30012" lon="5.84076">
        <ele>1286.4389648438</ele>
        <time>2017-12-22T08:03:19Z</time>
      </trkpt>
      <trkpt lat="45.30016" lon="5.84079">
        <ele>1286.4389648438</ele>
        <time>2017-12-22T08:03:22Z</time>
      </trkpt>
      <trkpt lat="45.30025" lon="5.84077">
        <ele>1282.4389648438</ele>
        <time>2017-12-22T08:03:27Z</time>
      </trkpt>
      <trkpt lat="45.30031" lon="5.84078">
        <ele>1281.4389648438</ele>
        <time>2017-12-22T08:03:31Z</time>
      </trkpt>
      <trkpt lat="45.30036" lon="5.8408">
        <ele>1283.4389648438</ele>
        <time>2017-12-22T08:03:35Z</time>
      </trkpt>
      <trkpt lat="45.30041" lon="5.84079">
        <ele>1286.4389648438</ele>
        <time>2017-12-22T08:03:41Z</time>
      </trkpt>
      <trkpt lat="45.30046" lon="5.84075">
        <ele>1285.4389648438</ele>
        <time>2017-12-22T08:03:46Z</time>
      </trkpt>
      <trkpt lat="45.30052" lon="5.84076">
        <ele>1283.4389648438</ele>
        <time>2017-12-22T08:03:50Z</time>
      </trkpt>
      <trkpt lat="45.30057" lon="5.84073">
        <ele>1287.4389648438</ele>
        <time>2017-12-22T08:03:55Z</time>
      </trkpt>
      <trkpt lat="45.30062" lon="5.84074">
        <ele>1291.4389648438</ele>
        <time>2017-12-22T08:03:59Z</time>
      </trkpt>
      <trkpt lat="45.30067" lon="5.84072">
        <ele>1292.4389648438</ele>
        <time>2017-12-22T08:04:03Z</time>
      </trkpt>
      <trkpt lat="45.30071" lon="5.84067">
        <ele>1291.4389648438</ele>
        <time>2017-12-22T08:04:09Z</time>
      </trkpt>
      <trkpt lat="45.30076" lon="5.84066">
        <ele>1293.4389648438</ele>
        <time>2017-12-22T08:04:12Z</time>
      </trkpt>
      <trkpt lat="45.3008" lon="5.84063">
        <ele>1296.4389648438</ele>
        <time>2017-12-22T08:04:16Z</time>
      </trkpt>
      <trkpt lat="45.30084" lon="5.84068">
        <ele>1293.4389648438</ele>
        <time>2017-12-22T08:04:17Z</time>
      </trkpt>
      <trkpt lat="45.30089" lon="5.8407">
        <ele>1295.4389648438</ele>
        <time>2017-12-22T08:04:20Z</time>
      </trkpt>
      <trkpt lat="45.30095" lon="5.84073">
        <ele>1296.4389648438</ele>
        <time>2017-12-22T08:04:24Z</time>
      </trkpt>
      <trkpt lat="45.301" lon="5.84069">
        <ele>1298.4389648438</ele>
        <time>2017-12-22T08:04:27Z</time>
      </trkpt>
      <trkpt lat="45.30105" lon="5.84069">
        <ele>1297.4389648438</ele>
        <time>2017-12-22T08:04:31Z</time>
      </trkpt>
      <trkpt lat="45.30111" lon="5.84068">
        <ele>1297.4389648438</ele>
        <time>2017-12-22T08:04:35Z</time>
      </trkpt>
      <trkpt lat="45.30116" lon="5.84067">
        <ele>1297.4389648438</ele>
        <time>2017-12-22T08:04:40Z</time>
      </trkpt>
      <trkpt lat="45.30121" lon="5.84067">
        <ele>1298.4389648438</ele>
        <time>2017-12-22T08:04:44Z</time>
      </trkpt>
      <trkpt lat="45.30126" lon="5.84064">
        <ele>1298.4389648438</ele>
        <time>2017-12-22T08:04:47Z</time>
      </trkpt>
      <trkpt lat="45.30132" lon="5.84062">
        <ele>1299.4389648438</ele>
        <time>2017-12-22T08:04:50Z</time>
      </trkpt>
      <trkpt lat="45.30135" lon="5.84056">
        <ele>1301.4389648438</ele>
        <time>2017-12-22T08:04:53Z</time>
      </trkpt>
      <trkpt lat="45.30141" lon="5.84054">
        <ele>1304.4389648438</ele>
        <time>2017-12-22T08:05:00Z</time>
      </trkpt>
      <trkpt lat="45.30146" lon="5.84056">
        <ele>1308.4389648438</ele>
        <time>2017-12-22T08:05:04Z</time>
      </trkpt>
      <trkpt lat="45.30152" lon="5.84055">
        <ele>1310.4389648438</ele>
        <time>2017-12-22T08:05:08Z</time>
      </trkpt>
      <trkpt lat="45.30157" lon="5.84052">
        <ele>1311.4389648438</ele>
        <time>2017-12-22T08:05:12Z</time>
      </trkpt>
      <trkpt lat="45.30163" lon="5.84054">
        <ele>1311.4389648438</ele>
        <time>2017-12-22T08:05:16Z</time>
      </trkpt>
      <trkpt lat="45.30166" lon="5.84049">
        <ele>1308.4389648438</ele>
        <time>2017-12-22T08:05:18Z</time>
      </trkpt>
      <trkpt lat="45.3017" lon="5.84045">
        <ele>1312.4389648438</ele>
        <time>2017-12-22T08:05:23Z</time>
      </trkpt>
      <trkpt lat="45.30175" lon="5.84045">
        <ele>1310.4389648438</ele>
        <time>2017-12-22T08:05:27Z</time>
      </trkpt>
      <trkpt lat="45.30181" lon="5.84049">
        <ele>1314.4389648438</ele>
        <time>2017-12-22T08:05:33Z</time>
      </trkpt>
      <trkpt lat="45.30185" lon="5.8405">
        <ele>1311.4389648438</ele>
        <time>2017-12-22T08:05:36Z</time>
      </trkpt>
      <trkpt lat="45.3019" lon="5.84052">
        <ele>1309.4389648438</ele>
        <time>2017-12-22T08:05:38Z</time>
      </trkpt>
      <trkpt lat="45.30196" lon="5.84055">
        <ele>1307.4389648438</ele>
        <time>2017-12-22T08:05:42Z</time>
      </trkpt>
      <trkpt lat="45.302" lon="5.84058">
        <ele>1308.4389648438</ele>
        <time>2017-12-22T08:05:45Z</time>
      </trkpt>
      <trkpt lat="45.30203" lon="5.84063">
        <ele>1308.4389648438</ele>
        <time>2017-12-22T08:05:48Z</time>
      </trkpt>
      <trkpt lat="45.30204" lon="5.8407">
        <ele>1306.4389648438</ele>
        <time>2017-12-22T08:05:51Z</time>
      </trkpt>
      <trkpt lat="45.30208" lon="5.84074">
        <ele>1309.4389648438</ele>
        <time>2017-12-22T08:05:55Z</time>
      </trkpt>
      <trkpt lat="45.30212" lon="5.84081">
        <ele>1314.4389648438</ele>
        <time>2017-12-22T08:06:00Z</time>
      </trkpt>
      <trkpt lat="45.30216" lon="5.84086">
        <ele>1316.4389648438</ele>
        <time>2017-12-22T08:06:03Z</time>
      </trkpt>
      <trkpt lat="45.30218" lon="5.84092">
        <ele>1317.4389648438</ele>
        <time>2017-12-22T08:06:07Z</time>
      </trkpt>
      <trkpt lat="45.30222" lon="5.84096">
        <ele>1321.4389648438</ele>
        <time>2017-12-22T08:06:11Z</time>
      </trkpt>
      <trkpt lat="45.30226" lon="5.841">
        <ele>1319.4389648438</ele>
        <time>2017-12-22T08:06:15Z</time>
      </trkpt>
      <trkpt lat="45.30231" lon="5.841">
        <ele>1318.4389648438</ele>
        <time>2017-12-22T08:06:18Z</time>
      </trkpt>
      <trkpt lat="45.30235" lon="5.84096">
        <ele>1317.4389648438</ele>
        <time>2017-12-22T08:06:24Z</time>
      </trkpt>
      <trkpt lat="45.30237" lon="5.84091">
        <ele>1318.4389648438</ele>
        <time>2017-12-22T08:06:27Z</time>
      </trkpt>
      <trkpt lat="45.30241" lon="5.84086">
        <ele>1320.4389648438</ele>
        <time>2017-12-22T08:06:36Z</time>
      </trkpt>
      <trkpt lat="45.30246" lon="5.84085">
        <ele>1321.4389648438</ele>
        <time>2017-12-22T08:06:42Z</time>
      </trkpt>
      <trkpt lat="45.30252" lon="5.8409">
        <ele>1319.4389648438</ele>
        <time>2017-12-22T08:06:56Z</time>
      </trkpt>
      <trkpt lat="45.30257" lon="5.8409">
        <ele>1320.4389648438</ele>
        <time>2017-12-22T08:07:04Z</time>
      </trkpt>
      <trkpt lat="45.30252" lon="5.84088">
        <ele>1327.4389648438</ele>
        <time>2017-12-22T08:07:22Z</time>
      </trkpt>
      <trkpt lat="45.30249" lon="5.84081">
        <ele>1330.4389648438</ele>
        <time>2017-12-22T08:07:26Z</time>
      </trkpt>
      <trkpt lat="45.30247" lon="5.84074">
        <ele>1331.4389648438</ele>
        <time>2017-12-22T08:07:30Z</time>
      </trkpt>
      <trkpt lat="45.30247" lon="5.84067">
        <ele>1332.4389648438</ele>
        <time>2017-12-22T08:07:35Z</time>
      </trkpt>
      <trkpt lat="45.3025" lon="5.84062">
        <ele>1330.4389648438</ele>
        <time>2017-12-22T08:07:39Z</time>
      </trkpt>
      <trkpt lat="45.30252" lon="5.84056">
        <ele>1331.4389648438</ele>
        <time>2017-12-22T08:07:43Z</time>
      </trkpt>
      <trkpt lat="45.30256" lon="5.84053">
        <ele>1333.4389648438</ele>
        <time>2017-12-22T08:07:47Z</time>
      </trkpt>
      <trkpt lat="45.30261" lon="5.84055">
        <ele>1339.4389648438</ele>
        <time>2017-12-22T08:07:55Z</time>
      </trkpt>
      <trkpt lat="45.30264" lon="5.84061">
        <ele>1337.4389648438</ele>
        <time>2017-12-22T08:08:02Z</time>
      </trkpt>
      <trkpt lat="45.30268" lon="5.84066">
        <ele>1336.4389648438</ele>
        <time>2017-12-22T08:08:06Z</time>
      </trkpt>
      <trkpt lat="45.30273" lon="5.84067">
        <ele>1338.4389648438</ele>
        <time>2017-12-22T08:08:12Z</time>
      </trkpt>
      <trkpt lat="45.3028" lon="5.84064">
        <ele>1339.4389648438</ele>
        <time>2017-12-22T08:08:23Z</time>
      </trkpt>
      <trkpt lat="45.30285" lon="5.84062">
        <ele>1339.4389648438</ele>
        <time>2017-12-22T08:08:26Z</time>
      </trkpt>
      <trkpt lat="45.3029" lon="5.84061">
        <ele>1341.4389648438</ele>
        <time>2017-12-22T08:08:33Z</time>
      </trkpt>
      <trkpt lat="45.30294" lon="5.84055">
        <ele>1343.4389648438</ele>
        <time>2017-12-22T08:08:39Z</time>
      </trkpt>
      <trkpt lat="45.30298" lon="5.84061">
        <ele>1342.4389648438</ele>
        <time>2017-12-22T08:08:44Z</time>
      </trkpt>
      <trkpt lat="45.30301" lon="5.84056">
        <ele>1345.4389648438</ele>
        <time>2017-12-22T08:08:50Z</time>
      </trkpt>
      <trkpt lat="45.30306" lon="5.84053">
        <ele>1344.4389648438</ele>
        <time>2017-12-22T08:08:55Z</time>
      </trkpt>
      <trkpt lat="45.30311" lon="5.84055">
        <ele>1346.4389648438</ele>
        <time>2017-12-22T08:09:01Z</time>
      </trkpt>
      <trkpt lat="45.30315" lon="5.84059">
        <ele>1344.4389648438</ele>
        <time>2017-12-22T08:09:05Z</time>
      </trkpt>
      <trkpt lat="45.30318" lon="5.84054">
        <ele>1348.4389648438</ele>
        <time>2017-12-22T08:09:09Z</time>
      </trkpt>
      <trkpt lat="45.30323" lon="5.84052">
        <ele>1349.4389648438</ele>
        <time>2017-12-22T08:09:14Z</time>
      </trkpt>
      <trkpt lat="45.30327" lon="5.84055">
        <ele>1351.4389648438</ele>
        <time>2017-12-22T08:09:19Z</time>
      </trkpt>
      <trkpt lat="45.30333" lon="5.84056">
        <ele>1350.4389648438</ele>
        <time>2017-12-22T08:09:28Z</time>
      </trkpt>
      <trkpt lat="45.30338" lon="5.84053">
        <ele>1351.4389648438</ele>
        <time>2017-12-22T08:09:31Z</time>
      </trkpt>
      <trkpt lat="45.30343" lon="5.84051">
        <ele>1353.4389648438</ele>
        <time>2017-12-22T08:09:34Z</time>
      </trkpt>
      <trkpt lat="45.30348" lon="5.84051">
        <ele>1352.4389648438</ele>
        <time>2017-12-22T08:09:37Z</time>
      </trkpt>
      <trkpt lat="45.30353" lon="5.84049">
        <ele>1352.4389648438</ele>
        <time>2017-12-22T08:09:40Z</time>
      </trkpt>
      <trkpt lat="45.30356" lon="5.84044">
        <ele>1354.4389648438</ele>
        <time>2017-12-22T08:09:43Z</time>
      </trkpt>
      <trkpt lat="45.30358" lon="5.84037">
        <ele>1354.4389648438</ele>
        <time>2017-12-22T08:09:46Z</time>
      </trkpt>
      <trkpt lat="45.30358" lon="5.84029">
        <ele>1357.4389648438</ele>
        <time>2017-12-22T08:09:52Z</time>
      </trkpt>
      <trkpt lat="45.30359" lon="5.84035">
        <ele>1359.4389648438</ele>
        <time>2017-12-22T08:09:57Z</time>
      </trkpt>
      <trkpt lat="45.30363" lon="5.84041">
        <ele>1358.4389648438</ele>
        <time>2017-12-22T08:10:01Z</time>
      </trkpt>
      <trkpt lat="45.30367" lon="5.84046">
        <ele>1355.4389648438</ele>
        <time>2017-12-22T08:10:05Z</time>
      </trkpt>
      <trkpt lat="45.30371" lon="5.84048">
        <ele>1358.4389648438</ele>
        <time>2017-12-22T08:10:13Z</time>
      </trkpt>
      <trkpt lat="45.30377" lon="5.84046">
        <ele>1364.4389648438</ele>
        <time>2017-12-22T08:10:24Z</time>
      </trkpt>
      <trkpt lat="45.30382" lon="5.84046">
        <ele>1365.4389648438</ele>
        <time>2017-12-22T08:10:30Z</time>
      </trkpt>
      <trkpt lat="45.30386" lon="5.8405">
        <ele>1363.4389648438</ele>
        <time>2017-12-22T08:10:34Z</time>
      </trkpt>
      <trkpt lat="45.30391" lon="5.84048">
        <ele>1365.4389648438</ele>
        <time>2017-12-22T08:10:38Z</time>
      </trkpt>
      <trkpt lat="45.30396" lon="5.84052">
        <ele>1367.4389648438</ele>
        <time>2017-12-22T08:10:42Z</time>
      </trkpt>
      <trkpt lat="45.30401" lon="5.84055">
        <ele>1368.4389648438</ele>
        <time>2017-12-22T08:10:45Z</time>
      </trkpt>
      <trkpt lat="45.30406" lon="5.84054">
        <ele>1369.4389648438</ele>
        <time>2017-12-22T08:10:51Z</time>
      </trkpt>
      <trkpt lat="45.3041" lon="5.84053">
        <ele>1371.4389648438</ele>
        <time>2017-12-22T08:10:58Z</time>
      </trkpt>
      <trkpt lat="45.30415" lon="5.84052">
        <ele>1374.4389648438</ele>
        <time>2017-12-22T08:11:02Z</time>
      </trkpt>
      <trkpt lat="45.30419" lon="5.84049">
        <ele>1377.4389648438</ele>
        <time>2017-12-22T08:11:08Z</time>
      </trkpt>
      <trkpt lat="45.30424" lon="5.84045">
        <ele>1381.4389648438</ele>
        <time>2017-12-22T08:11:14Z</time>
      </trkpt>
      <trkpt lat="45.30429" lon="5.84043">
        <ele>1381.4389648438</ele>
        <time>2017-12-22T08:11:17Z</time>
      </trkpt>
      <trkpt lat="45.30433" lon="5.8404">
        <ele>1382.4389648438</ele>
        <time>2017-12-22T08:11:21Z</time>
      </trkpt>
      <trkpt lat="45.30436" lon="5.84035">
        <ele>1384.4389648438</ele>
        <time>2017-12-22T08:11:26Z</time>
      </trkpt>
      <trkpt lat="45.3044" lon="5.84033">
        <ele>1383.4389648438</ele>
        <time>2017-12-22T08:11:33Z</time>
      </trkpt>
      <trkpt lat="45.30445" lon="5.8403">
        <ele>1384.4389648438</ele>
        <time>2017-12-22T08:11:37Z</time>
      </trkpt>
      <trkpt lat="45.30451" lon="5.84027">
        <ele>1385.4389648438</ele>
        <time>2017-12-22T08:11:41Z</time>
      </trkpt>
      <trkpt lat="45.30455" lon="5.84025">
        <ele>1385.4389648438</ele>
        <time>2017-12-22T08:11:45Z</time>
      </trkpt>
      <trkpt lat="45.30459" lon="5.84021">
        <ele>1384.4389648438</ele>
        <time>2017-12-22T08:11:49Z</time>
      </trkpt>
      <trkpt lat="45.30465" lon="5.84019">
        <ele>1385.4389648438</ele>
        <time>2017-12-22T08:11:54Z</time>
      </trkpt>
      <trkpt lat="45.3047" lon="5.84017">
        <ele>1384.4389648438</ele>
        <time>2017-12-22T08:11:58Z</time>
      </trkpt>
      <trkpt lat="45.30475" lon="5.84014">
        <ele>1385.4389648438</ele>
        <time>2017-12-22T08:12:03Z</time>
      </trkpt>
      <trkpt lat="45.3048" lon="5.84012">
        <ele>1386.4389648438</ele>
        <time>2017-12-22T08:12:09Z</time>
      </trkpt>
      <trkpt lat="45.30487" lon="5.84008">
        <ele>1388.4389648438</ele>
        <time>2017-12-22T08:12:16Z</time>
      </trkpt>
      <trkpt lat="45.30491" lon="5.84003">
        <ele>1391.4389648438</ele>
        <time>2017-12-22T08:12:20Z</time>
      </trkpt>
      <trkpt lat="45.30496" lon="5.84004">
        <ele>1394.4389648438</ele>
        <time>2017-12-22T08:12:25Z</time>
      </trkpt>
      <trkpt lat="45.305" lon="5.84">
        <ele>1398.4389648438</ele>
        <time>2017-12-22T08:12:34Z</time>
      </trkpt>
      <trkpt lat="45.30506" lon="5.84">
        <ele>1395.4389648438</ele>
        <time>2017-12-22T08:12:42Z</time>
      </trkpt>
      <trkpt lat="45.30509" lon="5.83994">
        <ele>1395.4389648438</ele>
        <time>2017-12-22T08:12:48Z</time>
      </trkpt>
      <trkpt lat="45.30513" lon="5.83989">
        <ele>1395.4389648438</ele>
        <time>2017-12-22T08:12:54Z</time>
      </trkpt>
      <trkpt lat="45.30519" lon="5.83985">
        <ele>1398.4389648438</ele>
        <time>2017-12-22T08:12:57Z</time>
      </trkpt>
      <trkpt lat="45.30522" lon="5.83981">
        <ele>1403.4389648438</ele>
        <time>2017-12-22T08:13:00Z</time>
      </trkpt>
      <trkpt lat="45.30528" lon="5.83978">
        <ele>1404.4389648438</ele>
        <time>2017-12-22T08:13:03Z</time>
      </trkpt>
      <trkpt lat="45.30532" lon="5.83973">
        <ele>1409.4389648438</ele>
        <time>2017-12-22T08:13:18Z</time>
      </trkpt>
      <trkpt lat="45.30537" lon="5.83977">
        <ele>1404.4389648438</ele>
        <time>2017-12-22T08:13:22Z</time>
      </trkpt>
      <trkpt lat="45.3054" lon="5.83982">
        <ele>1407.4399414062</ele>
        <time>2017-12-22T08:13:31Z</time>
      </trkpt>
      <trkpt lat="45.30543" lon="5.83989">
        <ele>1407.4399414062</ele>
        <time>2017-12-22T08:13:34Z</time>
      </trkpt>
      <trkpt lat="45.30544" lon="5.83997">
        <ele>1408.4399414062</ele>
        <time>2017-12-22T08:13:38Z</time>
      </trkpt>
      <trkpt lat="45.30545" lon="5.84003">
        <ele>1409.4399414062</ele>
        <time>2017-12-22T08:13:43Z</time>
      </trkpt>
      <trkpt lat="45.3055" lon="5.84009">
        <ele>1409.4399414062</ele>
        <time>2017-12-22T08:13:47Z</time>
      </trkpt>
      <trkpt lat="45.30552" lon="5.84015">
        <ele>1409.4399414062</ele>
        <time>2017-12-22T08:13:56Z</time>
      </trkpt>
      <trkpt lat="45.30557" lon="5.84018">
        <ele>1410.4399414062</ele>
        <time>2017-12-22T08:14:01Z</time>
      </trkpt>
      <trkpt lat="45.30562" lon="5.84021">
        <ele>1404.4399414062</ele>
        <time>2017-12-22T08:14:04Z</time>
      </trkpt>
      <trkpt lat="45.30568" lon="5.84022">
        <ele>1402.4399414062</ele>
        <time>2017-12-22T08:14:07Z</time>
      </trkpt>
      <trkpt lat="45.30574" lon="5.84025">
        <ele>1404.4399414062</ele>
        <time>2017-12-22T08:14:11Z</time>
      </trkpt>
      <trkpt lat="45.30579" lon="5.84025">
        <ele>1403.4399414062</ele>
        <time>2017-12-22T08:14:15Z</time>
      </trkpt>
      <trkpt lat="45.30583" lon="5.8403">
        <ele>1406.4399414062</ele>
        <time>2017-12-22T08:14:19Z</time>
      </trkpt>
      <trkpt lat="45.30588" lon="5.84033">
        <ele>1410.4399414062</ele>
        <time>2017-12-22T08:14:23Z</time>
      </trkpt>
      <trkpt lat="45.30592" lon="5.84036">
        <ele>1411.4399414062</ele>
        <time>2017-12-22T08:14:28Z</time>
      </trkpt>
      <trkpt lat="45.30598" lon="5.84042">
        <ele>1411.4399414062</ele>
        <time>2017-12-22T08:14:33Z</time>
      </trkpt>
      <trkpt lat="45.30601" lon="5.84049">
        <ele>1412.4399414062</ele>
        <time>2017-12-22T08:14:37Z</time>
      </trkpt>
      <trkpt lat="45.30604" lon="5.84054">
        <ele>1412.4399414062</ele>
        <time>2017-12-22T08:14:42Z</time>
      </trkpt>
      <trkpt lat="45.30606" lon="5.84061">
        <ele>1413.4399414062</ele>
        <time>2017-12-22T08:14:46Z</time>
      </trkpt>
      <trkpt lat="45.30609" lon="5.84065">
        <ele>1414.4399414062</ele>
        <time>2017-12-22T08:14:49Z</time>
      </trkpt>
      <trkpt lat="45.30612" lon="5.84071">
        <ele>1416.4399414062</ele>
        <time>2017-12-22T08:14:52Z</time>
      </trkpt>
      <trkpt lat="45.30617" lon="5.84075">
        <ele>1417.4399414062</ele>
        <time>2017-12-22T08:14:57Z</time>
      </trkpt>
      <trkpt lat="45.30622" lon="5.84079">
        <ele>1417.4399414062</ele>
        <time>2017-12-22T08:15:03Z</time>
      </trkpt>
      <trkpt lat="45.30627" lon="5.84079">
        <ele>1416.4399414062</ele>
        <time>2017-12-22T08:15:07Z</time>
      </trkpt>
      <trkpt lat="45.30631" lon="5.8408">
        <ele>1419.4399414062</ele>
        <time>2017-12-22T08:15:13Z</time>
      </trkpt>
      <trkpt lat="45.30636" lon="5.8408">
        <ele>1425.4399414062</ele>
        <time>2017-12-22T08:15:20Z</time>
      </trkpt>
      <trkpt lat="45.30642" lon="5.8408">
        <ele>1421.4399414062</ele>
        <time>2017-12-22T08:15:24Z</time>
      </trkpt>
      <trkpt lat="45.30647" lon="5.84082">
        <ele>1422.4399414062</ele>
        <time>2017-12-22T08:15:28Z</time>
      </trkpt>
      <trkpt lat="45.30649" lon="5.84087">
        <ele>1424.4399414062</ele>
        <time>2017-12-22T08:15:32Z</time>
      </trkpt>
      <trkpt lat="45.30654" lon="5.8409">
        <ele>1423.4399414062</ele>
        <time>2017-12-22T08:15:39Z</time>
      </trkpt>
      <trkpt lat="45.30658" lon="5.84091">
        <ele>1423.4399414062</ele>
        <time>2017-12-22T08:15:45Z</time>
      </trkpt>
      <trkpt lat="45.30663" lon="5.84092">
        <ele>1422.4399414062</ele>
        <time>2017-12-22T08:15:49Z</time>
      </trkpt>
      <trkpt lat="45.30667" lon="5.8409">
        <ele>1420.4399414062</ele>
        <time>2017-12-22T08:15:53Z</time>
      </trkpt>
      <trkpt lat="45.30672" lon="5.8409">
        <ele>1423.4399414062</ele>
        <time>2017-12-22T08:16:01Z</time>
      </trkpt>
      <trkpt lat="45.30677" lon="5.84092">
        <ele>1428.4399414062</ele>
        <time>2017-12-22T08:16:05Z</time>
      </trkpt>
      <trkpt lat="45.30682" lon="5.84095">
        <ele>1425.4399414062</ele>
        <time>2017-12-22T08:16:11Z</time>
      </trkpt>
      <trkpt lat="45.30685" lon="5.841">
        <ele>1426.4399414062</ele>
        <time>2017-12-22T08:16:15Z</time>
      </trkpt>
      <trkpt lat="45.3069" lon="5.841">
        <ele>1433.4399414062</ele>
        <time>2017-12-22T08:16:27Z</time>
      </trkpt>
      <trkpt lat="45.30694" lon="5.84103">
        <ele>1434.4399414062</ele>
        <time>2017-12-22T08:16:35Z</time>
      </trkpt>
      <trkpt lat="45.307" lon="5.84102">
        <ele>1437.4399414062</ele>
        <time>2017-12-22T08:16:45Z</time>
      </trkpt>
      <trkpt lat="45.30705" lon="5.841">
        <ele>1441.4399414062</ele>
        <time>2017-12-22T08:16:50Z</time>
      </trkpt>
      <trkpt lat="45.30711" lon="5.841">
        <ele>1444.4399414062</ele>
        <time>2017-12-22T08:16:56Z</time>
      </trkpt>
      <trkpt lat="45.30716" lon="5.84098">
        <ele>1446.4399414062</ele>
        <time>2017-12-22T08:17:02Z</time>
      </trkpt>
      <trkpt lat="45.30721" lon="5.84096">
        <ele>1450.4399414062</ele>
        <time>2017-12-22T08:17:08Z</time>
      </trkpt>
      <trkpt lat="45.30727" lon="5.84097">
        <ele>1453.4399414062</ele>
        <time>2017-12-22T08:17:14Z</time>
      </trkpt>
      <trkpt lat="45.30731" lon="5.84098">
        <ele>1453.4399414062</ele>
        <time>2017-12-22T08:17:20Z</time>
      </trkpt>
      <trkpt lat="45.30736" lon="5.841">
        <ele>1454.4399414062</ele>
        <time>2017-12-22T08:17:24Z</time>
      </trkpt>
      <trkpt lat="45.30741" lon="5.84102">
        <ele>1455.4399414062</ele>
        <time>2017-12-22T08:17:28Z</time>
      </trkpt>
      <trkpt lat="45.30747" lon="5.84103">
        <ele>1459.4399414062</ele>
        <time>2017-12-22T08:17:35Z</time>
      </trkpt>
      <trkpt lat="45.3075" lon="5.84109">
        <ele>1457.4399414062</ele>
        <time>2017-12-22T08:17:40Z</time>
      </trkpt>
      <trkpt lat="45.30754" lon="5.84115">
        <ele>1460.4399414062</ele>
        <time>2017-12-22T08:17:46Z</time>
      </trkpt>
      <trkpt lat="45.30759" lon="5.84116">
        <ele>1461.4399414062</ele>
        <time>2017-12-22T08:17:51Z</time>
      </trkpt>
      <trkpt lat="45.30764" lon="5.84116">
        <ele>1463.4399414062</ele>
        <time>2017-12-22T08:17:58Z</time>
      </trkpt>
      <trkpt lat="45.30768" lon="5.84111">
        <ele>1464.4399414062</ele>
        <time>2017-12-22T08:18:01Z</time>
      </trkpt>
      <trkpt lat="45.30771" lon="5.84106">
        <ele>1464.4399414062</ele>
        <time>2017-12-22T08:18:06Z</time>
      </trkpt>
      <trkpt lat="45.30772" lon="5.841">
        <ele>1465.4399414062</ele>
        <time>2017-12-22T08:18:11Z</time>
      </trkpt>
      <trkpt lat="45.30773" lon="5.84093">
        <ele>1468.4399414062</ele>
        <time>2017-12-22T08:18:17Z</time>
      </trkpt>
      <trkpt lat="45.30778" lon="5.8409">
        <ele>1467.4399414062</ele>
        <time>2017-12-22T08:19:32Z</time>
      </trkpt>
      <trkpt lat="45.30781" lon="5.84084">
        <ele>1469.4399414062</ele>
        <time>2017-12-22T08:19:36Z</time>
      </trkpt>
      <trkpt lat="45.30784" lon="5.84078">
        <ele>1470.4399414062</ele>
        <time>2017-12-22T08:19:41Z</time>
      </trkpt>
      <trkpt lat="45.30787" lon="5.84071">
        <ele>1472.4399414062</ele>
        <time>2017-12-22T08:19:46Z</time>
      </trkpt>
      <trkpt lat="45.30791" lon="5.84073">
        <ele>1473.4399414062</ele>
        <time>2017-12-22T08:19:54Z</time>
      </trkpt>
      <trkpt lat="45.30796" lon="5.84078">
        <ele>1475.4399414062</ele>
        <time>2017-12-22T08:19:59Z</time>
      </trkpt>
      <trkpt lat="45.30799" lon="5.84071">
        <ele>1477.4399414062</ele>
        <time>2017-12-22T08:20:09Z</time>
      </trkpt>
      <trkpt lat="45.308" lon="5.84064">
        <ele>1477.4399414062</ele>
        <time>2017-12-22T08:20:12Z</time>
      </trkpt>
      <trkpt lat="45.30803" lon="5.84059">
        <ele>1476.4399414062</ele>
        <time>2017-12-22T08:20:18Z</time>
      </trkpt>
      <trkpt lat="45.30802" lon="5.8405">
        <ele>1480.4399414062</ele>
        <time>2017-12-22T08:20:23Z</time>
      </trkpt>
      <trkpt lat="45.30802" lon="5.84043">
        <ele>1483.4399414062</ele>
        <time>2017-12-22T08:20:28Z</time>
      </trkpt>
      <trkpt lat="45.30801" lon="5.84036">
        <ele>1485.4399414062</ele>
        <time>2017-12-22T08:20:33Z</time>
      </trkpt>
      <trkpt lat="45.30802" lon="5.8403">
        <ele>1489.4399414062</ele>
        <time>2017-12-22T08:20:41Z</time>
      </trkpt>
      <trkpt lat="45.30802" lon="5.84023">
        <ele>1489.4399414062</ele>
        <time>2017-12-22T08:20:47Z</time>
      </trkpt>
      <trkpt lat="45.30801" lon="5.84016">
        <ele>1489.4399414062</ele>
        <time>2017-12-22T08:20:52Z</time>
      </trkpt>
      <trkpt lat="45.30799" lon="5.84009">
        <ele>1492.4399414062</ele>
        <time>2017-12-22T08:20:57Z</time>
      </trkpt>
      <trkpt lat="45.308" lon="5.84002">
        <ele>1490.4399414062</ele>
        <time>2017-12-22T08:21:01Z</time>
      </trkpt>
      <trkpt lat="45.30801" lon="5.83995">
        <ele>1494.4399414062</ele>
        <time>2017-12-22T08:21:07Z</time>
      </trkpt>
      <trkpt lat="45.30802" lon="5.83988">
        <ele>1501.4399414062</ele>
        <time>2017-12-22T08:21:11Z</time>
      </trkpt>
      <trkpt lat="45.308" lon="5.83982">
        <ele>1500.4399414062</ele>
        <time>2017-12-22T08:21:15Z</time>
      </trkpt>
      <trkpt lat="45.308" lon="5.83975">
        <ele>1505.4399414062</ele>
        <time>2017-12-22T08:21:22Z</time>
      </trkpt>
      <trkpt lat="45.30802" lon="5.83968">
        <ele>1504.4399414062</ele>
        <time>2017-12-22T08:21:27Z</time>
      </trkpt>
      <trkpt lat="45.30803" lon="5.83962">
        <ele>1507.4399414062</ele>
        <time>2017-12-22T08:21:32Z</time>
      </trkpt>
      <trkpt lat="45.30809" lon="5.83965">
        <ele>1505.4399414062</ele>
        <time>2017-12-22T08:21:41Z</time>
      </trkpt>
      <trkpt lat="45.30814" lon="5.83965">
        <ele>1509.4399414062</ele>
        <time>2017-12-22T08:21:45Z</time>
      </trkpt>
      <trkpt lat="45.30819" lon="5.83965">
        <ele>1507.4399414062</ele>
        <time>2017-12-22T08:21:52Z</time>
      </trkpt>
      <trkpt lat="45.30824" lon="5.83966">
        <ele>1506.4399414062</ele>
        <time>2017-12-22T08:21:59Z</time>
      </trkpt>
      <trkpt lat="45.30829" lon="5.83967">
        <ele>1509.4399414062</ele>
        <time>2017-12-22T08:22:04Z</time>
      </trkpt>
      <trkpt lat="45.30833" lon="5.83968">
        <ele>1508.4399414062</ele>
        <time>2017-12-22T08:22:09Z</time>
      </trkpt>
      <trkpt lat="45.30837" lon="5.83965">
        <ele>1514.4399414062</ele>
        <time>2017-12-22T08:22:16Z</time>
      </trkpt>
      <trkpt lat="45.30842" lon="5.8396">
        <ele>1516.4399414062</ele>
        <time>2017-12-22T08:22:20Z</time>
      </trkpt>
      <trkpt lat="45.30847" lon="5.83957">
        <ele>1518.4399414062</ele>
        <time>2017-12-22T08:22:28Z</time>
      </trkpt>
      <trkpt lat="45.30852" lon="5.83954">
        <ele>1517.4399414062</ele>
        <time>2017-12-22T08:22:33Z</time>
      </trkpt>
      <trkpt lat="45.30857" lon="5.83954">
        <ele>1521.4399414062</ele>
        <time>2017-12-22T08:22:39Z</time>
      </trkpt>
      <trkpt lat="45.30862" lon="5.83954">
        <ele>1517.4399414062</ele>
        <time>2017-12-22T08:22:48Z</time>
      </trkpt>
      <trkpt lat="45.30866" lon="5.83957">
        <ele>1517.4399414062</ele>
        <time>2017-12-22T08:22:53Z</time>
      </trkpt>
      <trkpt lat="45.30871" lon="5.83958">
        <ele>1519.4399414062</ele>
        <time>2017-12-22T08:22:59Z</time>
      </trkpt>
      <trkpt lat="45.30873" lon="5.83953">
        <ele>1523.4399414062</ele>
        <time>2017-12-22T08:23:05Z</time>
      </trkpt>
      <trkpt lat="45.30874" lon="5.83946">
        <ele>1523.4399414062</ele>
        <time>2017-12-22T08:23:10Z</time>
      </trkpt>
      <trkpt lat="45.30873" lon="5.83939">
        <ele>1524.4399414062</ele>
        <time>2017-12-22T08:23:14Z</time>
      </trkpt>
      <trkpt lat="45.30872" lon="5.83932">
        <ele>1524.4399414062</ele>
        <time>2017-12-22T08:23:20Z</time>
      </trkpt>
      <trkpt lat="45.30868" lon="5.83927">
        <ele>1528.4399414062</ele>
        <time>2017-12-22T08:23:30Z</time>
      </trkpt>
      <trkpt lat="45.30866" lon="5.83921">
        <ele>1533.4399414062</ele>
        <time>2017-12-22T08:23:36Z</time>
      </trkpt>
      <trkpt lat="45.30864" lon="5.83915">
        <ele>1535.4399414062</ele>
        <time>2017-12-22T08:23:42Z</time>
      </trkpt>
      <trkpt lat="45.3086" lon="5.83911">
        <ele>1534.4399414062</ele>
        <time>2017-12-22T08:23:46Z</time>
      </trkpt>
      <trkpt lat="45.30857" lon="5.83906">
        <ele>1536.4399414062</ele>
        <time>2017-12-22T08:23:56Z</time>
      </trkpt>
      <trkpt lat="45.30855" lon="5.83897">
        <ele>1541.4399414062</ele>
        <time>2017-12-22T08:23:59Z</time>
      </trkpt>
      <trkpt lat="45.30851" lon="5.83893">
        <ele>1544.4399414062</ele>
        <time>2017-12-22T08:24:03Z</time>
      </trkpt>
      <trkpt lat="45.30848" lon="5.83887">
        <ele>1545.4399414062</ele>
        <time>2017-12-22T08:24:09Z</time>
      </trkpt>
      <trkpt lat="45.30848" lon="5.8388">
        <ele>1541.4399414062</ele>
        <time>2017-12-22T08:24:18Z</time>
      </trkpt>
      <trkpt lat="45.30846" lon="5.83874">
        <ele>1539.4399414062</ele>
        <time>2017-12-22T08:24:21Z</time>
      </trkpt>
      <trkpt lat="45.30844" lon="5.83867">
        <ele>1539.4399414062</ele>
        <time>2017-12-22T08:24:31Z</time>
      </trkpt>
      <trkpt lat="45.30841" lon="5.83862">
        <ele>1547.4399414062</ele>
        <time>2017-12-22T08:24:39Z</time>
      </trkpt>
      <trkpt lat="45.30839" lon="5.83855">
        <ele>1547.4399414062</ele>
        <time>2017-12-22T08:24:43Z</time>
      </trkpt>
      <trkpt lat="45.30837" lon="5.83849">
        <ele>1549.4399414062</ele>
        <time>2017-12-22T08:24:49Z</time>
      </trkpt>
      <trkpt lat="45.30835" lon="5.83842">
        <ele>1552.4399414062</ele>
        <time>2017-12-22T08:24:58Z</time>
      </trkpt>
      <trkpt lat="45.30836" lon="5.83836">
        <ele>1551.4399414062</ele>
        <time>2017-12-22T08:25:00Z</time>
      </trkpt>
      <trkpt lat="45.30841" lon="5.83837">
        <ele>1554.4399414062</ele>
        <time>2017-12-22T08:25:04Z</time>
      </trkpt>
      <trkpt lat="45.30846" lon="5.83835">
        <ele>1555.4399414062</ele>
        <time>2017-12-22T08:25:10Z</time>
      </trkpt>
      <trkpt lat="45.30851" lon="5.83834">
        <ele>1555.4399414062</ele>
        <time>2017-12-22T08:25:19Z</time>
      </trkpt>
      <trkpt lat="45.30855" lon="5.8383">
        <ele>1556.4399414062</ele>
        <time>2017-12-22T08:25:27Z</time>
      </trkpt>
      <trkpt lat="45.30859" lon="5.83834">
        <ele>1560.4399414062</ele>
        <time>2017-12-22T08:25:36Z</time>
      </trkpt>
      <trkpt lat="45.30864" lon="5.83836">
        <ele>1564.4399414062</ele>
        <time>2017-12-22T08:25:44Z</time>
      </trkpt>
      <trkpt lat="45.30869" lon="5.83835">
        <ele>1567.4399414062</ele>
        <time>2017-12-22T08:25:51Z</time>
      </trkpt>
      <trkpt lat="45.30874" lon="5.83836">
        <ele>1566.4399414062</ele>
        <time>2017-12-22T08:25:56Z</time>
      </trkpt>
      <trkpt lat="45.30878" lon="5.83832">
        <ele>1572.4399414062</ele>
        <time>2017-12-22T08:26:07Z</time>
      </trkpt>
      <trkpt lat="45.30875" lon="5.83826">
        <ele>1572.4399414062</ele>
        <time>2017-12-22T08:26:11Z</time>
      </trkpt>
      <trkpt lat="45.30874" lon="5.83819">
        <ele>1569.4399414062</ele>
        <time>2017-12-22T08:26:17Z</time>
      </trkpt>
      <trkpt lat="45.30871" lon="5.83814">
        <ele>1569.4399414062</ele>
        <time>2017-12-22T08:26:21Z</time>
      </trkpt>
      <trkpt lat="45.30866" lon="5.8381">
        <ele>1567.4399414062</ele>
        <time>2017-12-22T08:26:31Z</time>
      </trkpt>
      <trkpt lat="45.30866" lon="5.83803">
        <ele>1568.4399414062</ele>
        <time>2017-12-22T08:26:34Z</time>
      </trkpt>
      <trkpt lat="45.30862" lon="5.83797">
        <ele>1569.4399414062</ele>
        <time>2017-12-22T08:26:41Z</time>
      </trkpt>
      <trkpt lat="45.30858" lon="5.83792">
        <ele>1572.4399414062</ele>
        <time>2017-12-22T08:26:51Z</time>
      </trkpt>
      <trkpt lat="45.30863" lon="5.83791">
        <ele>1572.4399414062</ele>
        <time>2017-12-22T08:27:03Z</time>
      </trkpt>
      <trkpt lat="45.30867" lon="5.83795">
        <ele>1576.4399414062</ele>
        <time>2017-12-22T08:27:11Z</time>
      </trkpt>
      <trkpt lat="45.30872" lon="5.83793">
        <ele>1577.4399414062</ele>
        <time>2017-12-22T08:27:15Z</time>
      </trkpt>
      <trkpt lat="45.30877" lon="5.83794">
        <ele>1580.4399414062</ele>
        <time>2017-12-22T08:27:21Z</time>
      </trkpt>
      <trkpt lat="45.30882" lon="5.83792">
        <ele>1584.4399414062</ele>
        <time>2017-12-22T08:27:29Z</time>
      </trkpt>
      <trkpt lat="45.30887" lon="5.83792">
        <ele>1589.4399414062</ele>
        <time>2017-12-22T08:27:34Z</time>
      </trkpt>
      <trkpt lat="45.30892" lon="5.83794">
        <ele>1589.4399414062</ele>
        <time>2017-12-22T08:27:40Z</time>
      </trkpt>
      <trkpt lat="45.30897" lon="5.83794">
        <ele>1588.4399414062</ele>
        <time>2017-12-22T08:27:46Z</time>
      </trkpt>
      <trkpt lat="45.30901" lon="5.83794">
        <ele>1589.4399414062</ele>
        <time>2017-12-22T08:27:51Z</time>
      </trkpt>
      <trkpt lat="45.30907" lon="5.83795">
        <ele>1593.4399414062</ele>
        <time>2017-12-22T08:27:59Z</time>
      </trkpt>
      <trkpt lat="45.30912" lon="5.83797">
        <ele>1593.4399414062</ele>
        <time>2017-12-22T08:28:08Z</time>
      </trkpt>
      <trkpt lat="45.3091" lon="5.83789">
        <ele>1602.4399414062</ele>
        <time>2017-12-22T08:28:15Z</time>
      </trkpt>
      <trkpt lat="45.30907" lon="5.83783">
        <ele>1598.4399414062</ele>
        <time>2017-12-22T08:28:40Z</time>
      </trkpt>
      <trkpt lat="45.30904" lon="5.83778">
        <ele>1602.4399414062</ele>
        <time>2017-12-22T08:28:44Z</time>
      </trkpt>
      <trkpt lat="45.30901" lon="5.83773">
        <ele>1608.4399414062</ele>
        <time>2017-12-22T08:28:48Z</time>
      </trkpt>
      <trkpt lat="45.30899" lon="5.83766">
        <ele>1607.4399414062</ele>
        <time>2017-12-22T08:28:56Z</time>
      </trkpt>
      <trkpt lat="45.30896" lon="5.8376">
        <ele>1610.4399414062</ele>
        <time>2017-12-22T08:28:59Z</time>
      </trkpt>
      <trkpt lat="45.30891" lon="5.83754">
        <ele>1612.4399414062</ele>
        <time>2017-12-22T08:29:03Z</time>
      </trkpt>
      <trkpt lat="45.30886" lon="5.83751">
        <ele>1611.4399414062</ele>
        <time>2017-12-22T08:29:08Z</time>
      </trkpt>
      <trkpt lat="45.30883" lon="5.83747">
        <ele>1611.4399414062</ele>
        <time>2017-12-22T08:29:17Z</time>
      </trkpt>
      <trkpt lat="45.30879" lon="5.83742">
        <ele>1609.4399414062</ele>
        <time>2017-12-22T08:29:21Z</time>
      </trkpt>
      <trkpt lat="45.30876" lon="5.83736">
        <ele>1613.4399414062</ele>
        <time>2017-12-22T08:29:24Z</time>
      </trkpt>
      <trkpt lat="45.30873" lon="5.83731">
        <ele>1614.4399414062</ele>
        <time>2017-12-22T08:29:27Z</time>
      </trkpt>
      <trkpt lat="45.3087" lon="5.83726">
        <ele>1611.4399414062</ele>
        <time>2017-12-22T08:29:33Z</time>
      </trkpt>
      <trkpt lat="45.30868" lon="5.8372">
        <ele>1611.4399414062</ele>
        <time>2017-12-22T08:29:37Z</time>
      </trkpt>
      <trkpt lat="45.30864" lon="5.83716">
        <ele>1613.4399414062</ele>
        <time>2017-12-22T08:29:43Z</time>
      </trkpt>
      <trkpt lat="45.30861" lon="5.83711">
        <ele>1614.4399414062</ele>
        <time>2017-12-22T08:29:49Z</time>
      </trkpt>
      <trkpt lat="45.30859" lon="5.83705">
        <ele>1614.4399414062</ele>
        <time>2017-12-22T08:29:56Z</time>
      </trkpt>
      <trkpt lat="45.30856" lon="5.83701">
        <ele>1616.4399414062</ele>
        <time>2017-12-22T08:30:02Z</time>
      </trkpt>
      <trkpt lat="45.30853" lon="5.8369">
        <ele>1620.4399414062</ele>
        <time>2017-12-22T08:30:15Z</time>
      </trkpt>
      <trkpt lat="45.30849" lon="5.83686">
        <ele>1620.4399414062</ele>
        <time>2017-12-22T08:30:18Z</time>
      </trkpt>
      <trkpt lat="45.30845" lon="5.8368">
        <ele>1625.4399414062</ele>
        <time>2017-12-22T08:30:27Z</time>
      </trkpt>
      <trkpt lat="45.30841" lon="5.83677">
        <ele>1625.4399414062</ele>
        <time>2017-12-22T08:30:31Z</time>
      </trkpt>
      <trkpt lat="45.30839" lon="5.8367">
        <ele>1626.4399414062</ele>
        <time>2017-12-22T08:30:37Z</time>
      </trkpt>
      <trkpt lat="45.30835" lon="5.83665">
        <ele>1621.4399414062</ele>
        <time>2017-12-22T08:30:42Z</time>
      </trkpt>
      <trkpt lat="45.30833" lon="5.83659">
        <ele>1623.4399414062</ele>
        <time>2017-12-22T08:30:49Z</time>
      </trkpt>
      <trkpt lat="45.3083" lon="5.83654">
        <ele>1628.4399414062</ele>
        <time>2017-12-22T08:30:59Z</time>
      </trkpt>
      <trkpt lat="45.30835" lon="5.83651">
        <ele>1629.4399414062</ele>
        <time>2017-12-22T08:31:22Z</time>
      </trkpt>
      <trkpt lat="45.3084" lon="5.83652">
        <ele>1634.4399414062</ele>
        <time>2017-12-22T08:31:25Z</time>
      </trkpt>
      <trkpt lat="45.30843" lon="5.83647">
        <ele>1637.4399414062</ele>
        <time>2017-12-22T08:31:35Z</time>
      </trkpt>
      <trkpt lat="45.30838" lon="5.83644">
        <ele>1636.4399414062</ele>
        <time>2017-12-22T08:31:41Z</time>
      </trkpt>
      <trkpt lat="45.30837" lon="5.83637">
        <ele>1637.4399414062</ele>
        <time>2017-12-22T08:31:50Z</time>
      </trkpt>
      <trkpt lat="45.30841" lon="5.83636">
        <ele>1641.4399414062</ele>
        <time>2017-12-22T08:31:58Z</time>
      </trkpt>
      <trkpt lat="45.30846" lon="5.83637">
        <ele>1644.4399414062</ele>
        <time>2017-12-22T08:32:02Z</time>
      </trkpt>
      <trkpt lat="45.30851" lon="5.83636">
        <ele>1646.4399414062</ele>
        <time>2017-12-22T08:32:07Z</time>
      </trkpt>
      <trkpt lat="45.30855" lon="5.83635">
        <ele>1647.4399414062</ele>
        <time>2017-12-22T08:32:13Z</time>
      </trkpt>
      <trkpt lat="45.3086" lon="5.83633">
        <ele>1647.4399414062</ele>
        <time>2017-12-22T08:32:20Z</time>
      </trkpt>
      <trkpt lat="45.30858" lon="5.83627">
        <ele>1647.4399414062</ele>
        <time>2017-12-22T08:32:37Z</time>
      </trkpt>
      <trkpt lat="45.30858" lon="5.83619">
        <ele>1647.4399414062</ele>
        <time>2017-12-22T08:32:49Z</time>
      </trkpt>
      <trkpt lat="45.30863" lon="5.83614">
        <ele>1653.4399414062</ele>
        <time>2017-12-22T08:33:05Z</time>
      </trkpt>
      <trkpt lat="45.30867" lon="5.83611">
        <ele>1656.4399414062</ele>
        <time>2017-12-22T08:33:13Z</time>
      </trkpt>
      <trkpt lat="45.30872" lon="5.83609">
        <ele>1655.4399414062</ele>
        <time>2017-12-22T08:33:22Z</time>
      </trkpt>
      <trkpt lat="45.30877" lon="5.83607">
        <ele>1657.4399414062</ele>
        <time>2017-12-22T08:33:29Z</time>
      </trkpt>
      <trkpt lat="45.30881" lon="5.8361">
        <ele>1662.4399414062</ele>
        <time>2017-12-22T08:33:44Z</time>
      </trkpt>
      <trkpt lat="45.30879" lon="5.83604">
        <ele>1665.4399414062</ele>
        <time>2017-12-22T08:33:52Z</time>
      </trkpt>
      <trkpt lat="45.30878" lon="5.83596">
        <ele>1667.4399414062</ele>
        <time>2017-12-22T08:34:00Z</time>
      </trkpt>
      <trkpt lat="45.30877" lon="5.83589">
        <ele>1667.4399414062</ele>
        <time>2017-12-22T08:34:07Z</time>
      </trkpt>
      <trkpt lat="45.30874" lon="5.83584">
        <ele>1669.4399414062</ele>
        <time>2017-12-22T08:34:12Z</time>
      </trkpt>
      <trkpt lat="45.30872" lon="5.83579">
        <ele>1668.4399414062</ele>
        <time>2017-12-22T08:34:19Z</time>
      </trkpt>
      <trkpt lat="45.30874" lon="5.83573">
        <ele>1671.4399414062</ele>
        <time>2017-12-22T08:34:28Z</time>
      </trkpt>
      <trkpt lat="45.30879" lon="5.83572">
        <ele>1672.4399414062</ele>
        <time>2017-12-22T08:34:35Z</time>
      </trkpt>
      <trkpt lat="45.30884" lon="5.83573">
        <ele>1674.4399414062</ele>
        <time>2017-12-22T08:34:42Z</time>
      </trkpt>
      <trkpt lat="45.30889" lon="5.83572">
        <ele>1675.4399414062</ele>
        <time>2017-12-22T08:34:51Z</time>
      </trkpt>
      <trkpt lat="45.30893" lon="5.83574">
        <ele>1678.4399414062</ele>
        <time>2017-12-22T08:34:58Z</time>
      </trkpt>
      <trkpt lat="45.30898" lon="5.83571">
        <ele>1680.4399414062</ele>
        <time>2017-12-22T08:35:05Z</time>
      </trkpt>
      <trkpt lat="45.30903" lon="5.83572">
        <ele>1684.4399414062</ele>
        <time>2017-12-22T08:35:15Z</time>
      </trkpt>
      <trkpt lat="45.30908" lon="5.83573">
        <ele>1685.4399414062</ele>
        <time>2017-12-22T08:35:25Z</time>
      </trkpt>
      <trkpt lat="45.30913" lon="5.83573">
        <ele>1689.4399414062</ele>
        <time>2017-12-22T08:35:34Z</time>
      </trkpt>
      <trkpt lat="45.30918" lon="5.83575">
        <ele>1691.4399414062</ele>
        <time>2017-12-22T08:35:39Z</time>
      </trkpt>
      <trkpt lat="45.30922" lon="5.83576">
        <ele>1696.4399414062</ele>
        <time>2017-12-22T08:35:47Z</time>
      </trkpt>
      <trkpt lat="45.30928" lon="5.83575">
        <ele>1694.4399414062</ele>
        <time>2017-12-22T08:35:58Z</time>
      </trkpt>
      <trkpt lat="45.30932" lon="5.83573">
        <ele>1697.4399414062</ele>
        <time>2017-12-22T08:36:06Z</time>
      </trkpt>
      <trkpt lat="45.30937" lon="5.83571">
        <ele>1702.4399414062</ele>
        <time>2017-12-22T08:36:20Z</time>
      </trkpt>
      <trkpt lat="45.30942" lon="5.83572">
        <ele>1703.4399414062</ele>
        <time>2017-12-22T08:36:34Z</time>
      </trkpt>
      <trkpt lat="45.30946" lon="5.83574">
        <ele>1704.4399414062</ele>
        <time>2017-12-22T08:36:40Z</time>
      </trkpt>
      <trkpt lat="45.30951" lon="5.83574">
        <ele>1706.4399414062</ele>
        <time>2017-12-22T08:36:48Z</time>
      </trkpt>
      <trkpt lat="45.30956" lon="5.83573">
        <ele>1709.4399414062</ele>
        <time>2017-12-22T08:36:59Z</time>
      </trkpt>
      <trkpt lat="45.30961" lon="5.83573">
        <ele>1710.4399414062</ele>
        <time>2017-12-22T08:37:10Z</time>
      </trkpt>
      <trkpt lat="45.30966" lon="5.83573">
        <ele>1712.4399414062</ele>
        <time>2017-12-22T08:37:17Z</time>
      </trkpt>
      <trkpt lat="45.30971" lon="5.83573">
        <ele>1711.4399414062</ele>
        <time>2017-12-22T08:37:29Z</time>
      </trkpt>
      <trkpt lat="45.30975" lon="5.83571">
        <ele>1712.4399414062</ele>
        <time>2017-12-22T08:37:36Z</time>
      </trkpt>
      <trkpt lat="45.3098" lon="5.83569">
        <ele>1717.4399414062</ele>
        <time>2017-12-22T08:37:41Z</time>
      </trkpt>
      <trkpt lat="45.30984" lon="5.83568">
        <ele>1716.4399414062</ele>
        <time>2017-12-22T08:37:50Z</time>
      </trkpt>
      <trkpt lat="45.30989" lon="5.83564">
        <ele>1717.4399414062</ele>
        <time>2017-12-22T08:37:57Z</time>
      </trkpt>
      <trkpt lat="45.30993" lon="5.83563">
        <ele>1720.4399414062</ele>
        <time>2017-12-22T08:38:03Z</time>
      </trkpt>
      <trkpt lat="45.30996" lon="5.83569">
        <ele>1720.4399414062</ele>
        <time>2017-12-22T08:38:11Z</time>
      </trkpt>
      <trkpt lat="45.31001" lon="5.83572">
        <ele>1721.4399414062</ele>
        <time>2017-12-22T08:38:17Z</time>
      </trkpt>
      <trkpt lat="45.31005" lon="5.83574">
        <ele>1722.4399414062</ele>
        <time>2017-12-22T08:38:23Z</time>
      </trkpt>
      <trkpt lat="45.3101" lon="5.83575">
        <ele>1726.4399414062</ele>
        <time>2017-12-22T08:38:27Z</time>
      </trkpt>
      <trkpt lat="45.31014" lon="5.83573">
        <ele>1728.4399414062</ele>
        <time>2017-12-22T08:38:37Z</time>
      </trkpt>
      <trkpt lat="45.3102" lon="5.83572">
        <ele>1730.4399414062</ele>
        <time>2017-12-22T08:38:45Z</time>
      </trkpt>
      <trkpt lat="45.31025" lon="5.83574">
        <ele>1730.4399414062</ele>
        <time>2017-12-22T08:38:51Z</time>
      </trkpt>
      <trkpt lat="45.3103" lon="5.83573">
        <ele>1730.4399414062</ele>
        <time>2017-12-22T08:38:59Z</time>
      </trkpt>
      <trkpt lat="45.31035" lon="5.83573">
        <ele>1732.4399414062</ele>
        <time>2017-12-22T08:39:07Z</time>
      </trkpt>
      <trkpt lat="45.31041" lon="5.83571">
        <ele>1735.4399414062</ele>
        <time>2017-12-22T08:39:18Z</time>
      </trkpt>
      <trkpt lat="45.31045" lon="5.83571">
        <ele>1735.4399414062</ele>
        <time>2017-12-22T08:39:26Z</time>
      </trkpt>
      <trkpt lat="45.3105" lon="5.83569">
        <ele>1740.4399414062</ele>
        <time>2017-12-22T08:39:33Z</time>
      </trkpt>
      <trkpt lat="45.31055" lon="5.83568">
        <ele>1740.4399414062</ele>
        <time>2017-12-22T08:39:40Z</time>
      </trkpt>
      <trkpt lat="45.3106" lon="5.83566">
        <ele>1741.4399414062</ele>
        <time>2017-12-22T08:39:44Z</time>
      </trkpt>
      <trkpt lat="45.31065" lon="5.83563">
        <ele>1739.4399414062</ele>
        <time>2017-12-22T08:39:49Z</time>
      </trkpt>
      <trkpt lat="45.31069" lon="5.83564">
        <ele>1739.4399414062</ele>
        <time>2017-12-22T08:39:52Z</time>
      </trkpt>
      <trkpt lat="45.31074" lon="5.83562">
        <ele>1741.4399414062</ele>
        <time>2017-12-22T08:39:55Z</time>
      </trkpt>
      <trkpt lat="45.31079" lon="5.83559">
        <ele>1740.4399414062</ele>
        <time>2017-12-22T08:40:03Z</time>
      </trkpt>
      <trkpt lat="45.31084" lon="5.83558">
        <ele>1740.4399414062</ele>
        <time>2017-12-22T08:40:07Z</time>
      </trkpt>
      <trkpt lat="45.31089" lon="5.83556">
        <ele>1744.4399414062</ele>
        <time>2017-12-22T08:40:13Z</time>
      </trkpt>
      <trkpt lat="45.31095" lon="5.83554">
        <ele>1747.4399414062</ele>
        <time>2017-12-22T08:40:21Z</time>
      </trkpt>
      <trkpt lat="45.311" lon="5.83553">
        <ele>1746.4399414062</ele>
        <time>2017-12-22T08:40:26Z</time>
      </trkpt>
      <trkpt lat="45.31104" lon="5.83553">
        <ele>1747.4399414062</ele>
        <time>2017-12-22T08:40:31Z</time>
      </trkpt>
      <trkpt lat="45.31109" lon="5.83555">
        <ele>1749.4399414062</ele>
        <time>2017-12-22T08:40:37Z</time>
      </trkpt>
      <trkpt lat="45.31114" lon="5.83556">
        <ele>1750.4399414062</ele>
        <time>2017-12-22T08:40:41Z</time>
      </trkpt>
      <trkpt lat="45.31118" lon="5.83553">
        <ele>1752.4399414062</ele>
        <time>2017-12-22T08:40:47Z</time>
      </trkpt>
      <trkpt lat="45.31121" lon="5.83548">
        <ele>1755.4399414062</ele>
        <time>2017-12-22T08:40:56Z</time>
      </trkpt>
      <trkpt lat="45.31125" lon="5.83545">
        <ele>1757.4399414062</ele>
        <time>2017-12-22T08:41:01Z</time>
      </trkpt>
      <trkpt lat="45.3113" lon="5.83543">
        <ele>1758.4399414062</ele>
        <time>2017-12-22T08:41:12Z</time>
      </trkpt>
      <trkpt lat="45.31135" lon="5.83544">
        <ele>1757.4399414062</ele>
        <time>2017-12-22T08:45:09Z</time>
      </trkpt>
      <trkpt lat="45.3114" lon="5.83543">
        <ele>1757.4399414062</ele>
        <time>2017-12-22T08:45:12Z</time>
      </trkpt>
      <trkpt lat="45.31145" lon="5.83543">
        <ele>1756.4399414062</ele>
        <time>2017-12-22T08:45:14Z</time>
      </trkpt>
      <trkpt lat="45.3115" lon="5.83538">
        <ele>1755.4399414062</ele>
        <time>2017-12-22T08:45:16Z</time>
      </trkpt>
      <trkpt lat="45.31155" lon="5.83531">
        <ele>1752.4399414062</ele>
        <time>2017-12-22T08:45:18Z</time>
      </trkpt>
      <trkpt lat="45.31155" lon="5.83522">
        <ele>1750.4399414062</ele>
        <time>2017-12-22T08:45:20Z</time>
      </trkpt>
      <trkpt lat="45.31159" lon="5.83516">
        <ele>1748.4399414062</ele>
        <time>2017-12-22T08:45:22Z</time>
      </trkpt>
      <trkpt lat="45.31157" lon="5.8351">
        <ele>1746.4399414062</ele>
        <time>2017-12-22T08:45:24Z</time>
      </trkpt>
      <trkpt lat="45.31154" lon="5.83506">
        <ele>1745.4399414062</ele>
        <time>2017-12-22T08:45:26Z</time>
      </trkpt>
      <trkpt lat="45.3116" lon="5.83505">
        <ele>1741.4399414062</ele>
        <time>2017-12-22T08:45:29Z</time>
      </trkpt>
      <trkpt lat="45.31166" lon="5.83505">
        <ele>1740.4399414062</ele>
        <time>2017-12-22T08:45:31Z</time>
      </trkpt>
      <trkpt lat="45.31171" lon="5.83507">
        <ele>1738.4399414062</ele>
        <time>2017-12-22T08:45:34Z</time>
      </trkpt>
      <trkpt lat="45.31177" lon="5.83505">
        <ele>1737.4399414062</ele>
        <time>2017-12-22T08:45:36Z</time>
      </trkpt>
      <trkpt lat="45.31185" lon="5.83499">
        <ele>1733.4399414062</ele>
        <time>2017-12-22T08:45:38Z</time>
      </trkpt>
      <trkpt lat="45.31197" lon="5.83495">
        <ele>1729.4399414062</ele>
        <time>2017-12-22T08:45:41Z</time>
      </trkpt>
      <trkpt lat="45.31196" lon="5.83487">
        <ele>1726.4399414062</ele>
        <time>2017-12-22T08:45:43Z</time>
      </trkpt>
      <trkpt lat="45.31193" lon="5.83476">
        <ele>1723.4399414062</ele>
        <time>2017-12-22T08:45:45Z</time>
      </trkpt>
      <trkpt lat="45.31194" lon="5.83469">
        <ele>1722.4399414062</ele>
        <time>2017-12-22T08:45:47Z</time>
      </trkpt>
      <trkpt lat="45.31197" lon="5.83459">
        <ele>1721.4399414062</ele>
        <time>2017-12-22T08:45:49Z</time>
      </trkpt>
      <trkpt lat="45.31206" lon="5.83456">
        <ele>1721.4399414062</ele>
        <time>2017-12-22T08:45:51Z</time>
      </trkpt>
      <trkpt lat="45.3121" lon="5.8345">
        <ele>1718.4399414062</ele>
        <time>2017-12-22T08:45:53Z</time>
      </trkpt>
      <trkpt lat="45.31209" lon="5.83441">
        <ele>1717.4399414062</ele>
        <time>2017-12-22T08:45:55Z</time>
      </trkpt>
      <trkpt lat="45.31207" lon="5.83433">
        <ele>1714.4399414062</ele>
        <time>2017-12-22T08:45:56Z</time>
      </trkpt>
      <trkpt lat="45.31205" lon="5.83417">
        <ele>1705.4399414062</ele>
        <time>2017-12-22T08:45:59Z</time>
      </trkpt>
      <trkpt lat="45.31207" lon="5.83405">
        <ele>1697.4399414062</ele>
        <time>2017-12-22T08:46:01Z</time>
      </trkpt>
      <trkpt lat="45.31209" lon="5.83389">
        <ele>1691.4399414062</ele>
        <time>2017-12-22T08:46:03Z</time>
      </trkpt>
      <trkpt lat="45.31213" lon="5.8337">
        <ele>1685.4399414062</ele>
        <time>2017-12-22T08:46:05Z</time>
      </trkpt>
      <trkpt lat="45.31212" lon="5.8335">
        <ele>1679.4399414062</ele>
        <time>2017-12-22T08:46:07Z</time>
      </trkpt>
      <trkpt lat="45.31217" lon="5.83332">
        <ele>1670.4399414062</ele>
        <time>2017-12-22T08:46:09Z</time>
      </trkpt>
      <trkpt lat="45.31226" lon="5.83313">
        <ele>1663.4399414062</ele>
        <time>2017-12-22T08:46:11Z</time>
      </trkpt>
      <trkpt lat="45.31232" lon="5.83295">
        <ele>1659.4399414062</ele>
        <time>2017-12-22T08:46:13Z</time>
      </trkpt>
      <trkpt lat="45.31237" lon="5.83274">
        <ele>1656.4399414062</ele>
        <time>2017-12-22T08:46:15Z</time>
      </trkpt>
      <trkpt lat="45.31244" lon="5.83261">
        <ele>1653.4399414062</ele>
        <time>2017-12-22T08:46:17Z</time>
      </trkpt>
      <trkpt lat="45.31244" lon="5.83254">
        <ele>1644.4399414062</ele>
        <time>2017-12-22T08:46:30Z</time>
      </trkpt>
      <trkpt lat="45.31241" lon="5.83247">
        <ele>1643.4399414062</ele>
        <time>2017-12-22T08:46:33Z</time>
      </trkpt>
      <trkpt lat="45.31234" lon="5.83239">
        <ele>1642.4399414062</ele>
        <time>2017-12-22T08:46:36Z</time>
      </trkpt>
      <trkpt lat="45.31227" lon="5.83234">
        <ele>1642.4399414062</ele>
        <time>2017-12-22T08:46:38Z</time>
      </trkpt>
      <trkpt lat="45.3122" lon="5.8323">
        <ele>1641.4399414062</ele>
        <time>2017-12-22T08:46:40Z</time>
      </trkpt>
      <trkpt lat="45.31211" lon="5.83226">
        <ele>1640.4399414062</ele>
        <time>2017-12-22T08:46:42Z</time>
      </trkpt>
      <trkpt lat="45.31202" lon="5.83223">
        <ele>1637.4399414062</ele>
        <time>2017-12-22T08:46:44Z</time>
      </trkpt>
      <trkpt lat="45.31191" lon="5.83217">
        <ele>1637.4399414062</ele>
        <time>2017-12-22T08:46:46Z</time>
      </trkpt>
      <trkpt lat="45.31181" lon="5.8321">
        <ele>1634.4399414062</ele>
        <time>2017-12-22T08:46:48Z</time>
      </trkpt>
      <trkpt lat="45.31167" lon="5.83201">
        <ele>1632.4399414062</ele>
        <time>2017-12-22T08:46:50Z</time>
      </trkpt>
      <trkpt lat="45.31152" lon="5.83192">
        <ele>1631.4399414062</ele>
        <time>2017-12-22T08:46:52Z</time>
      </trkpt>
      <trkpt lat="45.31138" lon="5.83184">
        <ele>1631.4399414062</ele>
        <time>2017-12-22T08:46:54Z</time>
      </trkpt>
      <trkpt lat="45.31123" lon="5.83175">
        <ele>1631.4399414062</ele>
        <time>2017-12-22T08:46:56Z</time>
      </trkpt>
      <trkpt lat="45.31108" lon="5.83164">
        <ele>1629.4399414062</ele>
        <time>2017-12-22T08:46:58Z</time>
      </trkpt>
      <trkpt lat="45.31094" lon="5.83151">
        <ele>1627.4399414062</ele>
        <time>2017-12-22T08:47:00Z</time>
      </trkpt>
      <trkpt lat="45.31083" lon="5.83136">
        <ele>1626.4389648438</ele>
        <time>2017-12-22T08:47:02Z</time>
      </trkpt>
      <trkpt lat="45.31076" lon="5.83117">
        <ele>1625.4389648438</ele>
        <time>2017-12-22T08:47:04Z</time>
      </trkpt>
      <trkpt lat="45.31074" lon="5.83102">
        <ele>1613.4389648438</ele>
        <time>2017-12-22T08:47:06Z</time>
      </trkpt>
      <trkpt lat="45.31065" lon="5.83086">
        <ele>1624.4389648438</ele>
        <time>2017-12-22T08:47:08Z</time>
      </trkpt>
      <trkpt lat="45.31054" lon="5.83067">
        <ele>1616.4389648438</ele>
        <time>2017-12-22T08:47:11Z</time>
      </trkpt>
      <trkpt lat="45.31045" lon="5.83051">
        <ele>1609.4389648438</ele>
        <time>2017-12-22T08:47:13Z</time>
      </trkpt>
      <trkpt lat="45.31046" lon="5.83031">
        <ele>1601.4389648438</ele>
        <time>2017-12-22T08:47:15Z</time>
      </trkpt>
      <trkpt lat="45.31037" lon="5.83016">
        <ele>1594.4389648438</ele>
        <time>2017-12-22T08:47:17Z</time>
      </trkpt>
      <trkpt lat="45.31026" lon="5.83002">
        <ele>1590.4389648438</ele>
        <time>2017-12-22T08:47:19Z</time>
      </trkpt>
      <trkpt lat="45.31009" lon="5.82991">
        <ele>1586.4389648438</ele>
        <time>2017-12-22T08:47:21Z</time>
      </trkpt>
      <trkpt lat="45.30994" lon="5.82985">
        <ele>1582.4389648438</ele>
        <time>2017-12-22T08:47:23Z</time>
      </trkpt>
      <trkpt lat="45.30982" lon="5.82974">
        <ele>1578.4389648438</ele>
        <time>2017-12-22T08:47:25Z</time>
      </trkpt>
      <trkpt lat="45.30969" lon="5.82963">
        <ele>1575.4389648438</ele>
        <time>2017-12-22T08:47:27Z</time>
      </trkpt>
      <trkpt lat="45.30959" lon="5.82952">
        <ele>1572.4389648438</ele>
        <time>2017-12-22T08:47:29Z</time>
      </trkpt>
      <trkpt lat="45.30952" lon="5.82937">
        <ele>1567.4389648438</ele>
        <time>2017-12-22T08:47:31Z</time>
      </trkpt>
      <trkpt lat="45.30944" lon="5.8293">
        <ele>1562.4389648438</ele>
        <time>2017-12-22T08:47:33Z</time>
      </trkpt>
      <trkpt lat="45.30939" lon="5.82922">
        <ele>1560.4389648438</ele>
        <time>2017-12-22T08:47:36Z</time>
      </trkpt>
      <trkpt lat="45.30944" lon="5.8292">
        <ele>1556.4389648438</ele>
        <time>2017-12-22T08:47:48Z</time>
      </trkpt>
      <trkpt lat="45.30936" lon="5.82913">
        <ele>1547.4389648438</ele>
        <time>2017-12-22T08:47:55Z</time>
      </trkpt>
      <trkpt lat="45.30925" lon="5.82908">
        <ele>1542.4389648438</ele>
        <time>2017-12-22T08:47:57Z</time>
      </trkpt>
      <trkpt lat="45.30915" lon="5.82897">
        <ele>1540.4389648438</ele>
        <time>2017-12-22T08:47:59Z</time>
      </trkpt>
      <trkpt lat="45.30901" lon="5.8289">
        <ele>1539.4389648438</ele>
        <time>2017-12-22T08:48:02Z</time>
      </trkpt>
      <trkpt lat="45.30904" lon="5.82884">
        <ele>1536.4389648438</ele>
        <time>2017-12-22T08:48:07Z</time>
      </trkpt>
      <trkpt lat="45.309" lon="5.82878">
        <ele>1525.4389648438</ele>
        <time>2017-12-22T08:48:29Z</time>
      </trkpt>
      <trkpt lat="45.30897" lon="5.82869">
        <ele>1522.4389648438</ele>
        <time>2017-12-22T08:48:31Z</time>
      </trkpt>
      <trkpt lat="45.3089" lon="5.82862">
        <ele>1519.4389648438</ele>
        <time>2017-12-22T08:48:33Z</time>
      </trkpt>
      <trkpt lat="45.30885" lon="5.8286">
        <ele>1515.4389648438</ele>
        <time>2017-12-22T08:48:36Z</time>
      </trkpt>
      <trkpt lat="45.30884" lon="5.82851">
        <ele>1513.4389648438</ele>
        <time>2017-12-22T08:48:41Z</time>
      </trkpt>
      <trkpt lat="45.30884" lon="5.82837">
        <ele>1512.4389648438</ele>
        <time>2017-12-22T08:48:43Z</time>
      </trkpt>
      <trkpt lat="45.3088" lon="5.82821">
        <ele>1511.4389648438</ele>
        <time>2017-12-22T08:48:45Z</time>
      </trkpt>
      <trkpt lat="45.30879" lon="5.82805">
        <ele>1505.4389648438</ele>
        <time>2017-12-22T08:48:47Z</time>
      </trkpt>
      <trkpt lat="45.30878" lon="5.82787">
        <ele>1504.4389648438</ele>
        <time>2017-12-22T08:48:49Z</time>
      </trkpt>
      <trkpt lat="45.30876" lon="5.82769">
        <ele>1503.4389648438</ele>
        <time>2017-12-22T08:48:51Z</time>
      </trkpt>
      <trkpt lat="45.30874" lon="5.82762">
        <ele>1502.4389648438</ele>
        <time>2017-12-22T08:48:59Z</time>
      </trkpt>
      <trkpt lat="45.30874" lon="5.82756">
        <ele>1504.4389648438</ele>
        <time>2017-12-22T08:49:13Z</time>
      </trkpt>
      <trkpt lat="45.30869" lon="5.82745">
        <ele>1494.4389648438</ele>
        <time>2017-12-22T08:49:20Z</time>
      </trkpt>
      <trkpt lat="45.30861" lon="5.8274">
        <ele>1489.4379882812</ele>
        <time>2017-12-22T08:49:22Z</time>
      </trkpt>
      <trkpt lat="45.30854" lon="5.82732">
        <ele>1484.4379882812</ele>
        <time>2017-12-22T08:49:24Z</time>
      </trkpt>
      <trkpt lat="45.30846" lon="5.8272">
        <ele>1476.4379882812</ele>
        <time>2017-12-22T08:49:28Z</time>
      </trkpt>
      <trkpt lat="45.30843" lon="5.82713">
        <ele>1471.4379882812</ele>
        <time>2017-12-22T08:49:30Z</time>
      </trkpt>
      <trkpt lat="45.3084" lon="5.82704">
        <ele>1470.4379882812</ele>
        <time>2017-12-22T08:49:31Z</time>
      </trkpt>
      <trkpt lat="45.30837" lon="5.82688">
        <ele>1470.4379882812</ele>
        <time>2017-12-22T08:49:34Z</time>
      </trkpt>
      <trkpt lat="45.30834" lon="5.82682">
        <ele>1469.4379882812</ele>
        <time>2017-12-22T08:49:45Z</time>
      </trkpt>
      <trkpt lat="45.3083" lon="5.82686">
        <ele>1468.4379882812</ele>
        <time>2017-12-22T08:50:03Z</time>
      </trkpt>
      <trkpt lat="45.30826" lon="5.82691">
        <ele>1467.4379882812</ele>
        <time>2017-12-22T08:50:05Z</time>
      </trkpt>
      <trkpt lat="45.30821" lon="5.82697">
        <ele>1466.4379882812</ele>
        <time>2017-12-22T08:50:07Z</time>
      </trkpt>
      <trkpt lat="45.30816" lon="5.82702">
        <ele>1466.4379882812</ele>
        <time>2017-12-22T08:50:09Z</time>
      </trkpt>
      <trkpt lat="45.30811" lon="5.82695">
        <ele>1466.4379882812</ele>
        <time>2017-12-22T08:50:11Z</time>
      </trkpt>
      <trkpt lat="45.30811" lon="5.82688">
        <ele>1466.4379882812</ele>
        <time>2017-12-22T08:50:13Z</time>
      </trkpt>
      <trkpt lat="45.30811" lon="5.8268">
        <ele>1463.4379882812</ele>
        <time>2017-12-22T08:50:16Z</time>
      </trkpt>
      <trkpt lat="45.30804" lon="5.82685">
        <ele>1460.4379882812</ele>
        <time>2017-12-22T08:50:19Z</time>
      </trkpt>
      <trkpt lat="45.30797" lon="5.82696">
        <ele>1460.4379882812</ele>
        <time>2017-12-22T08:50:21Z</time>
      </trkpt>
      <trkpt lat="45.30787" lon="5.82705">
        <ele>1459.4379882812</ele>
        <time>2017-12-22T08:50:23Z</time>
      </trkpt>
      <trkpt lat="45.30778" lon="5.82711">
        <ele>1458.4379882812</ele>
        <time>2017-12-22T08:50:25Z</time>
      </trkpt>
      <trkpt lat="45.3077" lon="5.82719">
        <ele>1458.4379882812</ele>
        <time>2017-12-22T08:50:27Z</time>
      </trkpt>
      <trkpt lat="45.30764" lon="5.82732">
        <ele>1456.4379882812</ele>
        <time>2017-12-22T08:50:29Z</time>
      </trkpt>
      <trkpt lat="45.30759" lon="5.82744">
        <ele>1454.4379882812</ele>
        <time>2017-12-22T08:50:31Z</time>
      </trkpt>
      <trkpt lat="45.30748" lon="5.8276">
        <ele>1454.4379882812</ele>
        <time>2017-12-22T08:50:33Z</time>
      </trkpt>
      <trkpt lat="45.30737" lon="5.82782">
        <ele>1455.4379882812</ele>
        <time>2017-12-22T08:50:35Z</time>
      </trkpt>
      <trkpt lat="45.30732" lon="5.82795">
        <ele>1453.4379882812</ele>
        <time>2017-12-22T08:50:36Z</time>
      </trkpt>
      <trkpt lat="45.30728" lon="5.82808">
        <ele>1447.4379882812</ele>
        <time>2017-12-22T08:50:37Z</time>
      </trkpt>
      <trkpt lat="45.30718" lon="5.82827">
        <ele>1446.4379882812</ele>
        <time>2017-12-22T08:50:39Z</time>
      </trkpt>
      <trkpt lat="45.30712" lon="5.82836">
        <ele>1444.4379882812</ele>
        <time>2017-12-22T08:50:40Z</time>
      </trkpt>
      <trkpt lat="45.30707" lon="5.82845">
        <ele>1440.4379882812</ele>
        <time>2017-12-22T08:50:41Z</time>
      </trkpt>
      <trkpt lat="45.30698" lon="5.8286">
        <ele>1438.4379882812</ele>
        <time>2017-12-22T08:50:43Z</time>
      </trkpt>
      <trkpt lat="45.30688" lon="5.82878">
        <ele>1437.4379882812</ele>
        <time>2017-12-22T08:50:45Z</time>
      </trkpt>
      <trkpt lat="45.30675" lon="5.82894">
        <ele>1435.4379882812</ele>
        <time>2017-12-22T08:50:47Z</time>
      </trkpt>
      <trkpt lat="45.30669" lon="5.82902">
        <ele>1435.4379882812</ele>
        <time>2017-12-22T08:50:48Z</time>
      </trkpt>
      <trkpt lat="45.30664" lon="5.82912">
        <ele>1434.4379882812</ele>
        <time>2017-12-22T08:50:49Z</time>
      </trkpt>
      <trkpt lat="45.30654" lon="5.8293">
        <ele>1432.4379882812</ele>
        <time>2017-12-22T08:50:51Z</time>
      </trkpt>
      <trkpt lat="45.30647" lon="5.82946">
        <ele>1429.4379882812</ele>
        <time>2017-12-22T08:50:53Z</time>
      </trkpt>
      <trkpt lat="45.3064" lon="5.82964">
        <ele>1429.4379882812</ele>
        <time>2017-12-22T08:50:55Z</time>
      </trkpt>
      <trkpt lat="45.30632" lon="5.82982">
        <ele>1427.4379882812</ele>
        <time>2017-12-22T08:50:57Z</time>
      </trkpt>
      <trkpt lat="45.30624" lon="5.82997">
        <ele>1427.4379882812</ele>
        <time>2017-12-22T08:50:59Z</time>
      </trkpt>
      <trkpt lat="45.30618" lon="5.83013">
        <ele>1427.4379882812</ele>
        <time>2017-12-22T08:51:01Z</time>
      </trkpt>
      <trkpt lat="45.30614" lon="5.83032">
        <ele>1426.4379882812</ele>
        <time>2017-12-22T08:51:03Z</time>
      </trkpt>
      <trkpt lat="45.30609" lon="5.8305">
        <ele>1423.4379882812</ele>
        <time>2017-12-22T08:51:05Z</time>
      </trkpt>
      <trkpt lat="45.30603" lon="5.83063">
        <ele>1423.4379882812</ele>
        <time>2017-12-22T08:51:07Z</time>
      </trkpt>
      <trkpt lat="45.30592" lon="5.8308">
        <ele>1421.4379882812</ele>
        <time>2017-12-22T08:51:09Z</time>
      </trkpt>
      <trkpt lat="45.30589" lon="5.83084">
        <ele>1414.4379882812</ele>
        <time>2017-12-22T08:51:50Z</time>
      </trkpt>
      <trkpt lat="45.30585" lon="5.83091">
        <ele>1414.4379882812</ele>
        <time>2017-12-22T08:51:56Z</time>
      </trkpt>
      <trkpt lat="45.30581" lon="5.83098">
        <ele>1414.4379882812</ele>
        <time>2017-12-22T08:51:59Z</time>
      </trkpt>
      <trkpt lat="45.30577" lon="5.83104">
        <ele>1414.4379882812</ele>
        <time>2017-12-22T08:52:01Z</time>
      </trkpt>
      <trkpt lat="45.30571" lon="5.83114">
        <ele>1412.4379882812</ele>
        <time>2017-12-22T08:52:03Z</time>
      </trkpt>
      <trkpt lat="45.30566" lon="5.83125">
        <ele>1411.4379882812</ele>
        <time>2017-12-22T08:52:05Z</time>
      </trkpt>
      <trkpt lat="45.30562" lon="5.8313">
        <ele>1411.4379882812</ele>
        <time>2017-12-22T08:52:07Z</time>
      </trkpt>
      <trkpt lat="45.30556" lon="5.83135">
        <ele>1408.4379882812</ele>
        <time>2017-12-22T08:52:10Z</time>
      </trkpt>
      <trkpt lat="45.3055" lon="5.83142">
        <ele>1407.4379882812</ele>
        <time>2017-12-22T08:52:12Z</time>
      </trkpt>
      <trkpt lat="45.30543" lon="5.83146">
        <ele>1407.4379882812</ele>
        <time>2017-12-22T08:52:14Z</time>
      </trkpt>
      <trkpt lat="45.30537" lon="5.83152">
        <ele>1406.4379882812</ele>
        <time>2017-12-22T08:52:17Z</time>
      </trkpt>
      <trkpt lat="45.30533" lon="5.83158">
        <ele>1402.4379882812</ele>
        <time>2017-12-22T08:52:21Z</time>
      </trkpt>
      <trkpt lat="45.3053" lon="5.83164">
        <ele>1400.4379882812</ele>
        <time>2017-12-22T08:52:28Z</time>
      </trkpt>
      <trkpt lat="45.30526" lon="5.83172">
        <ele>1398.4379882812</ele>
        <time>2017-12-22T08:52:31Z</time>
      </trkpt>
      <trkpt lat="45.30521" lon="5.83176">
        <ele>1398.4379882812</ele>
        <time>2017-12-22T08:52:33Z</time>
      </trkpt>
      <trkpt lat="45.30517" lon="5.83179">
        <ele>1398.4379882812</ele>
        <time>2017-12-22T08:52:35Z</time>
      </trkpt>
      <trkpt lat="45.30512" lon="5.83183">
        <ele>1398.4379882812</ele>
        <time>2017-12-22T08:52:37Z</time>
      </trkpt>
      <trkpt lat="45.30507" lon="5.83184">
        <ele>1397.4379882812</ele>
        <time>2017-12-22T08:52:38Z</time>
      </trkpt>
      <trkpt lat="45.30498" lon="5.83189">
        <ele>1397.4379882812</ele>
        <time>2017-12-22T08:52:40Z</time>
      </trkpt>
      <trkpt lat="45.30492" lon="5.83192">
        <ele>1396.4379882812</ele>
        <time>2017-12-22T08:52:41Z</time>
      </trkpt>
      <trkpt lat="45.30482" lon="5.83198">
        <ele>1397.4379882812</ele>
        <time>2017-12-22T08:52:43Z</time>
      </trkpt>
      <trkpt lat="45.30472" lon="5.83204">
        <ele>1397.4379882812</ele>
        <time>2017-12-22T08:52:46Z</time>
      </trkpt>
      <trkpt lat="45.30473" lon="5.83195">
        <ele>1388.4379882812</ele>
        <time>2017-12-22T08:52:54Z</time>
      </trkpt>
      <trkpt lat="45.30472" lon="5.83181">
        <ele>1383.4379882812</ele>
        <time>2017-12-22T08:52:56Z</time>
      </trkpt>
      <trkpt lat="45.30466" lon="5.83167">
        <ele>1380.4379882812</ele>
        <time>2017-12-22T08:52:58Z</time>
      </trkpt>
      <trkpt lat="45.30457" lon="5.83155">
        <ele>1379.4379882812</ele>
        <time>2017-12-22T08:53:00Z</time>
      </trkpt>
      <trkpt lat="45.30451" lon="5.83143">
        <ele>1378.4379882812</ele>
        <time>2017-12-22T08:53:01Z</time>
      </trkpt>
      <trkpt lat="45.30438" lon="5.83128">
        <ele>1374.4379882812</ele>
        <time>2017-12-22T08:53:03Z</time>
      </trkpt>
      <trkpt lat="45.3043" lon="5.83117">
        <ele>1372.4379882812</ele>
        <time>2017-12-22T08:53:05Z</time>
      </trkpt>
      <trkpt lat="45.30422" lon="5.83105">
        <ele>1373.4379882812</ele>
        <time>2017-12-22T08:53:07Z</time>
      </trkpt>
      <trkpt lat="45.30414" lon="5.83102">
        <ele>1372.4379882812</ele>
        <time>2017-12-22T08:53:09Z</time>
      </trkpt>
      <trkpt lat="45.30408" lon="5.83101">
        <ele>1369.4379882812</ele>
        <time>2017-12-22T08:53:10Z</time>
      </trkpt>
      <trkpt lat="45.30397" lon="5.83102">
        <ele>1367.4379882812</ele>
        <time>2017-12-22T08:53:13Z</time>
      </trkpt>
      <trkpt lat="45.30402" lon="5.83101">
        <ele>1371.4379882812</ele>
        <time>2017-12-22T08:56:12Z</time>
      </trkpt>
      <trkpt lat="45.30399" lon="5.83095">
        <ele>1367.4379882812</ele>
        <time>2017-12-22T08:56:57Z</time>
      </trkpt>
      <trkpt lat="45.30398" lon="5.83088">
        <ele>1361.4379882812</ele>
        <time>2017-12-22T08:57:02Z</time>
      </trkpt>
      <trkpt lat="45.30395" lon="5.83084">
        <ele>1359.4379882812</ele>
        <time>2017-12-22T08:57:07Z</time>
      </trkpt>
      <trkpt lat="45.3039" lon="5.83082">
        <ele>1355.4379882812</ele>
        <time>2017-12-22T08:57:20Z</time>
      </trkpt>
      <trkpt lat="45.30386" lon="5.83082">
        <ele>1355.4379882812</ele>
        <time>2017-12-22T08:57:25Z</time>
      </trkpt>
      <trkpt lat="45.30384" lon="5.83089">
        <ele>1355.4379882812</ele>
        <time>2017-12-22T08:57:30Z</time>
      </trkpt>
      <trkpt lat="45.30378" lon="5.83086">
        <ele>1356.4379882812</ele>
        <time>2017-12-22T08:57:33Z</time>
      </trkpt>
      <trkpt lat="45.30373" lon="5.8309">
        <ele>1357.4379882812</ele>
        <time>2017-12-22T08:57:40Z</time>
      </trkpt>
      <trkpt lat="45.30368" lon="5.8309">
        <ele>1359.4379882812</ele>
        <time>2017-12-22T08:57:44Z</time>
      </trkpt>
      <trkpt lat="45.30362" lon="5.83093">
        <ele>1361.4379882812</ele>
        <time>2017-12-22T08:57:51Z</time>
      </trkpt>
      <trkpt lat="45.30357" lon="5.83096">
        <ele>1363.4379882812</ele>
        <time>2017-12-22T08:57:55Z</time>
      </trkpt>
      <trkpt lat="45.30355" lon="5.83102">
        <ele>1366.4379882812</ele>
        <time>2017-12-22T08:57:59Z</time>
      </trkpt>
      <trkpt lat="45.30354" lon="5.8311">
        <ele>1361.4379882812</ele>
        <time>2017-12-22T08:58:04Z</time>
      </trkpt>
      <trkpt lat="45.3035" lon="5.83116">
        <ele>1359.4379882812</ele>
        <time>2017-12-22T08:58:08Z</time>
      </trkpt>
      <trkpt lat="45.30345" lon="5.83118">
        <ele>1363.4379882812</ele>
        <time>2017-12-22T08:58:12Z</time>
      </trkpt>
      <trkpt lat="45.30341" lon="5.8312">
        <ele>1366.4379882812</ele>
        <time>2017-12-22T08:58:16Z</time>
      </trkpt>
      <trkpt lat="45.30337" lon="5.83125">
        <ele>1368.4379882812</ele>
        <time>2017-12-22T08:58:20Z</time>
      </trkpt>
      <trkpt lat="45.30334" lon="5.8313">
        <ele>1371.4379882812</ele>
        <time>2017-12-22T08:58:24Z</time>
      </trkpt>
      <trkpt lat="45.30332" lon="5.83136">
        <ele>1372.4379882812</ele>
        <time>2017-12-22T08:58:28Z</time>
      </trkpt>
      <trkpt lat="45.30328" lon="5.8314">
        <ele>1374.4379882812</ele>
        <time>2017-12-22T08:58:32Z</time>
      </trkpt>
      <trkpt lat="45.30325" lon="5.83147">
        <ele>1376.4379882812</ele>
        <time>2017-12-22T08:58:37Z</time>
      </trkpt>
      <trkpt lat="45.30321" lon="5.83153">
        <ele>1378.4379882812</ele>
        <time>2017-12-22T08:58:41Z</time>
      </trkpt>
      <trkpt lat="45.30319" lon="5.8316">
        <ele>1379.4379882812</ele>
        <time>2017-12-22T08:58:46Z</time>
      </trkpt>
      <trkpt lat="45.30316" lon="5.83165">
        <ele>1375.4379882812</ele>
        <time>2017-12-22T08:58:51Z</time>
      </trkpt>
      <trkpt lat="45.30312" lon="5.83169">
        <ele>1373.4379882812</ele>
        <time>2017-12-22T08:58:57Z</time>
      </trkpt>
      <trkpt lat="45.30308" lon="5.83175">
        <ele>1372.4379882812</ele>
        <time>2017-12-22T08:59:04Z</time>
      </trkpt>
      <trkpt lat="45.30306" lon="5.83181">
        <ele>1372.4379882812</ele>
        <time>2017-12-22T08:59:10Z</time>
      </trkpt>
      <trkpt lat="45.30301" lon="5.83185">
        <ele>1372.4379882812</ele>
        <time>2017-12-22T08:59:16Z</time>
      </trkpt>
      <trkpt lat="45.30297" lon="5.83188">
        <ele>1376.4379882812</ele>
        <time>2017-12-22T08:59:21Z</time>
      </trkpt>
      <trkpt lat="45.30295" lon="5.83194">
        <ele>1373.4379882812</ele>
        <time>2017-12-22T08:59:27Z</time>
      </trkpt>
      <trkpt lat="45.30291" lon="5.83196">
        <ele>1377.4379882812</ele>
        <time>2017-12-22T08:59:34Z</time>
      </trkpt>
      <trkpt lat="45.30285" lon="5.83199">
        <ele>1378.4379882812</ele>
        <time>2017-12-22T08:59:39Z</time>
      </trkpt>
      <trkpt lat="45.30283" lon="5.83206">
        <ele>1379.4379882812</ele>
        <time>2017-12-22T08:59:47Z</time>
      </trkpt>
      <trkpt lat="45.30278" lon="5.83211">
        <ele>1381.4379882812</ele>
        <time>2017-12-22T08:59:52Z</time>
      </trkpt>
      <trkpt lat="45.30275" lon="5.83215">
        <ele>1382.4379882812</ele>
        <time>2017-12-22T08:59:59Z</time>
      </trkpt>
      <trkpt lat="45.30273" lon="5.83222">
        <ele>1385.4379882812</ele>
        <time>2017-12-22T09:00:04Z</time>
      </trkpt>
      <trkpt lat="45.30269" lon="5.83226">
        <ele>1388.4379882812</ele>
        <time>2017-12-22T09:00:09Z</time>
      </trkpt>
      <trkpt lat="45.30264" lon="5.8323">
        <ele>1390.4379882812</ele>
        <time>2017-12-22T09:00:13Z</time>
      </trkpt>
      <trkpt lat="45.3026" lon="5.83234">
        <ele>1391.4379882812</ele>
        <time>2017-12-22T09:00:19Z</time>
      </trkpt>
      <trkpt lat="45.30258" lon="5.83241">
        <ele>1391.4379882812</ele>
        <time>2017-12-22T09:00:24Z</time>
      </trkpt>
      <trkpt lat="45.30254" lon="5.83245">
        <ele>1392.4379882812</ele>
        <time>2017-12-22T09:00:29Z</time>
      </trkpt>
      <trkpt lat="45.3025" lon="5.8325">
        <ele>1395.4379882812</ele>
        <time>2017-12-22T09:00:33Z</time>
      </trkpt>
      <trkpt lat="45.30245" lon="5.8325">
        <ele>1395.4379882812</ele>
        <time>2017-12-22T09:00:37Z</time>
      </trkpt>
      <trkpt lat="45.3024" lon="5.83251">
        <ele>1397.4379882812</ele>
        <time>2017-12-22T09:00:41Z</time>
      </trkpt>
      <trkpt lat="45.30235" lon="5.83252">
        <ele>1397.4379882812</ele>
        <time>2017-12-22T09:00:45Z</time>
      </trkpt>
      <trkpt lat="45.3023" lon="5.83255">
        <ele>1397.4379882812</ele>
        <time>2017-12-22T09:00:49Z</time>
      </trkpt>
      <trkpt lat="45.30225" lon="5.83256">
        <ele>1395.4379882812</ele>
        <time>2017-12-22T09:00:52Z</time>
      </trkpt>
      <trkpt lat="45.3022" lon="5.83257">
        <ele>1393.4379882812</ele>
        <time>2017-12-22T09:00:56Z</time>
      </trkpt>
      <trkpt lat="45.30215" lon="5.83261">
        <ele>1392.4379882812</ele>
        <time>2017-12-22T09:01:00Z</time>
      </trkpt>
      <trkpt lat="45.30209" lon="5.83261">
        <ele>1394.4379882812</ele>
        <time>2017-12-22T09:01:05Z</time>
      </trkpt>
      <trkpt lat="45.30203" lon="5.83262">
        <ele>1390.4379882812</ele>
        <time>2017-12-22T09:01:08Z</time>
      </trkpt>
      <trkpt lat="45.30198" lon="5.83265">
        <ele>1389.4379882812</ele>
        <time>2017-12-22T09:01:12Z</time>
      </trkpt>
      <trkpt lat="45.30194" lon="5.8327">
        <ele>1393.4379882812</ele>
        <time>2017-12-22T09:01:17Z</time>
      </trkpt>
      <trkpt lat="45.3019" lon="5.83274">
        <ele>1395.4379882812</ele>
        <time>2017-12-22T09:01:20Z</time>
      </trkpt>
      <trkpt lat="45.30185" lon="5.83276">
        <ele>1396.4379882812</ele>
        <time>2017-12-22T09:01:24Z</time>
      </trkpt>
      <trkpt lat="45.3018" lon="5.8328">
        <ele>1391.4379882812</ele>
        <time>2017-12-22T09:01:28Z</time>
      </trkpt>
      <trkpt lat="45.30175" lon="5.83282">
        <ele>1392.4379882812</ele>
        <time>2017-12-22T09:01:32Z</time>
      </trkpt>
      <trkpt lat="45.3017" lon="5.83284">
        <ele>1393.4379882812</ele>
        <time>2017-12-22T09:01:37Z</time>
      </trkpt>
      <trkpt lat="45.30165" lon="5.83284">
        <ele>1390.4379882812</ele>
        <time>2017-12-22T09:01:40Z</time>
      </trkpt>
      <trkpt lat="45.30162" lon="5.83289">
        <ele>1394.4379882812</ele>
        <time>2017-12-22T09:01:46Z</time>
      </trkpt>
      <trkpt lat="45.30158" lon="5.83293">
        <ele>1394.4379882812</ele>
        <time>2017-12-22T09:01:50Z</time>
      </trkpt>
      <trkpt lat="45.30153" lon="5.83298">
        <ele>1391.4379882812</ele>
        <time>2017-12-22T09:01:55Z</time>
      </trkpt>
      <trkpt lat="45.3015" lon="5.83303">
        <ele>1393.4379882812</ele>
        <time>2017-12-22T09:02:02Z</time>
      </trkpt>
      <trkpt lat="45.30147" lon="5.83308">
        <ele>1395.4379882812</ele>
        <time>2017-12-22T09:02:06Z</time>
      </trkpt>
      <trkpt lat="45.30143" lon="5.83313">
        <ele>1400.4379882812</ele>
        <time>2017-12-22T09:02:11Z</time>
      </trkpt>
      <trkpt lat="45.30141" lon="5.83319">
        <ele>1404.4379882812</ele>
        <time>2017-12-22T09:02:18Z</time>
      </trkpt>
      <trkpt lat="45.30136" lon="5.83323">
        <ele>1408.4379882812</ele>
        <time>2017-12-22T09:02:23Z</time>
      </trkpt>
      <trkpt lat="45.30133" lon="5.83328">
        <ele>1408.4379882812</ele>
        <time>2017-12-22T09:02:28Z</time>
      </trkpt>
      <trkpt lat="45.30128" lon="5.83325">
        <ele>1417.4379882812</ele>
        <time>2017-12-22T09:03:47Z</time>
      </trkpt>
      <trkpt lat="45.30122" lon="5.83325">
        <ele>1417.4379882812</ele>
        <time>2017-12-22T09:03:59Z</time>
      </trkpt>
      <trkpt lat="45.30118" lon="5.8333">
        <ele>1417.4379882812</ele>
        <time>2017-12-22T09:04:06Z</time>
      </trkpt>
      <trkpt lat="45.30113" lon="5.83333">
        <ele>1418.4379882812</ele>
        <time>2017-12-22T09:04:14Z</time>
      </trkpt>
      <trkpt lat="45.30109" lon="5.83335">
        <ele>1418.4379882812</ele>
        <time>2017-12-22T09:04:19Z</time>
      </trkpt>
      <trkpt lat="45.30104" lon="5.83334">
        <ele>1420.4379882812</ele>
        <time>2017-12-22T09:04:27Z</time>
      </trkpt>
      <trkpt lat="45.301" lon="5.83337">
        <ele>1424.4379882812</ele>
        <time>2017-12-22T09:04:31Z</time>
      </trkpt>
      <trkpt lat="45.30095" lon="5.83337">
        <ele>1428.4379882812</ele>
        <time>2017-12-22T09:04:37Z</time>
      </trkpt>
      <trkpt lat="45.3009" lon="5.83339">
        <ele>1427.4379882812</ele>
        <time>2017-12-22T09:04:42Z</time>
      </trkpt>
      <trkpt lat="45.30084" lon="5.83342">
        <ele>1429.4379882812</ele>
        <time>2017-12-22T09:04:48Z</time>
      </trkpt>
      <trkpt lat="45.3008" lon="5.83346">
        <ele>1430.4379882812</ele>
        <time>2017-12-22T09:04:54Z</time>
      </trkpt>
      <trkpt lat="45.30075" lon="5.83346">
        <ele>1430.4379882812</ele>
        <time>2017-12-22T09:05:00Z</time>
      </trkpt>
      <trkpt lat="45.30071" lon="5.83349">
        <ele>1431.4379882812</ele>
        <time>2017-12-22T09:05:05Z</time>
      </trkpt>
      <trkpt lat="45.30066" lon="5.83352">
        <ele>1430.4379882812</ele>
        <time>2017-12-22T09:05:09Z</time>
      </trkpt>
      <trkpt lat="45.30061" lon="5.83356">
        <ele>1430.4379882812</ele>
        <time>2017-12-22T09:05:13Z</time>
      </trkpt>
      <trkpt lat="45.30058" lon="5.83362">
        <ele>1435.4379882812</ele>
        <time>2017-12-22T09:05:18Z</time>
      </trkpt>
      <trkpt lat="45.30056" lon="5.83368">
        <ele>1434.4379882812</ele>
        <time>2017-12-22T09:05:23Z</time>
      </trkpt>
      <trkpt lat="45.30053" lon="5.83373">
        <ele>1438.4379882812</ele>
        <time>2017-12-22T09:05:30Z</time>
      </trkpt>
      <trkpt lat="45.30049" lon="5.83376">
        <ele>1441.4379882812</ele>
        <time>2017-12-22T09:05:35Z</time>
      </trkpt>
      <trkpt lat="45.30044" lon="5.83375">
        <ele>1440.4379882812</ele>
        <time>2017-12-22T09:05:41Z</time>
      </trkpt>
      <trkpt lat="45.30039" lon="5.83376">
        <ele>1442.4379882812</ele>
        <time>2017-12-22T09:05:49Z</time>
      </trkpt>
      <trkpt lat="45.30035" lon="5.83381">
        <ele>1440.4379882812</ele>
        <time>2017-12-22T09:05:56Z</time>
      </trkpt>
      <trkpt lat="45.30034" lon="5.83388">
        <ele>1445.4379882812</ele>
        <time>2017-12-22T09:06:02Z</time>
      </trkpt>
      <trkpt lat="45.30031" lon="5.83393">
        <ele>1450.4379882812</ele>
        <time>2017-12-22T09:06:09Z</time>
      </trkpt>
      <trkpt lat="45.30026" lon="5.83395">
        <ele>1451.4379882812</ele>
        <time>2017-12-22T09:06:14Z</time>
      </trkpt>
      <trkpt lat="45.30022" lon="5.83399">
        <ele>1453.4379882812</ele>
        <time>2017-12-22T09:06:20Z</time>
      </trkpt>
      <trkpt lat="45.30017" lon="5.834">
        <ele>1456.4379882812</ele>
        <time>2017-12-22T09:06:27Z</time>
      </trkpt>
      <trkpt lat="45.30013" lon="5.83396">
        <ele>1454.4379882812</ele>
        <time>2017-12-22T09:06:31Z</time>
      </trkpt>
      <trkpt lat="45.30014" lon="5.83389">
        <ele>1450.4379882812</ele>
        <time>2017-12-22T09:06:35Z</time>
      </trkpt>
      <trkpt lat="45.30018" lon="5.83383">
        <ele>1451.4379882812</ele>
        <time>2017-12-22T09:06:38Z</time>
      </trkpt>
      <trkpt lat="45.30015" lon="5.83375">
        <ele>1452.4379882812</ele>
        <time>2017-12-22T09:06:42Z</time>
      </trkpt>
      <trkpt lat="45.30014" lon="5.83369">
        <ele>1453.4379882812</ele>
        <time>2017-12-22T09:06:47Z</time>
      </trkpt>
      <trkpt lat="45.30012" lon="5.83362">
        <ele>1456.4379882812</ele>
        <time>2017-12-22T09:06:52Z</time>
      </trkpt>
      <trkpt lat="45.30008" lon="5.83357">
        <ele>1458.4379882812</ele>
        <time>2017-12-22T09:06:58Z</time>
      </trkpt>
      <trkpt lat="45.30003" lon="5.83354">
        <ele>1459.4379882812</ele>
        <time>2017-12-22T09:07:04Z</time>
      </trkpt>
      <trkpt lat="45.29998" lon="5.83351">
        <ele>1465.4379882812</ele>
        <time>2017-12-22T09:07:08Z</time>
      </trkpt>
      <trkpt lat="45.29993" lon="5.83347">
        <ele>1464.4379882812</ele>
        <time>2017-12-22T09:07:13Z</time>
      </trkpt>
      <trkpt lat="45.29989" lon="5.83347">
        <ele>1466.4370117188</ele>
        <time>2017-12-22T09:07:18Z</time>
      </trkpt>
      <trkpt lat="45.29984" lon="5.83344">
        <ele>1466.4370117188</ele>
        <time>2017-12-22T09:07:21Z</time>
      </trkpt>
      <trkpt lat="45.29979" lon="5.83341">
        <ele>1464.4370117188</ele>
        <time>2017-12-22T09:07:23Z</time>
      </trkpt>
      <trkpt lat="45.29973" lon="5.83337">
        <ele>1463.4370117188</ele>
        <time>2017-12-22T09:07:25Z</time>
      </trkpt>
      <trkpt lat="45.29969" lon="5.83335">
        <ele>1464.4370117188</ele>
        <time>2017-12-22T09:07:27Z</time>
      </trkpt>
      <trkpt lat="45.29964" lon="5.83332">
        <ele>1463.4370117188</ele>
        <time>2017-12-22T09:07:30Z</time>
      </trkpt>
      <trkpt lat="45.29958" lon="5.83329">
        <ele>1464.4370117188</ele>
        <time>2017-12-22T09:07:33Z</time>
      </trkpt>
      <trkpt lat="45.29953" lon="5.83324">
        <ele>1464.4370117188</ele>
        <time>2017-12-22T09:07:36Z</time>
      </trkpt>
      <trkpt lat="45.29948" lon="5.83323">
        <ele>1464.4370117188</ele>
        <time>2017-12-22T09:07:40Z</time>
      </trkpt>
      <trkpt lat="45.29943" lon="5.83319">
        <ele>1465.4370117188</ele>
        <time>2017-12-22T09:07:44Z</time>
      </trkpt>
      <trkpt lat="45.2994" lon="5.83315">
        <ele>1467.4370117188</ele>
        <time>2017-12-22T09:07:49Z</time>
      </trkpt>
      <trkpt lat="45.29935" lon="5.83316">
        <ele>1469.4370117188</ele>
        <time>2017-12-22T09:07:53Z</time>
      </trkpt>
      <trkpt lat="45.29931" lon="5.83318">
        <ele>1471.4370117188</ele>
        <time>2017-12-22T09:07:58Z</time>
      </trkpt>
      <trkpt lat="45.29925" lon="5.8332">
        <ele>1473.4370117188</ele>
        <time>2017-12-22T09:08:02Z</time>
      </trkpt>
      <trkpt lat="45.2992" lon="5.83323">
        <ele>1477.4370117188</ele>
        <time>2017-12-22T09:08:07Z</time>
      </trkpt>
      <trkpt lat="45.29914" lon="5.83324">
        <ele>1478.4370117188</ele>
        <time>2017-12-22T09:08:14Z</time>
      </trkpt>
      <trkpt lat="45.29909" lon="5.83327">
        <ele>1478.4370117188</ele>
        <time>2017-12-22T09:08:20Z</time>
      </trkpt>
      <trkpt lat="45.29904" lon="5.83326">
        <ele>1477.4370117188</ele>
        <time>2017-12-22T09:08:27Z</time>
      </trkpt>
      <trkpt lat="45.29899" lon="5.83328">
        <ele>1480.4370117188</ele>
        <time>2017-12-22T09:08:31Z</time>
      </trkpt>
      <trkpt lat="45.29895" lon="5.83324">
        <ele>1480.4370117188</ele>
        <time>2017-12-22T09:08:37Z</time>
      </trkpt>
      <trkpt lat="45.2989" lon="5.83321">
        <ele>1482.4370117188</ele>
        <time>2017-12-22T09:08:43Z</time>
      </trkpt>
      <trkpt lat="45.29885" lon="5.83318">
        <ele>1482.4370117188</ele>
        <time>2017-12-22T09:08:48Z</time>
      </trkpt>
      <trkpt lat="45.2988" lon="5.83317">
        <ele>1484.4370117188</ele>
        <time>2017-12-22T09:08:55Z</time>
      </trkpt>
      <trkpt lat="45.29876" lon="5.83312">
        <ele>1487.4370117188</ele>
        <time>2017-12-22T09:09:03Z</time>
      </trkpt>
      <trkpt lat="45.29876" lon="5.83305">
        <ele>1490.4370117188</ele>
        <time>2017-12-22T09:09:10Z</time>
      </trkpt>
      <trkpt lat="45.29874" lon="5.833">
        <ele>1491.4370117188</ele>
        <time>2017-12-22T09:09:14Z</time>
      </trkpt>
      <trkpt lat="45.2987" lon="5.83292">
        <ele>1490.4370117188</ele>
        <time>2017-12-22T09:09:19Z</time>
      </trkpt>
      <trkpt lat="45.29871" lon="5.83286">
        <ele>1492.4370117188</ele>
        <time>2017-12-22T09:09:23Z</time>
      </trkpt>
      <trkpt lat="45.29874" lon="5.83281">
        <ele>1491.4370117188</ele>
        <time>2017-12-22T09:09:27Z</time>
      </trkpt>
      <trkpt lat="45.29874" lon="5.83273">
        <ele>1492.4370117188</ele>
        <time>2017-12-22T09:09:34Z</time>
      </trkpt>
      <trkpt lat="45.29873" lon="5.83267">
        <ele>1494.4370117188</ele>
        <time>2017-12-22T09:09:40Z</time>
      </trkpt>
      <trkpt lat="45.29875" lon="5.83261">
        <ele>1495.4370117188</ele>
        <time>2017-12-22T09:09:46Z</time>
      </trkpt>
      <trkpt lat="45.29874" lon="5.83253">
        <ele>1496.4370117188</ele>
        <time>2017-12-22T09:09:50Z</time>
      </trkpt>
      <trkpt lat="45.29874" lon="5.83245">
        <ele>1497.4370117188</ele>
        <time>2017-12-22T09:09:54Z</time>
      </trkpt>
      <trkpt lat="45.29874" lon="5.83239">
        <ele>1500.4370117188</ele>
        <time>2017-12-22T09:09:58Z</time>
      </trkpt>
      <trkpt lat="45.29876" lon="5.83232">
        <ele>1498.4370117188</ele>
        <time>2017-12-22T09:10:05Z</time>
      </trkpt>
      <trkpt lat="45.29879" lon="5.83226">
        <ele>1498.4370117188</ele>
        <time>2017-12-22T09:10:12Z</time>
      </trkpt>
      <trkpt lat="45.29882" lon="5.83221">
        <ele>1498.4370117188</ele>
        <time>2017-12-22T09:10:17Z</time>
      </trkpt>
      <trkpt lat="45.29885" lon="5.83215">
        <ele>1503.4370117188</ele>
        <time>2017-12-22T09:10:23Z</time>
      </trkpt>
      <trkpt lat="45.29887" lon="5.83209">
        <ele>1501.4370117188</ele>
        <time>2017-12-22T09:10:29Z</time>
      </trkpt>
      <trkpt lat="45.29889" lon="5.83201">
        <ele>1504.4370117188</ele>
        <time>2017-12-22T09:10:37Z</time>
      </trkpt>
      <trkpt lat="45.2989" lon="5.83194">
        <ele>1505.4370117188</ele>
        <time>2017-12-22T09:10:44Z</time>
      </trkpt>
      <trkpt lat="45.29889" lon="5.83187">
        <ele>1505.4370117188</ele>
        <time>2017-12-22T09:10:50Z</time>
      </trkpt>
      <trkpt lat="45.29888" lon="5.83181">
        <ele>1506.4370117188</ele>
        <time>2017-12-22T09:10:55Z</time>
      </trkpt>
      <trkpt lat="45.29886" lon="5.83175">
        <ele>1509.4370117188</ele>
        <time>2017-12-22T09:11:01Z</time>
      </trkpt>
      <trkpt lat="45.29885" lon="5.83168">
        <ele>1509.4370117188</ele>
        <time>2017-12-22T09:11:08Z</time>
      </trkpt>
      <trkpt lat="45.29886" lon="5.83162">
        <ele>1508.4370117188</ele>
        <time>2017-12-22T09:11:13Z</time>
      </trkpt>
      <trkpt lat="45.29887" lon="5.83154">
        <ele>1508.4370117188</ele>
        <time>2017-12-22T09:11:18Z</time>
      </trkpt>
      <trkpt lat="45.29881" lon="5.83157">
        <ele>1515.4370117188</ele>
        <time>2017-12-22T09:11:32Z</time>
      </trkpt>
      <trkpt lat="45.29877" lon="5.83158">
        <ele>1515.4370117188</ele>
        <time>2017-12-22T09:11:39Z</time>
      </trkpt>
      <trkpt lat="45.29874" lon="5.83152">
        <ele>1518.4370117188</ele>
        <time>2017-12-22T09:11:47Z</time>
      </trkpt>
      <trkpt lat="45.29874" lon="5.83146">
        <ele>1523.4370117188</ele>
        <time>2017-12-22T09:11:52Z</time>
      </trkpt>
      <trkpt lat="45.29876" lon="5.8314">
        <ele>1524.4370117188</ele>
        <time>2017-12-22T09:11:55Z</time>
      </trkpt>
      <trkpt lat="45.29879" lon="5.83131">
        <ele>1526.4370117188</ele>
        <time>2017-12-22T09:12:02Z</time>
      </trkpt>
      <trkpt lat="45.2988" lon="5.83121">
        <ele>1527.4370117188</ele>
        <time>2017-12-22T09:12:10Z</time>
      </trkpt>
      <trkpt lat="45.29882" lon="5.83115">
        <ele>1525.4370117188</ele>
        <time>2017-12-22T09:12:12Z</time>
      </trkpt>
      <trkpt lat="45.29883" lon="5.83109">
        <ele>1528.4370117188</ele>
        <time>2017-12-22T09:12:19Z</time>
      </trkpt>
      <trkpt lat="45.29886" lon="5.83103">
        <ele>1529.4370117188</ele>
        <time>2017-12-22T09:12:24Z</time>
      </trkpt>
      <trkpt lat="45.29887" lon="5.83095">
        <ele>1530.4370117188</ele>
        <time>2017-12-22T09:12:32Z</time>
      </trkpt>
      <trkpt lat="45.29882" lon="5.83093">
        <ele>1530.4370117188</ele>
        <time>2017-12-22T09:12:38Z</time>
      </trkpt>
      <trkpt lat="45.29878" lon="5.83091">
        <ele>1529.4370117188</ele>
        <time>2017-12-22T09:12:44Z</time>
      </trkpt>
      <trkpt lat="45.29873" lon="5.83088">
        <ele>1529.4370117188</ele>
        <time>2017-12-22T09:12:48Z</time>
      </trkpt>
      <trkpt lat="45.29871" lon="5.83082">
        <ele>1530.4370117188</ele>
        <time>2017-12-22T09:12:54Z</time>
      </trkpt>
      <trkpt lat="45.29866" lon="5.83076">
        <ele>1534.4370117188</ele>
        <time>2017-12-22T09:13:03Z</time>
      </trkpt>
      <trkpt lat="45.29862" lon="5.83073">
        <ele>1536.4370117188</ele>
        <time>2017-12-22T09:13:13Z</time>
      </trkpt>
      <trkpt lat="45.29862" lon="5.83066">
        <ele>1537.4370117188</ele>
        <time>2017-12-22T09:13:27Z</time>
      </trkpt>
      <trkpt lat="45.29865" lon="5.83059">
        <ele>1537.4370117188</ele>
        <time>2017-12-22T09:13:36Z</time>
      </trkpt>
      <trkpt lat="45.29867" lon="5.83053">
        <ele>1536.4370117188</ele>
        <time>2017-12-22T09:13:41Z</time>
      </trkpt>
      <trkpt lat="45.29872" lon="5.8305">
        <ele>1535.4370117188</ele>
        <time>2017-12-22T09:13:56Z</time>
      </trkpt>
      <trkpt lat="45.2987" lon="5.83043">
        <ele>1536.4370117188</ele>
        <time>2017-12-22T09:14:04Z</time>
      </trkpt>
      <trkpt lat="45.2987" lon="5.83036">
        <ele>1537.4370117188</ele>
        <time>2017-12-22T09:14:14Z</time>
      </trkpt>
      <trkpt lat="45.29867" lon="5.83031">
        <ele>1539.4370117188</ele>
        <time>2017-12-22T09:14:26Z</time>
      </trkpt>
      <trkpt lat="45.29865" lon="5.83025">
        <ele>1547.4370117188</ele>
        <time>2017-12-22T09:14:45Z</time>
      </trkpt>
      <trkpt lat="45.29862" lon="5.8302">
        <ele>1548.4370117188</ele>
        <time>2017-12-22T09:14:52Z</time>
      </trkpt>
      <trkpt lat="45.29856" lon="5.83017">
        <ele>1549.4370117188</ele>
        <time>2017-12-22T09:15:00Z</time>
      </trkpt>
      <trkpt lat="45.29855" lon="5.8301">
        <ele>1556.4370117188</ele>
        <time>2017-12-22T09:15:17Z</time>
      </trkpt>
      <trkpt lat="45.29852" lon="5.83006">
        <ele>1446.4370117188</ele>
        <time>2017-12-22T09:15:34Z</time>
      </trkpt>
      <trkpt lat="45.29847" lon="5.83002">
        <ele>1545.4370117188</ele>
        <time>2017-12-22T09:15:53Z</time>
      </trkpt>
      <trkpt lat="45.29846" lon="5.82994">
        <ele>1542.4370117188</ele>
        <time>2017-12-22T09:15:57Z</time>
      </trkpt>
      <trkpt lat="45.29849" lon="5.82989">
        <ele>1563.4370117188</ele>
        <time>2017-12-22T09:16:07Z</time>
      </trkpt>
      <trkpt lat="45.29854" lon="5.82989">
        <ele>1567.4370117188</ele>
        <time>2017-12-22T09:16:14Z</time>
      </trkpt>
      <trkpt lat="45.29858" lon="5.82991">
        <ele>1572.4370117188</ele>
        <time>2017-12-22T09:16:29Z</time>
      </trkpt>
      <trkpt lat="45.29864" lon="5.8299">
        <ele>1574.4370117188</ele>
        <time>2017-12-22T09:16:48Z</time>
      </trkpt>
      <trkpt lat="45.29867" lon="5.82994">
        <ele>1582.4370117188</ele>
        <time>2017-12-22T09:17:21Z</time>
      </trkpt>
      <trkpt lat="45.29865" lon="5.82988">
        <ele>1583.4370117188</ele>
        <time>2017-12-22T09:17:29Z</time>
      </trkpt>
      <trkpt lat="45.29866" lon="5.82981">
        <ele>1581.4370117188</ele>
        <time>2017-12-22T09:17:33Z</time>
      </trkpt>
      <trkpt lat="45.29865" lon="5.82974">
        <ele>1580.4370117188</ele>
        <time>2017-12-22T09:17:41Z</time>
      </trkpt>
      <trkpt lat="45.29868" lon="5.82969">
        <ele>1579.4370117188</ele>
        <time>2017-12-22T09:17:55Z</time>
      </trkpt>
      <trkpt lat="45.29873" lon="5.82969">
        <ele>1582.4370117188</ele>
        <time>2017-12-22T09:18:03Z</time>
      </trkpt>
      <trkpt lat="45.29878" lon="5.82967">
        <ele>1584.4370117188</ele>
        <time>2017-12-22T09:18:19Z</time>
      </trkpt>
      <trkpt lat="45.29883" lon="5.82968">
        <ele>1587.4370117188</ele>
        <time>2017-12-22T09:18:28Z</time>
      </trkpt>
      <trkpt lat="45.29887" lon="5.82965">
        <ele>1589.4370117188</ele>
        <time>2017-12-22T09:18:39Z</time>
      </trkpt>
      <trkpt lat="45.29892" lon="5.82963">
        <ele>1592.4370117188</ele>
        <time>2017-12-22T09:18:46Z</time>
      </trkpt>
      <trkpt lat="45.29896" lon="5.82959">
        <ele>1596.4370117188</ele>
        <time>2017-12-22T09:18:54Z</time>
      </trkpt>
      <trkpt lat="45.29899" lon="5.82953">
        <ele>1603.4370117188</ele>
        <time>2017-12-22T09:19:25Z</time>
      </trkpt>
      <trkpt lat="45.299" lon="5.82946">
        <ele>1610.4370117188</ele>
        <time>2017-12-22T09:20:02Z</time>
      </trkpt>
      <trkpt lat="45.29897" lon="5.8294">
        <ele>1609.4370117188</ele>
        <time>2017-12-22T09:20:26Z</time>
      </trkpt>
      <trkpt lat="45.29893" lon="5.82943">
        <ele>1612.4370117188</ele>
        <time>2017-12-22T09:20:36Z</time>
      </trkpt>
      <trkpt lat="45.29894" lon="5.82934">
        <ele>1613.4370117188</ele>
        <time>2017-12-22T09:20:46Z</time>
      </trkpt>
      <trkpt lat="45.29889" lon="5.82931">
        <ele>1615.4370117188</ele>
        <time>2017-12-22T09:20:53Z</time>
      </trkpt>
      <trkpt lat="45.29885" lon="5.82932">
        <ele>1618.4370117188</ele>
        <time>2017-12-22T09:21:03Z</time>
      </trkpt>
      <trkpt lat="45.29882" lon="5.82926">
        <ele>1621.4370117188</ele>
        <time>2017-12-22T09:21:19Z</time>
      </trkpt>
      <trkpt lat="45.29878" lon="5.82922">
        <ele>1628.4370117188</ele>
        <time>2017-12-22T09:21:41Z</time>
      </trkpt>
      <trkpt lat="45.29876" lon="5.82917">
        <ele>1630.4370117188</ele>
        <time>2017-12-22T09:21:47Z</time>
      </trkpt>
      <trkpt lat="45.29872" lon="5.82911">
        <ele>1627.4370117188</ele>
        <time>2017-12-22T09:21:51Z</time>
      </trkpt>
      <trkpt lat="45.29872" lon="5.82903">
        <ele>1627.4370117188</ele>
        <time>2017-12-22T09:21:58Z</time>
      </trkpt>
      <trkpt lat="45.29872" lon="5.82896">
        <ele>1635.4370117188</ele>
        <time>2017-12-22T09:22:06Z</time>
      </trkpt>
      <trkpt lat="45.29867" lon="5.82898">
        <ele>1633.4370117188</ele>
        <time>2017-12-22T09:22:14Z</time>
      </trkpt>
      <trkpt lat="45.29866" lon="5.82891">
        <ele>1633.4370117188</ele>
        <time>2017-12-22T09:22:30Z</time>
      </trkpt>
      <trkpt lat="45.29867" lon="5.82883">
        <ele>1637.4370117188</ele>
        <time>2017-12-22T09:22:34Z</time>
      </trkpt>
      <trkpt lat="45.29863" lon="5.82879">
        <ele>1640.4370117188</ele>
        <time>2017-12-22T09:22:39Z</time>
      </trkpt>
      <trkpt lat="45.2986" lon="5.82874">
        <ele>1644.4370117188</ele>
        <time>2017-12-22T09:22:46Z</time>
      </trkpt>
      <trkpt lat="45.29856" lon="5.82871">
        <ele>1643.4370117188</ele>
        <time>2017-12-22T09:23:15Z</time>
      </trkpt>
      <trkpt lat="45.29852" lon="5.82868">
        <ele>1648.4370117188</ele>
        <time>2017-12-22T09:23:25Z</time>
      </trkpt>
      <trkpt lat="45.29848" lon="5.82863">
        <ele>1651.4370117188</ele>
        <time>2017-12-22T09:23:42Z</time>
      </trkpt>
      <trkpt lat="45.29842" lon="5.82859">
        <ele>1654.4370117188</ele>
        <time>2017-12-22T09:23:50Z</time>
      </trkpt>
      <trkpt lat="45.29838" lon="5.82855">
        <ele>1655.4370117188</ele>
        <time>2017-12-22T09:23:54Z</time>
      </trkpt>
      <trkpt lat="45.29834" lon="5.8285">
        <ele>1655.4370117188</ele>
        <time>2017-12-22T09:24:00Z</time>
      </trkpt>
      <trkpt lat="45.29828" lon="5.82851">
        <ele>1656.4360351562</ele>
        <time>2017-12-22T09:24:16Z</time>
      </trkpt>
      <trkpt lat="45.29824" lon="5.82849">
        <ele>1657.4360351562</ele>
        <time>2017-12-22T09:24:21Z</time>
      </trkpt>
      <trkpt lat="45.29819" lon="5.82848">
        <ele>1659.4360351562</ele>
        <time>2017-12-22T09:24:36Z</time>
      </trkpt>
      <trkpt lat="45.29814" lon="5.82847">
        <ele>1663.4360351562</ele>
        <time>2017-12-22T09:24:55Z</time>
      </trkpt>
      <trkpt lat="45.29808" lon="5.82847">
        <ele>1667.4360351562</ele>
        <time>2017-12-22T09:25:03Z</time>
      </trkpt>
      <trkpt lat="45.29805" lon="5.82842">
        <ele>1674.4360351562</ele>
        <time>2017-12-22T09:25:13Z</time>
      </trkpt>
      <trkpt lat="45.29802" lon="5.82837">
        <ele>1676.4360351562</ele>
        <time>2017-12-22T09:25:18Z</time>
      </trkpt>
      <trkpt lat="45.29798" lon="5.82836">
        <ele>1680.4360351562</ele>
        <time>2017-12-22T09:25:37Z</time>
      </trkpt>
      <trkpt lat="45.29794" lon="5.82833">
        <ele>1683.4360351562</ele>
        <time>2017-12-22T09:26:06Z</time>
      </trkpt>
      <trkpt lat="45.29789" lon="5.82827">
        <ele>1683.4360351562</ele>
        <time>2017-12-22T09:26:15Z</time>
      </trkpt>
      <trkpt lat="45.29788" lon="5.8282">
        <ele>1688.4360351562</ele>
        <time>2017-12-22T09:26:25Z</time>
      </trkpt>
      <trkpt lat="45.29784" lon="5.82818">
        <ele>1690.4360351562</ele>
        <time>2017-12-22T09:26:30Z</time>
      </trkpt>
      <trkpt lat="45.29778" lon="5.82817">
        <ele>1691.4360351562</ele>
        <time>2017-12-22T09:26:38Z</time>
      </trkpt>
      <trkpt lat="45.29774" lon="5.82814">
        <ele>1691.4360351562</ele>
        <time>2017-12-22T09:26:44Z</time>
      </trkpt>
      <trkpt lat="45.29769" lon="5.82814">
        <ele>1696.4360351562</ele>
        <time>2017-12-22T09:26:55Z</time>
      </trkpt>
      <trkpt lat="45.29765" lon="5.82812">
        <ele>1693.4360351562</ele>
        <time>2017-12-22T09:27:00Z</time>
      </trkpt>
      <trkpt lat="45.29763" lon="5.8282">
        <ele>1693.4360351562</ele>
        <time>2017-12-22T09:27:19Z</time>
      </trkpt>
      <trkpt lat="45.29761" lon="5.82826">
        <ele>1695.4360351562</ele>
        <time>2017-12-22T09:27:29Z</time>
      </trkpt>
      <trkpt lat="45.29756" lon="5.82828">
        <ele>1701.4360351562</ele>
        <time>2017-12-22T09:27:36Z</time>
      </trkpt>
      <trkpt lat="45.29753" lon="5.82824">
        <ele>1707.4360351562</ele>
        <time>2017-12-22T09:27:45Z</time>
      </trkpt>
      <trkpt lat="45.29748" lon="5.82821">
        <ele>1710.4360351562</ele>
        <time>2017-12-22T09:27:52Z</time>
      </trkpt>
      <trkpt lat="45.29743" lon="5.82819">
        <ele>1707.4360351562</ele>
        <time>2017-12-22T09:27:58Z</time>
      </trkpt>
      <trkpt lat="45.2974" lon="5.82816">
        <ele>1705.4360351562</ele>
        <time>2017-12-22T09:28:06Z</time>
      </trkpt>
      <trkpt lat="45.29735" lon="5.82812">
        <ele>1710.4360351562</ele>
        <time>2017-12-22T09:28:18Z</time>
      </trkpt>
      <trkpt lat="45.29732" lon="5.82807">
        <ele>1713.4360351562</ele>
        <time>2017-12-22T09:28:24Z</time>
      </trkpt>
      <trkpt lat="45.29729" lon="5.82802">
        <ele>1716.4360351562</ele>
        <time>2017-12-22T09:28:31Z</time>
      </trkpt>
      <trkpt lat="45.29725" lon="5.82798">
        <ele>1718.4360351562</ele>
        <time>2017-12-22T09:28:36Z</time>
      </trkpt>
      <trkpt lat="45.29721" lon="5.82795">
        <ele>1721.4360351562</ele>
        <time>2017-12-22T09:28:41Z</time>
      </trkpt>
      <trkpt lat="45.29716" lon="5.8279">
        <ele>1721.4360351562</ele>
        <time>2017-12-22T09:28:49Z</time>
      </trkpt>
      <trkpt lat="45.29712" lon="5.82793">
        <ele>1721.4360351562</ele>
        <time>2017-12-22T09:28:54Z</time>
      </trkpt>
      <trkpt lat="45.29707" lon="5.82794">
        <ele>1744.4360351562</ele>
        <time>2017-12-22T09:29:04Z</time>
      </trkpt>
      <trkpt lat="45.29703" lon="5.82797">
        <ele>1729.4360351562</ele>
        <time>2017-12-22T09:29:09Z</time>
      </trkpt>
      <trkpt lat="45.29698" lon="5.82799">
        <ele>1730.4360351562</ele>
        <time>2017-12-22T09:29:16Z</time>
      </trkpt>
      <trkpt lat="45.29694" lon="5.82803">
        <ele>1732.4360351562</ele>
        <time>2017-12-22T09:29:22Z</time>
      </trkpt>
      <trkpt lat="45.2969" lon="5.82807">
        <ele>1734.4360351562</ele>
        <time>2017-12-22T09:29:29Z</time>
      </trkpt>
      <trkpt lat="45.29686" lon="5.82811">
        <ele>1734.4360351562</ele>
        <time>2017-12-22T09:29:33Z</time>
      </trkpt>
      <trkpt lat="45.29682" lon="5.82815">
        <ele>1736.4360351562</ele>
        <time>2017-12-22T09:29:38Z</time>
      </trkpt>
      <trkpt lat="45.29678" lon="5.82819">
        <ele>1735.4360351562</ele>
        <time>2017-12-22T09:29:43Z</time>
      </trkpt>
      <trkpt lat="45.29673" lon="5.82823">
        <ele>1736.4360351562</ele>
        <time>2017-12-22T09:29:49Z</time>
      </trkpt>
      <trkpt lat="45.2967" lon="5.82829">
        <ele>1738.4360351562</ele>
        <time>2017-12-22T09:29:55Z</time>
      </trkpt>
      <trkpt lat="45.29667" lon="5.82835">
        <ele>1740.4360351562</ele>
        <time>2017-12-22T09:30:04Z</time>
      </trkpt>
      <trkpt lat="45.29672" lon="5.82832">
        <ele>1737.4360351562</ele>
        <time>2017-12-22T09:34:17Z</time>
      </trkpt>
      <trkpt lat="45.29674" lon="5.82826">
        <ele>1737.4360351562</ele>
        <time>2017-12-22T09:34:20Z</time>
      </trkpt>
      <trkpt lat="45.29677" lon="5.8282">
        <ele>1737.4360351562</ele>
        <time>2017-12-22T09:34:22Z</time>
      </trkpt>
      <trkpt lat="45.29683" lon="5.82811">
        <ele>1736.4360351562</ele>
        <time>2017-12-22T09:34:24Z</time>
      </trkpt>
      <trkpt lat="45.29688" lon="5.82802">
        <ele>1734.4360351562</ele>
        <time>2017-12-22T09:34:26Z</time>
      </trkpt>
      <trkpt lat="45.29693" lon="5.82792">
        <ele>1732.4360351562</ele>
        <time>2017-12-22T09:34:28Z</time>
      </trkpt>
      <trkpt lat="45.29699" lon="5.82782">
        <ele>1730.4360351562</ele>
        <time>2017-12-22T09:34:30Z</time>
      </trkpt>
      <trkpt lat="45.29704" lon="5.82768">
        <ele>1729.4360351562</ele>
        <time>2017-12-22T09:34:32Z</time>
      </trkpt>
      <trkpt lat="45.29708" lon="5.82752">
        <ele>1726.4360351562</ele>
        <time>2017-12-22T09:34:34Z</time>
      </trkpt>
      <trkpt lat="45.29711" lon="5.82736">
        <ele>1721.4360351562</ele>
        <time>2017-12-22T09:34:36Z</time>
      </trkpt>
      <trkpt lat="45.29722" lon="5.82724">
        <ele>1717.4360351562</ele>
        <time>2017-12-22T09:34:39Z</time>
      </trkpt>
      <trkpt lat="45.2973" lon="5.82714">
        <ele>1714.4360351562</ele>
        <time>2017-12-22T09:34:42Z</time>
      </trkpt>
      <trkpt lat="45.29732" lon="5.82706">
        <ele>1710.4360351562</ele>
        <time>2017-12-22T09:34:48Z</time>
      </trkpt>
      <trkpt lat="45.29738" lon="5.82707">
        <ele>1708.4360351562</ele>
        <time>2017-12-22T09:34:59Z</time>
      </trkpt>
      <trkpt lat="45.29743" lon="5.82705">
        <ele>1706.4360351562</ele>
        <time>2017-12-22T09:35:02Z</time>
      </trkpt>
      <trkpt lat="45.29746" lon="5.82698">
        <ele>1704.4360351562</ele>
        <time>2017-12-22T09:35:04Z</time>
      </trkpt>
      <trkpt lat="45.2975" lon="5.8269">
        <ele>1702.4360351562</ele>
        <time>2017-12-22T09:35:06Z</time>
      </trkpt>
      <trkpt lat="45.29754" lon="5.82689">
        <ele>1698.4360351562</ele>
        <time>2017-12-22T09:35:15Z</time>
      </trkpt>
      <trkpt lat="45.29759" lon="5.82685">
        <ele>1696.4360351562</ele>
        <time>2017-12-22T09:35:18Z</time>
      </trkpt>
      <trkpt lat="45.29763" lon="5.8269">
        <ele>1691.4360351562</ele>
        <time>2017-12-22T09:35:22Z</time>
      </trkpt>
      <trkpt lat="45.29766" lon="5.82699">
        <ele>1689.4360351562</ele>
        <time>2017-12-22T09:35:24Z</time>
      </trkpt>
      <trkpt lat="45.29771" lon="5.82711">
        <ele>1687.4360351562</ele>
        <time>2017-12-22T09:35:26Z</time>
      </trkpt>
      <trkpt lat="45.29769" lon="5.82718">
        <ele>1683.4360351562</ele>
        <time>2017-12-22T09:35:35Z</time>
      </trkpt>
      <trkpt lat="45.29772" lon="5.82723">
        <ele>1683.4360351562</ele>
        <time>2017-12-22T09:35:46Z</time>
      </trkpt>
      <trkpt lat="45.29776" lon="5.82727">
        <ele>1682.4360351562</ele>
        <time>2017-12-22T09:35:48Z</time>
      </trkpt>
      <trkpt lat="45.29779" lon="5.82732">
        <ele>1683.4360351562</ele>
        <time>2017-12-22T09:35:51Z</time>
      </trkpt>
      <trkpt lat="45.29784" lon="5.82734">
        <ele>1676.4360351562</ele>
        <time>2017-12-22T09:36:04Z</time>
      </trkpt>
      <trkpt lat="45.29788" lon="5.8273">
        <ele>1675.4360351562</ele>
        <time>2017-12-22T09:36:17Z</time>
      </trkpt>
      <trkpt lat="45.29792" lon="5.82726">
        <ele>1686.4360351562</ele>
        <time>2017-12-22T09:36:34Z</time>
      </trkpt>
      <trkpt lat="45.29797" lon="5.82728">
        <ele>1668.4360351562</ele>
        <time>2017-12-22T09:36:43Z</time>
      </trkpt>
      <trkpt lat="45.29803" lon="5.82733">
        <ele>1663.4360351562</ele>
        <time>2017-12-22T09:36:45Z</time>
      </trkpt>
      <trkpt lat="45.29807" lon="5.82733">
        <ele>1660.4360351562</ele>
        <time>2017-12-22T09:37:19Z</time>
      </trkpt>
      <trkpt lat="45.29811" lon="5.82739">
        <ele>1659.4360351562</ele>
        <time>2017-12-22T09:37:22Z</time>
      </trkpt>
      <trkpt lat="45.29815" lon="5.82742">
        <ele>1658.4360351562</ele>
        <time>2017-12-22T09:37:25Z</time>
      </trkpt>
      <trkpt lat="45.29823" lon="5.82741">
        <ele>1657.4360351562</ele>
        <time>2017-12-22T09:37:27Z</time>
      </trkpt>
      <trkpt lat="45.29829" lon="5.82739">
        <ele>1656.4360351562</ele>
        <time>2017-12-22T09:37:28Z</time>
      </trkpt>
      <trkpt lat="45.29834" lon="5.82742">
        <ele>1648.4360351562</ele>
        <time>2017-12-22T09:37:32Z</time>
      </trkpt>
      <trkpt lat="45.29836" lon="5.82736">
        <ele>1646.4360351562</ele>
        <time>2017-12-22T09:37:37Z</time>
      </trkpt>
      <trkpt lat="45.2984" lon="5.82732">
        <ele>1644.4360351562</ele>
        <time>2017-12-22T09:37:44Z</time>
      </trkpt>
      <trkpt lat="45.29845" lon="5.82731">
        <ele>1641.4360351562</ele>
        <time>2017-12-22T09:37:49Z</time>
      </trkpt>
      <trkpt lat="45.29848" lon="5.82736">
        <ele>1627.4360351562</ele>
        <time>2017-12-22T09:38:03Z</time>
      </trkpt>
      <trkpt lat="45.29854" lon="5.82737">
        <ele>1625.4360351562</ele>
        <time>2017-12-22T09:38:13Z</time>
      </trkpt>
      <trkpt lat="45.29858" lon="5.82739">
        <ele>1623.4360351562</ele>
        <time>2017-12-22T09:38:22Z</time>
      </trkpt>
      <trkpt lat="45.29865" lon="5.82729">
        <ele>1620.4360351562</ele>
        <time>2017-12-22T09:38:29Z</time>
      </trkpt>
      <trkpt lat="45.29868" lon="5.82722">
        <ele>1620.4360351562</ele>
        <time>2017-12-22T09:38:31Z</time>
      </trkpt>
      <trkpt lat="45.29879" lon="5.82724">
        <ele>1625.4360351562</ele>
        <time>2017-12-22T09:38:59Z</time>
      </trkpt>
      <trkpt lat="45.29881" lon="5.8273">
        <ele>1620.4360351562</ele>
        <time>2017-12-22T09:39:02Z</time>
      </trkpt>
      <trkpt lat="45.29885" lon="5.82734">
        <ele>1615.4360351562</ele>
        <time>2017-12-22T09:39:08Z</time>
      </trkpt>
      <trkpt lat="45.29896" lon="5.82731">
        <ele>1613.4360351562</ele>
        <time>2017-12-22T09:39:10Z</time>
      </trkpt>
      <trkpt lat="45.29892" lon="5.82725">
        <ele>1611.4360351562</ele>
        <time>2017-12-22T09:39:11Z</time>
      </trkpt>
      <trkpt lat="45.29896" lon="5.82732">
        <ele>1608.4360351562</ele>
        <time>2017-12-22T09:39:15Z</time>
      </trkpt>
      <trkpt lat="45.29904" lon="5.82738">
        <ele>1605.4360351562</ele>
        <time>2017-12-22T09:39:42Z</time>
      </trkpt>
      <trkpt lat="45.29902" lon="5.82731">
        <ele>1602.4360351562</ele>
        <time>2017-12-22T09:39:46Z</time>
      </trkpt>
      <trkpt lat="45.29906" lon="5.82727">
        <ele>1597.4360351562</ele>
        <time>2017-12-22T09:39:54Z</time>
      </trkpt>
      <trkpt lat="45.29911" lon="5.82726">
        <ele>1594.4360351562</ele>
        <time>2017-12-22T09:40:00Z</time>
      </trkpt>
      <trkpt lat="45.29915" lon="5.82724">
        <ele>1590.4370117188</ele>
        <time>2017-12-22T09:40:05Z</time>
      </trkpt>
      <trkpt lat="45.29917" lon="5.82716">
        <ele>1586.4360351562</ele>
        <time>2017-12-22T09:40:08Z</time>
      </trkpt>
      <trkpt lat="45.29919" lon="5.82709">
        <ele>1584.4360351562</ele>
        <time>2017-12-22T09:40:11Z</time>
      </trkpt>
      <trkpt lat="45.29926" lon="5.82713">
        <ele>1574.4370117188</ele>
        <time>2017-12-22T09:40:21Z</time>
      </trkpt>
      <trkpt lat="45.29931" lon="5.82715">
        <ele>1694.4370117188</ele>
        <time>2017-12-22T09:40:25Z</time>
      </trkpt>
      <trkpt lat="45.29936" lon="5.82716">
        <ele>1580.4370117188</ele>
        <time>2017-12-22T09:40:43Z</time>
      </trkpt>
      <trkpt lat="45.29941" lon="5.82719">
        <ele>1579.4370117188</ele>
        <time>2017-12-22T09:40:45Z</time>
      </trkpt>
      <trkpt lat="45.29938" lon="5.82725">
        <ele>1567.4370117188</ele>
        <time>2017-12-22T09:40:49Z</time>
      </trkpt>
      <trkpt lat="45.29942" lon="5.8272">
        <ele>1569.4370117188</ele>
        <time>2017-12-22T09:40:53Z</time>
      </trkpt>
      <trkpt lat="45.29946" lon="5.82715">
        <ele>1566.4370117188</ele>
        <time>2017-12-22T09:40:57Z</time>
      </trkpt>
      <trkpt lat="45.29948" lon="5.82708">
        <ele>1564.4370117188</ele>
        <time>2017-12-22T09:40:59Z</time>
      </trkpt>
      <trkpt lat="45.29953" lon="5.82708">
        <ele>1560.4370117188</ele>
        <time>2017-12-22T09:41:20Z</time>
      </trkpt>
      <trkpt lat="45.29958" lon="5.82706">
        <ele>1560.4370117188</ele>
        <time>2017-12-22T09:41:25Z</time>
      </trkpt>
      <trkpt lat="45.29963" lon="5.82708">
        <ele>1558.4370117188</ele>
        <time>2017-12-22T09:41:29Z</time>
      </trkpt>
      <trkpt lat="45.29969" lon="5.82713">
        <ele>1554.4370117188</ele>
        <time>2017-12-22T09:41:31Z</time>
      </trkpt>
      <trkpt lat="45.29969" lon="5.82706">
        <ele>1544.4370117188</ele>
        <time>2017-12-22T09:41:40Z</time>
      </trkpt>
      <trkpt lat="45.29973" lon="5.827">
        <ele>1538.4370117188</ele>
        <time>2017-12-22T09:41:47Z</time>
      </trkpt>
      <trkpt lat="45.29974" lon="5.82694">
        <ele>1539.4370117188</ele>
        <time>2017-12-22T09:41:54Z</time>
      </trkpt>
      <trkpt lat="45.29978" lon="5.82689">
        <ele>1536.4370117188</ele>
        <time>2017-12-22T09:42:00Z</time>
      </trkpt>
      <trkpt lat="45.29984" lon="5.82688">
        <ele>1532.4370117188</ele>
        <time>2017-12-22T09:42:09Z</time>
      </trkpt>
      <trkpt lat="45.2999" lon="5.82683">
        <ele>1531.4370117188</ele>
        <time>2017-12-22T09:42:11Z</time>
      </trkpt>
      <trkpt lat="45.29999" lon="5.82682">
        <ele>1530.4370117188</ele>
        <time>2017-12-22T09:42:24Z</time>
      </trkpt>
      <trkpt lat="45.30005" lon="5.82677">
        <ele>1528.4370117188</ele>
        <time>2017-12-22T09:42:36Z</time>
      </trkpt>
      <trkpt lat="45.3001" lon="5.82673">
        <ele>1527.4370117188</ele>
        <time>2017-12-22T09:42:38Z</time>
      </trkpt>
      <trkpt lat="45.30013" lon="5.82666">
        <ele>1520.4370117188</ele>
        <time>2017-12-22T09:42:41Z</time>
      </trkpt>
      <trkpt lat="45.30014" lon="5.82659">
        <ele>1518.4370117188</ele>
        <time>2017-12-22T09:42:43Z</time>
      </trkpt>
      <trkpt lat="45.30018" lon="5.82654">
        <ele>1515.4370117188</ele>
        <time>2017-12-22T09:42:48Z</time>
      </trkpt>
      <trkpt lat="45.3002" lon="5.82648">
        <ele>1514.4370117188</ele>
        <time>2017-12-22T09:42:50Z</time>
      </trkpt>
      <trkpt lat="45.30026" lon="5.82642">
        <ele>1511.4370117188</ele>
        <time>2017-12-22T09:42:52Z</time>
      </trkpt>
      <trkpt lat="45.30028" lon="5.82636">
        <ele>1509.4370117188</ele>
        <time>2017-12-22T09:42:54Z</time>
      </trkpt>
      <trkpt lat="45.30032" lon="5.82638">
        <ele>1502.4370117188</ele>
        <time>2017-12-22T09:43:04Z</time>
      </trkpt>
      <trkpt lat="45.30041" lon="5.82637">
        <ele>1495.4370117188</ele>
        <time>2017-12-22T09:43:47Z</time>
      </trkpt>
      <trkpt lat="45.30047" lon="5.82636">
        <ele>1494.4370117188</ele>
        <time>2017-12-22T09:43:48Z</time>
      </trkpt>
      <trkpt lat="45.30056" lon="5.82639">
        <ele>1491.4370117188</ele>
        <time>2017-12-22T09:43:50Z</time>
      </trkpt>
      <trkpt lat="45.30069" lon="5.82637">
        <ele>1487.4370117188</ele>
        <time>2017-12-22T09:43:53Z</time>
      </trkpt>
      <trkpt lat="45.30075" lon="5.82644">
        <ele>1484.4370117188</ele>
        <time>2017-12-22T09:43:56Z</time>
      </trkpt>
      <trkpt lat="45.30081" lon="5.82642">
        <ele>1475.4370117188</ele>
        <time>2017-12-22T09:43:58Z</time>
      </trkpt>
      <trkpt lat="45.30089" lon="5.82638">
        <ele>1470.4370117188</ele>
        <time>2017-12-22T09:44:13Z</time>
      </trkpt>
      <trkpt lat="45.30092" lon="5.82642">
        <ele>1467.4370117188</ele>
        <time>2017-12-22T09:44:35Z</time>
      </trkpt>
      <trkpt lat="45.30092" lon="5.82636">
        <ele>1464.4370117188</ele>
        <time>2017-12-22T09:44:37Z</time>
      </trkpt>
      <trkpt lat="45.30097" lon="5.82634">
        <ele>1459.4370117188</ele>
        <time>2017-12-22T09:44:47Z</time>
      </trkpt>
      <trkpt lat="45.30099" lon="5.8264">
        <ele>1456.4370117188</ele>
        <time>2017-12-22T09:44:52Z</time>
      </trkpt>
      <trkpt lat="45.30105" lon="5.82636">
        <ele>1451.4370117188</ele>
        <time>2017-12-22T09:44:58Z</time>
      </trkpt>
      <trkpt lat="45.30109" lon="5.82634">
        <ele>1450.4370117188</ele>
        <time>2017-12-22T09:45:00Z</time>
      </trkpt>
      <trkpt lat="45.30114" lon="5.82638">
        <ele>1449.4370117188</ele>
        <time>2017-12-22T09:45:03Z</time>
      </trkpt>
      <trkpt lat="45.30119" lon="5.82641">
        <ele>1445.4370117188</ele>
        <time>2017-12-22T09:45:05Z</time>
      </trkpt>
      <trkpt lat="45.30121" lon="5.82634">
        <ele>1443.4370117188</ele>
        <time>2017-12-22T09:45:08Z</time>
      </trkpt>
      <trkpt lat="45.30125" lon="5.82631">
        <ele>1433.4370117188</ele>
        <time>2017-12-22T09:45:40Z</time>
      </trkpt>
      <trkpt lat="45.30127" lon="5.82642">
        <ele>1429.4370117188</ele>
        <time>2017-12-22T09:45:46Z</time>
      </trkpt>
      <trkpt lat="45.30131" lon="5.82647">
        <ele>1428.4370117188</ele>
        <time>2017-12-22T09:45:47Z</time>
      </trkpt>
      <trkpt lat="45.30131" lon="5.82654">
        <ele>1426.4370117188</ele>
        <time>2017-12-22T09:45:50Z</time>
      </trkpt>
      <trkpt lat="45.30136" lon="5.82657">
        <ele>1427.4370117188</ele>
        <time>2017-12-22T09:45:57Z</time>
      </trkpt>
      <trkpt lat="45.30144" lon="5.82657">
        <ele>1427.4370117188</ele>
        <time>2017-12-22T09:46:01Z</time>
      </trkpt>
      <trkpt lat="45.30149" lon="5.82654">
        <ele>1426.4370117188</ele>
        <time>2017-12-22T09:46:03Z</time>
      </trkpt>
      <trkpt lat="45.30155" lon="5.8265">
        <ele>1424.4370117188</ele>
        <time>2017-12-22T09:46:05Z</time>
      </trkpt>
      <trkpt lat="45.30161" lon="5.82653">
        <ele>1424.4370117188</ele>
        <time>2017-12-22T09:46:07Z</time>
      </trkpt>
      <trkpt lat="45.30163" lon="5.82662">
        <ele>1424.4370117188</ele>
        <time>2017-12-22T09:46:10Z</time>
      </trkpt>
      <trkpt lat="45.30166" lon="5.82668">
        <ele>1421.4370117188</ele>
        <time>2017-12-22T09:46:12Z</time>
      </trkpt>
      <trkpt lat="45.30171" lon="5.8267">
        <ele>1418.4370117188</ele>
        <time>2017-12-22T09:46:19Z</time>
      </trkpt>
      <trkpt lat="45.30175" lon="5.82677">
        <ele>1412.4370117188</ele>
        <time>2017-12-22T09:47:22Z</time>
      </trkpt>
      <trkpt lat="45.30178" lon="5.82682">
        <ele>1411.4370117188</ele>
        <time>2017-12-22T09:47:24Z</time>
      </trkpt>
      <trkpt lat="45.30185" lon="5.82683">
        <ele>1411.4370117188</ele>
        <time>2017-12-22T09:47:26Z</time>
      </trkpt>
      <trkpt lat="45.30192" lon="5.82685">
        <ele>1410.4370117188</ele>
        <time>2017-12-22T09:47:28Z</time>
      </trkpt>
      <trkpt lat="45.30197" lon="5.82693">
        <ele>1407.4370117188</ele>
        <time>2017-12-22T09:47:32Z</time>
      </trkpt>
      <trkpt lat="45.30202" lon="5.82694">
        <ele>1407.4370117188</ele>
        <time>2017-12-22T09:47:37Z</time>
      </trkpt>
      <trkpt lat="45.3021" lon="5.82695">
        <ele>1406.4370117188</ele>
        <time>2017-12-22T09:47:47Z</time>
      </trkpt>
      <trkpt lat="45.30216" lon="5.82697">
        <ele>1401.4370117188</ele>
        <time>2017-12-22T09:47:49Z</time>
      </trkpt>
      <trkpt lat="45.3022" lon="5.82698">
        <ele>1397.4370117188</ele>
        <time>2017-12-22T09:47:53Z</time>
      </trkpt>
      <trkpt lat="45.30225" lon="5.82696">
        <ele>1391.4370117188</ele>
        <time>2017-12-22T09:48:02Z</time>
      </trkpt>
      <trkpt lat="45.3023" lon="5.82698">
        <ele>1392.4370117188</ele>
        <time>2017-12-22T09:48:07Z</time>
      </trkpt>
      <trkpt lat="45.30237" lon="5.82696">
        <ele>1392.4370117188</ele>
        <time>2017-12-22T09:48:09Z</time>
      </trkpt>
      <trkpt lat="45.30244" lon="5.82698">
        <ele>1390.4370117188</ele>
        <time>2017-12-22T09:48:11Z</time>
      </trkpt>
      <trkpt lat="45.30257" lon="5.82696">
        <ele>1389.4370117188</ele>
        <time>2017-12-22T09:48:14Z</time>
      </trkpt>
      <trkpt lat="45.30263" lon="5.827">
        <ele>1383.4370117188</ele>
        <time>2017-12-22T09:48:17Z</time>
      </trkpt>
      <trkpt lat="45.30271" lon="5.82702">
        <ele>1380.4370117188</ele>
        <time>2017-12-22T09:48:20Z</time>
      </trkpt>
      <trkpt lat="45.30278" lon="5.827">
        <ele>1380.4370117188</ele>
        <time>2017-12-22T09:48:22Z</time>
      </trkpt>
      <trkpt lat="45.30282" lon="5.82703">
        <ele>1377.4370117188</ele>
        <time>2017-12-22T09:48:24Z</time>
      </trkpt>
      <trkpt lat="45.30286" lon="5.82705">
        <ele>1377.4370117188</ele>
        <time>2017-12-22T09:48:27Z</time>
      </trkpt>
      <trkpt lat="45.30293" lon="5.82709">
        <ele>1372.4370117188</ele>
        <time>2017-12-22T09:48:32Z</time>
      </trkpt>
      <trkpt lat="45.303" lon="5.82709">
        <ele>1372.4370117188</ele>
        <time>2017-12-22T09:48:34Z</time>
      </trkpt>
      <trkpt lat="45.30305" lon="5.82708">
        <ele>1371.4370117188</ele>
        <time>2017-12-22T09:48:36Z</time>
      </trkpt>
      <trkpt lat="45.30304" lon="5.82715">
        <ele>1369.4370117188</ele>
        <time>2017-12-22T09:48:38Z</time>
      </trkpt>
      <trkpt lat="45.30309" lon="5.8271">
        <ele>1369.4370117188</ele>
        <time>2017-12-22T09:48:39Z</time>
      </trkpt>
      <trkpt lat="45.30315" lon="5.82712">
        <ele>1365.4370117188</ele>
        <time>2017-12-22T09:48:41Z</time>
      </trkpt>
      <trkpt lat="45.30317" lon="5.82719">
        <ele>1357.4370117188</ele>
        <time>2017-12-22T09:49:04Z</time>
      </trkpt>
      <trkpt lat="45.30325" lon="5.82717">
        <ele>1358.4370117188</ele>
        <time>2017-12-22T09:49:07Z</time>
      </trkpt>
      <trkpt lat="45.30333" lon="5.82718">
        <ele>1356.4370117188</ele>
        <time>2017-12-22T09:49:09Z</time>
      </trkpt>
      <trkpt lat="45.30333" lon="5.82724">
        <ele>1352.4370117188</ele>
        <time>2017-12-22T09:49:12Z</time>
      </trkpt>
      <trkpt lat="45.30336" lon="5.8273">
        <ele>1347.4370117188</ele>
        <time>2017-12-22T09:49:16Z</time>
      </trkpt>
      <trkpt lat="45.30341" lon="5.82729">
        <ele>1347.4370117188</ele>
        <time>2017-12-22T09:49:24Z</time>
      </trkpt>
      <trkpt lat="45.30346" lon="5.82736">
        <ele>1345.4370117188</ele>
        <time>2017-12-22T09:49:27Z</time>
      </trkpt>
      <trkpt lat="45.30357" lon="5.82742">
        <ele>1340.4370117188</ele>
        <time>2017-12-22T09:49:32Z</time>
      </trkpt>
      <trkpt lat="45.30361" lon="5.82745">
        <ele>1341.4370117188</ele>
        <time>2017-12-22T09:49:35Z</time>
      </trkpt>
      <trkpt lat="45.30366" lon="5.82746">
        <ele>1337.4370117188</ele>
        <time>2017-12-22T09:49:45Z</time>
      </trkpt>
      <trkpt lat="45.30369" lon="5.8274">
        <ele>1334.4370117188</ele>
        <time>2017-12-22T09:49:47Z</time>
      </trkpt>
      <trkpt lat="45.30374" lon="5.82743">
        <ele>1332.4370117188</ele>
        <time>2017-12-22T09:49:53Z</time>
      </trkpt>
      <trkpt lat="45.30374" lon="5.8275">
        <ele>1329.4370117188</ele>
        <time>2017-12-22T09:49:56Z</time>
      </trkpt>
      <trkpt lat="45.30378" lon="5.82754">
        <ele>1327.4379882812</ele>
        <time>2017-12-22T09:50:03Z</time>
      </trkpt>
      <trkpt lat="45.30381" lon="5.82766">
        <ele>1327.4379882812</ele>
        <time>2017-12-22T09:50:12Z</time>
      </trkpt>
      <trkpt lat="45.30383" lon="5.82773">
        <ele>1325.4379882812</ele>
        <time>2017-12-22T09:50:14Z</time>
      </trkpt>
      <trkpt lat="45.30383" lon="5.82779">
        <ele>1323.4379882812</ele>
        <time>2017-12-22T09:50:19Z</time>
      </trkpt>
      <trkpt lat="45.30383" lon="5.82786">
        <ele>1321.4379882812</ele>
        <time>2017-12-22T09:53:37Z</time>
      </trkpt>
      <trkpt lat="45.30386" lon="5.82792">
        <ele>1321.4379882812</ele>
        <time>2017-12-22T09:55:02Z</time>
      </trkpt>
      <trkpt lat="45.30385" lon="5.82799">
        <ele>1319.4379882812</ele>
        <time>2017-12-22T09:55:06Z</time>
      </trkpt>
      <trkpt lat="45.30382" lon="5.82805">
        <ele>1321.4379882812</ele>
        <time>2017-12-22T09:55:10Z</time>
      </trkpt>
      <trkpt lat="45.3038" lon="5.82811">
        <ele>1321.4379882812</ele>
        <time>2017-12-22T09:55:13Z</time>
      </trkpt>
      <trkpt lat="45.30376" lon="5.82817">
        <ele>1324.4379882812</ele>
        <time>2017-12-22T09:55:18Z</time>
      </trkpt>
      <trkpt lat="45.30372" lon="5.8282">
        <ele>1322.4379882812</ele>
        <time>2017-12-22T09:55:22Z</time>
      </trkpt>
      <trkpt lat="45.30368" lon="5.82827">
        <ele>1325.4379882812</ele>
        <time>2017-12-22T09:55:31Z</time>
      </trkpt>
      <trkpt lat="45.30366" lon="5.82834">
        <ele>1329.4379882812</ele>
        <time>2017-12-22T09:55:37Z</time>
      </trkpt>
      <trkpt lat="45.30362" lon="5.8284">
        <ele>1331.4379882812</ele>
        <time>2017-12-22T09:55:41Z</time>
      </trkpt>
      <trkpt lat="45.3036" lon="5.82846">
        <ele>1330.4379882812</ele>
        <time>2017-12-22T09:55:45Z</time>
      </trkpt>
      <trkpt lat="45.30356" lon="5.82852">
        <ele>1330.4379882812</ele>
        <time>2017-12-22T09:55:48Z</time>
      </trkpt>
      <trkpt lat="45.30356" lon="5.82859">
        <ele>1328.4379882812</ele>
        <time>2017-12-22T09:55:51Z</time>
      </trkpt>
      <trkpt lat="45.30357" lon="5.82866">
        <ele>1327.4379882812</ele>
        <time>2017-12-22T09:55:57Z</time>
      </trkpt>
      <trkpt lat="45.3036" lon="5.82873">
        <ele>1331.4379882812</ele>
        <time>2017-12-22T09:56:01Z</time>
      </trkpt>
      <trkpt lat="45.30359" lon="5.82879">
        <ele>1332.4379882812</ele>
        <time>2017-12-22T09:56:06Z</time>
      </trkpt>
      <trkpt lat="45.3036" lon="5.82886">
        <ele>1336.4379882812</ele>
        <time>2017-12-22T09:56:10Z</time>
      </trkpt>
      <trkpt lat="45.30361" lon="5.82893">
        <ele>1334.4379882812</ele>
        <time>2017-12-22T09:56:14Z</time>
      </trkpt>
      <trkpt lat="45.30366" lon="5.82895">
        <ele>1336.4379882812</ele>
        <time>2017-12-22T09:56:18Z</time>
      </trkpt>
      <trkpt lat="45.30368" lon="5.82902">
        <ele>1335.4379882812</ele>
        <time>2017-12-22T09:56:23Z</time>
      </trkpt>
      <trkpt lat="45.3037" lon="5.8291">
        <ele>1332.4379882812</ele>
        <time>2017-12-22T09:56:29Z</time>
      </trkpt>
      <trkpt lat="45.30373" lon="5.82917">
        <ele>1332.4379882812</ele>
        <time>2017-12-22T09:56:35Z</time>
      </trkpt>
      <trkpt lat="45.30376" lon="5.82922">
        <ele>1331.4379882812</ele>
        <time>2017-12-22T09:56:39Z</time>
      </trkpt>
      <trkpt lat="45.3038" lon="5.82926">
        <ele>1332.4379882812</ele>
        <time>2017-12-22T09:56:44Z</time>
      </trkpt>
      <trkpt lat="45.30385" lon="5.82929">
        <ele>1334.4379882812</ele>
        <time>2017-12-22T09:56:54Z</time>
      </trkpt>
      <trkpt lat="45.30391" lon="5.82926">
        <ele>1335.4379882812</ele>
        <time>2017-12-22T09:56:57Z</time>
      </trkpt>
      <trkpt lat="45.30397" lon="5.82925">
        <ele>1335.4379882812</ele>
        <time>2017-12-22T09:57:02Z</time>
      </trkpt>
      <trkpt lat="45.30402" lon="5.82924">
        <ele>1336.4379882812</ele>
        <time>2017-12-22T09:57:07Z</time>
      </trkpt>
      <trkpt lat="45.30406" lon="5.8292">
        <ele>1335.4379882812</ele>
        <time>2017-12-22T09:57:10Z</time>
      </trkpt>
      <trkpt lat="45.30411" lon="5.82918">
        <ele>1333.4379882812</ele>
        <time>2017-12-22T09:57:15Z</time>
      </trkpt>
      <trkpt lat="45.30415" lon="5.82915">
        <ele>1334.4379882812</ele>
        <time>2017-12-22T09:57:20Z</time>
      </trkpt>
      <trkpt lat="45.30421" lon="5.82913">
        <ele>1336.4379882812</ele>
        <time>2017-12-22T09:57:28Z</time>
      </trkpt>
      <trkpt lat="45.30426" lon="5.82912">
        <ele>1339.4379882812</ele>
        <time>2017-12-22T09:57:33Z</time>
      </trkpt>
      <trkpt lat="45.30431" lon="5.8291">
        <ele>1339.4379882812</ele>
        <time>2017-12-22T09:57:38Z</time>
      </trkpt>
      <trkpt lat="45.30436" lon="5.8291">
        <ele>1339.4379882812</ele>
        <time>2017-12-22T09:57:42Z</time>
      </trkpt>
      <trkpt lat="45.30442" lon="5.82908">
        <ele>1336.4379882812</ele>
        <time>2017-12-22T09:57:46Z</time>
      </trkpt>
      <trkpt lat="45.30447" lon="5.82908">
        <ele>1337.4379882812</ele>
        <time>2017-12-22T09:57:49Z</time>
      </trkpt>
      <trkpt lat="45.30453" lon="5.82909">
        <ele>1337.4379882812</ele>
        <time>2017-12-22T09:57:53Z</time>
      </trkpt>
      <trkpt lat="45.30459" lon="5.8291">
        <ele>1336.4379882812</ele>
        <time>2017-12-22T09:57:56Z</time>
      </trkpt>
      <trkpt lat="45.30464" lon="5.82912">
        <ele>1336.4379882812</ele>
        <time>2017-12-22T09:57:59Z</time>
      </trkpt>
      <trkpt lat="45.30469" lon="5.82917">
        <ele>1335.4379882812</ele>
        <time>2017-12-22T09:58:03Z</time>
      </trkpt>
      <trkpt lat="45.30472" lon="5.82922">
        <ele>1337.4379882812</ele>
        <time>2017-12-22T09:58:08Z</time>
      </trkpt>
      <trkpt lat="45.30473" lon="5.82929">
        <ele>1335.4379882812</ele>
        <time>2017-12-22T09:58:12Z</time>
      </trkpt>
      <trkpt lat="45.30475" lon="5.82935">
        <ele>1337.4379882812</ele>
        <time>2017-12-22T09:58:16Z</time>
      </trkpt>
      <trkpt lat="45.30475" lon="5.82942">
        <ele>1337.4379882812</ele>
        <time>2017-12-22T09:58:20Z</time>
      </trkpt>
      <trkpt lat="45.30474" lon="5.8295">
        <ele>1338.4379882812</ele>
        <time>2017-12-22T09:58:24Z</time>
      </trkpt>
      <trkpt lat="45.30469" lon="5.82954">
        <ele>1340.4379882812</ele>
        <time>2017-12-22T09:58:28Z</time>
      </trkpt>
      <trkpt lat="45.30466" lon="5.8296">
        <ele>1341.4379882812</ele>
        <time>2017-12-22T09:58:31Z</time>
      </trkpt>
      <trkpt lat="45.30465" lon="5.82968">
        <ele>1343.4379882812</ele>
        <time>2017-12-22T09:58:37Z</time>
      </trkpt>
      <trkpt lat="45.30465" lon="5.82975">
        <ele>1343.4379882812</ele>
        <time>2017-12-22T09:58:43Z</time>
      </trkpt>
      <trkpt lat="45.30465" lon="5.82981">
        <ele>1344.4379882812</ele>
        <time>2017-12-22T09:58:47Z</time>
      </trkpt>
      <trkpt lat="45.30466" lon="5.82988">
        <ele>1344.4379882812</ele>
        <time>2017-12-22T09:58:51Z</time>
      </trkpt>
      <trkpt lat="45.30469" lon="5.82993">
        <ele>1341.4379882812</ele>
        <time>2017-12-22T09:58:59Z</time>
      </trkpt>
      <trkpt lat="45.3047" lon="5.83001">
        <ele>1344.4379882812</ele>
        <time>2017-12-22T09:59:03Z</time>
      </trkpt>
      <trkpt lat="45.30473" lon="5.83006">
        <ele>1347.4379882812</ele>
        <time>2017-12-22T09:59:09Z</time>
      </trkpt>
      <trkpt lat="45.30474" lon="5.83013">
        <ele>1349.4379882812</ele>
        <time>2017-12-22T09:59:15Z</time>
      </trkpt>
      <trkpt lat="45.30477" lon="5.83019">
        <ele>1348.4379882812</ele>
        <time>2017-12-22T09:59:19Z</time>
      </trkpt>
      <trkpt lat="45.30481" lon="5.83021">
        <ele>1353.4379882812</ele>
        <time>2017-12-22T09:59:24Z</time>
      </trkpt>
      <trkpt lat="45.30486" lon="5.83022">
        <ele>1358.4379882812</ele>
        <time>2017-12-22T09:59:29Z</time>
      </trkpt>
      <trkpt lat="45.30491" lon="5.83022">
        <ele>1356.4379882812</ele>
        <time>2017-12-22T09:59:34Z</time>
      </trkpt>
      <trkpt lat="45.30496" lon="5.83022">
        <ele>1357.4379882812</ele>
        <time>2017-12-22T09:59:39Z</time>
      </trkpt>
      <trkpt lat="45.30502" lon="5.83022">
        <ele>1358.4379882812</ele>
        <time>2017-12-22T09:59:44Z</time>
      </trkpt>
      <trkpt lat="45.30506" lon="5.83021">
        <ele>1360.4379882812</ele>
        <time>2017-12-22T09:59:48Z</time>
      </trkpt>
      <trkpt lat="45.30511" lon="5.83022">
        <ele>1362.4379882812</ele>
        <time>2017-12-22T09:59:52Z</time>
      </trkpt>
      <trkpt lat="45.30514" lon="5.83028">
        <ele>1362.4379882812</ele>
        <time>2017-12-22T09:59:58Z</time>
      </trkpt>
      <trkpt lat="45.30514" lon="5.83034">
        <ele>1361.4379882812</ele>
        <time>2017-12-22T10:00:02Z</time>
      </trkpt>
      <trkpt lat="45.30515" lon="5.83041">
        <ele>1360.4379882812</ele>
        <time>2017-12-22T10:00:08Z</time>
      </trkpt>
      <trkpt lat="45.30517" lon="5.83048">
        <ele>1360.4379882812</ele>
        <time>2017-12-22T10:00:15Z</time>
      </trkpt>
      <trkpt lat="45.30519" lon="5.83056">
        <ele>1364.4379882812</ele>
        <time>2017-12-22T10:00:21Z</time>
      </trkpt>
      <trkpt lat="45.3052" lon="5.83063">
        <ele>1364.4379882812</ele>
        <time>2017-12-22T10:00:27Z</time>
      </trkpt>
      <trkpt lat="45.30525" lon="5.83064">
        <ele>1364.4379882812</ele>
        <time>2017-12-22T10:00:34Z</time>
      </trkpt>
      <trkpt lat="45.3053" lon="5.83062">
        <ele>1365.4379882812</ele>
        <time>2017-12-22T10:00:39Z</time>
      </trkpt>
      <trkpt lat="45.30534" lon="5.83058">
        <ele>1365.4379882812</ele>
        <time>2017-12-22T10:00:44Z</time>
      </trkpt>
      <trkpt lat="45.30538" lon="5.83054">
        <ele>1368.4379882812</ele>
        <time>2017-12-22T10:00:49Z</time>
      </trkpt>
      <trkpt lat="45.30542" lon="5.8305">
        <ele>1368.4379882812</ele>
        <time>2017-12-22T10:00:54Z</time>
      </trkpt>
      <trkpt lat="45.30546" lon="5.83047">
        <ele>1369.4379882812</ele>
        <time>2017-12-22T10:00:59Z</time>
      </trkpt>
      <trkpt lat="45.30549" lon="5.83053">
        <ele>1372.4379882812</ele>
        <time>2017-12-22T10:01:07Z</time>
      </trkpt>
      <trkpt lat="45.3055" lon="5.83061">
        <ele>1372.4379882812</ele>
        <time>2017-12-22T10:01:13Z</time>
      </trkpt>
      <trkpt lat="45.30553" lon="5.83066">
        <ele>1371.4379882812</ele>
        <time>2017-12-22T10:01:19Z</time>
      </trkpt>
      <trkpt lat="45.30559" lon="5.83063">
        <ele>1372.4379882812</ele>
        <time>2017-12-22T10:01:26Z</time>
      </trkpt>
      <trkpt lat="45.30563" lon="5.8306">
        <ele>1375.4379882812</ele>
        <time>2017-12-22T10:01:32Z</time>
      </trkpt>
      <trkpt lat="45.30567" lon="5.83059">
        <ele>1378.4379882812</ele>
        <time>2017-12-22T10:01:38Z</time>
      </trkpt>
      <trkpt lat="45.30573" lon="5.83057">
        <ele>1381.4379882812</ele>
        <time>2017-12-22T10:01:44Z</time>
      </trkpt>
      <trkpt lat="45.30574" lon="5.83063">
        <ele>1382.4379882812</ele>
        <time>2017-12-22T10:01:53Z</time>
      </trkpt>
      <trkpt lat="45.30573" lon="5.83071">
        <ele>1383.4379882812</ele>
        <time>2017-12-22T10:02:00Z</time>
      </trkpt>
      <trkpt lat="45.30575" lon="5.83077">
        <ele>1386.4379882812</ele>
        <time>2017-12-22T10:02:09Z</time>
      </trkpt>
      <trkpt lat="45.3058" lon="5.83075">
        <ele>1390.4379882812</ele>
        <time>2017-12-22T10:02:19Z</time>
      </trkpt>
      <trkpt lat="45.30585" lon="5.83074">
        <ele>1393.4379882812</ele>
        <time>2017-12-22T10:02:25Z</time>
      </trkpt>
      <trkpt lat="45.30587" lon="5.83081">
        <ele>1393.4379882812</ele>
        <time>2017-12-22T10:02:35Z</time>
      </trkpt>
      <trkpt lat="45.30588" lon="5.83087">
        <ele>1397.4379882812</ele>
        <time>2017-12-22T10:02:43Z</time>
      </trkpt>
      <trkpt lat="45.30592" lon="5.83092">
        <ele>1398.4379882812</ele>
        <time>2017-12-22T10:02:52Z</time>
      </trkpt>
      <trkpt lat="45.30596" lon="5.83089">
        <ele>1399.4379882812</ele>
        <time>2017-12-22T10:02:59Z</time>
      </trkpt>
      <trkpt lat="45.30599" lon="5.83085">
        <ele>1399.4379882812</ele>
        <time>2017-12-22T10:03:04Z</time>
      </trkpt>
      <trkpt lat="45.30603" lon="5.8308">
        <ele>1398.4379882812</ele>
        <time>2017-12-22T10:03:10Z</time>
      </trkpt>
      <trkpt lat="45.30605" lon="5.83074">
        <ele>1399.4379882812</ele>
        <time>2017-12-22T10:03:14Z</time>
      </trkpt>
      <trkpt lat="45.30608" lon="5.83071">
        <ele>1399.4379882812</ele>
        <time>2017-12-22T10:03:18Z</time>
      </trkpt>
      <trkpt lat="45.30611" lon="5.83065">
        <ele>1400.4379882812</ele>
        <time>2017-12-22T10:03:22Z</time>
      </trkpt>
      <trkpt lat="45.30614" lon="5.83057">
        <ele>1400.4379882812</ele>
        <time>2017-12-22T10:03:29Z</time>
      </trkpt>
      <trkpt lat="45.30616" lon="5.83051">
        <ele>1408.4379882812</ele>
        <time>2017-12-22T10:05:06Z</time>
      </trkpt>
      <trkpt lat="45.30616" lon="5.83044">
        <ele>1409.4379882812</ele>
        <time>2017-12-22T10:05:10Z</time>
      </trkpt>
      <trkpt lat="45.30617" lon="5.83036">
        <ele>1407.4379882812</ele>
        <time>2017-12-22T10:05:14Z</time>
      </trkpt>
      <trkpt lat="45.30619" lon="5.8303">
        <ele>1407.4379882812</ele>
        <time>2017-12-22T10:05:18Z</time>
      </trkpt>
      <trkpt lat="45.30622" lon="5.83024">
        <ele>1408.4379882812</ele>
        <time>2017-12-22T10:05:22Z</time>
      </trkpt>
      <trkpt lat="45.30625" lon="5.83018">
        <ele>1410.4379882812</ele>
        <time>2017-12-22T10:05:25Z</time>
      </trkpt>
      <trkpt lat="45.30625" lon="5.83011">
        <ele>1410.4379882812</ele>
        <time>2017-12-22T10:05:29Z</time>
      </trkpt>
      <trkpt lat="45.30627" lon="5.83004">
        <ele>1411.4379882812</ele>
        <time>2017-12-22T10:05:33Z</time>
      </trkpt>
      <trkpt lat="45.3063" lon="5.82999">
        <ele>1411.4379882812</ele>
        <time>2017-12-22T10:05:37Z</time>
      </trkpt>
      <trkpt lat="45.30632" lon="5.82993">
        <ele>1411.4379882812</ele>
        <time>2017-12-22T10:05:40Z</time>
      </trkpt>
      <trkpt lat="45.30635" lon="5.82988">
        <ele>1410.4379882812</ele>
        <time>2017-12-22T10:05:45Z</time>
      </trkpt>
      <trkpt lat="45.30637" lon="5.82981">
        <ele>1409.4379882812</ele>
        <time>2017-12-22T10:05:49Z</time>
      </trkpt>
      <trkpt lat="45.3064" lon="5.82975">
        <ele>1409.4379882812</ele>
        <time>2017-12-22T10:05:53Z</time>
      </trkpt>
      <trkpt lat="45.30643" lon="5.82968">
        <ele>1412.4379882812</ele>
        <time>2017-12-22T10:05:57Z</time>
      </trkpt>
      <trkpt lat="45.30647" lon="5.82964">
        <ele>1412.4379882812</ele>
        <time>2017-12-22T10:06:01Z</time>
      </trkpt>
      <trkpt lat="45.30649" lon="5.82956">
        <ele>1411.4379882812</ele>
        <time>2017-12-22T10:06:07Z</time>
      </trkpt>
      <trkpt lat="45.30651" lon="5.8295">
        <ele>1414.4379882812</ele>
        <time>2017-12-22T10:06:11Z</time>
      </trkpt>
      <trkpt lat="45.30654" lon="5.82943">
        <ele>1415.4379882812</ele>
        <time>2017-12-22T10:06:15Z</time>
      </trkpt>
      <trkpt lat="45.30657" lon="5.82938">
        <ele>1417.4379882812</ele>
        <time>2017-12-22T10:06:19Z</time>
      </trkpt>
      <trkpt lat="45.30661" lon="5.82934">
        <ele>1415.4379882812</ele>
        <time>2017-12-22T10:06:23Z</time>
      </trkpt>
      <trkpt lat="45.30665" lon="5.8293">
        <ele>1413.4379882812</ele>
        <time>2017-12-22T10:06:28Z</time>
      </trkpt>
      <trkpt lat="45.30667" lon="5.82924">
        <ele>1414.4379882812</ele>
        <time>2017-12-22T10:06:32Z</time>
      </trkpt>
      <trkpt lat="45.3067" lon="5.82918">
        <ele>1414.4379882812</ele>
        <time>2017-12-22T10:06:36Z</time>
      </trkpt>
      <trkpt lat="45.30674" lon="5.82914">
        <ele>1414.4379882812</ele>
        <time>2017-12-22T10:06:43Z</time>
      </trkpt>
      <trkpt lat="45.30678" lon="5.8291">
        <ele>1418.4379882812</ele>
        <time>2017-12-22T10:06:48Z</time>
      </trkpt>
      <trkpt lat="45.30684" lon="5.82908">
        <ele>1420.4379882812</ele>
        <time>2017-12-22T10:06:52Z</time>
      </trkpt>
      <trkpt lat="45.30686" lon="5.82902">
        <ele>1421.4379882812</ele>
        <time>2017-12-22T10:06:56Z</time>
      </trkpt>
      <trkpt lat="45.3069" lon="5.82897">
        <ele>1425.4379882812</ele>
        <time>2017-12-22T10:07:00Z</time>
      </trkpt>
      <trkpt lat="45.30692" lon="5.82891">
        <ele>1426.4379882812</ele>
        <time>2017-12-22T10:07:04Z</time>
      </trkpt>
      <trkpt lat="45.30695" lon="5.82885">
        <ele>1427.4379882812</ele>
        <time>2017-12-22T10:07:09Z</time>
      </trkpt>
      <trkpt lat="45.30697" lon="5.82879">
        <ele>1422.4379882812</ele>
        <time>2017-12-22T10:07:15Z</time>
      </trkpt>
      <trkpt lat="45.30702" lon="5.82875">
        <ele>1421.4379882812</ele>
        <time>2017-12-22T10:07:20Z</time>
      </trkpt>
      <trkpt lat="45.30703" lon="5.82869">
        <ele>1424.4379882812</ele>
        <time>2017-12-22T10:07:24Z</time>
      </trkpt>
      <trkpt lat="45.30706" lon="5.82864">
        <ele>1423.4379882812</ele>
        <time>2017-12-22T10:07:27Z</time>
      </trkpt>
      <trkpt lat="45.3071" lon="5.82859">
        <ele>1422.4379882812</ele>
        <time>2017-12-22T10:07:32Z</time>
      </trkpt>
      <trkpt lat="45.30713" lon="5.82854">
        <ele>1426.4379882812</ele>
        <time>2017-12-22T10:07:39Z</time>
      </trkpt>
      <trkpt lat="45.30717" lon="5.8285">
        <ele>1423.4379882812</ele>
        <time>2017-12-22T10:07:43Z</time>
      </trkpt>
      <trkpt lat="45.3072" lon="5.82845">
        <ele>1425.4379882812</ele>
        <time>2017-12-22T10:07:46Z</time>
      </trkpt>
      <trkpt lat="45.30723" lon="5.82838">
        <ele>1428.4379882812</ele>
        <time>2017-12-22T10:07:51Z</time>
      </trkpt>
      <trkpt lat="45.30727" lon="5.82833">
        <ele>1429.4379882812</ele>
        <time>2017-12-22T10:07:56Z</time>
      </trkpt>
      <trkpt lat="45.3073" lon="5.82825">
        <ele>1429.4379882812</ele>
        <time>2017-12-22T10:08:02Z</time>
      </trkpt>
      <trkpt lat="45.30733" lon="5.82818">
        <ele>1431.4379882812</ele>
        <time>2017-12-22T10:08:09Z</time>
      </trkpt>
      <trkpt lat="45.30737" lon="5.82812">
        <ele>1432.4379882812</ele>
        <time>2017-12-22T10:08:14Z</time>
      </trkpt>
      <trkpt lat="45.3074" lon="5.82807">
        <ele>1432.4379882812</ele>
        <time>2017-12-22T10:08:18Z</time>
      </trkpt>
      <trkpt lat="45.30743" lon="5.82802">
        <ele>1432.4379882812</ele>
        <time>2017-12-22T10:08:24Z</time>
      </trkpt>
      <trkpt lat="45.30748" lon="5.82795">
        <ele>1430.4379882812</ele>
        <time>2017-12-22T10:08:28Z</time>
      </trkpt>
      <trkpt lat="45.3075" lon="5.82789">
        <ele>1432.4379882812</ele>
        <time>2017-12-22T10:08:33Z</time>
      </trkpt>
      <trkpt lat="45.30751" lon="5.82781">
        <ele>1433.4379882812</ele>
        <time>2017-12-22T10:08:38Z</time>
      </trkpt>
      <trkpt lat="45.30756" lon="5.82777">
        <ele>1431.4379882812</ele>
        <time>2017-12-22T10:08:41Z</time>
      </trkpt>
      <trkpt lat="45.30758" lon="5.82769">
        <ele>1431.4379882812</ele>
        <time>2017-12-22T10:08:48Z</time>
      </trkpt>
      <trkpt lat="45.30759" lon="5.82761">
        <ele>1433.4379882812</ele>
        <time>2017-12-22T10:08:54Z</time>
      </trkpt>
      <trkpt lat="45.30761" lon="5.82753">
        <ele>1434.4379882812</ele>
        <time>2017-12-22T10:08:58Z</time>
      </trkpt>
      <trkpt lat="45.30763" lon="5.82745">
        <ele>1435.4379882812</ele>
        <time>2017-12-22T10:09:03Z</time>
      </trkpt>
      <trkpt lat="45.30766" lon="5.82739">
        <ele>1436.4379882812</ele>
        <time>2017-12-22T10:09:07Z</time>
      </trkpt>
      <trkpt lat="45.30767" lon="5.82731">
        <ele>1437.4379882812</ele>
        <time>2017-12-22T10:09:11Z</time>
      </trkpt>
      <trkpt lat="45.3077" lon="5.82726">
        <ele>1438.4379882812</ele>
        <time>2017-12-22T10:09:16Z</time>
      </trkpt>
      <trkpt lat="45.30773" lon="5.8272">
        <ele>1442.4379882812</ele>
        <time>2017-12-22T10:09:23Z</time>
      </trkpt>
      <trkpt lat="45.30778" lon="5.82718">
        <ele>1441.4379882812</ele>
        <time>2017-12-22T10:09:26Z</time>
      </trkpt>
      <trkpt lat="45.30782" lon="5.82715">
        <ele>1441.4379882812</ele>
        <time>2017-12-22T10:09:33Z</time>
      </trkpt>
      <trkpt lat="45.30787" lon="5.82712">
        <ele>1444.4379882812</ele>
        <time>2017-12-22T10:09:48Z</time>
      </trkpt>
      <trkpt lat="45.30793" lon="5.82708">
        <ele>1448.4379882812</ele>
        <time>2017-12-22T10:09:54Z</time>
      </trkpt>
      <trkpt lat="45.30797" lon="5.82706">
        <ele>1450.4379882812</ele>
        <time>2017-12-22T10:10:02Z</time>
      </trkpt>
      <trkpt lat="45.30801" lon="5.82703">
        <ele>1450.4379882812</ele>
        <time>2017-12-22T10:10:06Z</time>
      </trkpt>
      <trkpt lat="45.30806" lon="5.82705">
        <ele>1449.4379882812</ele>
        <time>2017-12-22T10:11:36Z</time>
      </trkpt>
      <trkpt lat="45.30813" lon="5.82699">
        <ele>1453.4379882812</ele>
        <time>2017-12-22T10:11:41Z</time>
      </trkpt>
      <trkpt lat="45.30817" lon="5.82694">
        <ele>1449.4379882812</ele>
        <time>2017-12-22T10:11:50Z</time>
      </trkpt>
      <trkpt lat="45.30821" lon="5.82693">
        <ele>1453.4379882812</ele>
        <time>2017-12-22T10:11:57Z</time>
      </trkpt>
      <trkpt lat="45.30826" lon="5.82689">
        <ele>1452.4379882812</ele>
        <time>2017-12-22T10:12:01Z</time>
      </trkpt>
      <trkpt lat="45.3083" lon="5.82686">
        <ele>1453.4379882812</ele>
        <time>2017-12-22T10:12:06Z</time>
      </trkpt>
      <trkpt lat="45.30835" lon="5.82683">
        <ele>1455.4379882812</ele>
        <time>2017-12-22T10:12:10Z</time>
      </trkpt>
      <trkpt lat="45.30838" lon="5.82678">
        <ele>1456.4379882812</ele>
        <time>2017-12-22T10:12:14Z</time>
      </trkpt>
      <trkpt lat="45.30843" lon="5.82674">
        <ele>1459.4379882812</ele>
        <time>2017-12-22T10:12:20Z</time>
      </trkpt>
      <trkpt lat="45.30846" lon="5.82668">
        <ele>1461.4379882812</ele>
        <time>2017-12-22T10:12:26Z</time>
      </trkpt>
      <trkpt lat="45.30852" lon="5.82667">
        <ele>1460.4379882812</ele>
        <time>2017-12-22T10:12:31Z</time>
      </trkpt>
      <trkpt lat="45.30855" lon="5.82663">
        <ele>1463.4379882812</ele>
        <time>2017-12-22T10:12:41Z</time>
      </trkpt>
      <trkpt lat="45.30859" lon="5.8266">
        <ele>1459.4379882812</ele>
        <time>2017-12-22T10:12:50Z</time>
      </trkpt>
      <trkpt lat="45.30864" lon="5.82657">
        <ele>1460.4379882812</ele>
        <time>2017-12-22T10:12:56Z</time>
      </trkpt>
      <trkpt lat="45.30869" lon="5.82654">
        <ele>1464.4379882812</ele>
        <time>2017-12-22T10:12:58Z</time>
      </trkpt>
      <trkpt lat="45.30872" lon="5.82649">
        <ele>1470.4379882812</ele>
        <time>2017-12-22T10:13:05Z</time>
      </trkpt>
      <trkpt lat="45.30877" lon="5.82648">
        <ele>1474.4379882812</ele>
        <time>2017-12-22T10:13:10Z</time>
      </trkpt>
      <trkpt lat="45.30883" lon="5.82648">
        <ele>1475.4379882812</ele>
        <time>2017-12-22T10:13:13Z</time>
      </trkpt>
      <trkpt lat="45.30887" lon="5.82649">
        <ele>1479.4379882812</ele>
        <time>2017-12-22T10:13:16Z</time>
      </trkpt>
      <trkpt lat="45.30892" lon="5.82648">
        <ele>1480.4379882812</ele>
        <time>2017-12-22T10:13:20Z</time>
      </trkpt>
      <trkpt lat="45.30898" lon="5.82647">
        <ele>1481.4379882812</ele>
        <time>2017-12-22T10:13:28Z</time>
      </trkpt>
      <trkpt lat="45.30903" lon="5.82647">
        <ele>1482.4379882812</ele>
        <time>2017-12-22T10:13:33Z</time>
      </trkpt>
      <trkpt lat="45.30908" lon="5.82646">
        <ele>1477.4379882812</ele>
        <time>2017-12-22T10:13:41Z</time>
      </trkpt>
      <trkpt lat="45.30911" lon="5.82651">
        <ele>1482.4379882812</ele>
        <time>2017-12-22T10:13:50Z</time>
      </trkpt>
      <trkpt lat="45.30912" lon="5.82657">
        <ele>1480.4379882812</ele>
        <time>2017-12-22T10:13:56Z</time>
      </trkpt>
      <trkpt lat="45.30908" lon="5.82662">
        <ele>1482.4379882812</ele>
        <time>2017-12-22T10:14:01Z</time>
      </trkpt>
      <trkpt lat="45.3091" lon="5.82669">
        <ele>1482.4389648438</ele>
        <time>2017-12-22T10:14:07Z</time>
      </trkpt>
      <trkpt lat="45.3091" lon="5.82675">
        <ele>1479.4389648438</ele>
        <time>2017-12-22T10:14:14Z</time>
      </trkpt>
      <trkpt lat="45.30908" lon="5.82683">
        <ele>1481.4389648438</ele>
        <time>2017-12-22T10:14:20Z</time>
      </trkpt>
      <trkpt lat="45.30907" lon="5.82691">
        <ele>1483.4389648438</ele>
        <time>2017-12-22T10:14:26Z</time>
      </trkpt>
      <trkpt lat="45.30909" lon="5.82698">
        <ele>1486.4389648438</ele>
        <time>2017-12-22T10:14:34Z</time>
      </trkpt>
      <trkpt lat="45.30914" lon="5.82701">
        <ele>1495.4389648438</ele>
        <time>2017-12-22T10:14:52Z</time>
      </trkpt>
      <trkpt lat="45.30918" lon="5.82707">
        <ele>1493.4389648438</ele>
        <time>2017-12-22T10:14:56Z</time>
      </trkpt>
      <trkpt lat="45.30923" lon="5.82707">
        <ele>1402.4389648438</ele>
        <time>2017-12-22T10:15:00Z</time>
      </trkpt>
      <trkpt lat="45.30928" lon="5.82708">
        <ele>1460.4389648438</ele>
        <time>2017-12-22T10:15:05Z</time>
      </trkpt>
      <trkpt lat="45.30931" lon="5.82713">
        <ele>1490.4389648438</ele>
        <time>2017-12-22T10:15:12Z</time>
      </trkpt>
      <trkpt lat="45.30936" lon="5.82715">
        <ele>1497.4389648438</ele>
        <time>2017-12-22T10:15:19Z</time>
      </trkpt>
      <trkpt lat="45.3094" lon="5.82717">
        <ele>1500.4389648438</ele>
        <time>2017-12-22T10:15:23Z</time>
      </trkpt>
      <trkpt lat="45.30945" lon="5.82719">
        <ele>1504.4389648438</ele>
        <time>2017-12-22T10:15:32Z</time>
      </trkpt>
      <trkpt lat="45.3095" lon="5.82724">
        <ele>1503.4389648438</ele>
        <time>2017-12-22T10:15:37Z</time>
      </trkpt>
      <trkpt lat="45.30954" lon="5.82728">
        <ele>1506.4389648438</ele>
        <time>2017-12-22T10:15:43Z</time>
      </trkpt>
      <trkpt lat="45.30958" lon="5.82732">
        <ele>1506.4389648438</ele>
        <time>2017-12-22T10:15:49Z</time>
      </trkpt>
      <trkpt lat="45.30963" lon="5.82734">
        <ele>1510.4389648438</ele>
        <time>2017-12-22T10:15:55Z</time>
      </trkpt>
      <trkpt lat="45.30967" lon="5.82736">
        <ele>1510.4389648438</ele>
        <time>2017-12-22T10:15:59Z</time>
      </trkpt>
      <trkpt lat="45.3097" lon="5.82744">
        <ele>1511.4389648438</ele>
        <time>2017-12-22T10:16:07Z</time>
      </trkpt>
      <trkpt lat="45.30973" lon="5.82749">
        <ele>1513.4389648438</ele>
        <time>2017-12-22T10:16:12Z</time>
      </trkpt>
      <trkpt lat="45.30973" lon="5.82756">
        <ele>1512.4389648438</ele>
        <time>2017-12-22T10:16:19Z</time>
      </trkpt>
      <trkpt lat="45.30972" lon="5.82764">
        <ele>1515.4389648438</ele>
        <time>2017-12-22T10:16:26Z</time>
      </trkpt>
      <trkpt lat="45.30972" lon="5.8277">
        <ele>1517.4389648438</ele>
        <time>2017-12-22T10:16:35Z</time>
      </trkpt>
      <trkpt lat="45.30971" lon="5.82778">
        <ele>1517.4389648438</ele>
        <time>2017-12-22T10:16:41Z</time>
      </trkpt>
      <trkpt lat="45.30971" lon="5.82785">
        <ele>1519.4389648438</ele>
        <time>2017-12-22T10:16:50Z</time>
      </trkpt>
      <trkpt lat="45.30975" lon="5.82789">
        <ele>1522.4389648438</ele>
        <time>2017-12-22T10:16:56Z</time>
      </trkpt>
      <trkpt lat="45.30979" lon="5.82793">
        <ele>1527.4389648438</ele>
        <time>2017-12-22T10:17:02Z</time>
      </trkpt>
      <trkpt lat="45.30983" lon="5.82798">
        <ele>1529.4389648438</ele>
        <time>2017-12-22T10:17:12Z</time>
      </trkpt>
      <trkpt lat="45.30988" lon="5.82801">
        <ele>1530.4389648438</ele>
        <time>2017-12-22T10:17:17Z</time>
      </trkpt>
      <trkpt lat="45.30988" lon="5.82808">
        <ele>1523.4389648438</ele>
        <time>2017-12-22T10:17:19Z</time>
      </trkpt>
      <trkpt lat="45.30993" lon="5.82812">
        <ele>1521.4389648438</ele>
        <time>2017-12-22T10:17:24Z</time>
      </trkpt>
      <trkpt lat="45.30997" lon="5.82816">
        <ele>1523.4389648438</ele>
        <time>2017-12-22T10:17:29Z</time>
      </trkpt>
      <trkpt lat="45.31001" lon="5.8282">
        <ele>1523.4389648438</ele>
        <time>2017-12-22T10:17:34Z</time>
      </trkpt>
      <trkpt lat="45.31004" lon="5.82825">
        <ele>1526.4389648438</ele>
        <time>2017-12-22T10:17:41Z</time>
      </trkpt>
      <trkpt lat="45.31009" lon="5.82829">
        <ele>1530.4389648438</ele>
        <time>2017-12-22T10:17:50Z</time>
      </trkpt>
      <trkpt lat="45.31012" lon="5.82835">
        <ele>1531.4389648438</ele>
        <time>2017-12-22T10:17:58Z</time>
      </trkpt>
      <trkpt lat="45.31015" lon="5.8284">
        <ele>1533.4389648438</ele>
        <time>2017-12-22T10:18:04Z</time>
      </trkpt>
      <trkpt lat="45.3102" lon="5.82846">
        <ele>1535.4389648438</ele>
        <time>2017-12-22T10:18:11Z</time>
      </trkpt>
      <trkpt lat="45.31024" lon="5.8285">
        <ele>1534.4389648438</ele>
        <time>2017-12-22T10:18:15Z</time>
      </trkpt>
      <trkpt lat="45.31027" lon="5.82855">
        <ele>1540.4389648438</ele>
        <time>2017-12-22T10:18:22Z</time>
      </trkpt>
      <trkpt lat="45.31031" lon="5.8286">
        <ele>1543.4389648438</ele>
        <time>2017-12-22T10:18:31Z</time>
      </trkpt>
      <trkpt lat="45.31032" lon="5.82867">
        <ele>1548.4389648438</ele>
        <time>2017-12-22T10:18:40Z</time>
      </trkpt>
      <trkpt lat="45.31035" lon="5.82872">
        <ele>1546.4389648438</ele>
        <time>2017-12-22T10:18:48Z</time>
      </trkpt>
      <trkpt lat="45.31039" lon="5.82876">
        <ele>1546.4389648438</ele>
        <time>2017-12-22T10:18:53Z</time>
      </trkpt>
      <trkpt lat="45.31043" lon="5.82881">
        <ele>1546.4389648438</ele>
        <time>2017-12-22T10:18:58Z</time>
      </trkpt>
      <trkpt lat="45.31046" lon="5.82886">
        <ele>1547.4389648438</ele>
        <time>2017-12-22T10:19:07Z</time>
      </trkpt>
      <trkpt lat="45.3105" lon="5.82891">
        <ele>1552.4389648438</ele>
        <time>2017-12-22T10:19:16Z</time>
      </trkpt>
      <trkpt lat="45.31055" lon="5.82895">
        <ele>1554.4389648438</ele>
        <time>2017-12-22T10:19:23Z</time>
      </trkpt>
      <trkpt lat="45.3106" lon="5.82896">
        <ele>1555.4389648438</ele>
        <time>2017-12-22T10:19:30Z</time>
      </trkpt>
      <trkpt lat="45.31065" lon="5.82897">
        <ele>1555.4389648438</ele>
        <time>2017-12-22T10:19:36Z</time>
      </trkpt>
      <trkpt lat="45.31071" lon="5.82896">
        <ele>1557.4389648438</ele>
        <time>2017-12-22T10:19:41Z</time>
      </trkpt>
      <trkpt lat="45.31076" lon="5.82898">
        <ele>1561.4389648438</ele>
        <time>2017-12-22T10:19:48Z</time>
      </trkpt>
      <trkpt lat="45.31081" lon="5.829">
        <ele>1560.4389648438</ele>
        <time>2017-12-22T10:19:54Z</time>
      </trkpt>
      <trkpt lat="45.31085" lon="5.82902">
        <ele>1562.4389648438</ele>
        <time>2017-12-22T10:20:00Z</time>
      </trkpt>
      <trkpt lat="45.3109" lon="5.82902">
        <ele>1563.4389648438</ele>
        <time>2017-12-22T10:20:08Z</time>
      </trkpt>
      <trkpt lat="45.31094" lon="5.82901">
        <ele>1565.4389648438</ele>
        <time>2017-12-22T10:20:11Z</time>
      </trkpt>
      <trkpt lat="45.31098" lon="5.82904">
        <ele>1566.4389648438</ele>
        <time>2017-12-22T10:20:19Z</time>
      </trkpt>
      <trkpt lat="45.31103" lon="5.82905">
        <ele>1565.4389648438</ele>
        <time>2017-12-22T10:20:27Z</time>
      </trkpt>
      <trkpt lat="45.31108" lon="5.82907">
        <ele>1567.4389648438</ele>
        <time>2017-12-22T10:20:31Z</time>
      </trkpt>
      <trkpt lat="45.31113" lon="5.82907">
        <ele>1568.4389648438</ele>
        <time>2017-12-22T10:20:37Z</time>
      </trkpt>
      <trkpt lat="45.31118" lon="5.82908">
        <ele>1570.4389648438</ele>
        <time>2017-12-22T10:20:45Z</time>
      </trkpt>
      <trkpt lat="45.31123" lon="5.82909">
        <ele>1572.4389648438</ele>
        <time>2017-12-22T10:20:51Z</time>
      </trkpt>
      <trkpt lat="45.31128" lon="5.8291">
        <ele>1568.4389648438</ele>
        <time>2017-12-22T10:20:56Z</time>
      </trkpt>
      <trkpt lat="45.31133" lon="5.82912">
        <ele>1573.4389648438</ele>
        <time>2017-12-22T10:21:03Z</time>
      </trkpt>
      <trkpt lat="45.31139" lon="5.82915">
        <ele>1574.4389648438</ele>
        <time>2017-12-22T10:21:10Z</time>
      </trkpt>
      <trkpt lat="45.31144" lon="5.82917">
        <ele>1575.4389648438</ele>
        <time>2017-12-22T10:21:16Z</time>
      </trkpt>
      <trkpt lat="45.31149" lon="5.82918">
        <ele>1575.4389648438</ele>
        <time>2017-12-22T10:21:24Z</time>
      </trkpt>
      <trkpt lat="45.31154" lon="5.8292">
        <ele>1574.4389648438</ele>
        <time>2017-12-22T10:21:29Z</time>
      </trkpt>
      <trkpt lat="45.31159" lon="5.82923">
        <ele>1578.4389648438</ele>
        <time>2017-12-22T10:21:35Z</time>
      </trkpt>
      <trkpt lat="45.31164" lon="5.82923">
        <ele>1577.4389648438</ele>
        <time>2017-12-22T10:21:40Z</time>
      </trkpt>
      <trkpt lat="45.31169" lon="5.82926">
        <ele>1579.4389648438</ele>
        <time>2017-12-22T10:21:45Z</time>
      </trkpt>
      <trkpt lat="45.31173" lon="5.8293">
        <ele>1581.4389648438</ele>
        <time>2017-12-22T10:21:51Z</time>
      </trkpt>
      <trkpt lat="45.31177" lon="5.82934">
        <ele>1580.4389648438</ele>
        <time>2017-12-22T10:21:59Z</time>
      </trkpt>
      <trkpt lat="45.31182" lon="5.82938">
        <ele>1580.4389648438</ele>
        <time>2017-12-22T10:22:04Z</time>
      </trkpt>
      <trkpt lat="45.31184" lon="5.82944">
        <ele>1582.4389648438</ele>
        <time>2017-12-22T10:22:09Z</time>
      </trkpt>
      <trkpt lat="45.31185" lon="5.82951">
        <ele>1583.4389648438</ele>
        <time>2017-12-22T10:22:18Z</time>
      </trkpt>
      <trkpt lat="45.31187" lon="5.82957">
        <ele>1585.4389648438</ele>
        <time>2017-12-22T10:22:23Z</time>
      </trkpt>
      <trkpt lat="45.31191" lon="5.82962">
        <ele>1586.4389648438</ele>
        <time>2017-12-22T10:22:29Z</time>
      </trkpt>
      <trkpt lat="45.31192" lon="5.82969">
        <ele>1589.4389648438</ele>
        <time>2017-12-22T10:22:35Z</time>
      </trkpt>
      <trkpt lat="45.31195" lon="5.82976">
        <ele>1589.4399414062</ele>
        <time>2017-12-22T10:22:41Z</time>
      </trkpt>
      <trkpt lat="45.31199" lon="5.82981">
        <ele>1589.4399414062</ele>
        <time>2017-12-22T10:22:47Z</time>
      </trkpt>
      <trkpt lat="45.31202" lon="5.82985">
        <ele>1591.4399414062</ele>
        <time>2017-12-22T10:22:53Z</time>
      </trkpt>
      <trkpt lat="45.31206" lon="5.82991">
        <ele>1594.4399414062</ele>
        <time>2017-12-22T10:23:00Z</time>
      </trkpt>
      <trkpt lat="45.3121" lon="5.82995">
        <ele>1575.4399414062</ele>
        <time>2017-12-22T10:23:06Z</time>
      </trkpt>
      <trkpt lat="45.31214" lon="5.83">
        <ele>1594.4399414062</ele>
        <time>2017-12-22T10:23:11Z</time>
      </trkpt>
      <trkpt lat="45.31218" lon="5.83005">
        <ele>1597.4399414062</ele>
        <time>2017-12-22T10:23:20Z</time>
      </trkpt>
      <trkpt lat="45.3122" lon="5.83011">
        <ele>1599.4399414062</ele>
        <time>2017-12-22T10:23:25Z</time>
      </trkpt>
      <trkpt lat="45.31223" lon="5.83017">
        <ele>1600.4399414062</ele>
        <time>2017-12-22T10:23:31Z</time>
      </trkpt>
      <trkpt lat="45.31226" lon="5.83023">
        <ele>1600.4399414062</ele>
        <time>2017-12-22T10:23:36Z</time>
      </trkpt>
      <trkpt lat="45.3123" lon="5.83028">
        <ele>1599.4399414062</ele>
        <time>2017-12-22T10:23:43Z</time>
      </trkpt>
      <trkpt lat="45.31233" lon="5.83033">
        <ele>1601.4399414062</ele>
        <time>2017-12-22T10:23:50Z</time>
      </trkpt>
      <trkpt lat="45.31235" lon="5.83038">
        <ele>1603.4399414062</ele>
        <time>2017-12-22T10:23:56Z</time>
      </trkpt>
      <trkpt lat="45.31238" lon="5.83044">
        <ele>1604.4399414062</ele>
        <time>2017-12-22T10:24:02Z</time>
      </trkpt>
      <trkpt lat="45.31242" lon="5.83049">
        <ele>1603.4399414062</ele>
        <time>2017-12-22T10:24:07Z</time>
      </trkpt>
      <trkpt lat="45.31244" lon="5.83055">
        <ele>1604.4399414062</ele>
        <time>2017-12-22T10:24:13Z</time>
      </trkpt>
      <trkpt lat="45.31246" lon="5.83061">
        <ele>1605.4399414062</ele>
        <time>2017-12-22T10:24:18Z</time>
      </trkpt>
      <trkpt lat="45.3125" lon="5.83065">
        <ele>1603.4399414062</ele>
        <time>2017-12-22T10:24:22Z</time>
      </trkpt>
      <trkpt lat="45.31251" lon="5.83072">
        <ele>1605.4399414062</ele>
        <time>2017-12-22T10:24:28Z</time>
      </trkpt>
      <trkpt lat="45.31255" lon="5.83075">
        <ele>1606.4399414062</ele>
        <time>2017-12-22T10:24:33Z</time>
      </trkpt>
      <trkpt lat="45.31258" lon="5.8308">
        <ele>1608.4399414062</ele>
        <time>2017-12-22T10:24:39Z</time>
      </trkpt>
      <trkpt lat="45.31261" lon="5.83085">
        <ele>1609.4399414062</ele>
        <time>2017-12-22T10:24:46Z</time>
      </trkpt>
      <trkpt lat="45.31262" lon="5.83091">
        <ele>1611.4399414062</ele>
        <time>2017-12-22T10:24:53Z</time>
      </trkpt>
      <trkpt lat="45.31263" lon="5.83098">
        <ele>1611.4399414062</ele>
        <time>2017-12-22T10:25:00Z</time>
      </trkpt>
      <trkpt lat="45.31261" lon="5.83103">
        <ele>1614.4399414062</ele>
        <time>2017-12-22T10:25:09Z</time>
      </trkpt>
      <trkpt lat="45.31264" lon="5.83109">
        <ele>1615.4399414062</ele>
        <time>2017-12-22T10:25:16Z</time>
      </trkpt>
      <trkpt lat="45.31263" lon="5.83115">
        <ele>1620.4399414062</ele>
        <time>2017-12-22T10:25:34Z</time>
      </trkpt>
      <trkpt lat="45.31262" lon="5.83122">
        <ele>1625.4399414062</ele>
        <time>2017-12-22T10:25:40Z</time>
      </trkpt>
      <trkpt lat="45.31263" lon="5.8313">
        <ele>1627.4399414062</ele>
        <time>2017-12-22T10:25:47Z</time>
      </trkpt>
      <trkpt lat="45.31263" lon="5.83137">
        <ele>1629.4399414062</ele>
        <time>2017-12-22T10:25:54Z</time>
      </trkpt>
      <trkpt lat="45.31264" lon="5.83143">
        <ele>1631.4399414062</ele>
        <time>2017-12-22T10:26:00Z</time>
      </trkpt>
      <trkpt lat="45.31264" lon="5.8315">
        <ele>1631.4399414062</ele>
        <time>2017-12-22T10:26:05Z</time>
      </trkpt>
      <trkpt lat="45.31266" lon="5.83158">
        <ele>1631.4399414062</ele>
        <time>2017-12-22T10:26:10Z</time>
      </trkpt>
      <trkpt lat="45.31268" lon="5.83164">
        <ele>1630.4399414062</ele>
        <time>2017-12-22T10:26:15Z</time>
      </trkpt>
      <trkpt lat="45.3127" lon="5.83172">
        <ele>1632.4399414062</ele>
        <time>2017-12-22T10:26:24Z</time>
      </trkpt>
      <trkpt lat="45.3127" lon="5.83179">
        <ele>1632.4399414062</ele>
        <time>2017-12-22T10:26:30Z</time>
      </trkpt>
      <trkpt lat="45.31269" lon="5.83187">
        <ele>1634.4399414062</ele>
        <time>2017-12-22T10:26:35Z</time>
      </trkpt>
      <trkpt lat="45.31272" lon="5.83192">
        <ele>1633.4399414062</ele>
        <time>2017-12-22T10:26:41Z</time>
      </trkpt>
      <trkpt lat="45.31272" lon="5.832">
        <ele>1636.4399414062</ele>
        <time>2017-12-22T10:26:57Z</time>
      </trkpt>
      <trkpt lat="45.31272" lon="5.83207">
        <ele>1636.4399414062</ele>
        <time>2017-12-22T10:27:02Z</time>
      </trkpt>
      <trkpt lat="45.31272" lon="5.83213">
        <ele>1636.4399414062</ele>
        <time>2017-12-22T10:27:08Z</time>
      </trkpt>
      <trkpt lat="45.3127" lon="5.8322">
        <ele>1637.4399414062</ele>
        <time>2017-12-22T10:27:19Z</time>
      </trkpt>
      <trkpt lat="45.31269" lon="5.83227">
        <ele>1639.4399414062</ele>
        <time>2017-12-22T10:27:23Z</time>
      </trkpt>
      <trkpt lat="45.31268" lon="5.83233">
        <ele>1640.4399414062</ele>
        <time>2017-12-22T10:27:28Z</time>
      </trkpt>
      <trkpt lat="45.31267" lon="5.8324">
        <ele>1640.4399414062</ele>
        <time>2017-12-22T10:27:33Z</time>
      </trkpt>
      <trkpt lat="45.31265" lon="5.83246">
        <ele>1640.4399414062</ele>
        <time>2017-12-22T10:27:37Z</time>
      </trkpt>
      <trkpt lat="45.31264" lon="5.83253">
        <ele>1641.4399414062</ele>
        <time>2017-12-22T10:27:42Z</time>
      </trkpt>
      <trkpt lat="45.31262" lon="5.8326">
        <ele>1641.4399414062</ele>
        <time>2017-12-22T10:27:47Z</time>
      </trkpt>
      <trkpt lat="45.3126" lon="5.83267">
        <ele>1643.4399414062</ele>
        <time>2017-12-22T10:27:52Z</time>
      </trkpt>
      <trkpt lat="45.31258" lon="5.83275">
        <ele>1643.4399414062</ele>
        <time>2017-12-22T10:27:58Z</time>
      </trkpt>
      <trkpt lat="45.31255" lon="5.83281">
        <ele>1643.4399414062</ele>
        <time>2017-12-22T10:28:03Z</time>
      </trkpt>
      <trkpt lat="45.31254" lon="5.83288">
        <ele>1644.4399414062</ele>
        <time>2017-12-22T10:28:07Z</time>
      </trkpt>
      <trkpt lat="45.31255" lon="5.83296">
        <ele>1645.4399414062</ele>
        <time>2017-12-22T10:28:11Z</time>
      </trkpt>
      <trkpt lat="45.31255" lon="5.83303">
        <ele>1646.4399414062</ele>
        <time>2017-12-22T10:28:15Z</time>
      </trkpt>
      <trkpt lat="45.31254" lon="5.83309">
        <ele>1646.4399414062</ele>
        <time>2017-12-22T10:28:18Z</time>
      </trkpt>
      <trkpt lat="45.31253" lon="5.83316">
        <ele>1646.4399414062</ele>
        <time>2017-12-22T10:28:22Z</time>
      </trkpt>
      <trkpt lat="45.31252" lon="5.83323">
        <ele>1647.4399414062</ele>
        <time>2017-12-22T10:28:26Z</time>
      </trkpt>
      <trkpt lat="45.31251" lon="5.83329">
        <ele>1648.4399414062</ele>
        <time>2017-12-22T10:28:30Z</time>
      </trkpt>
      <trkpt lat="45.31249" lon="5.83336">
        <ele>1649.4399414062</ele>
        <time>2017-12-22T10:28:34Z</time>
      </trkpt>
      <trkpt lat="45.31249" lon="5.83342">
        <ele>1649.4399414062</ele>
        <time>2017-12-22T10:28:38Z</time>
      </trkpt>
      <trkpt lat="45.31251" lon="5.83348">
        <ele>1650.4399414062</ele>
        <time>2017-12-22T10:28:42Z</time>
      </trkpt>
      <trkpt lat="45.31253" lon="5.83354">
        <ele>1653.4399414062</ele>
        <time>2017-12-22T10:28:50Z</time>
      </trkpt>
      <trkpt lat="45.31255" lon="5.83362">
        <ele>1655.4399414062</ele>
        <time>2017-12-22T10:28:55Z</time>
      </trkpt>
      <trkpt lat="45.31257" lon="5.83369">
        <ele>1656.4399414062</ele>
        <time>2017-12-22T10:29:00Z</time>
      </trkpt>
      <trkpt lat="45.31258" lon="5.83376">
        <ele>1658.4399414062</ele>
        <time>2017-12-22T10:29:05Z</time>
      </trkpt>
      <trkpt lat="45.31259" lon="5.83382">
        <ele>1658.4399414062</ele>
        <time>2017-12-22T10:29:09Z</time>
      </trkpt>
      <trkpt lat="45.3126" lon="5.8339">
        <ele>1659.4399414062</ele>
        <time>2017-12-22T10:29:14Z</time>
      </trkpt>
      <trkpt lat="45.31261" lon="5.83397">
        <ele>1660.4399414062</ele>
        <time>2017-12-22T10:29:18Z</time>
      </trkpt>
      <trkpt lat="45.31262" lon="5.83403">
        <ele>1662.4399414062</ele>
        <time>2017-12-22T10:29:23Z</time>
      </trkpt>
      <trkpt lat="45.31264" lon="5.83409">
        <ele>1664.4399414062</ele>
        <time>2017-12-22T10:29:27Z</time>
      </trkpt>
      <trkpt lat="45.31267" lon="5.83416">
        <ele>1666.4399414062</ele>
        <time>2017-12-22T10:29:32Z</time>
      </trkpt>
      <trkpt lat="45.3127" lon="5.83422">
        <ele>1667.4399414062</ele>
        <time>2017-12-22T10:29:36Z</time>
      </trkpt>
      <trkpt lat="45.31274" lon="5.83426">
        <ele>1669.4399414062</ele>
        <time>2017-12-22T10:29:40Z</time>
      </trkpt>
      <trkpt lat="45.31276" lon="5.83432">
        <ele>1669.4399414062</ele>
        <time>2017-12-22T10:29:44Z</time>
      </trkpt>
      <trkpt lat="45.3128" lon="5.83437">
        <ele>1669.4399414062</ele>
        <time>2017-12-22T10:29:48Z</time>
      </trkpt>
      <trkpt lat="45.31284" lon="5.83442">
        <ele>1670.4399414062</ele>
        <time>2017-12-22T10:29:52Z</time>
      </trkpt>
      <trkpt lat="45.31289" lon="5.83446">
        <ele>1672.4399414062</ele>
        <time>2017-12-22T10:29:58Z</time>
      </trkpt>
      <trkpt lat="45.31294" lon="5.8345">
        <ele>1672.4399414062</ele>
        <time>2017-12-22T10:30:03Z</time>
      </trkpt>
      <trkpt lat="45.31299" lon="5.83452">
        <ele>1673.4399414062</ele>
        <time>2017-12-22T10:30:09Z</time>
      </trkpt>
      <trkpt lat="45.31303" lon="5.83455">
        <ele>1675.4399414062</ele>
        <time>2017-12-22T10:30:13Z</time>
      </trkpt>
      <trkpt lat="45.31308" lon="5.83456">
        <ele>1676.4399414062</ele>
        <time>2017-12-22T10:30:18Z</time>
      </trkpt>
      <trkpt lat="45.31314" lon="5.8346">
        <ele>1678.4399414062</ele>
        <time>2017-12-22T10:30:23Z</time>
      </trkpt>
      <trkpt lat="45.31318" lon="5.83463">
        <ele>1682.4399414062</ele>
        <time>2017-12-22T10:30:29Z</time>
      </trkpt>
      <trkpt lat="45.31321" lon="5.83467">
        <ele>1682.4399414062</ele>
        <time>2017-12-22T10:30:33Z</time>
      </trkpt>
      <trkpt lat="45.31324" lon="5.83472">
        <ele>1683.4399414062</ele>
        <time>2017-12-22T10:30:39Z</time>
      </trkpt>
      <trkpt lat="45.31329" lon="5.83476">
        <ele>1684.4399414062</ele>
        <time>2017-12-22T10:30:43Z</time>
      </trkpt>
      <trkpt lat="45.31332" lon="5.83481">
        <ele>1686.4399414062</ele>
        <time>2017-12-22T10:30:49Z</time>
      </trkpt>
      <trkpt lat="45.31336" lon="5.83486">
        <ele>1687.4399414062</ele>
        <time>2017-12-22T10:30:54Z</time>
      </trkpt>
      <trkpt lat="45.31339" lon="5.83491">
        <ele>1688.4410400391</ele>
        <time>2017-12-22T10:31:00Z</time>
      </trkpt>
      <trkpt lat="45.31344" lon="5.83493">
        <ele>1688.4410400391</ele>
        <time>2017-12-22T10:31:04Z</time>
      </trkpt>
      <trkpt lat="45.31349" lon="5.83497">
        <ele>1690.4410400391</ele>
        <time>2017-12-22T10:31:09Z</time>
      </trkpt>
      <trkpt lat="45.31354" lon="5.83499">
        <ele>1691.4410400391</ele>
        <time>2017-12-22T10:31:15Z</time>
      </trkpt>
      <trkpt lat="45.31358" lon="5.83502">
        <ele>1692.4410400391</ele>
        <time>2017-12-22T10:31:21Z</time>
      </trkpt>
      <trkpt lat="45.31363" lon="5.83504">
        <ele>1694.4410400391</ele>
        <time>2017-12-22T10:31:26Z</time>
      </trkpt>
      <trkpt lat="45.31368" lon="5.83508">
        <ele>1696.4410400391</ele>
        <time>2017-12-22T10:31:32Z</time>
      </trkpt>
      <trkpt lat="45.31373" lon="5.83513">
        <ele>1695.4410400391</ele>
        <time>2017-12-22T10:31:38Z</time>
      </trkpt>
      <trkpt lat="45.31377" lon="5.83516">
        <ele>1695.4410400391</ele>
        <time>2017-12-22T10:31:44Z</time>
      </trkpt>
      <trkpt lat="45.3138" lon="5.83523">
        <ele>1696.4410400391</ele>
        <time>2017-12-22T10:31:51Z</time>
      </trkpt>
      <trkpt lat="45.31381" lon="5.83529">
        <ele>1698.4410400391</ele>
        <time>2017-12-22T10:33:04Z</time>
      </trkpt>
      <trkpt lat="45.31379" lon="5.83536">
        <ele>1698.4410400391</ele>
        <time>2017-12-22T10:35:08Z</time>
      </trkpt>
      <trkpt lat="45.31378" lon="5.83543">
        <ele>1701.4410400391</ele>
        <time>2017-12-22T10:35:14Z</time>
      </trkpt>
      <trkpt lat="45.31377" lon="5.8355">
        <ele>1701.4410400391</ele>
        <time>2017-12-22T10:35:19Z</time>
      </trkpt>
      <trkpt lat="45.31377" lon="5.83556">
        <ele>1701.4410400391</ele>
        <time>2017-12-22T10:35:25Z</time>
      </trkpt>
      <trkpt lat="45.31376" lon="5.83563">
        <ele>1704.4410400391</ele>
        <time>2017-12-22T10:35:31Z</time>
      </trkpt>
      <trkpt lat="45.31376" lon="5.8357">
        <ele>1705.4410400391</ele>
        <time>2017-12-22T10:35:39Z</time>
      </trkpt>
      <trkpt lat="45.31376" lon="5.83577">
        <ele>1706.4410400391</ele>
        <time>2017-12-22T10:35:46Z</time>
      </trkpt>
      <trkpt lat="45.31375" lon="5.83584">
        <ele>1707.4410400391</ele>
        <time>2017-12-22T10:35:54Z</time>
      </trkpt>
      <trkpt lat="45.31376" lon="5.83591">
        <ele>1708.4410400391</ele>
        <time>2017-12-22T10:36:02Z</time>
      </trkpt>
      <trkpt lat="45.31376" lon="5.83599">
        <ele>1710.4410400391</ele>
        <time>2017-12-22T10:36:09Z</time>
      </trkpt>
      <trkpt lat="45.31375" lon="5.83606">
        <ele>1712.4410400391</ele>
        <time>2017-12-22T10:36:17Z</time>
      </trkpt>
      <trkpt lat="45.31371" lon="5.83611">
        <ele>1716.4410400391</ele>
        <time>2017-12-22T10:36:31Z</time>
      </trkpt>
      <trkpt lat="45.31366" lon="5.83611">
        <ele>1717.4410400391</ele>
        <time>2017-12-22T10:36:37Z</time>
      </trkpt>
      <trkpt lat="45.31361" lon="5.83609">
        <ele>1716.4410400391</ele>
        <time>2017-12-22T10:36:44Z</time>
      </trkpt>
      <trkpt lat="45.31356" lon="5.83608">
        <ele>1716.4410400391</ele>
        <time>2017-12-22T10:36:49Z</time>
      </trkpt>
      <trkpt lat="45.31351" lon="5.83606">
        <ele>1720.4410400391</ele>
        <time>2017-12-22T10:36:58Z</time>
      </trkpt>
      <trkpt lat="45.31346" lon="5.83605">
        <ele>1725.4410400391</ele>
        <time>2017-12-22T10:37:06Z</time>
      </trkpt>
      <trkpt lat="45.31341" lon="5.83606">
        <ele>1726.4410400391</ele>
        <time>2017-12-22T10:37:13Z</time>
      </trkpt>
      <trkpt lat="45.31337" lon="5.83605">
        <ele>1728.4410400391</ele>
        <time>2017-12-22T10:37:19Z</time>
      </trkpt>
      <trkpt lat="45.31332" lon="5.83603">
        <ele>1727.4410400391</ele>
        <time>2017-12-22T10:37:26Z</time>
      </trkpt>
      <trkpt lat="45.31327" lon="5.836">
        <ele>1727.4410400391</ele>
        <time>2017-12-22T10:37:31Z</time>
      </trkpt>
      <trkpt lat="45.31322" lon="5.83599">
        <ele>1727.4410400391</ele>
        <time>2017-12-22T10:37:35Z</time>
      </trkpt>
      <trkpt lat="45.31317" lon="5.83597">
        <ele>1727.4410400391</ele>
        <time>2017-12-22T10:37:38Z</time>
      </trkpt>
      <trkpt lat="45.31312" lon="5.83595">
        <ele>1727.4410400391</ele>
        <time>2017-12-22T10:37:43Z</time>
      </trkpt>
      <trkpt lat="45.31308" lon="5.83594">
        <ele>1728.4410400391</ele>
        <time>2017-12-22T10:37:48Z</time>
      </trkpt>
      <trkpt lat="45.31303" lon="5.83594">
        <ele>1729.4410400391</ele>
        <time>2017-12-22T10:37:54Z</time>
      </trkpt>
      <trkpt lat="45.31298" lon="5.83592">
        <ele>1730.4410400391</ele>
        <time>2017-12-22T10:38:00Z</time>
      </trkpt>
      <trkpt lat="45.31294" lon="5.83592">
        <ele>1732.4410400391</ele>
        <time>2017-12-22T10:38:09Z</time>
      </trkpt>
      <trkpt lat="45.31289" lon="5.83591">
        <ele>1732.4410400391</ele>
        <time>2017-12-22T10:38:13Z</time>
      </trkpt>
      <trkpt lat="45.31284" lon="5.8359">
        <ele>1733.4410400391</ele>
        <time>2017-12-22T10:38:17Z</time>
      </trkpt>
      <trkpt lat="45.31279" lon="5.83588">
        <ele>1734.4410400391</ele>
        <time>2017-12-22T10:38:22Z</time>
      </trkpt>
      <trkpt lat="45.31274" lon="5.83586">
        <ele>1738.4399414062</ele>
        <time>2017-12-22T10:38:27Z</time>
      </trkpt>
      <trkpt lat="45.31269" lon="5.83584">
        <ele>1739.4399414062</ele>
        <time>2017-12-22T10:38:33Z</time>
      </trkpt>
      <trkpt lat="45.31264" lon="5.83584">
        <ele>1741.4399414062</ele>
        <time>2017-12-22T10:38:38Z</time>
      </trkpt>
      <trkpt lat="45.31259" lon="5.83581">
        <ele>1742.4399414062</ele>
        <time>2017-12-22T10:38:43Z</time>
      </trkpt>
      <trkpt lat="45.31253" lon="5.83582">
        <ele>1743.4399414062</ele>
        <time>2017-12-22T10:38:49Z</time>
      </trkpt>
      <trkpt lat="45.31248" lon="5.83579">
        <ele>1745.4399414062</ele>
        <time>2017-12-22T10:38:55Z</time>
      </trkpt>
      <trkpt lat="45.31243" lon="5.83576">
        <ele>1742.4399414062</ele>
        <time>2017-12-22T10:39:01Z</time>
      </trkpt>
      <trkpt lat="45.31238" lon="5.83575">
        <ele>1741.4399414062</ele>
        <time>2017-12-22T10:39:07Z</time>
      </trkpt>
      <trkpt lat="45.31233" lon="5.83574">
        <ele>1739.4399414062</ele>
        <time>2017-12-22T10:39:12Z</time>
      </trkpt>
      <trkpt lat="45.31228" lon="5.83574">
        <ele>1741.4399414062</ele>
        <time>2017-12-22T10:39:18Z</time>
      </trkpt>
      <trkpt lat="45.31221" lon="5.83572">
        <ele>1742.4399414062</ele>
        <time>2017-12-22T10:39:23Z</time>
      </trkpt>
      <trkpt lat="45.31216" lon="5.83572">
        <ele>1742.4399414062</ele>
        <time>2017-12-22T10:39:27Z</time>
      </trkpt>
      <trkpt lat="45.31211" lon="5.83569">
        <ele>1745.4399414062</ele>
        <time>2017-12-22T10:39:34Z</time>
      </trkpt>
      <trkpt lat="45.31207" lon="5.83567">
        <ele>1745.4399414062</ele>
        <time>2017-12-22T10:39:39Z</time>
      </trkpt>
      <trkpt lat="45.31202" lon="5.83564">
        <ele>1747.4399414062</ele>
        <time>2017-12-22T10:39:44Z</time>
      </trkpt>
      <trkpt lat="45.31197" lon="5.83562">
        <ele>1749.4399414062</ele>
        <time>2017-12-22T10:39:49Z</time>
      </trkpt>
      <trkpt lat="45.31193" lon="5.83559">
        <ele>1748.4399414062</ele>
        <time>2017-12-22T10:39:54Z</time>
      </trkpt>
      <trkpt lat="45.31188" lon="5.83558">
        <ele>1751.4399414062</ele>
        <time>2017-12-22T10:40:01Z</time>
      </trkpt>
      <trkpt lat="45.31184" lon="5.83555">
        <ele>1749.4399414062</ele>
        <time>2017-12-22T10:40:08Z</time>
      </trkpt>
      <trkpt lat="45.31179" lon="5.83553">
        <ele>1751.4399414062</ele>
        <time>2017-12-22T10:40:15Z</time>
      </trkpt>
      <trkpt lat="45.31174" lon="5.83552">
        <ele>1755.4399414062</ele>
        <time>2017-12-22T10:40:20Z</time>
      </trkpt>
      <trkpt lat="45.31169" lon="5.83551">
        <ele>1757.4399414062</ele>
        <time>2017-12-22T10:40:25Z</time>
      </trkpt>
      <trkpt lat="45.31164" lon="5.8355">
        <ele>1760.4399414062</ele>
        <time>2017-12-22T10:40:30Z</time>
      </trkpt>
      <trkpt lat="45.31159" lon="5.8355">
        <ele>1761.4399414062</ele>
        <time>2017-12-22T10:40:35Z</time>
      </trkpt>
      <trkpt lat="45.31155" lon="5.83549">
        <ele>1763.4399414062</ele>
        <time>2017-12-22T10:40:40Z</time>
      </trkpt>
      <trkpt lat="45.3115" lon="5.83548">
        <ele>1763.4399414062</ele>
        <time>2017-12-22T10:40:46Z</time>
      </trkpt>
      <trkpt lat="45.31145" lon="5.83547">
        <ele>1763.4399414062</ele>
        <time>2017-12-22T10:40:51Z</time>
      </trkpt>
      <trkpt lat="45.31139" lon="5.83546">
        <ele>1763.4399414062</ele>
        <time>2017-12-22T10:40:58Z</time>
      </trkpt>
      <trkpt lat="45.31144" lon="5.83543">
        <ele>1764.4399414062</ele>
        <time>2017-12-22T10:44:20Z</time>
      </trkpt>
      <trkpt lat="45.31151" lon="5.8354">
        <ele>1762.4399414062</ele>
        <time>2017-12-22T10:44:23Z</time>
      </trkpt>
      <trkpt lat="45.31155" lon="5.83531">
        <ele>1760.4399414062</ele>
        <time>2017-12-22T10:44:25Z</time>
      </trkpt>
      <trkpt lat="45.31164" lon="5.83528">
        <ele>1756.4399414062</ele>
        <time>2017-12-22T10:44:27Z</time>
      </trkpt>
      <trkpt lat="45.31168" lon="5.83518">
        <ele>1754.4399414062</ele>
        <time>2017-12-22T10:44:29Z</time>
      </trkpt>
      <trkpt lat="45.31173" lon="5.83507">
        <ele>1750.4399414062</ele>
        <time>2017-12-22T10:44:31Z</time>
      </trkpt>
      <trkpt lat="45.31176" lon="5.83489">
        <ele>1743.4399414062</ele>
        <time>2017-12-22T10:44:34Z</time>
      </trkpt>
      <trkpt lat="45.31178" lon="5.83473">
        <ele>1737.4399414062</ele>
        <time>2017-12-22T10:44:37Z</time>
      </trkpt>
      <trkpt lat="45.31183" lon="5.83465">
        <ele>1732.4399414062</ele>
        <time>2017-12-22T10:44:39Z</time>
      </trkpt>
      <trkpt lat="45.31184" lon="5.83453">
        <ele>1730.4399414062</ele>
        <time>2017-12-22T10:44:41Z</time>
      </trkpt>
      <trkpt lat="45.31189" lon="5.83444">
        <ele>1722.4399414062</ele>
        <time>2017-12-22T10:44:43Z</time>
      </trkpt>
      <trkpt lat="45.31185" lon="5.83435">
        <ele>1719.4399414062</ele>
        <time>2017-12-22T10:44:45Z</time>
      </trkpt>
      <trkpt lat="45.31189" lon="5.83429">
        <ele>1715.4399414062</ele>
        <time>2017-12-22T10:44:48Z</time>
      </trkpt>
      <trkpt lat="45.31191" lon="5.83415">
        <ele>1711.4399414062</ele>
        <time>2017-12-22T10:44:50Z</time>
      </trkpt>
      <trkpt lat="45.31184" lon="5.83406">
        <ele>1707.4399414062</ele>
        <time>2017-12-22T10:44:53Z</time>
      </trkpt>
      <trkpt lat="45.31189" lon="5.83395">
        <ele>1704.4399414062</ele>
        <time>2017-12-22T10:44:55Z</time>
      </trkpt>
      <trkpt lat="45.31195" lon="5.83379">
        <ele>1699.4399414062</ele>
        <time>2017-12-22T10:44:57Z</time>
      </trkpt>
      <trkpt lat="45.31202" lon="5.83363">
        <ele>1688.4399414062</ele>
        <time>2017-12-22T10:44:59Z</time>
      </trkpt>
      <trkpt lat="45.31209" lon="5.83344">
        <ele>1676.4399414062</ele>
        <time>2017-12-22T10:45:01Z</time>
      </trkpt>
      <trkpt lat="45.31216" lon="5.8332">
        <ele>1666.4399414062</ele>
        <time>2017-12-22T10:45:03Z</time>
      </trkpt>
      <trkpt lat="45.31227" lon="5.83296">
        <ele>1661.4399414062</ele>
        <time>2017-12-22T10:45:05Z</time>
      </trkpt>
      <trkpt lat="45.31231" lon="5.83271">
        <ele>1657.4399414062</ele>
        <time>2017-12-22T10:45:07Z</time>
      </trkpt>
      <trkpt lat="45.31227" lon="5.83249">
        <ele>1653.4399414062</ele>
        <time>2017-12-22T10:45:09Z</time>
      </trkpt>
      <trkpt lat="45.31218" lon="5.83233">
        <ele>1650.4399414062</ele>
        <time>2017-12-22T10:45:11Z</time>
      </trkpt>
      <trkpt lat="45.31211" lon="5.8322">
        <ele>1643.4399414062</ele>
        <time>2017-12-22T10:45:35Z</time>
      </trkpt>
      <trkpt lat="45.31209" lon="5.83211">
        <ele>1641.4399414062</ele>
        <time>2017-12-22T10:45:37Z</time>
      </trkpt>
      <trkpt lat="45.31207" lon="5.83197">
        <ele>1639.4399414062</ele>
        <time>2017-12-22T10:45:39Z</time>
      </trkpt>
      <trkpt lat="45.31202" lon="5.8318">
        <ele>1638.4399414062</ele>
        <time>2017-12-22T10:45:41Z</time>
      </trkpt>
      <trkpt lat="45.31198" lon="5.83162">
        <ele>1635.4399414062</ele>
        <time>2017-12-22T10:45:43Z</time>
      </trkpt>
      <trkpt lat="45.31194" lon="5.83151">
        <ele>1634.4399414062</ele>
        <time>2017-12-22T10:45:44Z</time>
      </trkpt>
      <trkpt lat="45.31188" lon="5.83131">
        <ele>1631.4399414062</ele>
        <time>2017-12-22T10:45:46Z</time>
      </trkpt>
      <trkpt lat="45.31181" lon="5.8311">
        <ele>1628.4399414062</ele>
        <time>2017-12-22T10:45:48Z</time>
      </trkpt>
      <trkpt lat="45.31168" lon="5.8309">
        <ele>1624.4399414062</ele>
        <time>2017-12-22T10:45:50Z</time>
      </trkpt>
      <trkpt lat="45.31157" lon="5.83071">
        <ele>1619.4399414062</ele>
        <time>2017-12-22T10:45:52Z</time>
      </trkpt>
      <trkpt lat="45.31148" lon="5.83056">
        <ele>1616.4399414062</ele>
        <time>2017-12-22T10:45:54Z</time>
      </trkpt>
      <trkpt lat="45.31143" lon="5.83047">
        <ele>1612.4389648438</ele>
        <time>2017-12-22T10:45:55Z</time>
      </trkpt>
      <trkpt lat="45.31134" lon="5.83028">
        <ele>1606.4389648438</ele>
        <time>2017-12-22T10:45:57Z</time>
      </trkpt>
      <trkpt lat="45.31124" lon="5.8301">
        <ele>1602.4389648438</ele>
        <time>2017-12-22T10:45:59Z</time>
      </trkpt>
      <trkpt lat="45.31119" lon="5.82989">
        <ele>1601.4389648438</ele>
        <time>2017-12-22T10:46:01Z</time>
      </trkpt>
      <trkpt lat="45.31119" lon="5.82965">
        <ele>1595.4389648438</ele>
        <time>2017-12-22T10:46:03Z</time>
      </trkpt>
      <trkpt lat="45.31109" lon="5.8295">
        <ele>1589.4389648438</ele>
        <time>2017-12-22T10:46:05Z</time>
      </trkpt>
      <trkpt lat="45.31099" lon="5.82949">
        <ele>1586.4389648438</ele>
        <time>2017-12-22T10:46:07Z</time>
      </trkpt>
      <trkpt lat="45.31092" lon="5.82931">
        <ele>1580.4389648438</ele>
        <time>2017-12-22T10:46:10Z</time>
      </trkpt>
      <trkpt lat="45.31098" lon="5.82915">
        <ele>1576.4389648438</ele>
        <time>2017-12-22T10:46:12Z</time>
      </trkpt>
      <trkpt lat="45.31107" lon="5.82904">
        <ele>1575.4389648438</ele>
        <time>2017-12-22T10:46:14Z</time>
      </trkpt>
      <trkpt lat="45.31112" lon="5.82889">
        <ele>1572.4389648438</ele>
        <time>2017-12-22T10:46:16Z</time>
      </trkpt>
      <trkpt lat="45.31107" lon="5.82874">
        <ele>1566.4389648438</ele>
        <time>2017-12-22T10:46:18Z</time>
      </trkpt>
      <trkpt lat="45.31093" lon="5.82858">
        <ele>1559.4389648438</ele>
        <time>2017-12-22T10:46:21Z</time>
      </trkpt>
      <trkpt lat="45.31079" lon="5.82847">
        <ele>1555.4389648438</ele>
        <time>2017-12-22T10:46:23Z</time>
      </trkpt>
      <trkpt lat="45.31064" lon="5.82841">
        <ele>1555.4389648438</ele>
        <time>2017-12-22T10:46:25Z</time>
      </trkpt>
      <trkpt lat="45.31052" lon="5.82831">
        <ele>1551.4389648438</ele>
        <time>2017-12-22T10:46:27Z</time>
      </trkpt>
      <trkpt lat="45.31042" lon="5.82813">
        <ele>1548.4389648438</ele>
        <time>2017-12-22T10:46:29Z</time>
      </trkpt>
      <trkpt lat="45.31037" lon="5.82804">
        <ele>1545.4389648438</ele>
        <time>2017-12-22T10:46:30Z</time>
      </trkpt>
      <trkpt lat="45.31025" lon="5.82789">
        <ele>1540.4389648438</ele>
        <time>2017-12-22T10:46:32Z</time>
      </trkpt>
      <trkpt lat="45.31017" lon="5.82776">
        <ele>1536.4389648438</ele>
        <time>2017-12-22T10:46:34Z</time>
      </trkpt>
      <trkpt lat="45.31006" lon="5.82767">
        <ele>1535.4389648438</ele>
        <time>2017-12-22T10:46:36Z</time>
      </trkpt>
      <trkpt lat="45.30993" lon="5.82762">
        <ele>1532.4389648438</ele>
        <time>2017-12-22T10:46:38Z</time>
      </trkpt>
      <trkpt lat="45.30982" lon="5.82762">
        <ele>1530.4389648438</ele>
        <time>2017-12-22T10:46:40Z</time>
      </trkpt>
      <trkpt lat="45.30976" lon="5.82758">
        <ele>1523.4389648438</ele>
        <time>2017-12-22T10:47:00Z</time>
      </trkpt>
      <trkpt lat="45.30976" lon="5.82747">
        <ele>1519.4389648438</ele>
        <time>2017-12-22T10:47:02Z</time>
      </trkpt>
      <trkpt lat="45.3097" lon="5.82735">
        <ele>1516.4389648438</ele>
        <time>2017-12-22T10:47:04Z</time>
      </trkpt>
      <trkpt lat="45.30963" lon="5.82721">
        <ele>1514.4389648438</ele>
        <time>2017-12-22T10:47:06Z</time>
      </trkpt>
      <trkpt lat="45.30953" lon="5.82706">
        <ele>1513.4389648438</ele>
        <time>2017-12-22T10:47:08Z</time>
      </trkpt>
      <trkpt lat="45.30943" lon="5.82694">
        <ele>1510.4389648438</ele>
        <time>2017-12-22T10:47:10Z</time>
      </trkpt>
      <trkpt lat="45.30936" lon="5.8269">
        <ele>1509.4389648438</ele>
        <time>2017-12-22T10:47:11Z</time>
      </trkpt>
      <trkpt lat="45.30925" lon="5.8268">
        <ele>1503.4389648438</ele>
        <time>2017-12-22T10:47:13Z</time>
      </trkpt>
      <trkpt lat="45.30914" lon="5.82673">
        <ele>1501.4389648438</ele>
        <time>2017-12-22T10:47:15Z</time>
      </trkpt>
      <trkpt lat="45.30904" lon="5.8266">
        <ele>1496.4379882812</ele>
        <time>2017-12-22T10:47:17Z</time>
      </trkpt>
      <trkpt lat="45.30894" lon="5.82646">
        <ele>1491.4379882812</ele>
        <time>2017-12-22T10:47:19Z</time>
      </trkpt>
      <trkpt lat="45.30897" lon="5.82623">
        <ele>1491.4379882812</ele>
        <time>2017-12-22T10:47:21Z</time>
      </trkpt>
      <trkpt lat="45.30897" lon="5.82609">
        <ele>1488.4379882812</ele>
        <time>2017-12-22T10:47:23Z</time>
      </trkpt>
      <trkpt lat="45.30885" lon="5.82606">
        <ele>1485.4379882812</ele>
        <time>2017-12-22T10:47:25Z</time>
      </trkpt>
      <trkpt lat="45.30872" lon="5.82611">
        <ele>1482.4379882812</ele>
        <time>2017-12-22T10:47:27Z</time>
      </trkpt>
      <trkpt lat="45.30862" lon="5.82613">
        <ele>1481.4379882812</ele>
        <time>2017-12-22T10:47:29Z</time>
      </trkpt>
      <trkpt lat="45.30853" lon="5.82606">
        <ele>1480.4379882812</ele>
        <time>2017-12-22T10:47:31Z</time>
      </trkpt>
      <trkpt lat="45.3084" lon="5.82607">
        <ele>1477.4379882812</ele>
        <time>2017-12-22T10:47:33Z</time>
      </trkpt>
      <trkpt lat="45.30844" lon="5.82609">
        <ele>1474.4379882812</ele>
        <time>2017-12-22T10:47:38Z</time>
      </trkpt>
      <trkpt lat="45.3085" lon="5.82607">
        <ele>1469.4379882812</ele>
        <time>2017-12-22T10:47:43Z</time>
      </trkpt>
      <trkpt lat="45.30853" lon="5.82604">
        <ele>1462.4379882812</ele>
        <time>2017-12-22T10:54:27Z</time>
      </trkpt>
      <trkpt lat="45.30858" lon="5.82602">
        <ele>1460.4379882812</ele>
        <time>2017-12-22T10:54:31Z</time>
      </trkpt>
      <trkpt lat="45.30863" lon="5.82599">
        <ele>1459.4379882812</ele>
        <time>2017-12-22T10:54:36Z</time>
      </trkpt>
      <trkpt lat="45.30867" lon="5.82595">
        <ele>1459.4379882812</ele>
        <time>2017-12-22T10:54:41Z</time>
      </trkpt>
      <trkpt lat="45.30872" lon="5.82593">
        <ele>1463.4379882812</ele>
        <time>2017-12-22T10:54:46Z</time>
      </trkpt>
      <trkpt lat="45.30877" lon="5.82593">
        <ele>1463.4379882812</ele>
        <time>2017-12-22T10:54:50Z</time>
      </trkpt>
      <trkpt lat="45.30882" lon="5.82592">
        <ele>1463.4379882812</ele>
        <time>2017-12-22T10:54:54Z</time>
      </trkpt>
      <trkpt lat="45.30887" lon="5.82592">
        <ele>1463.4379882812</ele>
        <time>2017-12-22T10:54:59Z</time>
      </trkpt>
      <trkpt lat="45.30892" lon="5.82597">
        <ele>1460.4379882812</ele>
        <time>2017-12-22T10:55:05Z</time>
      </trkpt>
      <trkpt lat="45.30891" lon="5.82605">
        <ele>1459.4379882812</ele>
        <time>2017-12-22T10:55:09Z</time>
      </trkpt>
      <trkpt lat="45.30891" lon="5.82613">
        <ele>1459.4379882812</ele>
        <time>2017-12-22T10:55:13Z</time>
      </trkpt>
      <trkpt lat="45.3089" lon="5.8262">
        <ele>1460.4379882812</ele>
        <time>2017-12-22T10:55:19Z</time>
      </trkpt>
      <trkpt lat="45.30889" lon="5.82627">
        <ele>1460.4379882812</ele>
        <time>2017-12-22T10:55:25Z</time>
      </trkpt>
      <trkpt lat="45.30884" lon="5.82632">
        <ele>1464.4379882812</ele>
        <time>2017-12-22T10:55:30Z</time>
      </trkpt>
      <trkpt lat="45.30884" lon="5.82639">
        <ele>1462.4379882812</ele>
        <time>2017-12-22T10:55:34Z</time>
      </trkpt>
      <trkpt lat="45.30883" lon="5.82645">
        <ele>1467.4379882812</ele>
        <time>2017-12-22T10:55:38Z</time>
      </trkpt>
      <trkpt lat="45.30882" lon="5.82652">
        <ele>1466.4379882812</ele>
        <time>2017-12-22T10:55:42Z</time>
      </trkpt>
      <trkpt lat="45.30886" lon="5.82652">
        <ele>1464.4379882812</ele>
        <time>2017-12-22T10:55:46Z</time>
      </trkpt>
      <trkpt lat="45.30891" lon="5.8265">
        <ele>1467.4379882812</ele>
        <time>2017-12-22T10:55:49Z</time>
      </trkpt>
      <trkpt lat="45.30896" lon="5.8265">
        <ele>1470.4379882812</ele>
        <time>2017-12-22T10:55:55Z</time>
      </trkpt>
      <trkpt lat="45.30901" lon="5.8265">
        <ele>1475.4379882812</ele>
        <time>2017-12-22T10:56:01Z</time>
      </trkpt>
      <trkpt lat="45.30906" lon="5.8265">
        <ele>1474.4379882812</ele>
        <time>2017-12-22T10:56:10Z</time>
      </trkpt>
      <trkpt lat="45.3091" lon="5.82653">
        <ele>1479.4379882812</ele>
        <time>2017-12-22T10:56:17Z</time>
      </trkpt>
      <trkpt lat="45.3091" lon="5.82661">
        <ele>1477.4379882812</ele>
        <time>2017-12-22T10:56:23Z</time>
      </trkpt>
      <trkpt lat="45.30907" lon="5.82666">
        <ele>1480.4379882812</ele>
        <time>2017-12-22T10:56:28Z</time>
      </trkpt>
      <trkpt lat="45.30909" lon="5.82674">
        <ele>1478.4389648438</ele>
        <time>2017-12-22T10:56:33Z</time>
      </trkpt>
      <trkpt lat="45.30905" lon="5.82678">
        <ele>1484.4389648438</ele>
        <time>2017-12-22T10:56:37Z</time>
      </trkpt>
      <trkpt lat="45.30903" lon="5.82684">
        <ele>1488.4389648438</ele>
        <time>2017-12-22T10:56:43Z</time>
      </trkpt>
      <trkpt lat="45.30902" lon="5.82691">
        <ele>1490.4389648438</ele>
        <time>2017-12-22T10:56:49Z</time>
      </trkpt>
      <trkpt lat="45.30904" lon="5.82696">
        <ele>1492.4389648438</ele>
        <time>2017-12-22T10:56:57Z</time>
      </trkpt>
      <trkpt lat="45.30906" lon="5.82704">
        <ele>1495.4389648438</ele>
        <time>2017-12-22T10:57:04Z</time>
      </trkpt>
      <trkpt lat="45.30912" lon="5.82707">
        <ele>1493.4389648438</ele>
        <time>2017-12-22T10:57:12Z</time>
      </trkpt>
      <trkpt lat="45.30916" lon="5.8271">
        <ele>1491.4389648438</ele>
        <time>2017-12-22T10:57:16Z</time>
      </trkpt>
      <trkpt lat="45.30918" lon="5.82718">
        <ele>1491.4389648438</ele>
        <time>2017-12-22T10:57:18Z</time>
      </trkpt>
      <trkpt lat="45.30922" lon="5.8272">
        <ele>1493.4389648438</ele>
        <time>2017-12-22T10:57:24Z</time>
      </trkpt>
      <trkpt lat="45.30927" lon="5.82723">
        <ele>1494.4389648438</ele>
        <time>2017-12-22T10:57:27Z</time>
      </trkpt>
      <trkpt lat="45.3093" lon="5.82718">
        <ele>1499.4389648438</ele>
        <time>2017-12-22T10:57:31Z</time>
      </trkpt>
      <trkpt lat="45.30934" lon="5.82715">
        <ele>1503.4389648438</ele>
        <time>2017-12-22T10:57:36Z</time>
      </trkpt>
      <trkpt lat="45.30939" lon="5.82716">
        <ele>1505.4389648438</ele>
        <time>2017-12-22T10:57:42Z</time>
      </trkpt>
      <trkpt lat="45.30943" lon="5.82719">
        <ele>1508.4389648438</ele>
        <time>2017-12-22T10:57:48Z</time>
      </trkpt>
      <trkpt lat="45.30949" lon="5.82722">
        <ele>1509.4389648438</ele>
        <time>2017-12-22T10:57:52Z</time>
      </trkpt>
      <trkpt lat="45.30953" lon="5.82725">
        <ele>1508.4389648438</ele>
        <time>2017-12-22T10:57:55Z</time>
      </trkpt>
      <trkpt lat="45.30955" lon="5.82732">
        <ele>1506.4389648438</ele>
        <time>2017-12-22T10:58:00Z</time>
      </trkpt>
      <trkpt lat="45.3096" lon="5.82734">
        <ele>1506.4389648438</ele>
        <time>2017-12-22T10:58:03Z</time>
      </trkpt>
      <trkpt lat="45.30964" lon="5.82738">
        <ele>1503.4389648438</ele>
        <time>2017-12-22T10:58:06Z</time>
      </trkpt>
      <trkpt lat="45.30969" lon="5.82743">
        <ele>1505.4389648438</ele>
        <time>2017-12-22T10:58:11Z</time>
      </trkpt>
      <trkpt lat="45.30971" lon="5.82749">
        <ele>1508.4389648438</ele>
        <time>2017-12-22T10:58:16Z</time>
      </trkpt>
      <trkpt lat="45.30969" lon="5.82755">
        <ele>1509.4389648438</ele>
        <time>2017-12-22T10:58:20Z</time>
      </trkpt>
      <trkpt lat="45.30969" lon="5.82762">
        <ele>1511.4389648438</ele>
        <time>2017-12-22T10:58:25Z</time>
      </trkpt>
      <trkpt lat="45.30969" lon="5.82769">
        <ele>1511.4389648438</ele>
        <time>2017-12-22T10:58:28Z</time>
      </trkpt>
      <trkpt lat="45.30971" lon="5.82774">
        <ele>1512.4389648438</ele>
        <time>2017-12-22T10:58:34Z</time>
      </trkpt>
      <trkpt lat="45.30971" lon="5.82782">
        <ele>1514.4389648438</ele>
        <time>2017-12-22T10:58:40Z</time>
      </trkpt>
      <trkpt lat="45.30973" lon="5.82788">
        <ele>1517.4389648438</ele>
        <time>2017-12-22T10:58:44Z</time>
      </trkpt>
      <trkpt lat="45.30976" lon="5.82794">
        <ele>1517.4389648438</ele>
        <time>2017-12-22T10:58:49Z</time>
      </trkpt>
      <trkpt lat="45.3098" lon="5.82799">
        <ele>1520.4389648438</ele>
        <time>2017-12-22T10:58:56Z</time>
      </trkpt>
      <trkpt lat="45.30984" lon="5.82804">
        <ele>1520.4389648438</ele>
        <time>2017-12-22T10:58:58Z</time>
      </trkpt>
      <trkpt lat="45.30989" lon="5.82805">
        <ele>1526.4389648438</ele>
        <time>2017-12-22T10:59:04Z</time>
      </trkpt>
      <trkpt lat="45.30992" lon="5.82811">
        <ele>1528.4389648438</ele>
        <time>2017-12-22T10:59:08Z</time>
      </trkpt>
      <trkpt lat="45.30995" lon="5.82817">
        <ele>1528.4389648438</ele>
        <time>2017-12-22T10:59:14Z</time>
      </trkpt>
      <trkpt lat="45.31" lon="5.82823">
        <ele>1530.4389648438</ele>
        <time>2017-12-22T10:59:21Z</time>
      </trkpt>
      <trkpt lat="45.31004" lon="5.82827">
        <ele>1532.4389648438</ele>
        <time>2017-12-22T10:59:25Z</time>
      </trkpt>
      <trkpt lat="45.31008" lon="5.82832">
        <ele>1535.4389648438</ele>
        <time>2017-12-22T10:59:29Z</time>
      </trkpt>
      <trkpt lat="45.31011" lon="5.82836">
        <ele>1535.4389648438</ele>
        <time>2017-12-22T10:59:32Z</time>
      </trkpt>
      <trkpt lat="45.31015" lon="5.8284">
        <ele>1538.4389648438</ele>
        <time>2017-12-22T10:59:39Z</time>
      </trkpt>
      <trkpt lat="45.31019" lon="5.82845">
        <ele>1539.4389648438</ele>
        <time>2017-12-22T10:59:44Z</time>
      </trkpt>
      <trkpt lat="45.31021" lon="5.82851">
        <ele>1542.4389648438</ele>
        <time>2017-12-22T10:59:51Z</time>
      </trkpt>
      <trkpt lat="45.31025" lon="5.82856">
        <ele>1543.4389648438</ele>
        <time>2017-12-22T10:59:54Z</time>
      </trkpt>
      <trkpt lat="45.31028" lon="5.82861">
        <ele>1544.4389648438</ele>
        <time>2017-12-22T10:59:58Z</time>
      </trkpt>
      <trkpt lat="45.31032" lon="5.82864">
        <ele>1545.4389648438</ele>
        <time>2017-12-22T11:00:05Z</time>
      </trkpt>
      <trkpt lat="45.31035" lon="5.82871">
        <ele>1546.4389648438</ele>
        <time>2017-12-22T11:00:10Z</time>
      </trkpt>
      <trkpt lat="45.31036" lon="5.82877">
        <ele>1543.4389648438</ele>
        <time>2017-12-22T11:00:16Z</time>
      </trkpt>
      <trkpt lat="45.3104" lon="5.82881">
        <ele>1544.4389648438</ele>
        <time>2017-12-22T11:00:20Z</time>
      </trkpt>
      <trkpt lat="45.31044" lon="5.82886">
        <ele>1549.4389648438</ele>
        <time>2017-12-22T11:00:26Z</time>
      </trkpt>
      <trkpt lat="45.31047" lon="5.82892">
        <ele>1551.4389648438</ele>
        <time>2017-12-22T11:00:32Z</time>
      </trkpt>
      <trkpt lat="45.31051" lon="5.82896">
        <ele>1551.4389648438</ele>
        <time>2017-12-22T11:00:35Z</time>
      </trkpt>
      <trkpt lat="45.31055" lon="5.82898">
        <ele>1557.4389648438</ele>
        <time>2017-12-22T11:00:41Z</time>
      </trkpt>
      <trkpt lat="45.3106" lon="5.82898">
        <ele>1558.4389648438</ele>
        <time>2017-12-22T11:02:18Z</time>
      </trkpt>
      <trkpt lat="45.31064" lon="5.82902">
        <ele>1554.4389648438</ele>
        <time>2017-12-22T11:03:14Z</time>
      </trkpt>
      <trkpt lat="45.31069" lon="5.829">
        <ele>1554.4389648438</ele>
        <time>2017-12-22T11:03:18Z</time>
      </trkpt>
      <trkpt lat="45.31074" lon="5.82901">
        <ele>1555.4389648438</ele>
        <time>2017-12-22T11:03:21Z</time>
      </trkpt>
      <trkpt lat="45.31079" lon="5.82901">
        <ele>1555.4389648438</ele>
        <time>2017-12-22T11:03:28Z</time>
      </trkpt>
      <trkpt lat="45.31084" lon="5.82901">
        <ele>1559.4389648438</ele>
        <time>2017-12-22T11:03:32Z</time>
      </trkpt>
      <trkpt lat="45.31089" lon="5.82899">
        <ele>1560.4389648438</ele>
        <time>2017-12-22T11:03:37Z</time>
      </trkpt>
      <trkpt lat="45.31094" lon="5.82903">
        <ele>1561.4389648438</ele>
        <time>2017-12-22T11:03:42Z</time>
      </trkpt>
      <trkpt lat="45.31099" lon="5.82905">
        <ele>1560.4389648438</ele>
        <time>2017-12-22T11:03:45Z</time>
      </trkpt>
      <trkpt lat="45.31105" lon="5.82905">
        <ele>1562.4389648438</ele>
        <time>2017-12-22T11:03:52Z</time>
      </trkpt>
      <trkpt lat="45.3111" lon="5.82907">
        <ele>1563.4389648438</ele>
        <time>2017-12-22T11:03:58Z</time>
      </trkpt>
      <trkpt lat="45.31114" lon="5.8291">
        <ele>1565.4389648438</ele>
        <time>2017-12-22T11:04:02Z</time>
      </trkpt>
      <trkpt lat="45.3112" lon="5.8291">
        <ele>1564.4389648438</ele>
        <time>2017-12-22T11:04:06Z</time>
      </trkpt>
      <trkpt lat="45.31124" lon="5.82909">
        <ele>1567.4389648438</ele>
        <time>2017-12-22T11:04:11Z</time>
      </trkpt>
      <trkpt lat="45.31129" lon="5.82911">
        <ele>1569.4389648438</ele>
        <time>2017-12-22T11:04:15Z</time>
      </trkpt>
      <trkpt lat="45.31135" lon="5.82913">
        <ele>1570.4389648438</ele>
        <time>2017-12-22T11:04:20Z</time>
      </trkpt>
      <trkpt lat="45.3114" lon="5.82916">
        <ele>1569.4389648438</ele>
        <time>2017-12-22T11:04:23Z</time>
      </trkpt>
      <trkpt lat="45.31144" lon="5.82915">
        <ele>1573.4389648438</ele>
        <time>2017-12-22T11:04:31Z</time>
      </trkpt>
      <trkpt lat="45.31149" lon="5.82918">
        <ele>1572.4389648438</ele>
        <time>2017-12-22T11:04:35Z</time>
      </trkpt>
      <trkpt lat="45.31154" lon="5.82921">
        <ele>1573.4389648438</ele>
        <time>2017-12-22T11:04:40Z</time>
      </trkpt>
      <trkpt lat="45.31159" lon="5.82922">
        <ele>1575.4389648438</ele>
        <time>2017-12-22T11:04:46Z</time>
      </trkpt>
      <trkpt lat="45.31164" lon="5.82922">
        <ele>1575.4389648438</ele>
        <time>2017-12-22T11:04:48Z</time>
      </trkpt>
      <trkpt lat="45.31168" lon="5.82926">
        <ele>1574.4389648438</ele>
        <time>2017-12-22T11:04:52Z</time>
      </trkpt>
      <trkpt lat="45.31172" lon="5.8293">
        <ele>1574.4389648438</ele>
        <time>2017-12-22T11:04:56Z</time>
      </trkpt>
      <trkpt lat="45.31176" lon="5.82934">
        <ele>1576.4389648438</ele>
        <time>2017-12-22T11:05:01Z</time>
      </trkpt>
      <trkpt lat="45.3118" lon="5.82938">
        <ele>1575.4389648438</ele>
        <time>2017-12-22T11:05:05Z</time>
      </trkpt>
      <trkpt lat="45.31181" lon="5.82944">
        <ele>1580.4389648438</ele>
        <time>2017-12-22T11:05:12Z</time>
      </trkpt>
      <trkpt lat="45.31184" lon="5.8295">
        <ele>1579.4389648438</ele>
        <time>2017-12-22T11:05:18Z</time>
      </trkpt>
      <trkpt lat="45.31187" lon="5.82955">
        <ele>1580.4389648438</ele>
        <time>2017-12-22T11:05:24Z</time>
      </trkpt>
      <trkpt lat="45.31188" lon="5.82961">
        <ele>1580.4389648438</ele>
        <time>2017-12-22T11:05:28Z</time>
      </trkpt>
      <trkpt lat="45.31191" lon="5.82967">
        <ele>1580.4389648438</ele>
        <time>2017-12-22T11:05:33Z</time>
      </trkpt>
      <trkpt lat="45.31194" lon="5.82972">
        <ele>1581.4399414062</ele>
        <time>2017-12-22T11:05:40Z</time>
      </trkpt>
      <trkpt lat="45.31196" lon="5.82979">
        <ele>1586.4399414062</ele>
        <time>2017-12-22T11:05:46Z</time>
      </trkpt>
      <trkpt lat="45.31198" lon="5.82985">
        <ele>1591.4399414062</ele>
        <time>2017-12-22T11:05:52Z</time>
      </trkpt>
      <trkpt lat="45.31201" lon="5.8299">
        <ele>1591.4399414062</ele>
        <time>2017-12-22T11:05:57Z</time>
      </trkpt>
      <trkpt lat="45.31206" lon="5.82992">
        <ele>1595.4399414062</ele>
        <time>2017-12-22T11:06:02Z</time>
      </trkpt>
      <trkpt lat="45.31209" lon="5.82997">
        <ele>1595.4399414062</ele>
        <time>2017-12-22T11:06:09Z</time>
      </trkpt>
      <trkpt lat="45.31213" lon="5.83002">
        <ele>1594.4399414062</ele>
        <time>2017-12-22T11:06:14Z</time>
      </trkpt>
      <trkpt lat="45.31215" lon="5.83008">
        <ele>1596.4399414062</ele>
        <time>2017-12-22T11:06:21Z</time>
      </trkpt>
      <trkpt lat="45.31219" lon="5.83013">
        <ele>1596.4399414062</ele>
        <time>2017-12-22T11:06:27Z</time>
      </trkpt>
      <trkpt lat="45.31222" lon="5.83018">
        <ele>1597.4399414062</ele>
        <time>2017-12-22T11:06:32Z</time>
      </trkpt>
      <trkpt lat="45.31225" lon="5.83025">
        <ele>1598.4399414062</ele>
        <time>2017-12-22T11:06:38Z</time>
      </trkpt>
      <trkpt lat="45.31228" lon="5.83031">
        <ele>1598.4399414062</ele>
        <time>2017-12-22T11:06:42Z</time>
      </trkpt>
      <trkpt lat="45.31231" lon="5.83038">
        <ele>1599.4399414062</ele>
        <time>2017-12-22T11:06:48Z</time>
      </trkpt>
      <trkpt lat="45.31234" lon="5.83045">
        <ele>1604.4399414062</ele>
        <time>2017-12-22T11:06:52Z</time>
      </trkpt>
      <trkpt lat="45.31238" lon="5.83048">
        <ele>1606.4399414062</ele>
        <time>2017-12-22T11:06:58Z</time>
      </trkpt>
      <trkpt lat="45.31242" lon="5.83053">
        <ele>1607.4399414062</ele>
        <time>2017-12-22T11:07:06Z</time>
      </trkpt>
      <trkpt lat="45.31245" lon="5.8306">
        <ele>1606.4399414062</ele>
        <time>2017-12-22T11:07:10Z</time>
      </trkpt>
      <trkpt lat="45.31248" lon="5.83066">
        <ele>1606.4399414062</ele>
        <time>2017-12-22T11:07:14Z</time>
      </trkpt>
      <trkpt lat="45.3125" lon="5.83072">
        <ele>1609.4399414062</ele>
        <time>2017-12-22T11:07:20Z</time>
      </trkpt>
      <trkpt lat="45.31252" lon="5.83078">
        <ele>1609.4399414062</ele>
        <time>2017-12-22T11:07:24Z</time>
      </trkpt>
      <trkpt lat="45.31255" lon="5.83083">
        <ele>1611.4399414062</ele>
        <time>2017-12-22T11:07:31Z</time>
      </trkpt>
      <trkpt lat="45.31258" lon="5.83088">
        <ele>1612.4399414062</ele>
        <time>2017-12-22T11:07:36Z</time>
      </trkpt>
      <trkpt lat="45.31259" lon="5.83095">
        <ele>1614.4399414062</ele>
        <time>2017-12-22T11:07:43Z</time>
      </trkpt>
      <trkpt lat="45.31261" lon="5.83103">
        <ele>1615.4399414062</ele>
        <time>2017-12-22T11:07:49Z</time>
      </trkpt>
      <trkpt lat="45.31261" lon="5.83109">
        <ele>1617.4399414062</ele>
        <time>2017-12-22T11:07:56Z</time>
      </trkpt>
      <trkpt lat="45.3126" lon="5.83116">
        <ele>1619.4399414062</ele>
        <time>2017-12-22T11:08:01Z</time>
      </trkpt>
      <trkpt lat="45.3126" lon="5.83123">
        <ele>1620.4399414062</ele>
        <time>2017-12-22T11:08:08Z</time>
      </trkpt>
      <trkpt lat="45.31263" lon="5.83129">
        <ele>1620.4399414062</ele>
        <time>2017-12-22T11:08:13Z</time>
      </trkpt>
      <trkpt lat="45.31265" lon="5.83135">
        <ele>1620.4399414062</ele>
        <time>2017-12-22T11:08:17Z</time>
      </trkpt>
      <trkpt lat="45.31266" lon="5.83141">
        <ele>1622.4399414062</ele>
        <time>2017-12-22T11:08:23Z</time>
      </trkpt>
      <trkpt lat="45.31267" lon="5.83149">
        <ele>1625.4399414062</ele>
        <time>2017-12-22T11:08:31Z</time>
      </trkpt>
      <trkpt lat="45.31266" lon="5.83156">
        <ele>1627.4399414062</ele>
        <time>2017-12-22T11:08:37Z</time>
      </trkpt>
      <trkpt lat="45.31267" lon="5.83163">
        <ele>1630.4399414062</ele>
        <time>2017-12-22T11:08:43Z</time>
      </trkpt>
      <trkpt lat="45.31267" lon="5.8317">
        <ele>1633.4399414062</ele>
        <time>2017-12-22T11:08:50Z</time>
      </trkpt>
      <trkpt lat="45.31268" lon="5.83177">
        <ele>1634.4399414062</ele>
        <time>2017-12-22T11:08:55Z</time>
      </trkpt>
      <trkpt lat="45.31268" lon="5.83184">
        <ele>1625.4399414062</ele>
        <time>2017-12-22T11:09:01Z</time>
      </trkpt>
      <trkpt lat="45.31269" lon="5.83191">
        <ele>1634.4399414062</ele>
        <time>2017-12-22T11:09:05Z</time>
      </trkpt>
      <trkpt lat="45.31269" lon="5.83198">
        <ele>1636.4399414062</ele>
        <time>2017-12-22T11:09:11Z</time>
      </trkpt>
      <trkpt lat="45.3127" lon="5.83206">
        <ele>1639.4399414062</ele>
        <time>2017-12-22T11:09:18Z</time>
      </trkpt>
      <trkpt lat="45.31269" lon="5.83213">
        <ele>1641.4399414062</ele>
        <time>2017-12-22T11:09:23Z</time>
      </trkpt>
      <trkpt lat="45.31269" lon="5.83221">
        <ele>1638.4399414062</ele>
        <time>2017-12-22T11:09:31Z</time>
      </trkpt>
      <trkpt lat="45.31269" lon="5.83229">
        <ele>1637.4399414062</ele>
        <time>2017-12-22T11:09:38Z</time>
      </trkpt>
      <trkpt lat="45.31269" lon="5.83237">
        <ele>1637.4399414062</ele>
        <time>2017-12-22T11:09:43Z</time>
      </trkpt>
      <trkpt lat="45.31267" lon="5.83244">
        <ele>1639.4399414062</ele>
        <time>2017-12-22T11:09:48Z</time>
      </trkpt>
      <trkpt lat="45.31264" lon="5.83251">
        <ele>1642.4399414062</ele>
        <time>2017-12-22T11:09:53Z</time>
      </trkpt>
      <trkpt lat="45.31263" lon="5.83257">
        <ele>1642.4399414062</ele>
        <time>2017-12-22T11:09:58Z</time>
      </trkpt>
      <trkpt lat="45.3126" lon="5.83264">
        <ele>1646.4399414062</ele>
        <time>2017-12-22T11:10:04Z</time>
      </trkpt>
      <trkpt lat="45.31257" lon="5.83269">
        <ele>1647.4399414062</ele>
        <time>2017-12-22T11:10:09Z</time>
      </trkpt>
      <trkpt lat="45.31254" lon="5.83274">
        <ele>1649.4399414062</ele>
        <time>2017-12-22T11:10:14Z</time>
      </trkpt>
      <trkpt lat="45.31252" lon="5.83281">
        <ele>1648.4399414062</ele>
        <time>2017-12-22T11:10:19Z</time>
      </trkpt>
      <trkpt lat="45.31253" lon="5.8329">
        <ele>1647.4399414062</ele>
        <time>2017-12-22T11:10:23Z</time>
      </trkpt>
      <trkpt lat="45.31254" lon="5.83297">
        <ele>1646.4399414062</ele>
        <time>2017-12-22T11:10:28Z</time>
      </trkpt>
      <trkpt lat="45.31254" lon="5.83304">
        <ele>1646.4399414062</ele>
        <time>2017-12-22T11:10:32Z</time>
      </trkpt>
      <trkpt lat="45.31251" lon="5.8331">
        <ele>1650.4399414062</ele>
        <time>2017-12-22T11:10:57Z</time>
      </trkpt>
      <trkpt lat="45.31249" lon="5.83317">
        <ele>1648.4399414062</ele>
        <time>2017-12-22T11:11:03Z</time>
      </trkpt>
      <trkpt lat="45.31248" lon="5.83324">
        <ele>1649.4399414062</ele>
        <time>2017-12-22T11:11:07Z</time>
      </trkpt>
      <trkpt lat="45.31249" lon="5.83333">
        <ele>1648.4399414062</ele>
        <time>2017-12-22T11:11:11Z</time>
      </trkpt>
      <trkpt lat="45.31248" lon="5.8334">
        <ele>1651.4399414062</ele>
        <time>2017-12-22T11:11:15Z</time>
      </trkpt>
      <trkpt lat="45.31248" lon="5.83348">
        <ele>1651.4399414062</ele>
        <time>2017-12-22T11:11:20Z</time>
      </trkpt>
      <trkpt lat="45.31251" lon="5.83355">
        <ele>1652.4399414062</ele>
        <time>2017-12-22T11:11:26Z</time>
      </trkpt>
      <trkpt lat="45.31254" lon="5.83362">
        <ele>1654.4399414062</ele>
        <time>2017-12-22T11:11:31Z</time>
      </trkpt>
      <trkpt lat="45.31255" lon="5.83369">
        <ele>1654.4399414062</ele>
        <time>2017-12-22T11:11:35Z</time>
      </trkpt>
      <trkpt lat="45.31258" lon="5.83375">
        <ele>1654.4399414062</ele>
        <time>2017-12-22T11:11:38Z</time>
      </trkpt>
      <trkpt lat="45.31259" lon="5.83382">
        <ele>1656.4399414062</ele>
        <time>2017-12-22T11:11:42Z</time>
      </trkpt>
      <trkpt lat="45.31261" lon="5.83389">
        <ele>1656.4399414062</ele>
        <time>2017-12-22T11:11:48Z</time>
      </trkpt>
      <trkpt lat="45.31264" lon="5.83395">
        <ele>1657.4399414062</ele>
        <time>2017-12-22T11:11:52Z</time>
      </trkpt>
      <trkpt lat="45.31264" lon="5.83402">
        <ele>1658.4399414062</ele>
        <time>2017-12-22T11:11:56Z</time>
      </trkpt>
      <trkpt lat="45.31265" lon="5.83409">
        <ele>1661.4399414062</ele>
        <time>2017-12-22T11:12:00Z</time>
      </trkpt>
      <trkpt lat="45.31267" lon="5.83417">
        <ele>1664.4399414062</ele>
        <time>2017-12-22T11:12:05Z</time>
      </trkpt>
      <trkpt lat="45.31269" lon="5.83424">
        <ele>1666.4399414062</ele>
        <time>2017-12-22T11:12:09Z</time>
      </trkpt>
      <trkpt lat="45.31272" lon="5.83429">
        <ele>1664.4399414062</ele>
        <time>2017-12-22T11:12:12Z</time>
      </trkpt>
      <trkpt lat="45.31276" lon="5.83435">
        <ele>1667.4399414062</ele>
        <time>2017-12-22T11:12:20Z</time>
      </trkpt>
      <trkpt lat="45.31278" lon="5.83443">
        <ele>1669.4399414062</ele>
        <time>2017-12-22T11:12:26Z</time>
      </trkpt>
      <trkpt lat="45.31284" lon="5.83445">
        <ele>1667.4399414062</ele>
        <time>2017-12-22T11:12:30Z</time>
      </trkpt>
      <trkpt lat="45.31288" lon="5.83448">
        <ele>1667.4399414062</ele>
        <time>2017-12-22T11:12:34Z</time>
      </trkpt>
      <trkpt lat="45.31292" lon="5.83452">
        <ele>1669.4399414062</ele>
        <time>2017-12-22T11:12:41Z</time>
      </trkpt>
      <trkpt lat="45.31296" lon="5.83457">
        <ele>1672.4399414062</ele>
        <time>2017-12-22T11:12:49Z</time>
      </trkpt>
      <trkpt lat="45.31301" lon="5.83456">
        <ele>1678.4399414062</ele>
        <time>2017-12-22T11:12:56Z</time>
      </trkpt>
      <trkpt lat="45.31306" lon="5.83459">
        <ele>1683.4399414062</ele>
        <time>2017-12-22T11:13:01Z</time>
      </trkpt>
      <trkpt lat="45.3131" lon="5.8346">
        <ele>1683.4399414062</ele>
        <time>2017-12-22T11:13:07Z</time>
      </trkpt>
      <trkpt lat="45.31316" lon="5.83463">
        <ele>1675.4399414062</ele>
        <time>2017-12-22T11:13:12Z</time>
      </trkpt>
      <trkpt lat="45.31317" lon="5.83471">
        <ele>1687.4399414062</ele>
        <time>2017-12-22T11:13:21Z</time>
      </trkpt>
      <trkpt lat="45.31322" lon="5.83476">
        <ele>1688.4399414062</ele>
        <time>2017-12-22T11:13:25Z</time>
      </trkpt>
      <trkpt lat="45.31328" lon="5.83481">
        <ele>1687.4399414062</ele>
        <time>2017-12-22T11:13:32Z</time>
      </trkpt>
      <trkpt lat="45.31332" lon="5.83486">
        <ele>1687.4399414062</ele>
        <time>2017-12-22T11:13:36Z</time>
      </trkpt>
      <trkpt lat="45.31334" lon="5.83492">
        <ele>1688.4399414062</ele>
        <time>2017-12-22T11:13:39Z</time>
      </trkpt>
      <trkpt lat="45.31338" lon="5.83496">
        <ele>1689.4410400391</ele>
        <time>2017-12-22T11:13:46Z</time>
      </trkpt>
      <trkpt lat="45.31343" lon="5.83495">
        <ele>1689.4410400391</ele>
        <time>2017-12-22T11:13:51Z</time>
      </trkpt>
      <trkpt lat="45.31347" lon="5.83501">
        <ele>1689.4410400391</ele>
        <time>2017-12-22T11:13:54Z</time>
      </trkpt>
      <trkpt lat="45.31351" lon="5.83505">
        <ele>1697.4410400391</ele>
        <time>2017-12-22T11:13:58Z</time>
      </trkpt>
      <trkpt lat="45.31357" lon="5.83505">
        <ele>1695.4410400391</ele>
        <time>2017-12-22T11:14:05Z</time>
      </trkpt>
      <trkpt lat="45.31361" lon="5.83507">
        <ele>1697.4410400391</ele>
        <time>2017-12-22T11:14:10Z</time>
      </trkpt>
      <trkpt lat="45.31366" lon="5.83512">
        <ele>1695.4410400391</ele>
        <time>2017-12-22T11:14:14Z</time>
      </trkpt>
      <trkpt lat="45.3137" lon="5.83513">
        <ele>1693.4410400391</ele>
        <time>2017-12-22T11:14:20Z</time>
      </trkpt>
      <trkpt lat="45.31374" lon="5.83518">
        <ele>1690.4410400391</ele>
        <time>2017-12-22T11:14:25Z</time>
      </trkpt>
      <trkpt lat="45.31376" lon="5.83524">
        <ele>1692.4410400391</ele>
        <time>2017-12-22T11:14:30Z</time>
      </trkpt>
      <trkpt lat="45.31377" lon="5.83532">
        <ele>1696.4410400391</ele>
        <time>2017-12-22T11:14:35Z</time>
      </trkpt>
      <trkpt lat="45.31378" lon="5.83539">
        <ele>1696.4410400391</ele>
        <time>2017-12-22T11:14:40Z</time>
      </trkpt>
      <trkpt lat="45.31377" lon="5.83545">
        <ele>1698.4410400391</ele>
        <time>2017-12-22T11:14:46Z</time>
      </trkpt>
      <trkpt lat="45.31376" lon="5.83552">
        <ele>1700.4410400391</ele>
        <time>2017-12-22T11:14:51Z</time>
      </trkpt>
      <trkpt lat="45.31376" lon="5.83559">
        <ele>1701.4410400391</ele>
        <time>2017-12-22T11:14:56Z</time>
      </trkpt>
      <trkpt lat="45.31376" lon="5.83567">
        <ele>1702.4410400391</ele>
        <time>2017-12-22T11:15:02Z</time>
      </trkpt>
      <trkpt lat="45.31376" lon="5.83574">
        <ele>1703.4410400391</ele>
        <time>2017-12-22T11:15:08Z</time>
      </trkpt>
      <trkpt lat="45.31376" lon="5.8358">
        <ele>1705.4410400391</ele>
        <time>2017-12-22T11:15:14Z</time>
      </trkpt>
      <trkpt lat="45.31376" lon="5.83587">
        <ele>1706.4410400391</ele>
        <time>2017-12-22T11:15:20Z</time>
      </trkpt>
      <trkpt lat="45.31376" lon="5.83594">
        <ele>1708.4410400391</ele>
        <time>2017-12-22T11:15:26Z</time>
      </trkpt>
      <trkpt lat="45.31375" lon="5.83601">
        <ele>1708.4410400391</ele>
        <time>2017-12-22T11:15:32Z</time>
      </trkpt>
      <trkpt lat="45.31374" lon="5.83608">
        <ele>1710.4410400391</ele>
        <time>2017-12-22T11:15:40Z</time>
      </trkpt>
      <trkpt lat="45.3137" lon="5.83611">
        <ele>1711.4410400391</ele>
        <time>2017-12-22T11:15:47Z</time>
      </trkpt>
      <trkpt lat="45.31365" lon="5.83609">
        <ele>1714.4410400391</ele>
        <time>2017-12-22T11:15:53Z</time>
      </trkpt>
      <trkpt lat="45.3136" lon="5.83608">
        <ele>1716.4410400391</ele>
        <time>2017-12-22T11:15:59Z</time>
      </trkpt>
      <trkpt lat="45.31355" lon="5.83606">
        <ele>1718.4410400391</ele>
        <time>2017-12-22T11:16:04Z</time>
      </trkpt>
      <trkpt lat="45.31351" lon="5.83603">
        <ele>1719.4410400391</ele>
        <time>2017-12-22T11:16:09Z</time>
      </trkpt>
      <trkpt lat="45.31346" lon="5.83602">
        <ele>1720.4410400391</ele>
        <time>2017-12-22T11:16:14Z</time>
      </trkpt>
      <trkpt lat="45.31342" lon="5.83603">
        <ele>1722.4410400391</ele>
        <time>2017-12-22T11:16:21Z</time>
      </trkpt>
      <trkpt lat="45.31337" lon="5.83604">
        <ele>1724.4410400391</ele>
        <time>2017-12-22T11:16:27Z</time>
      </trkpt>
      <trkpt lat="45.31332" lon="5.83603">
        <ele>1727.4410400391</ele>
        <time>2017-12-22T11:16:33Z</time>
      </trkpt>
      <trkpt lat="45.31327" lon="5.836">
        <ele>1729.4410400391</ele>
        <time>2017-12-22T11:16:39Z</time>
      </trkpt>
      <trkpt lat="45.31322" lon="5.83599">
        <ele>1729.4410400391</ele>
        <time>2017-12-22T11:16:44Z</time>
      </trkpt>
      <trkpt lat="45.31316" lon="5.83595">
        <ele>1729.4410400391</ele>
        <time>2017-12-22T11:16:47Z</time>
      </trkpt>
      <trkpt lat="45.31311" lon="5.83594">
        <ele>1728.4410400391</ele>
        <time>2017-12-22T11:16:51Z</time>
      </trkpt>
      <trkpt lat="45.31305" lon="5.83593">
        <ele>1729.4410400391</ele>
        <time>2017-12-22T11:16:56Z</time>
      </trkpt>
      <trkpt lat="45.313" lon="5.83592">
        <ele>1732.4410400391</ele>
        <time>2017-12-22T11:17:01Z</time>
      </trkpt>
      <trkpt lat="45.31295" lon="5.83591">
        <ele>1733.4410400391</ele>
        <time>2017-12-22T11:17:07Z</time>
      </trkpt>
      <trkpt lat="45.3129" lon="5.8359">
        <ele>1735.4410400391</ele>
        <time>2017-12-22T11:17:13Z</time>
      </trkpt>
      <trkpt lat="45.31285" lon="5.83588">
        <ele>1738.4410400391</ele>
        <time>2017-12-22T11:17:18Z</time>
      </trkpt>
      <trkpt lat="45.31281" lon="5.83587">
        <ele>1738.4410400391</ele>
        <time>2017-12-22T11:17:23Z</time>
      </trkpt>
      <trkpt lat="45.31276" lon="5.83585">
        <ele>1740.4399414062</ele>
        <time>2017-12-22T11:17:27Z</time>
      </trkpt>
      <trkpt lat="45.31271" lon="5.83583">
        <ele>1740.4399414062</ele>
        <time>2017-12-22T11:17:33Z</time>
      </trkpt>
      <trkpt lat="45.31266" lon="5.83582">
        <ele>1741.4399414062</ele>
        <time>2017-12-22T11:17:37Z</time>
      </trkpt>
      <trkpt lat="45.31262" lon="5.83581">
        <ele>1742.4399414062</ele>
        <time>2017-12-22T11:17:41Z</time>
      </trkpt>
      <trkpt lat="45.31257" lon="5.83579">
        <ele>1743.4399414062</ele>
        <time>2017-12-22T11:17:45Z</time>
      </trkpt>
      <trkpt lat="45.31251" lon="5.83578">
        <ele>1743.4399414062</ele>
        <time>2017-12-22T11:17:49Z</time>
      </trkpt>
      <trkpt lat="45.31247" lon="5.83576">
        <ele>1743.4399414062</ele>
        <time>2017-12-22T11:17:53Z</time>
      </trkpt>
      <trkpt lat="45.31242" lon="5.83575">
        <ele>1744.4399414062</ele>
        <time>2017-12-22T11:17:57Z</time>
      </trkpt>
      <trkpt lat="45.31237" lon="5.83573">
        <ele>1745.4399414062</ele>
        <time>2017-12-22T11:18:02Z</time>
      </trkpt>
      <trkpt lat="45.31232" lon="5.83572">
        <ele>1745.4399414062</ele>
        <time>2017-12-22T11:18:06Z</time>
      </trkpt>
      <trkpt lat="45.31226" lon="5.83572">
        <ele>1745.4399414062</ele>
        <time>2017-12-22T11:18:11Z</time>
      </trkpt>
      <trkpt lat="45.31222" lon="5.83571">
        <ele>1747.4399414062</ele>
        <time>2017-12-22T11:18:16Z</time>
      </trkpt>
      <trkpt lat="45.31217" lon="5.8357">
        <ele>1747.4399414062</ele>
        <time>2017-12-22T11:18:20Z</time>
      </trkpt>
      <trkpt lat="45.31212" lon="5.83567">
        <ele>1749.4399414062</ele>
        <time>2017-12-22T11:18:24Z</time>
      </trkpt>
      <trkpt lat="45.31208" lon="5.83565">
        <ele>1750.4399414062</ele>
        <time>2017-12-22T11:18:29Z</time>
      </trkpt>
      <trkpt lat="45.31203" lon="5.83563">
        <ele>1751.4399414062</ele>
        <time>2017-12-22T11:18:33Z</time>
      </trkpt>
      <trkpt lat="45.31199" lon="5.83561">
        <ele>1750.4399414062</ele>
        <time>2017-12-22T11:18:38Z</time>
      </trkpt>
      <trkpt lat="45.31194" lon="5.83559">
        <ele>1751.4399414062</ele>
        <time>2017-12-22T11:18:43Z</time>
      </trkpt>
      <trkpt lat="45.3119" lon="5.83556">
        <ele>1753.4399414062</ele>
        <time>2017-12-22T11:18:48Z</time>
      </trkpt>
      <trkpt lat="45.31185" lon="5.83555">
        <ele>1752.4399414062</ele>
        <time>2017-12-22T11:18:53Z</time>
      </trkpt>
      <trkpt lat="45.31181" lon="5.83553">
        <ele>1753.4399414062</ele>
        <time>2017-12-22T11:18:57Z</time>
      </trkpt>
      <trkpt lat="45.31176" lon="5.83551">
        <ele>1754.4399414062</ele>
        <time>2017-12-22T11:19:02Z</time>
      </trkpt>
      <trkpt lat="45.31171" lon="5.8355">
        <ele>1756.4399414062</ele>
        <time>2017-12-22T11:19:08Z</time>
      </trkpt>
      <trkpt lat="45.31167" lon="5.8355">
        <ele>1758.4399414062</ele>
        <time>2017-12-22T11:19:12Z</time>
      </trkpt>
      <trkpt lat="45.31161" lon="5.8355">
        <ele>1759.4399414062</ele>
        <time>2017-12-22T11:19:18Z</time>
      </trkpt>
      <trkpt lat="45.31156" lon="5.83551">
        <ele>1760.4399414062</ele>
        <time>2017-12-22T11:19:23Z</time>
      </trkpt>
      <trkpt lat="45.31152" lon="5.83548">
        <ele>1760.4399414062</ele>
        <time>2017-12-22T11:19:28Z</time>
      </trkpt>
      <trkpt lat="45.31147" lon="5.83546">
        <ele>1763.4399414062</ele>
        <time>2017-12-22T11:19:32Z</time>
      </trkpt>
      <trkpt lat="45.31142" lon="5.83544">
        <ele>1763.4399414062</ele>
        <time>2017-12-22T11:19:40Z</time>
      </trkpt>
      <trkpt lat="45.31148" lon="5.83543">
        <ele>1760.4399414062</ele>
        <time>2017-12-22T11:22:37Z</time>
      </trkpt>
      <trkpt lat="45.31152" lon="5.83535">
        <ele>1759.4399414062</ele>
        <time>2017-12-22T11:22:40Z</time>
      </trkpt>
      <trkpt lat="45.31156" lon="5.83523">
        <ele>1754.4399414062</ele>
        <time>2017-12-22T11:22:42Z</time>
      </trkpt>
      <trkpt lat="45.31158" lon="5.8351">
        <ele>1748.4399414062</ele>
        <time>2017-12-22T11:22:45Z</time>
      </trkpt>
      <trkpt lat="45.31166" lon="5.83495">
        <ele>1742.4399414062</ele>
        <time>2017-12-22T11:22:48Z</time>
      </trkpt>
      <trkpt lat="45.3117" lon="5.83479">
        <ele>1734.4399414062</ele>
        <time>2017-12-22T11:22:51Z</time>
      </trkpt>
      <trkpt lat="45.3117" lon="5.83465">
        <ele>1731.4399414062</ele>
        <time>2017-12-22T11:22:53Z</time>
      </trkpt>
      <trkpt lat="45.31166" lon="5.83455">
        <ele>1728.4399414062</ele>
        <time>2017-12-22T11:22:55Z</time>
      </trkpt>
      <trkpt lat="45.31163" lon="5.8345">
        <ele>1750.4399414062</ele>
        <time>2017-12-22T11:22:59Z</time>
      </trkpt>
      <trkpt lat="45.31164" lon="5.83442">
        <ele>1732.4399414062</ele>
        <time>2017-12-22T11:23:09Z</time>
      </trkpt>
      <trkpt lat="45.3116" lon="5.83433">
        <ele>1730.4399414062</ele>
        <time>2017-12-22T11:23:11Z</time>
      </trkpt>
      <trkpt lat="45.31159" lon="5.83424">
        <ele>1726.4399414062</ele>
        <time>2017-12-22T11:23:18Z</time>
      </trkpt>
      <trkpt lat="45.31157" lon="5.83411">
        <ele>1723.4399414062</ele>
        <time>2017-12-22T11:23:20Z</time>
      </trkpt>
      <trkpt lat="45.31156" lon="5.83402">
        <ele>1722.4399414062</ele>
        <time>2017-12-22T11:23:21Z</time>
      </trkpt>
      <trkpt lat="45.31158" lon="5.83394">
        <ele>1721.4399414062</ele>
        <time>2017-12-22T11:23:22Z</time>
      </trkpt>
      <trkpt lat="45.31157" lon="5.83377">
        <ele>1716.4399414062</ele>
        <time>2017-12-22T11:23:25Z</time>
      </trkpt>
      <trkpt lat="45.31166" lon="5.83372">
        <ele>1710.4399414062</ele>
        <time>2017-12-22T11:23:27Z</time>
      </trkpt>
      <trkpt lat="45.31171" lon="5.83365">
        <ele>1705.4399414062</ele>
        <time>2017-12-22T11:23:28Z</time>
      </trkpt>
      <trkpt lat="45.31172" lon="5.83345">
        <ele>1700.4399414062</ele>
        <time>2017-12-22T11:23:30Z</time>
      </trkpt>
      <trkpt lat="45.31186" lon="5.83329">
        <ele>1684.4399414062</ele>
        <time>2017-12-22T11:23:33Z</time>
      </trkpt>
      <trkpt lat="45.312" lon="5.83321">
        <ele>1680.4399414062</ele>
        <time>2017-12-22T11:23:35Z</time>
      </trkpt>
      <trkpt lat="45.31206" lon="5.83284">
        <ele>1671.4399414062</ele>
        <time>2017-12-22T11:23:37Z</time>
      </trkpt>
      <trkpt lat="45.31213" lon="5.83254">
        <ele>1666.4399414062</ele>
        <time>2017-12-22T11:23:39Z</time>
      </trkpt>
      <trkpt lat="45.31209" lon="5.83232">
        <ele>1662.4399414062</ele>
        <time>2017-12-22T11:23:41Z</time>
      </trkpt>
      <trkpt lat="45.31199" lon="5.83211">
        <ele>1658.4399414062</ele>
        <time>2017-12-22T11:23:43Z</time>
      </trkpt>
      <trkpt lat="45.3119" lon="5.83187">
        <ele>1654.4399414062</ele>
        <time>2017-12-22T11:23:45Z</time>
      </trkpt>
      <trkpt lat="45.31183" lon="5.83161">
        <ele>1649.4399414062</ele>
        <time>2017-12-22T11:23:47Z</time>
      </trkpt>
      <trkpt lat="45.31175" lon="5.83137">
        <ele>1645.4399414062</ele>
        <time>2017-12-22T11:23:49Z</time>
      </trkpt>
      <trkpt lat="45.31164" lon="5.83116">
        <ele>1641.4399414062</ele>
        <time>2017-12-22T11:23:51Z</time>
      </trkpt>
      <trkpt lat="45.31153" lon="5.83092">
        <ele>1638.4399414062</ele>
        <time>2017-12-22T11:23:53Z</time>
      </trkpt>
      <trkpt lat="45.31148" lon="5.83085">
        <ele>1632.4399414062</ele>
        <time>2017-12-22T11:23:54Z</time>
      </trkpt>
      <trkpt lat="45.31138" lon="5.83063">
        <ele>1625.4399414062</ele>
        <time>2017-12-22T11:23:56Z</time>
      </trkpt>
      <trkpt lat="45.31142" lon="5.83056">
        <ele>1623.4399414062</ele>
        <time>2017-12-22T11:23:57Z</time>
      </trkpt>
      <trkpt lat="45.31149" lon="5.83048">
        <ele>1620.4399414062</ele>
        <time>2017-12-22T11:23:59Z</time>
      </trkpt>
      <trkpt lat="45.31154" lon="5.83045">
        <ele>1617.4399414062</ele>
        <time>2017-12-22T11:24:02Z</time>
      </trkpt>
      <trkpt lat="45.31155" lon="5.83036">
        <ele>1610.4399414062</ele>
        <time>2017-12-22T11:24:13Z</time>
      </trkpt>
      <trkpt lat="45.3115" lon="5.8302">
        <ele>1606.4389648438</ele>
        <time>2017-12-22T11:24:15Z</time>
      </trkpt>
      <trkpt lat="45.3114" lon="5.83003">
        <ele>1602.4389648438</ele>
        <time>2017-12-22T11:24:17Z</time>
      </trkpt>
      <trkpt lat="45.3113" lon="5.82988">
        <ele>1596.4389648438</ele>
        <time>2017-12-22T11:24:19Z</time>
      </trkpt>
      <trkpt lat="45.3112" lon="5.82974">
        <ele>1592.4389648438</ele>
        <time>2017-12-22T11:24:21Z</time>
      </trkpt>
      <trkpt lat="45.31117" lon="5.82957">
        <ele>1586.4389648438</ele>
        <time>2017-12-22T11:24:23Z</time>
      </trkpt>
      <trkpt lat="45.31116" lon="5.82938">
        <ele>1582.4389648438</ele>
        <time>2017-12-22T11:24:25Z</time>
      </trkpt>
      <trkpt lat="45.31105" lon="5.82931">
        <ele>1579.4389648438</ele>
        <time>2017-12-22T11:24:27Z</time>
      </trkpt>
      <trkpt lat="45.31092" lon="5.82931">
        <ele>1576.4389648438</ele>
        <time>2017-12-22T11:24:30Z</time>
      </trkpt>
      <trkpt lat="45.31085" lon="5.82929">
        <ele>1573.4389648438</ele>
        <time>2017-12-22T11:24:32Z</time>
      </trkpt>
      <trkpt lat="45.31087" lon="5.82915">
        <ele>1570.4389648438</ele>
        <time>2017-12-22T11:24:34Z</time>
      </trkpt>
      <trkpt lat="45.31097" lon="5.82902">
        <ele>1568.4389648438</ele>
        <time>2017-12-22T11:24:37Z</time>
      </trkpt>
      <trkpt lat="45.31095" lon="5.82887">
        <ele>1564.4389648438</ele>
        <time>2017-12-22T11:24:39Z</time>
      </trkpt>
      <trkpt lat="45.31086" lon="5.82873">
        <ele>1560.4389648438</ele>
        <time>2017-12-22T11:24:41Z</time>
      </trkpt>
      <trkpt lat="45.31072" lon="5.82858">
        <ele>1554.4389648438</ele>
        <time>2017-12-22T11:24:43Z</time>
      </trkpt>
      <trkpt lat="45.31059" lon="5.82839">
        <ele>1549.4389648438</ele>
        <time>2017-12-22T11:24:45Z</time>
      </trkpt>
      <trkpt lat="45.31047" lon="5.82817">
        <ele>1545.4389648438</ele>
        <time>2017-12-22T11:24:47Z</time>
      </trkpt>
      <trkpt lat="45.31033" lon="5.82791">
        <ele>1542.4389648438</ele>
        <time>2017-12-22T11:24:49Z</time>
      </trkpt>
      <trkpt lat="45.31021" lon="5.82766">
        <ele>1539.4389648438</ele>
        <time>2017-12-22T11:24:51Z</time>
      </trkpt>
      <trkpt lat="45.31013" lon="5.82749">
        <ele>1533.4389648438</ele>
        <time>2017-12-22T11:24:53Z</time>
      </trkpt>
      <trkpt lat="45.31007" lon="5.82728">
        <ele>1530.4389648438</ele>
        <time>2017-12-22T11:24:55Z</time>
      </trkpt>
      <trkpt lat="45.30996" lon="5.82713">
        <ele>1528.4389648438</ele>
        <time>2017-12-22T11:24:57Z</time>
      </trkpt>
      <trkpt lat="45.30977" lon="5.82709">
        <ele>1523.4389648438</ele>
        <time>2017-12-22T11:24:59Z</time>
      </trkpt>
      <trkpt lat="45.30962" lon="5.82697">
        <ele>1519.4389648438</ele>
        <time>2017-12-22T11:25:01Z</time>
      </trkpt>
      <trkpt lat="45.30948" lon="5.82687">
        <ele>1514.4389648438</ele>
        <time>2017-12-22T11:25:03Z</time>
      </trkpt>
      <trkpt lat="45.30942" lon="5.82661">
        <ele>1506.4389648438</ele>
        <time>2017-12-22T11:25:05Z</time>
      </trkpt>
      <trkpt lat="45.30924" lon="5.8265">
        <ele>1502.4389648438</ele>
        <time>2017-12-22T11:25:07Z</time>
      </trkpt>
      <trkpt lat="45.3091" lon="5.82637">
        <ele>1497.4379882812</ele>
        <time>2017-12-22T11:25:09Z</time>
      </trkpt>
      <trkpt lat="45.30894" lon="5.82641">
        <ele>1491.4379882812</ele>
        <time>2017-12-22T11:25:11Z</time>
      </trkpt>
      <trkpt lat="45.3088" lon="5.82642">
        <ele>1488.4379882812</ele>
        <time>2017-12-22T11:25:13Z</time>
      </trkpt>
      <trkpt lat="45.30877" lon="5.82621">
        <ele>1484.4379882812</ele>
        <time>2017-12-22T11:25:15Z</time>
      </trkpt>
      <trkpt lat="45.30871" lon="5.82604">
        <ele>1481.4379882812</ele>
        <time>2017-12-22T11:25:17Z</time>
      </trkpt>
      <trkpt lat="45.30857" lon="5.82583">
        <ele>1476.4379882812</ele>
        <time>2017-12-22T11:25:19Z</time>
      </trkpt>
      <trkpt lat="45.30862" lon="5.82591">
        <ele>1465.4379882812</ele>
        <time>2017-12-22T11:27:16Z</time>
      </trkpt>
      <trkpt lat="45.30866" lon="5.82594">
        <ele>1464.4379882812</ele>
        <time>2017-12-22T11:27:19Z</time>
      </trkpt>
      <trkpt lat="45.30872" lon="5.82595">
        <ele>1461.4379882812</ele>
        <time>2017-12-22T11:27:24Z</time>
      </trkpt>
      <trkpt lat="45.30877" lon="5.82595">
        <ele>1460.4379882812</ele>
        <time>2017-12-22T11:27:26Z</time>
      </trkpt>
      <trkpt lat="45.30881" lon="5.82591">
        <ele>1463.4379882812</ele>
        <time>2017-12-22T11:27:32Z</time>
      </trkpt>
      <trkpt lat="45.30886" lon="5.82592">
        <ele>1464.4379882812</ele>
        <time>2017-12-22T11:27:37Z</time>
      </trkpt>
      <trkpt lat="45.30889" lon="5.82599">
        <ele>1462.4379882812</ele>
        <time>2017-12-22T11:27:42Z</time>
      </trkpt>
      <trkpt lat="45.3089" lon="5.82605">
        <ele>1462.4379882812</ele>
        <time>2017-12-22T11:27:45Z</time>
      </trkpt>
      <trkpt lat="45.30889" lon="5.82611">
        <ele>1462.4379882812</ele>
        <time>2017-12-22T11:27:48Z</time>
      </trkpt>
      <trkpt lat="45.30886" lon="5.82619">
        <ele>1462.4379882812</ele>
        <time>2017-12-22T11:27:52Z</time>
      </trkpt>
      <trkpt lat="45.30885" lon="5.82625">
        <ele>1464.4379882812</ele>
        <time>2017-12-22T11:27:55Z</time>
      </trkpt>
      <trkpt lat="45.30885" lon="5.82633">
        <ele>1466.4379882812</ele>
        <time>2017-12-22T11:27:59Z</time>
      </trkpt>
      <trkpt lat="45.30883" lon="5.82638">
        <ele>1468.4379882812</ele>
        <time>2017-12-22T11:28:03Z</time>
      </trkpt>
      <trkpt lat="45.3088" lon="5.82645">
        <ele>1469.4379882812</ele>
        <time>2017-12-22T11:28:05Z</time>
      </trkpt>
      <trkpt lat="45.30879" lon="5.82652">
        <ele>1469.4379882812</ele>
        <time>2017-12-22T11:28:09Z</time>
      </trkpt>
      <trkpt lat="45.30885" lon="5.82652">
        <ele>1468.4379882812</ele>
        <time>2017-12-22T11:28:15Z</time>
      </trkpt>
      <trkpt lat="45.30892" lon="5.82651">
        <ele>1468.4379882812</ele>
        <time>2017-12-22T11:28:18Z</time>
      </trkpt>
      <trkpt lat="45.30897" lon="5.82651">
        <ele>1467.4379882812</ele>
        <time>2017-12-22T11:28:21Z</time>
      </trkpt>
      <trkpt lat="45.30901" lon="5.82653">
        <ele>1468.4379882812</ele>
        <time>2017-12-22T11:28:27Z</time>
      </trkpt>
      <trkpt lat="45.30905" lon="5.8265">
        <ele>1472.4379882812</ele>
        <time>2017-12-22T11:28:33Z</time>
      </trkpt>
      <trkpt lat="45.30909" lon="5.82655">
        <ele>1477.4379882812</ele>
        <time>2017-12-22T11:28:40Z</time>
      </trkpt>
      <trkpt lat="45.30907" lon="5.82664">
        <ele>1480.4379882812</ele>
        <time>2017-12-22T11:28:46Z</time>
      </trkpt>
      <trkpt lat="45.30907" lon="5.82672">
        <ele>1479.4389648438</ele>
        <time>2017-12-22T11:28:53Z</time>
      </trkpt>
      <trkpt lat="45.30907" lon="5.82678">
        <ele>1478.4389648438</ele>
        <time>2017-12-22T11:28:57Z</time>
      </trkpt>
      <trkpt lat="45.30907" lon="5.82686">
        <ele>1483.4389648438</ele>
        <time>2017-12-22T11:29:04Z</time>
      </trkpt>
      <trkpt lat="45.30907" lon="5.82692">
        <ele>1484.4389648438</ele>
        <time>2017-12-22T11:29:08Z</time>
      </trkpt>
      <trkpt lat="45.30908" lon="5.827">
        <ele>1484.4389648438</ele>
        <time>2017-12-22T11:29:13Z</time>
      </trkpt>
      <trkpt lat="45.30908" lon="5.82707">
        <ele>1489.4389648438</ele>
        <time>2017-12-22T11:29:20Z</time>
      </trkpt>
      <trkpt lat="45.30913" lon="5.82708">
        <ele>1491.4389648438</ele>
        <time>2017-12-22T11:29:24Z</time>
      </trkpt>
      <trkpt lat="45.30918" lon="5.82706">
        <ele>1495.4389648438</ele>
        <time>2017-12-22T11:29:30Z</time>
      </trkpt>
      <trkpt lat="45.30923" lon="5.82707">
        <ele>1497.4389648438</ele>
        <time>2017-12-22T11:29:34Z</time>
      </trkpt>
      <trkpt lat="45.30927" lon="5.82709">
        <ele>1500.4389648438</ele>
        <time>2017-12-22T11:29:41Z</time>
      </trkpt>
      <trkpt lat="45.30932" lon="5.82714">
        <ele>1500.4389648438</ele>
        <time>2017-12-22T11:29:46Z</time>
      </trkpt>
      <trkpt lat="45.30936" lon="5.82718">
        <ele>1498.4389648438</ele>
        <time>2017-12-22T11:29:50Z</time>
      </trkpt>
      <trkpt lat="45.3094" lon="5.82722">
        <ele>1499.4389648438</ele>
        <time>2017-12-22T11:29:53Z</time>
      </trkpt>
      <trkpt lat="45.30944" lon="5.82725">
        <ele>1501.4389648438</ele>
        <time>2017-12-22T11:29:56Z</time>
      </trkpt>
      <trkpt lat="45.30949" lon="5.82726">
        <ele>1502.4389648438</ele>
        <time>2017-12-22T11:30:00Z</time>
      </trkpt>
      <trkpt lat="45.30952" lon="5.82733">
        <ele>1501.4389648438</ele>
        <time>2017-12-22T11:30:03Z</time>
      </trkpt>
      <trkpt lat="45.30957" lon="5.82734">
        <ele>1504.4389648438</ele>
        <time>2017-12-22T11:30:08Z</time>
      </trkpt>
      <trkpt lat="45.30962" lon="5.82735">
        <ele>1507.4389648438</ele>
        <time>2017-12-22T11:30:12Z</time>
      </trkpt>
      <trkpt lat="45.30965" lon="5.82739">
        <ele>1508.4389648438</ele>
        <time>2017-12-22T11:30:17Z</time>
      </trkpt>
      <trkpt lat="45.3097" lon="5.82744">
        <ele>1512.4389648438</ele>
        <time>2017-12-22T11:30:22Z</time>
      </trkpt>
      <trkpt lat="45.30972" lon="5.82751">
        <ele>1512.4389648438</ele>
        <time>2017-12-22T11:30:26Z</time>
      </trkpt>
      <trkpt lat="45.30971" lon="5.82757">
        <ele>1513.4389648438</ele>
        <time>2017-12-22T11:30:28Z</time>
      </trkpt>
      <trkpt lat="45.30969" lon="5.82765">
        <ele>1516.4389648438</ele>
        <time>2017-12-22T11:30:33Z</time>
      </trkpt>
      <trkpt lat="45.3097" lon="5.82773">
        <ele>1516.4389648438</ele>
        <time>2017-12-22T11:30:37Z</time>
      </trkpt>
      <trkpt lat="45.30971" lon="5.8278">
        <ele>1516.4389648438</ele>
        <time>2017-12-22T11:30:41Z</time>
      </trkpt>
      <trkpt lat="45.30973" lon="5.82788">
        <ele>1519.4389648438</ele>
        <time>2017-12-22T11:30:46Z</time>
      </trkpt>
      <trkpt lat="45.30975" lon="5.82793">
        <ele>1521.4389648438</ele>
        <time>2017-12-22T11:30:50Z</time>
      </trkpt>
      <trkpt lat="45.30979" lon="5.82797">
        <ele>1522.4389648438</ele>
        <time>2017-12-22T11:30:54Z</time>
      </trkpt>
      <trkpt lat="45.30982" lon="5.82802">
        <ele>1523.4389648438</ele>
        <time>2017-12-22T11:30:59Z</time>
      </trkpt>
      <trkpt lat="45.30986" lon="5.82807">
        <ele>1526.4389648438</ele>
        <time>2017-12-22T11:31:04Z</time>
      </trkpt>
      <trkpt lat="45.3099" lon="5.8281">
        <ele>1527.4389648438</ele>
        <time>2017-12-22T11:31:07Z</time>
      </trkpt>
      <trkpt lat="45.30996" lon="5.82814">
        <ele>1529.4389648438</ele>
        <time>2017-12-22T11:31:11Z</time>
      </trkpt>
      <trkpt lat="45.31" lon="5.82819">
        <ele>1529.4389648438</ele>
        <time>2017-12-22T11:31:16Z</time>
      </trkpt>
      <trkpt lat="45.31003" lon="5.82825">
        <ele>1531.4389648438</ele>
        <time>2017-12-22T11:31:23Z</time>
      </trkpt>
      <trkpt lat="45.31006" lon="5.8283">
        <ele>1533.4389648438</ele>
        <time>2017-12-22T11:31:28Z</time>
      </trkpt>
      <trkpt lat="45.3101" lon="5.82837">
        <ele>1533.4389648438</ele>
        <time>2017-12-22T11:31:33Z</time>
      </trkpt>
      <trkpt lat="45.31014" lon="5.82844">
        <ele>1536.4389648438</ele>
        <time>2017-12-22T11:31:40Z</time>
      </trkpt>
      <trkpt lat="45.31017" lon="5.82848">
        <ele>1538.4389648438</ele>
        <time>2017-12-22T11:31:45Z</time>
      </trkpt>
      <trkpt lat="45.31021" lon="5.82853">
        <ele>1538.4389648438</ele>
        <time>2017-12-22T11:31:49Z</time>
      </trkpt>
      <trkpt lat="45.31023" lon="5.8286">
        <ele>1539.4389648438</ele>
        <time>2017-12-22T11:31:52Z</time>
      </trkpt>
      <trkpt lat="45.31028" lon="5.82863">
        <ele>1538.4389648438</ele>
        <time>2017-12-22T11:31:59Z</time>
      </trkpt>
      <trkpt lat="45.31032" lon="5.82869">
        <ele>1542.4389648438</ele>
        <time>2017-12-22T11:32:06Z</time>
      </trkpt>
      <trkpt lat="45.31035" lon="5.82874">
        <ele>1542.4389648438</ele>
        <time>2017-12-22T11:32:09Z</time>
      </trkpt>
      <trkpt lat="45.31039" lon="5.8288">
        <ele>1542.4389648438</ele>
        <time>2017-12-22T11:32:13Z</time>
      </trkpt>
      <trkpt lat="45.31042" lon="5.82886">
        <ele>1544.4389648438</ele>
        <time>2017-12-22T11:32:19Z</time>
      </trkpt>
      <trkpt lat="45.31045" lon="5.82891">
        <ele>1546.4389648438</ele>
        <time>2017-12-22T11:32:24Z</time>
      </trkpt>
      <trkpt lat="45.31049" lon="5.82895">
        <ele>1547.4389648438</ele>
        <time>2017-12-22T11:32:27Z</time>
      </trkpt>
      <trkpt lat="45.31055" lon="5.82898">
        <ele>1546.4389648438</ele>
        <time>2017-12-22T11:32:31Z</time>
      </trkpt>
      <trkpt lat="45.3106" lon="5.82899">
        <ele>1548.4389648438</ele>
        <time>2017-12-22T11:32:35Z</time>
      </trkpt>
      <trkpt lat="45.31065" lon="5.82898">
        <ele>1550.4389648438</ele>
        <time>2017-12-22T11:32:41Z</time>
      </trkpt>
      <trkpt lat="45.3107" lon="5.82897">
        <ele>1549.4389648438</ele>
        <time>2017-12-22T11:32:44Z</time>
      </trkpt>
      <trkpt lat="45.31076" lon="5.829">
        <ele>1548.4389648438</ele>
        <time>2017-12-22T11:32:48Z</time>
      </trkpt>
      <trkpt lat="45.31082" lon="5.829">
        <ele>1552.4389648438</ele>
        <time>2017-12-22T11:32:53Z</time>
      </trkpt>
      <trkpt lat="45.31086" lon="5.82901">
        <ele>1555.4389648438</ele>
        <time>2017-12-22T11:32:57Z</time>
      </trkpt>
      <trkpt lat="45.31091" lon="5.82904">
        <ele>1559.4389648438</ele>
        <time>2017-12-22T11:33:02Z</time>
      </trkpt>
      <trkpt lat="45.31096" lon="5.82903">
        <ele>1561.4389648438</ele>
        <time>2017-12-22T11:33:07Z</time>
      </trkpt>
      <trkpt lat="45.31101" lon="5.82904">
        <ele>1560.4389648438</ele>
        <time>2017-12-22T11:33:11Z</time>
      </trkpt>
      <trkpt lat="45.31107" lon="5.82907">
        <ele>1560.4389648438</ele>
        <time>2017-12-22T11:33:15Z</time>
      </trkpt>
      <trkpt lat="45.31112" lon="5.82908">
        <ele>1562.4389648438</ele>
        <time>2017-12-22T11:33:19Z</time>
      </trkpt>
      <trkpt lat="45.31117" lon="5.82909">
        <ele>1563.4389648438</ele>
        <time>2017-12-22T11:33:23Z</time>
      </trkpt>
      <trkpt lat="45.31123" lon="5.8291">
        <ele>1567.4389648438</ele>
        <time>2017-12-22T11:33:29Z</time>
      </trkpt>
      <trkpt lat="45.31129" lon="5.82913">
        <ele>1567.4389648438</ele>
        <time>2017-12-22T11:33:35Z</time>
      </trkpt>
      <trkpt lat="45.31135" lon="5.82916">
        <ele>1569.4389648438</ele>
        <time>2017-12-22T11:33:40Z</time>
      </trkpt>
      <trkpt lat="45.3114" lon="5.82917">
        <ele>1569.4389648438</ele>
        <time>2017-12-22T11:33:45Z</time>
      </trkpt>
      <trkpt lat="45.31146" lon="5.82917">
        <ele>1573.4389648438</ele>
        <time>2017-12-22T11:33:49Z</time>
      </trkpt>
      <trkpt lat="45.3115" lon="5.8292">
        <ele>1574.4389648438</ele>
        <time>2017-12-22T11:33:53Z</time>
      </trkpt>
      <trkpt lat="45.31154" lon="5.82921">
        <ele>1576.4389648438</ele>
        <time>2017-12-22T11:33:56Z</time>
      </trkpt>
      <trkpt lat="45.3116" lon="5.82922">
        <ele>1578.4389648438</ele>
        <time>2017-12-22T11:34:00Z</time>
      </trkpt>
      <trkpt lat="45.31165" lon="5.82924">
        <ele>1579.4389648438</ele>
        <time>2017-12-22T11:34:03Z</time>
      </trkpt>
      <trkpt lat="45.31169" lon="5.82929">
        <ele>1579.4389648438</ele>
        <time>2017-12-22T11:34:08Z</time>
      </trkpt>
      <trkpt lat="45.31174" lon="5.82935">
        <ele>1578.4389648438</ele>
        <time>2017-12-22T11:34:14Z</time>
      </trkpt>
      <trkpt lat="45.31179" lon="5.82941">
        <ele>1580.4389648438</ele>
        <time>2017-12-22T11:34:19Z</time>
      </trkpt>
      <trkpt lat="45.31182" lon="5.82947">
        <ele>1583.4389648438</ele>
        <time>2017-12-22T11:34:24Z</time>
      </trkpt>
      <trkpt lat="45.31184" lon="5.82954">
        <ele>1585.4389648438</ele>
        <time>2017-12-22T11:34:28Z</time>
      </trkpt>
      <trkpt lat="45.31188" lon="5.82961">
        <ele>1583.4389648438</ele>
        <time>2017-12-22T11:34:35Z</time>
      </trkpt>
      <trkpt lat="45.3119" lon="5.82968">
        <ele>1586.4389648438</ele>
        <time>2017-12-22T11:34:40Z</time>
      </trkpt>
      <trkpt lat="45.31194" lon="5.82976">
        <ele>1585.4399414062</ele>
        <time>2017-12-22T11:34:45Z</time>
      </trkpt>
      <trkpt lat="45.31198" lon="5.82982">
        <ele>1586.4399414062</ele>
        <time>2017-12-22T11:34:49Z</time>
      </trkpt>
      <trkpt lat="45.31202" lon="5.82985">
        <ele>1586.4399414062</ele>
        <time>2017-12-22T11:34:53Z</time>
      </trkpt>
      <trkpt lat="45.31205" lon="5.8299">
        <ele>1586.4399414062</ele>
        <time>2017-12-22T11:34:57Z</time>
      </trkpt>
      <trkpt lat="45.31208" lon="5.82994">
        <ele>1588.4399414062</ele>
        <time>2017-12-22T11:35:00Z</time>
      </trkpt>
      <trkpt lat="45.31212" lon="5.82999">
        <ele>1589.4399414062</ele>
        <time>2017-12-22T11:35:04Z</time>
      </trkpt>
      <trkpt lat="45.31215" lon="5.83004">
        <ele>1593.4399414062</ele>
        <time>2017-12-22T11:35:08Z</time>
      </trkpt>
      <trkpt lat="45.31219" lon="5.83009">
        <ele>1592.4399414062</ele>
        <time>2017-12-22T11:35:12Z</time>
      </trkpt>
      <trkpt lat="45.31223" lon="5.83015">
        <ele>1592.4399414062</ele>
        <time>2017-12-22T11:35:16Z</time>
      </trkpt>
      <trkpt lat="45.31224" lon="5.83022">
        <ele>1593.4399414062</ele>
        <time>2017-12-22T11:35:20Z</time>
      </trkpt>
      <trkpt lat="45.31226" lon="5.83027">
        <ele>1596.4399414062</ele>
        <time>2017-12-22T11:35:24Z</time>
      </trkpt>
      <trkpt lat="45.3123" lon="5.83033">
        <ele>1596.4399414062</ele>
        <time>2017-12-22T11:35:28Z</time>
      </trkpt>
      <trkpt lat="45.31234" lon="5.83039">
        <ele>1598.4399414062</ele>
        <time>2017-12-22T11:35:32Z</time>
      </trkpt>
      <trkpt lat="45.31236" lon="5.83044">
        <ele>1601.4399414062</ele>
        <time>2017-12-22T11:35:36Z</time>
      </trkpt>
      <trkpt lat="45.31239" lon="5.83051">
        <ele>1601.4399414062</ele>
        <time>2017-12-22T11:35:40Z</time>
      </trkpt>
      <trkpt lat="45.31243" lon="5.83055">
        <ele>1601.4399414062</ele>
        <time>2017-12-22T11:35:45Z</time>
      </trkpt>
      <trkpt lat="45.31245" lon="5.83061">
        <ele>1603.4399414062</ele>
        <time>2017-12-22T11:35:49Z</time>
      </trkpt>
      <trkpt lat="45.31248" lon="5.83069">
        <ele>1606.4399414062</ele>
        <time>2017-12-22T11:35:53Z</time>
      </trkpt>
      <trkpt lat="45.31251" lon="5.83075">
        <ele>1608.4399414062</ele>
        <time>2017-12-22T11:35:59Z</time>
      </trkpt>
      <trkpt lat="45.31253" lon="5.83082">
        <ele>1610.4399414062</ele>
        <time>2017-12-22T11:36:03Z</time>
      </trkpt>
      <trkpt lat="45.31254" lon="5.83089">
        <ele>1612.4399414062</ele>
        <time>2017-12-22T11:36:07Z</time>
      </trkpt>
      <trkpt lat="45.31256" lon="5.83095">
        <ele>1614.4399414062</ele>
        <time>2017-12-22T11:36:12Z</time>
      </trkpt>
      <trkpt lat="45.31258" lon="5.83103">
        <ele>1614.4399414062</ele>
        <time>2017-12-22T11:36:16Z</time>
      </trkpt>
      <trkpt lat="45.31261" lon="5.8311">
        <ele>1614.4399414062</ele>
        <time>2017-12-22T11:36:20Z</time>
      </trkpt>
      <trkpt lat="45.31262" lon="5.83118">
        <ele>1617.4399414062</ele>
        <time>2017-12-22T11:36:25Z</time>
      </trkpt>
      <trkpt lat="45.31265" lon="5.83126">
        <ele>1618.4399414062</ele>
        <time>2017-12-22T11:36:29Z</time>
      </trkpt>
      <trkpt lat="45.31265" lon="5.83134">
        <ele>1623.4399414062</ele>
        <time>2017-12-22T11:36:34Z</time>
      </trkpt>
      <trkpt lat="45.31266" lon="5.83143">
        <ele>1623.4399414062</ele>
        <time>2017-12-22T11:36:39Z</time>
      </trkpt>
      <trkpt lat="45.31266" lon="5.83152">
        <ele>1621.4399414062</ele>
        <time>2017-12-22T11:36:44Z</time>
      </trkpt>
      <trkpt lat="45.31267" lon="5.83158">
        <ele>1624.4399414062</ele>
        <time>2017-12-22T11:36:50Z</time>
      </trkpt>
      <trkpt lat="45.31268" lon="5.83165">
        <ele>1627.4399414062</ele>
        <time>2017-12-22T11:36:54Z</time>
      </trkpt>
      <trkpt lat="45.31269" lon="5.83171">
        <ele>1634.4399414062</ele>
        <time>2017-12-22T11:37:01Z</time>
      </trkpt>
      <trkpt lat="45.31269" lon="5.83178">
        <ele>1630.4399414062</ele>
        <time>2017-12-22T11:37:05Z</time>
      </trkpt>
      <trkpt lat="45.31269" lon="5.83185">
        <ele>1632.4399414062</ele>
        <time>2017-12-22T11:37:09Z</time>
      </trkpt>
      <trkpt lat="45.31269" lon="5.83193">
        <ele>1634.4399414062</ele>
        <time>2017-12-22T11:37:14Z</time>
      </trkpt>
      <trkpt lat="45.31271" lon="5.83199">
        <ele>1635.4399414062</ele>
        <time>2017-12-22T11:37:18Z</time>
      </trkpt>
      <trkpt lat="45.3127" lon="5.83207">
        <ele>1635.4399414062</ele>
        <time>2017-12-22T11:37:23Z</time>
      </trkpt>
      <trkpt lat="45.31269" lon="5.83214">
        <ele>1639.4399414062</ele>
        <time>2017-12-22T11:37:27Z</time>
      </trkpt>
      <trkpt lat="45.31267" lon="5.83222">
        <ele>1640.4399414062</ele>
        <time>2017-12-22T11:37:31Z</time>
      </trkpt>
      <trkpt lat="45.31265" lon="5.8323">
        <ele>1641.4399414062</ele>
        <time>2017-12-22T11:37:35Z</time>
      </trkpt>
      <trkpt lat="45.31264" lon="5.83237">
        <ele>1643.4399414062</ele>
        <time>2017-12-22T11:37:39Z</time>
      </trkpt>
      <trkpt lat="45.31263" lon="5.83244">
        <ele>1643.4399414062</ele>
        <time>2017-12-22T11:37:42Z</time>
      </trkpt>
      <trkpt lat="45.31261" lon="5.8325">
        <ele>1644.4399414062</ele>
        <time>2017-12-22T11:37:45Z</time>
      </trkpt>
      <trkpt lat="45.3126" lon="5.83256">
        <ele>1645.4399414062</ele>
        <time>2017-12-22T11:37:49Z</time>
      </trkpt>
      <trkpt lat="45.31258" lon="5.83264">
        <ele>1645.4399414062</ele>
        <time>2017-12-22T11:37:53Z</time>
      </trkpt>
      <trkpt lat="45.31255" lon="5.83271">
        <ele>1648.4399414062</ele>
        <time>2017-12-22T11:37:57Z</time>
      </trkpt>
      <trkpt lat="45.31253" lon="5.83278">
        <ele>1648.4399414062</ele>
        <time>2017-12-22T11:38:01Z</time>
      </trkpt>
      <trkpt lat="45.3125" lon="5.83284">
        <ele>1648.4399414062</ele>
        <time>2017-12-22T11:38:05Z</time>
      </trkpt>
      <trkpt lat="45.31251" lon="5.83291">
        <ele>1648.4399414062</ele>
        <time>2017-12-22T11:38:09Z</time>
      </trkpt>
      <trkpt lat="45.31251" lon="5.83298">
        <ele>1647.4399414062</ele>
        <time>2017-12-22T11:38:39Z</time>
      </trkpt>
      <trkpt lat="45.3125" lon="5.83308">
        <ele>1647.4399414062</ele>
        <time>2017-12-22T11:38:42Z</time>
      </trkpt>
      <trkpt lat="45.31249" lon="5.83316">
        <ele>1648.4399414062</ele>
        <time>2017-12-22T11:38:46Z</time>
      </trkpt>
      <trkpt lat="45.31248" lon="5.83323">
        <ele>1648.4399414062</ele>
        <time>2017-12-22T11:38:48Z</time>
      </trkpt>
      <trkpt lat="45.31247" lon="5.83331">
        <ele>1650.4399414062</ele>
        <time>2017-12-22T11:38:51Z</time>
      </trkpt>
      <trkpt lat="45.31244" lon="5.83338">
        <ele>1651.4399414062</ele>
        <time>2017-12-22T11:38:54Z</time>
      </trkpt>
      <trkpt lat="45.31245" lon="5.83346">
        <ele>1652.4399414062</ele>
        <time>2017-12-22T11:38:57Z</time>
      </trkpt>
      <trkpt lat="45.31248" lon="5.83353">
        <ele>1654.4399414062</ele>
        <time>2017-12-22T11:39:02Z</time>
      </trkpt>
      <trkpt lat="45.31251" lon="5.83361">
        <ele>1656.4399414062</ele>
        <time>2017-12-22T11:39:06Z</time>
      </trkpt>
      <trkpt lat="45.31253" lon="5.83367">
        <ele>1659.4399414062</ele>
        <time>2017-12-22T11:39:10Z</time>
      </trkpt>
      <trkpt lat="45.31255" lon="5.83374">
        <ele>1658.4399414062</ele>
        <time>2017-12-22T11:39:14Z</time>
      </trkpt>
      <trkpt lat="45.31257" lon="5.83382">
        <ele>1659.4399414062</ele>
        <time>2017-12-22T11:39:18Z</time>
      </trkpt>
      <trkpt lat="45.31259" lon="5.83389">
        <ele>1660.4399414062</ele>
        <time>2017-12-22T11:39:22Z</time>
      </trkpt>
      <trkpt lat="45.31261" lon="5.83397">
        <ele>1660.4399414062</ele>
        <time>2017-12-22T11:39:26Z</time>
      </trkpt>
      <trkpt lat="45.31263" lon="5.83404">
        <ele>1660.4399414062</ele>
        <time>2017-12-22T11:39:29Z</time>
      </trkpt>
      <trkpt lat="45.31264" lon="5.83411">
        <ele>1662.4399414062</ele>
        <time>2017-12-22T11:39:34Z</time>
      </trkpt>
      <trkpt lat="45.31267" lon="5.83417">
        <ele>1664.4399414062</ele>
        <time>2017-12-22T11:39:38Z</time>
      </trkpt>
      <trkpt lat="45.3127" lon="5.83423">
        <ele>1664.4399414062</ele>
        <time>2017-12-22T11:39:42Z</time>
      </trkpt>
      <trkpt lat="45.31272" lon="5.83429">
        <ele>1665.4399414062</ele>
        <time>2017-12-22T11:39:46Z</time>
      </trkpt>
      <trkpt lat="45.31276" lon="5.83435">
        <ele>1666.4399414062</ele>
        <time>2017-12-22T11:39:51Z</time>
      </trkpt>
      <trkpt lat="45.3128" lon="5.83442">
        <ele>1666.4399414062</ele>
        <time>2017-12-22T11:39:56Z</time>
      </trkpt>
      <trkpt lat="45.31284" lon="5.83446">
        <ele>1667.4399414062</ele>
        <time>2017-12-22T11:40:01Z</time>
      </trkpt>
      <trkpt lat="45.31289" lon="5.83449">
        <ele>1670.4399414062</ele>
        <time>2017-12-22T11:40:05Z</time>
      </trkpt>
      <trkpt lat="45.31295" lon="5.8345">
        <ele>1672.4399414062</ele>
        <time>2017-12-22T11:40:11Z</time>
      </trkpt>
      <trkpt lat="45.31299" lon="5.83453">
        <ele>1675.4399414062</ele>
        <time>2017-12-22T11:40:15Z</time>
      </trkpt>
      <trkpt lat="45.31305" lon="5.83456">
        <ele>1677.4399414062</ele>
        <time>2017-12-22T11:40:19Z</time>
      </trkpt>
      <trkpt lat="45.31309" lon="5.83458">
        <ele>1678.4399414062</ele>
        <time>2017-12-22T11:40:23Z</time>
      </trkpt>
      <trkpt lat="45.31313" lon="5.83462">
        <ele>1677.4399414062</ele>
        <time>2017-12-22T11:40:28Z</time>
      </trkpt>
      <trkpt lat="45.31317" lon="5.83467">
        <ele>1680.4399414062</ele>
        <time>2017-12-22T11:40:33Z</time>
      </trkpt>
      <trkpt lat="45.31321" lon="5.83471">
        <ele>1680.4399414062</ele>
        <time>2017-12-22T11:40:38Z</time>
      </trkpt>
      <trkpt lat="45.31325" lon="5.83475">
        <ele>1683.4399414062</ele>
        <time>2017-12-22T11:40:43Z</time>
      </trkpt>
      <trkpt lat="45.31329" lon="5.83479">
        <ele>1685.4399414062</ele>
        <time>2017-12-22T11:40:48Z</time>
      </trkpt>
      <trkpt lat="45.31332" lon="5.83484">
        <ele>1686.4399414062</ele>
        <time>2017-12-22T11:40:52Z</time>
      </trkpt>
      <trkpt lat="45.31336" lon="5.8349">
        <ele>1687.4399414062</ele>
        <time>2017-12-22T11:40:57Z</time>
      </trkpt>
      <trkpt lat="45.3134" lon="5.83493">
        <ele>1687.4410400391</ele>
        <time>2017-12-22T11:41:01Z</time>
      </trkpt>
      <trkpt lat="45.31344" lon="5.83495">
        <ele>1687.4410400391</ele>
        <time>2017-12-22T11:41:05Z</time>
      </trkpt>
      <trkpt lat="45.31349" lon="5.83497">
        <ele>1689.4410400391</ele>
        <time>2017-12-22T11:41:10Z</time>
      </trkpt>
      <trkpt lat="45.31354" lon="5.83501">
        <ele>1690.4410400391</ele>
        <time>2017-12-22T11:41:15Z</time>
      </trkpt>
      <trkpt lat="45.31358" lon="5.83504">
        <ele>1691.4410400391</ele>
        <time>2017-12-22T11:41:19Z</time>
      </trkpt>
      <trkpt lat="45.31362" lon="5.83507">
        <ele>1691.4410400391</ele>
        <time>2017-12-22T11:41:24Z</time>
      </trkpt>
      <trkpt lat="45.31367" lon="5.83511">
        <ele>1693.4410400391</ele>
        <time>2017-12-22T11:41:29Z</time>
      </trkpt>
      <trkpt lat="45.31371" lon="5.83515">
        <ele>1694.4410400391</ele>
        <time>2017-12-22T11:41:33Z</time>
      </trkpt>
      <trkpt lat="45.31375" lon="5.83519">
        <ele>1695.4410400391</ele>
        <time>2017-12-22T11:41:37Z</time>
      </trkpt>
      <trkpt lat="45.31377" lon="5.83526">
        <ele>1696.4410400391</ele>
        <time>2017-12-22T11:41:42Z</time>
      </trkpt>
      <trkpt lat="45.31377" lon="5.83533">
        <ele>1697.4410400391</ele>
        <time>2017-12-22T11:41:46Z</time>
      </trkpt>
      <trkpt lat="45.31377" lon="5.8354">
        <ele>1699.4410400391</ele>
        <time>2017-12-22T11:41:50Z</time>
      </trkpt>
      <trkpt lat="45.31376" lon="5.83547">
        <ele>1700.4410400391</ele>
        <time>2017-12-22T11:41:54Z</time>
      </trkpt>
      <trkpt lat="45.31375" lon="5.83553">
        <ele>1702.4410400391</ele>
        <time>2017-12-22T11:41:58Z</time>
      </trkpt>
      <trkpt lat="45.31375" lon="5.8356">
        <ele>1702.4410400391</ele>
        <time>2017-12-22T11:42:02Z</time>
      </trkpt>
      <trkpt lat="45.31374" lon="5.83567">
        <ele>1703.4410400391</ele>
        <time>2017-12-22T11:42:07Z</time>
      </trkpt>
      <trkpt lat="45.31374" lon="5.83574">
        <ele>1706.4410400391</ele>
        <time>2017-12-22T11:42:13Z</time>
      </trkpt>
      <trkpt lat="45.31375" lon="5.83581">
        <ele>1707.4410400391</ele>
        <time>2017-12-22T11:42:17Z</time>
      </trkpt>
      <trkpt lat="45.31375" lon="5.83588">
        <ele>1708.4410400391</ele>
        <time>2017-12-22T11:42:22Z</time>
      </trkpt>
      <trkpt lat="45.31375" lon="5.83594">
        <ele>1708.4410400391</ele>
        <time>2017-12-22T11:42:26Z</time>
      </trkpt>
      <trkpt lat="45.31374" lon="5.83601">
        <ele>1710.4410400391</ele>
        <time>2017-12-22T11:42:31Z</time>
      </trkpt>
      <trkpt lat="45.31373" lon="5.83609">
        <ele>1711.4410400391</ele>
        <time>2017-12-22T11:42:36Z</time>
      </trkpt>
      <trkpt lat="45.31372" lon="5.83616">
        <ele>1714.4410400391</ele>
        <time>2017-12-22T11:42:42Z</time>
      </trkpt>
      <trkpt lat="45.31367" lon="5.83614">
        <ele>1716.4410400391</ele>
        <time>2017-12-22T11:42:48Z</time>
      </trkpt>
      <trkpt lat="45.31363" lon="5.83612">
        <ele>1718.4410400391</ele>
        <time>2017-12-22T11:42:52Z</time>
      </trkpt>
      <trkpt lat="45.31358" lon="5.8361">
        <ele>1720.4410400391</ele>
        <time>2017-12-22T11:42:57Z</time>
      </trkpt>
      <trkpt lat="45.31354" lon="5.83608">
        <ele>1720.4410400391</ele>
        <time>2017-12-22T11:43:01Z</time>
      </trkpt>
      <trkpt lat="45.3135" lon="5.83605">
        <ele>1721.4410400391</ele>
        <time>2017-12-22T11:43:06Z</time>
      </trkpt>
      <trkpt lat="45.31345" lon="5.83605">
        <ele>1722.4410400391</ele>
        <time>2017-12-22T11:43:12Z</time>
      </trkpt>
      <trkpt lat="45.3134" lon="5.83606">
        <ele>1724.4410400391</ele>
        <time>2017-12-22T11:43:17Z</time>
      </trkpt>
      <trkpt lat="45.31335" lon="5.83604">
        <ele>1726.4410400391</ele>
        <time>2017-12-22T11:43:22Z</time>
      </trkpt>
      <trkpt lat="45.3133" lon="5.83603">
        <ele>1728.4410400391</ele>
        <time>2017-12-22T11:43:26Z</time>
      </trkpt>
      <trkpt lat="45.31325" lon="5.83602">
        <ele>1729.4410400391</ele>
        <time>2017-12-22T11:43:30Z</time>
      </trkpt>
      <trkpt lat="45.31319" lon="5.83599">
        <ele>1729.4410400391</ele>
        <time>2017-12-22T11:43:34Z</time>
      </trkpt>
      <trkpt lat="45.31315" lon="5.83597">
        <ele>1729.4410400391</ele>
        <time>2017-12-22T11:43:36Z</time>
      </trkpt>
      <trkpt lat="45.31309" lon="5.83596">
        <ele>1729.4410400391</ele>
        <time>2017-12-22T11:43:40Z</time>
      </trkpt>
      <trkpt lat="45.31304" lon="5.83596">
        <ele>1729.4410400391</ele>
        <time>2017-12-22T11:43:44Z</time>
      </trkpt>
      <trkpt lat="45.313" lon="5.83594">
        <ele>1730.4410400391</ele>
        <time>2017-12-22T11:43:48Z</time>
      </trkpt>
      <trkpt lat="45.31295" lon="5.83594">
        <ele>1732.4410400391</ele>
        <time>2017-12-22T11:43:52Z</time>
      </trkpt>
      <trkpt lat="45.31289" lon="5.83593">
        <ele>1731.4410400391</ele>
        <time>2017-12-22T11:43:56Z</time>
      </trkpt>
      <trkpt lat="45.31283" lon="5.83592">
        <ele>1732.4410400391</ele>
        <time>2017-12-22T11:44:01Z</time>
      </trkpt>
      <trkpt lat="45.31278" lon="5.83589">
        <ele>1733.4410400391</ele>
        <time>2017-12-22T11:44:05Z</time>
      </trkpt>
      <trkpt lat="45.31273" lon="5.83587">
        <ele>1734.4399414062</ele>
        <time>2017-12-22T11:44:10Z</time>
      </trkpt>
      <trkpt lat="45.31268" lon="5.83585">
        <ele>1736.4399414062</ele>
        <time>2017-12-22T11:44:14Z</time>
      </trkpt>
      <trkpt lat="45.31263" lon="5.83584">
        <ele>1737.4399414062</ele>
        <time>2017-12-22T11:44:18Z</time>
      </trkpt>
      <trkpt lat="45.31258" lon="5.83583">
        <ele>1739.4399414062</ele>
        <time>2017-12-22T11:44:22Z</time>
      </trkpt>
      <trkpt lat="45.31253" lon="5.8358">
        <ele>1740.4399414062</ele>
        <time>2017-12-22T11:44:26Z</time>
      </trkpt>
      <trkpt lat="45.31248" lon="5.83579">
        <ele>1740.4399414062</ele>
        <time>2017-12-22T11:44:30Z</time>
      </trkpt>
      <trkpt lat="45.31243" lon="5.83577">
        <ele>1743.4399414062</ele>
        <time>2017-12-22T11:44:35Z</time>
      </trkpt>
      <trkpt lat="45.31238" lon="5.83575">
        <ele>1743.4399414062</ele>
        <time>2017-12-22T11:44:39Z</time>
      </trkpt>
      <trkpt lat="45.31233" lon="5.83574">
        <ele>1744.4399414062</ele>
        <time>2017-12-22T11:44:42Z</time>
      </trkpt>
      <trkpt lat="45.31228" lon="5.83572">
        <ele>1745.4399414062</ele>
        <time>2017-12-22T11:44:46Z</time>
      </trkpt>
      <trkpt lat="45.31223" lon="5.83571">
        <ele>1745.4399414062</ele>
        <time>2017-12-22T11:44:50Z</time>
      </trkpt>
      <trkpt lat="45.31218" lon="5.8357">
        <ele>1747.4399414062</ele>
        <time>2017-12-22T11:44:54Z</time>
      </trkpt>
      <trkpt lat="45.31214" lon="5.83567">
        <ele>1747.4399414062</ele>
        <time>2017-12-22T11:44:58Z</time>
      </trkpt>
      <trkpt lat="45.31208" lon="5.83564">
        <ele>1748.4399414062</ele>
        <time>2017-12-22T11:45:02Z</time>
      </trkpt>
      <trkpt lat="45.31203" lon="5.83563">
        <ele>1749.4399414062</ele>
        <time>2017-12-22T11:45:06Z</time>
      </trkpt>
      <trkpt lat="45.31198" lon="5.83562">
        <ele>1750.4399414062</ele>
        <time>2017-12-22T11:45:11Z</time>
      </trkpt>
      <trkpt lat="45.31194" lon="5.8356">
        <ele>1751.4399414062</ele>
        <time>2017-12-22T11:45:15Z</time>
      </trkpt>
      <trkpt lat="45.31189" lon="5.83558">
        <ele>1753.4399414062</ele>
        <time>2017-12-22T11:45:20Z</time>
      </trkpt>
      <trkpt lat="45.31184" lon="5.83557">
        <ele>1754.4399414062</ele>
        <time>2017-12-22T11:45:24Z</time>
      </trkpt>
      <trkpt lat="45.3118" lon="5.83555">
        <ele>1755.4399414062</ele>
        <time>2017-12-22T11:45:28Z</time>
      </trkpt>
      <trkpt lat="45.31175" lon="5.83553">
        <ele>1757.4399414062</ele>
        <time>2017-12-22T11:45:50Z</time>
      </trkpt>
      <trkpt lat="45.3117" lon="5.83552">
        <ele>1759.4399414062</ele>
        <time>2017-12-22T11:45:55Z</time>
      </trkpt>
      <trkpt lat="45.31166" lon="5.83551">
        <ele>1759.4399414062</ele>
        <time>2017-12-22T11:45:59Z</time>
      </trkpt>
      <trkpt lat="45.31161" lon="5.8355">
        <ele>1760.4399414062</ele>
        <time>2017-12-22T11:46:03Z</time>
      </trkpt>
      <trkpt lat="45.31167" lon="5.83543">
        <ele>1756.4399414062</ele>
        <time>2017-12-22T11:46:58Z</time>
      </trkpt>
      <trkpt lat="45.31171" lon="5.83531">
        <ele>1751.4399414062</ele>
        <time>2017-12-22T11:47:00Z</time>
      </trkpt>
      <trkpt lat="45.31178" lon="5.83519">
        <ele>1745.4399414062</ele>
        <time>2017-12-22T11:47:02Z</time>
      </trkpt>
      <trkpt lat="45.31186" lon="5.83511">
        <ele>1738.4399414062</ele>
        <time>2017-12-22T11:47:04Z</time>
      </trkpt>
      <trkpt lat="45.31193" lon="5.83496">
        <ele>1732.4399414062</ele>
        <time>2017-12-22T11:47:07Z</time>
      </trkpt>
      <trkpt lat="45.31193" lon="5.83482">
        <ele>1728.4399414062</ele>
        <time>2017-12-22T11:47:09Z</time>
      </trkpt>
      <trkpt lat="45.31201" lon="5.8347">
        <ele>1724.4399414062</ele>
        <time>2017-12-22T11:47:12Z</time>
      </trkpt>
      <trkpt lat="45.3121" lon="5.83459">
        <ele>1721.4399414062</ele>
        <time>2017-12-22T11:47:15Z</time>
      </trkpt>
      <trkpt lat="45.31214" lon="5.8345">
        <ele>1718.4399414062</ele>
        <time>2017-12-22T11:47:16Z</time>
      </trkpt>
      <trkpt lat="45.3121" lon="5.83444">
        <ele>1714.4399414062</ele>
        <time>2017-12-22T11:47:17Z</time>
      </trkpt>
      <trkpt lat="45.31212" lon="5.8343">
        <ele>1705.4399414062</ele>
        <time>2017-12-22T11:47:20Z</time>
      </trkpt>
      <trkpt lat="45.3121" lon="5.83422">
        <ele>1701.4399414062</ele>
        <time>2017-12-22T11:47:21Z</time>
      </trkpt>
      <trkpt lat="45.31211" lon="5.834">
        <ele>1693.4399414062</ele>
        <time>2017-12-22T11:47:23Z</time>
      </trkpt>
      <trkpt lat="45.31215" lon="5.83388">
        <ele>1687.4399414062</ele>
        <time>2017-12-22T11:47:24Z</time>
      </trkpt>
      <trkpt lat="45.31219" lon="5.83364">
        <ele>1676.4399414062</ele>
        <time>2017-12-22T11:47:26Z</time>
      </trkpt>
      <trkpt lat="45.31218" lon="5.83336">
        <ele>1662.4399414062</ele>
        <time>2017-12-22T11:47:28Z</time>
      </trkpt>
      <trkpt lat="45.31221" lon="5.83304">
        <ele>1652.4399414062</ele>
        <time>2017-12-22T11:47:30Z</time>
      </trkpt>
      <trkpt lat="45.31226" lon="5.83291">
        <ele>1651.4399414062</ele>
        <time>2017-12-22T11:47:31Z</time>
      </trkpt>
      <trkpt lat="45.31231" lon="5.83265">
        <ele>1674.4399414062</ele>
        <time>2017-12-22T11:47:33Z</time>
      </trkpt>
      <trkpt lat="45.31227" lon="5.83236">
        <ele>1658.4399414062</ele>
        <time>2017-12-22T11:47:35Z</time>
      </trkpt>
      <trkpt lat="45.31217" lon="5.83216">
        <ele>1646.4399414062</ele>
        <time>2017-12-22T11:47:37Z</time>
      </trkpt>
      <trkpt lat="45.31209" lon="5.83188">
        <ele>1638.4399414062</ele>
        <time>2017-12-22T11:47:39Z</time>
      </trkpt>
      <trkpt lat="45.31202" lon="5.83161">
        <ele>1632.4399414062</ele>
        <time>2017-12-22T11:47:41Z</time>
      </trkpt>
      <trkpt lat="45.31192" lon="5.83134">
        <ele>1626.4399414062</ele>
        <time>2017-12-22T11:47:43Z</time>
      </trkpt>
      <trkpt lat="45.31179" lon="5.83113">
        <ele>1626.4399414062</ele>
        <time>2017-12-22T11:47:45Z</time>
      </trkpt>
      <trkpt lat="45.31174" lon="5.83114">
        <ele>1625.4399414062</ele>
        <time>2017-12-22T11:47:46Z</time>
      </trkpt>
      <trkpt lat="45.31174" lon="5.83121">
        <ele>1621.4399414062</ele>
        <time>2017-12-22T11:47:50Z</time>
      </trkpt>
      <trkpt lat="45.31172" lon="5.83114">
        <ele>1621.4399414062</ele>
        <time>2017-12-22T11:48:26Z</time>
      </trkpt>
      <trkpt lat="45.31163" lon="5.83105">
        <ele>1619.4399414062</ele>
        <time>2017-12-22T11:48:28Z</time>
      </trkpt>
      <trkpt lat="45.31151" lon="5.831">
        <ele>1619.4399414062</ele>
        <time>2017-12-22T11:48:30Z</time>
      </trkpt>
      <trkpt lat="45.31139" lon="5.83089">
        <ele>1615.4399414062</ele>
        <time>2017-12-22T11:48:32Z</time>
      </trkpt>
      <trkpt lat="45.31128" lon="5.83075">
        <ele>1610.4399414062</ele>
        <time>2017-12-22T11:48:34Z</time>
      </trkpt>
      <trkpt lat="45.31119" lon="5.83058">
        <ele>1606.4389648438</ele>
        <time>2017-12-22T11:48:36Z</time>
      </trkpt>
      <trkpt lat="45.31106" lon="5.83049">
        <ele>1603.4389648438</ele>
        <time>2017-12-22T11:48:38Z</time>
      </trkpt>
      <trkpt lat="45.31098" lon="5.83035">
        <ele>1593.4389648438</ele>
        <time>2017-12-22T11:48:40Z</time>
      </trkpt>
      <trkpt lat="45.31086" lon="5.8302">
        <ele>1587.4389648438</ele>
        <time>2017-12-22T11:48:42Z</time>
      </trkpt>
      <trkpt lat="45.31076" lon="5.83005">
        <ele>1581.4389648438</ele>
        <time>2017-12-22T11:48:44Z</time>
      </trkpt>
      <trkpt lat="45.31064" lon="5.82993">
        <ele>1573.4389648438</ele>
        <time>2017-12-22T11:48:46Z</time>
      </trkpt>
      <trkpt lat="45.31053" lon="5.82977">
        <ele>1567.4389648438</ele>
        <time>2017-12-22T11:48:48Z</time>
      </trkpt>
      <trkpt lat="45.31042" lon="5.82963">
        <ele>1563.4389648438</ele>
        <time>2017-12-22T11:48:50Z</time>
      </trkpt>
      <trkpt lat="45.31033" lon="5.82948">
        <ele>1558.4389648438</ele>
        <time>2017-12-22T11:48:52Z</time>
      </trkpt>
      <trkpt lat="45.31024" lon="5.82936">
        <ele>1550.4389648438</ele>
        <time>2017-12-22T11:48:54Z</time>
      </trkpt>
      <trkpt lat="45.31014" lon="5.8292">
        <ele>1544.4389648438</ele>
        <time>2017-12-22T11:48:57Z</time>
      </trkpt>
      <trkpt lat="45.31002" lon="5.82928">
        <ele>1543.4389648438</ele>
        <time>2017-12-22T11:48:59Z</time>
      </trkpt>
      <trkpt lat="45.30991" lon="5.82939">
        <ele>1544.4389648438</ele>
        <time>2017-12-22T11:49:01Z</time>
      </trkpt>
      <trkpt lat="45.30982" lon="5.8295">
        <ele>1543.4389648438</ele>
        <time>2017-12-22T11:49:04Z</time>
      </trkpt>
      <trkpt lat="45.30977" lon="5.82949">
        <ele>1540.4389648438</ele>
        <time>2017-12-22T11:49:35Z</time>
      </trkpt>
      <trkpt lat="45.30972" lon="5.82943">
        <ele>1539.4389648438</ele>
        <time>2017-12-22T11:49:37Z</time>
      </trkpt>
      <trkpt lat="45.30962" lon="5.82939">
        <ele>1538.4389648438</ele>
        <time>2017-12-22T11:49:39Z</time>
      </trkpt>
      <trkpt lat="45.30953" lon="5.82935">
        <ele>1535.4389648438</ele>
        <time>2017-12-22T11:49:41Z</time>
      </trkpt>
      <trkpt lat="45.30939" lon="5.8293">
        <ele>1532.4389648438</ele>
        <time>2017-12-22T11:49:43Z</time>
      </trkpt>
      <trkpt lat="45.30923" lon="5.82932">
        <ele>1531.4389648438</ele>
        <time>2017-12-22T11:49:46Z</time>
      </trkpt>
      <trkpt lat="45.30912" lon="5.82928">
        <ele>1531.4389648438</ele>
        <time>2017-12-22T11:49:48Z</time>
      </trkpt>
      <trkpt lat="45.30899" lon="5.82925">
        <ele>1530.4389648438</ele>
        <time>2017-12-22T11:49:50Z</time>
      </trkpt>
      <trkpt lat="45.30881" lon="5.82924">
        <ele>1528.4389648438</ele>
        <time>2017-12-22T11:49:52Z</time>
      </trkpt>
      <trkpt lat="45.30864" lon="5.8293">
        <ele>1526.4389648438</ele>
        <time>2017-12-22T11:49:54Z</time>
      </trkpt>
      <trkpt lat="45.30853" lon="5.8293">
        <ele>1525.4389648438</ele>
        <time>2017-12-22T11:49:56Z</time>
      </trkpt>
      <trkpt lat="45.30846" lon="5.82936">
        <ele>1524.4389648438</ele>
        <time>2017-12-22T11:49:58Z</time>
      </trkpt>
      <trkpt lat="45.3084" lon="5.82943">
        <ele>1524.4389648438</ele>
        <time>2017-12-22T11:50:00Z</time>
      </trkpt>
      <trkpt lat="45.30835" lon="5.82948">
        <ele>1523.4389648438</ele>
        <time>2017-12-22T11:50:02Z</time>
      </trkpt>
      <trkpt lat="45.30827" lon="5.82956">
        <ele>1525.4389648438</ele>
        <time>2017-12-22T11:50:06Z</time>
      </trkpt>
      <trkpt lat="45.30822" lon="5.82956">
        <ele>1522.4389648438</ele>
        <time>2017-12-22T11:50:08Z</time>
      </trkpt>
      <trkpt lat="45.30817" lon="5.82966">
        <ele>1519.4389648438</ele>
        <time>2017-12-22T11:50:10Z</time>
      </trkpt>
      <trkpt lat="45.30809" lon="5.82979">
        <ele>1516.4389648438</ele>
        <time>2017-12-22T11:50:12Z</time>
      </trkpt>
      <trkpt lat="45.30806" lon="5.82989">
        <ele>1515.4389648438</ele>
        <time>2017-12-22T11:50:13Z</time>
      </trkpt>
      <trkpt lat="45.30801" lon="5.83011">
        <ele>1513.4389648438</ele>
        <time>2017-12-22T11:50:15Z</time>
      </trkpt>
      <trkpt lat="45.30797" lon="5.83028">
        <ele>1507.4389648438</ele>
        <time>2017-12-22T11:50:17Z</time>
      </trkpt>
      <trkpt lat="45.30796" lon="5.83038">
        <ele>1506.4389648438</ele>
        <time>2017-12-22T11:50:18Z</time>
      </trkpt>
      <trkpt lat="45.30791" lon="5.83054">
        <ele>1504.4389648438</ele>
        <time>2017-12-22T11:50:21Z</time>
      </trkpt>
      <trkpt lat="45.30786" lon="5.83063">
        <ele>1503.4389648438</ele>
        <time>2017-12-22T11:50:23Z</time>
      </trkpt>
      <trkpt lat="45.30786" lon="5.8307">
        <ele>1503.4389648438</ele>
        <time>2017-12-22T11:50:25Z</time>
      </trkpt>
      <trkpt lat="45.30785" lon="5.83081">
        <ele>1501.4389648438</ele>
        <time>2017-12-22T11:50:27Z</time>
      </trkpt>
      <trkpt lat="45.30784" lon="5.83093">
        <ele>1501.4389648438</ele>
        <time>2017-12-22T11:50:29Z</time>
      </trkpt>
      <trkpt lat="45.3078" lon="5.83112">
        <ele>1501.4389648438</ele>
        <time>2017-12-22T11:50:31Z</time>
      </trkpt>
      <trkpt lat="45.30766" lon="5.83139">
        <ele>1499.4389648438</ele>
        <time>2017-12-22T11:50:34Z</time>
      </trkpt>
      <trkpt lat="45.30756" lon="5.83145">
        <ele>1499.4389648438</ele>
        <time>2017-12-22T11:50:35Z</time>
      </trkpt>
      <trkpt lat="45.30744" lon="5.83153">
        <ele>1499.4389648438</ele>
        <time>2017-12-22T11:50:37Z</time>
      </trkpt>
      <trkpt lat="45.30741" lon="5.83164">
        <ele>1496.4389648438</ele>
        <time>2017-12-22T11:50:38Z</time>
      </trkpt>
      <trkpt lat="45.30733" lon="5.83177">
        <ele>1495.4389648438</ele>
        <time>2017-12-22T11:50:40Z</time>
      </trkpt>
      <trkpt lat="45.30723" lon="5.83187">
        <ele>1493.4389648438</ele>
        <time>2017-12-22T11:50:42Z</time>
      </trkpt>
      <trkpt lat="45.30715" lon="5.83196">
        <ele>1493.4389648438</ele>
        <time>2017-12-22T11:50:44Z</time>
      </trkpt>
      <trkpt lat="45.30708" lon="5.83203">
        <ele>1492.4389648438</ele>
        <time>2017-12-22T11:50:46Z</time>
      </trkpt>
      <trkpt lat="45.307" lon="5.83212">
        <ele>1491.4389648438</ele>
        <time>2017-12-22T11:50:48Z</time>
      </trkpt>
      <trkpt lat="45.3069" lon="5.83223">
        <ele>1491.4389648438</ele>
        <time>2017-12-22T11:50:50Z</time>
      </trkpt>
      <trkpt lat="45.3068" lon="5.83234">
        <ele>1491.4389648438</ele>
        <time>2017-12-22T11:50:52Z</time>
      </trkpt>
      <trkpt lat="45.30673" lon="5.83247">
        <ele>1490.4389648438</ele>
        <time>2017-12-22T11:50:54Z</time>
      </trkpt>
      <trkpt lat="45.30665" lon="5.83261">
        <ele>1489.4389648438</ele>
        <time>2017-12-22T11:50:56Z</time>
      </trkpt>
      <trkpt lat="45.30659" lon="5.83268">
        <ele>1489.4389648438</ele>
        <time>2017-12-22T11:50:57Z</time>
      </trkpt>
      <trkpt lat="45.30648" lon="5.83272">
        <ele>1488.4389648438</ele>
        <time>2017-12-22T11:50:59Z</time>
      </trkpt>
      <trkpt lat="45.30635" lon="5.83284">
        <ele>1487.4389648438</ele>
        <time>2017-12-22T11:51:01Z</time>
      </trkpt>
      <trkpt lat="45.30622" lon="5.83296">
        <ele>1485.4389648438</ele>
        <time>2017-12-22T11:51:03Z</time>
      </trkpt>
      <trkpt lat="45.30616" lon="5.83306">
        <ele>1480.4389648438</ele>
        <time>2017-12-22T11:51:05Z</time>
      </trkpt>
      <trkpt lat="45.30608" lon="5.83314">
        <ele>1478.4389648438</ele>
        <time>2017-12-22T11:51:07Z</time>
      </trkpt>
      <trkpt lat="45.30597" lon="5.8332">
        <ele>1478.4389648438</ele>
        <time>2017-12-22T11:51:09Z</time>
      </trkpt>
      <trkpt lat="45.30584" lon="5.83326">
        <ele>1477.4389648438</ele>
        <time>2017-12-22T11:51:11Z</time>
      </trkpt>
      <trkpt lat="45.30571" lon="5.83331">
        <ele>1476.4389648438</ele>
        <time>2017-12-22T11:51:13Z</time>
      </trkpt>
      <trkpt lat="45.30559" lon="5.8334">
        <ele>1474.4389648438</ele>
        <time>2017-12-22T11:51:15Z</time>
      </trkpt>
      <trkpt lat="45.30542" lon="5.83341">
        <ele>1473.4389648438</ele>
        <time>2017-12-22T11:51:17Z</time>
      </trkpt>
      <trkpt lat="45.30535" lon="5.83346">
        <ele>1472.4389648438</ele>
        <time>2017-12-22T11:51:18Z</time>
      </trkpt>
      <trkpt lat="45.30524" lon="5.83354">
        <ele>1468.4389648438</ele>
        <time>2017-12-22T11:51:20Z</time>
      </trkpt>
      <trkpt lat="45.30502" lon="5.83357">
        <ele>1467.4389648438</ele>
        <time>2017-12-22T11:51:22Z</time>
      </trkpt>
      <trkpt lat="45.30481" lon="5.83364">
        <ele>1467.4389648438</ele>
        <time>2017-12-22T11:51:24Z</time>
      </trkpt>
      <trkpt lat="45.30468" lon="5.83378">
        <ele>1464.4389648438</ele>
        <time>2017-12-22T11:51:26Z</time>
      </trkpt>
      <trkpt lat="45.30457" lon="5.83394">
        <ele>1460.4389648438</ele>
        <time>2017-12-22T11:51:28Z</time>
      </trkpt>
      <trkpt lat="45.30449" lon="5.83403">
        <ele>1455.4389648438</ele>
        <time>2017-12-22T11:51:30Z</time>
      </trkpt>
      <trkpt lat="45.30436" lon="5.83408">
        <ele>1451.4389648438</ele>
        <time>2017-12-22T11:51:32Z</time>
      </trkpt>
      <trkpt lat="45.30426" lon="5.83408">
        <ele>1450.4379882812</ele>
        <time>2017-12-22T11:51:33Z</time>
      </trkpt>
      <trkpt lat="45.30412" lon="5.8342">
        <ele>1444.4379882812</ele>
        <time>2017-12-22T11:51:35Z</time>
      </trkpt>
      <trkpt lat="45.30405" lon="5.83434">
        <ele>1443.4379882812</ele>
        <time>2017-12-22T11:51:37Z</time>
      </trkpt>
      <trkpt lat="45.30397" lon="5.83447">
        <ele>1442.4379882812</ele>
        <time>2017-12-22T11:51:39Z</time>
      </trkpt>
      <trkpt lat="45.3039" lon="5.83448">
        <ele>1443.4379882812</ele>
        <time>2017-12-22T11:51:40Z</time>
      </trkpt>
      <trkpt lat="45.30378" lon="5.8346">
        <ele>1441.4379882812</ele>
        <time>2017-12-22T11:51:42Z</time>
      </trkpt>
      <trkpt lat="45.3037" lon="5.83476">
        <ele>1440.4379882812</ele>
        <time>2017-12-22T11:51:44Z</time>
      </trkpt>
      <trkpt lat="45.30363" lon="5.83485">
        <ele>1436.4379882812</ele>
        <time>2017-12-22T11:51:46Z</time>
      </trkpt>
      <trkpt lat="45.30358" lon="5.83491">
        <ele>1438.4379882812</ele>
        <time>2017-12-22T11:51:48Z</time>
      </trkpt>
      <trkpt lat="45.30356" lon="5.83498">
        <ele>1437.4379882812</ele>
        <time>2017-12-22T11:51:50Z</time>
      </trkpt>
      <trkpt lat="45.30351" lon="5.83503">
        <ele>1437.4379882812</ele>
        <time>2017-12-22T11:51:53Z</time>
      </trkpt>
      <trkpt lat="45.30349" lon="5.83511">
        <ele>1436.4379882812</ele>
        <time>2017-12-22T11:51:56Z</time>
      </trkpt>
      <trkpt lat="45.30345" lon="5.83515">
        <ele>1435.4379882812</ele>
        <time>2017-12-22T11:52:03Z</time>
      </trkpt>
      <trkpt lat="45.30342" lon="5.83521">
        <ele>1435.4379882812</ele>
        <time>2017-12-22T11:52:09Z</time>
      </trkpt>
      <trkpt lat="45.30338" lon="5.83524">
        <ele>1438.4379882812</ele>
        <time>2017-12-22T11:52:17Z</time>
      </trkpt>
      <trkpt lat="45.30335" lon="5.83529">
        <ele>1437.4379882812</ele>
        <time>2017-12-22T11:52:24Z</time>
      </trkpt>
      <trkpt lat="45.3033" lon="5.83535">
        <ele>1437.4379882812</ele>
        <time>2017-12-22T11:52:28Z</time>
      </trkpt>
      <trkpt lat="45.30325" lon="5.83541">
        <ele>1438.4379882812</ele>
        <time>2017-12-22T11:52:31Z</time>
      </trkpt>
      <trkpt lat="45.30322" lon="5.83548">
        <ele>1437.4379882812</ele>
        <time>2017-12-22T11:52:34Z</time>
      </trkpt>
      <trkpt lat="45.30317" lon="5.83553">
        <ele>1437.4379882812</ele>
        <time>2017-12-22T11:52:37Z</time>
      </trkpt>
      <trkpt lat="45.30314" lon="5.83558">
        <ele>1436.4379882812</ele>
        <time>2017-12-22T11:52:39Z</time>
      </trkpt>
      <trkpt lat="45.30309" lon="5.83563">
        <ele>1436.4379882812</ele>
        <time>2017-12-22T11:52:42Z</time>
      </trkpt>
      <trkpt lat="45.30306" lon="5.8357">
        <ele>1434.4379882812</ele>
        <time>2017-12-22T11:52:46Z</time>
      </trkpt>
      <trkpt lat="45.30302" lon="5.83576">
        <ele>1433.4379882812</ele>
        <time>2017-12-22T11:52:49Z</time>
      </trkpt>
      <trkpt lat="45.30298" lon="5.83582">
        <ele>1431.4379882812</ele>
        <time>2017-12-22T11:52:52Z</time>
      </trkpt>
      <trkpt lat="45.30294" lon="5.83587">
        <ele>1429.4379882812</ele>
        <time>2017-12-22T11:52:55Z</time>
      </trkpt>
      <trkpt lat="45.3029" lon="5.83594">
        <ele>1428.4379882812</ele>
        <time>2017-12-22T11:52:58Z</time>
      </trkpt>
      <trkpt lat="45.30288" lon="5.836">
        <ele>1429.4379882812</ele>
        <time>2017-12-22T11:53:00Z</time>
      </trkpt>
      <trkpt lat="45.30286" lon="5.83606">
        <ele>1432.4379882812</ele>
        <time>2017-12-22T11:53:47Z</time>
      </trkpt>
      <trkpt lat="45.30283" lon="5.83613">
        <ele>1435.4379882812</ele>
        <time>2017-12-22T11:55:49Z</time>
      </trkpt>
      <trkpt lat="45.30281" lon="5.83621">
        <ele>1435.4379882812</ele>
        <time>2017-12-22T11:55:55Z</time>
      </trkpt>
      <trkpt lat="45.3028" lon="5.83627">
        <ele>1435.4379882812</ele>
        <time>2017-12-22T11:55:58Z</time>
      </trkpt>
      <trkpt lat="45.30278" lon="5.83633">
        <ele>1433.4379882812</ele>
        <time>2017-12-22T11:56:01Z</time>
      </trkpt>
      <trkpt lat="45.30276" lon="5.83641">
        <ele>1433.4379882812</ele>
        <time>2017-12-22T11:56:04Z</time>
      </trkpt>
      <trkpt lat="45.30274" lon="5.83649">
        <ele>1434.4379882812</ele>
        <time>2017-12-22T11:56:07Z</time>
      </trkpt>
      <trkpt lat="45.3027" lon="5.83655">
        <ele>1435.4379882812</ele>
        <time>2017-12-22T11:56:11Z</time>
      </trkpt>
      <trkpt lat="45.30265" lon="5.8366">
        <ele>1436.4379882812</ele>
        <time>2017-12-22T11:56:14Z</time>
      </trkpt>
      <trkpt lat="45.30262" lon="5.83667">
        <ele>1435.4379882812</ele>
        <time>2017-12-22T11:56:17Z</time>
      </trkpt>
      <trkpt lat="45.30258" lon="5.83673">
        <ele>1437.4379882812</ele>
        <time>2017-12-22T11:56:20Z</time>
      </trkpt>
      <trkpt lat="45.30253" lon="5.83678">
        <ele>1439.4379882812</ele>
        <time>2017-12-22T11:56:23Z</time>
      </trkpt>
      <trkpt lat="45.30251" lon="5.83684">
        <ele>1439.4379882812</ele>
        <time>2017-12-22T11:56:26Z</time>
      </trkpt>
      <trkpt lat="45.30249" lon="5.8369">
        <ele>1439.4389648438</ele>
        <time>2017-12-22T11:56:30Z</time>
      </trkpt>
      <trkpt lat="45.30251" lon="5.83698">
        <ele>1437.4389648438</ele>
        <time>2017-12-22T11:56:33Z</time>
      </trkpt>
      <trkpt lat="45.30253" lon="5.83704">
        <ele>1436.4389648438</ele>
        <time>2017-12-22T11:56:37Z</time>
      </trkpt>
      <trkpt lat="45.30258" lon="5.83705">
        <ele>1438.4389648438</ele>
        <time>2017-12-22T11:56:40Z</time>
      </trkpt>
      <trkpt lat="45.30264" lon="5.83708">
        <ele>1438.4389648438</ele>
        <time>2017-12-22T11:56:43Z</time>
      </trkpt>
      <trkpt lat="45.3027" lon="5.83713">
        <ele>1438.4389648438</ele>
        <time>2017-12-22T11:56:46Z</time>
      </trkpt>
      <trkpt lat="45.30275" lon="5.83714">
        <ele>1435.4389648438</ele>
        <time>2017-12-22T11:56:48Z</time>
      </trkpt>
      <trkpt lat="45.30281" lon="5.83714">
        <ele>1434.4389648438</ele>
        <time>2017-12-22T11:56:50Z</time>
      </trkpt>
      <trkpt lat="45.30286" lon="5.83717">
        <ele>1433.4389648438</ele>
        <time>2017-12-22T11:56:52Z</time>
      </trkpt>
      <trkpt lat="45.30291" lon="5.83725">
        <ele>1433.4389648438</ele>
        <time>2017-12-22T11:56:54Z</time>
      </trkpt>
      <trkpt lat="45.30296" lon="5.83731">
        <ele>1433.4389648438</ele>
        <time>2017-12-22T11:56:56Z</time>
      </trkpt>
      <trkpt lat="45.30303" lon="5.83736">
        <ele>1431.4389648438</ele>
        <time>2017-12-22T11:56:58Z</time>
      </trkpt>
      <trkpt lat="45.30314" lon="5.83747">
        <ele>1428.4389648438</ele>
        <time>2017-12-22T11:57:01Z</time>
      </trkpt>
      <trkpt lat="45.30325" lon="5.8376">
        <ele>1429.4389648438</ele>
        <time>2017-12-22T11:57:04Z</time>
      </trkpt>
      <trkpt lat="45.30335" lon="5.83765">
        <ele>1425.4389648438</ele>
        <time>2017-12-22T11:57:06Z</time>
      </trkpt>
      <trkpt lat="45.30345" lon="5.8377">
        <ele>1425.4389648438</ele>
        <time>2017-12-22T11:57:08Z</time>
      </trkpt>
      <trkpt lat="45.30356" lon="5.83774">
        <ele>1427.4389648438</ele>
        <time>2017-12-22T11:57:10Z</time>
      </trkpt>
      <trkpt lat="45.30361" lon="5.83776">
        <ele>1427.4389648438</ele>
        <time>2017-12-22T11:57:11Z</time>
      </trkpt>
      <trkpt lat="45.30373" lon="5.83781">
        <ele>1425.4389648438</ele>
        <time>2017-12-22T11:57:13Z</time>
      </trkpt>
      <trkpt lat="45.30385" lon="5.83789">
        <ele>1424.4389648438</ele>
        <time>2017-12-22T11:57:15Z</time>
      </trkpt>
      <trkpt lat="45.30396" lon="5.83799">
        <ele>1423.4389648438</ele>
        <time>2017-12-22T11:57:17Z</time>
      </trkpt>
      <trkpt lat="45.30405" lon="5.83811">
        <ele>1420.4389648438</ele>
        <time>2017-12-22T11:57:19Z</time>
      </trkpt>
      <trkpt lat="45.30413" lon="5.83828">
        <ele>1419.4389648438</ele>
        <time>2017-12-22T11:57:21Z</time>
      </trkpt>
      <trkpt lat="45.30421" lon="5.83841">
        <ele>1416.4389648438</ele>
        <time>2017-12-22T11:57:23Z</time>
      </trkpt>
      <trkpt lat="45.30431" lon="5.83856">
        <ele>1415.4389648438</ele>
        <time>2017-12-22T11:57:25Z</time>
      </trkpt>
      <trkpt lat="45.30434" lon="5.83865">
        <ele>1416.4389648438</ele>
        <time>2017-12-22T11:57:26Z</time>
      </trkpt>
      <trkpt lat="45.30445" lon="5.83879">
        <ele>1414.4389648438</ele>
        <time>2017-12-22T11:57:28Z</time>
      </trkpt>
      <trkpt lat="45.30456" lon="5.83893">
        <ele>1413.4389648438</ele>
        <time>2017-12-22T11:57:30Z</time>
      </trkpt>
      <trkpt lat="45.30466" lon="5.83907">
        <ele>1413.4389648438</ele>
        <time>2017-12-22T11:57:32Z</time>
      </trkpt>
      <trkpt lat="45.30475" lon="5.83915">
        <ele>1415.4389648438</ele>
        <time>2017-12-22T11:57:34Z</time>
      </trkpt>
      <trkpt lat="45.30487" lon="5.83924">
        <ele>1413.4389648438</ele>
        <time>2017-12-22T11:57:36Z</time>
      </trkpt>
      <trkpt lat="45.30494" lon="5.83929">
        <ele>1413.4389648438</ele>
        <time>2017-12-22T11:57:37Z</time>
      </trkpt>
      <trkpt lat="45.30499" lon="5.83934">
        <ele>1411.4389648438</ele>
        <time>2017-12-22T11:57:38Z</time>
      </trkpt>
      <trkpt lat="45.30509" lon="5.8395">
        <ele>1410.4389648438</ele>
        <time>2017-12-22T11:57:40Z</time>
      </trkpt>
      <trkpt lat="45.30512" lon="5.83959">
        <ele>1409.4389648438</ele>
        <time>2017-12-22T11:57:41Z</time>
      </trkpt>
      <trkpt lat="45.30518" lon="5.83978">
        <ele>1407.4389648438</ele>
        <time>2017-12-22T11:57:43Z</time>
      </trkpt>
      <trkpt lat="45.30525" lon="5.84006">
        <ele>1406.4399414062</ele>
        <time>2017-12-22T11:57:46Z</time>
      </trkpt>
      <trkpt lat="45.30528" lon="5.84026">
        <ele>1405.4399414062</ele>
        <time>2017-12-22T11:57:48Z</time>
      </trkpt>
      <trkpt lat="45.30529" lon="5.84045">
        <ele>1403.4399414062</ele>
        <time>2017-12-22T11:57:50Z</time>
      </trkpt>
      <trkpt lat="45.30528" lon="5.84055">
        <ele>1403.4399414062</ele>
        <time>2017-12-22T11:57:51Z</time>
      </trkpt>
      <trkpt lat="45.30525" lon="5.84071">
        <ele>1400.4399414062</ele>
        <time>2017-12-22T11:57:53Z</time>
      </trkpt>
      <trkpt lat="45.30514" lon="5.84064">
        <ele>1398.4399414062</ele>
        <time>2017-12-22T11:57:54Z</time>
      </trkpt>
      <trkpt lat="45.30501" lon="5.84059">
        <ele>1398.4399414062</ele>
        <time>2017-12-22T11:57:56Z</time>
      </trkpt>
      <trkpt lat="45.3049" lon="5.84045">
        <ele>1398.4389648438</ele>
        <time>2017-12-22T11:57:58Z</time>
      </trkpt>
      <trkpt lat="45.3048" lon="5.84032">
        <ele>1396.4389648438</ele>
        <time>2017-12-22T11:58:00Z</time>
      </trkpt>
      <trkpt lat="45.30474" lon="5.84028">
        <ele>1395.4389648438</ele>
        <time>2017-12-22T11:58:01Z</time>
      </trkpt>
      <trkpt lat="45.30454" lon="5.84019">
        <ele>1390.4389648438</ele>
        <time>2017-12-22T11:58:04Z</time>
      </trkpt>
      <trkpt lat="45.30441" lon="5.84014">
        <ele>1388.4389648438</ele>
        <time>2017-12-22T11:58:06Z</time>
      </trkpt>
      <trkpt lat="45.30428" lon="5.84008">
        <ele>1387.4389648438</ele>
        <time>2017-12-22T11:58:08Z</time>
      </trkpt>
      <trkpt lat="45.30415" lon="5.84004">
        <ele>1386.4389648438</ele>
        <time>2017-12-22T11:58:10Z</time>
      </trkpt>
      <trkpt lat="45.30402" lon="5.83995">
        <ele>1383.4389648438</ele>
        <time>2017-12-22T11:58:12Z</time>
      </trkpt>
      <trkpt lat="45.30396" lon="5.83991">
        <ele>1382.4389648438</ele>
        <time>2017-12-22T11:58:13Z</time>
      </trkpt>
      <trkpt lat="45.30383" lon="5.83979">
        <ele>1382.4389648438</ele>
        <time>2017-12-22T11:58:15Z</time>
      </trkpt>
      <trkpt lat="45.30371" lon="5.83964">
        <ele>1381.4389648438</ele>
        <time>2017-12-22T11:58:17Z</time>
      </trkpt>
      <trkpt lat="45.3036" lon="5.8395">
        <ele>1379.4389648438</ele>
        <time>2017-12-22T11:58:19Z</time>
      </trkpt>
      <trkpt lat="45.30348" lon="5.83934">
        <ele>1379.4389648438</ele>
        <time>2017-12-22T11:58:21Z</time>
      </trkpt>
      <trkpt lat="45.30336" lon="5.83919">
        <ele>1378.4389648438</ele>
        <time>2017-12-22T11:58:23Z</time>
      </trkpt>
      <trkpt lat="45.30323" lon="5.83912">
        <ele>1375.4389648438</ele>
        <time>2017-12-22T11:58:25Z</time>
      </trkpt>
      <trkpt lat="45.30316" lon="5.83924">
        <ele>1373.4389648438</ele>
        <time>2017-12-22T11:58:27Z</time>
      </trkpt>
      <trkpt lat="45.30316" lon="5.83932">
        <ele>1373.4389648438</ele>
        <time>2017-12-22T11:58:28Z</time>
      </trkpt>
      <trkpt lat="45.3032" lon="5.83947">
        <ele>1371.4389648438</ele>
        <time>2017-12-22T11:58:30Z</time>
      </trkpt>
      <trkpt lat="45.30325" lon="5.83961">
        <ele>1370.4389648438</ele>
        <time>2017-12-22T11:58:32Z</time>
      </trkpt>
      <trkpt lat="45.3033" lon="5.83975">
        <ele>1369.4389648438</ele>
        <time>2017-12-22T11:58:34Z</time>
      </trkpt>
      <trkpt lat="45.30335" lon="5.83989">
        <ele>1368.4389648438</ele>
        <time>2017-12-22T11:58:36Z</time>
      </trkpt>
      <trkpt lat="45.3034" lon="5.84003">
        <ele>1367.4389648438</ele>
        <time>2017-12-22T11:58:38Z</time>
      </trkpt>
      <trkpt lat="45.30342" lon="5.84026">
        <ele>1360.4389648438</ele>
        <time>2017-12-22T11:58:41Z</time>
      </trkpt>
      <trkpt lat="45.30332" lon="5.84028">
        <ele>1358.4389648438</ele>
        <time>2017-12-22T11:58:43Z</time>
      </trkpt>
      <trkpt lat="45.3032" lon="5.84026">
        <ele>1359.4389648438</ele>
        <time>2017-12-22T11:58:45Z</time>
      </trkpt>
      <trkpt lat="45.30314" lon="5.84018">
        <ele>1359.4389648438</ele>
        <time>2017-12-22T11:58:46Z</time>
      </trkpt>
      <trkpt lat="45.30301" lon="5.84006">
        <ele>1358.4389648438</ele>
        <time>2017-12-22T11:58:48Z</time>
      </trkpt>
      <trkpt lat="45.30289" lon="5.83996">
        <ele>1358.4389648438</ele>
        <time>2017-12-22T11:58:50Z</time>
      </trkpt>
      <trkpt lat="45.30278" lon="5.83986">
        <ele>1357.4389648438</ele>
        <time>2017-12-22T11:58:52Z</time>
      </trkpt>
      <trkpt lat="45.30265" lon="5.83976">
        <ele>1353.4389648438</ele>
        <time>2017-12-22T11:58:54Z</time>
      </trkpt>
      <trkpt lat="45.30254" lon="5.83963">
        <ele>1352.4389648438</ele>
        <time>2017-12-22T11:58:56Z</time>
      </trkpt>
      <trkpt lat="45.30244" lon="5.83951">
        <ele>1351.4389648438</ele>
        <time>2017-12-22T11:58:58Z</time>
      </trkpt>
      <trkpt lat="45.30232" lon="5.83943">
        <ele>1349.4389648438</ele>
        <time>2017-12-22T11:59:00Z</time>
      </trkpt>
      <trkpt lat="45.30219" lon="5.83937">
        <ele>1349.4389648438</ele>
        <time>2017-12-22T11:59:02Z</time>
      </trkpt>
      <trkpt lat="45.30206" lon="5.83935">
        <ele>1348.4389648438</ele>
        <time>2017-12-22T11:59:04Z</time>
      </trkpt>
      <trkpt lat="45.30199" lon="5.83936">
        <ele>1347.4389648438</ele>
        <time>2017-12-22T11:59:05Z</time>
      </trkpt>
      <trkpt lat="45.30192" lon="5.83936">
        <ele>1346.4389648438</ele>
        <time>2017-12-22T11:59:06Z</time>
      </trkpt>
      <trkpt lat="45.30186" lon="5.83937">
        <ele>1345.4389648438</ele>
        <time>2017-12-22T11:59:07Z</time>
      </trkpt>
      <trkpt lat="45.30179" lon="5.83939">
        <ele>1344.4389648438</ele>
        <time>2017-12-22T11:59:08Z</time>
      </trkpt>
      <trkpt lat="45.30172" lon="5.83942">
        <ele>1344.4389648438</ele>
        <time>2017-12-22T11:59:09Z</time>
      </trkpt>
      <trkpt lat="45.30161" lon="5.83948">
        <ele>1341.4389648438</ele>
        <time>2017-12-22T11:59:11Z</time>
      </trkpt>
      <trkpt lat="45.3015" lon="5.8395">
        <ele>1339.4389648438</ele>
        <time>2017-12-22T11:59:13Z</time>
      </trkpt>
      <trkpt lat="45.30142" lon="5.83964">
        <ele>1344.4389648438</ele>
        <time>2017-12-22T11:59:22Z</time>
      </trkpt>
      <trkpt lat="45.30147" lon="5.83966">
        <ele>1337.4389648438</ele>
        <time>2017-12-22T11:59:31Z</time>
      </trkpt>
      <trkpt lat="45.30156" lon="5.83972">
        <ele>1336.4389648438</ele>
        <time>2017-12-22T11:59:33Z</time>
      </trkpt>
      <trkpt lat="45.30168" lon="5.83977">
        <ele>1334.4389648438</ele>
        <time>2017-12-22T11:59:35Z</time>
      </trkpt>
      <trkpt lat="45.30181" lon="5.83982">
        <ele>1333.4389648438</ele>
        <time>2017-12-22T11:59:37Z</time>
      </trkpt>
      <trkpt lat="45.30192" lon="5.83991">
        <ele>1332.4389648438</ele>
        <time>2017-12-22T11:59:39Z</time>
      </trkpt>
      <trkpt lat="45.30202" lon="5.84004">
        <ele>1332.4389648438</ele>
        <time>2017-12-22T11:59:41Z</time>
      </trkpt>
      <trkpt lat="45.30208" lon="5.84023">
        <ele>1330.4389648438</ele>
        <time>2017-12-22T11:59:43Z</time>
      </trkpt>
      <trkpt lat="45.30212" lon="5.84041">
        <ele>1330.4389648438</ele>
        <time>2017-12-22T11:59:45Z</time>
      </trkpt>
      <trkpt lat="45.30214" lon="5.8405">
        <ele>1330.4389648438</ele>
        <time>2017-12-22T11:59:46Z</time>
      </trkpt>
      <trkpt lat="45.3022" lon="5.84067">
        <ele>1327.4389648438</ele>
        <time>2017-12-22T11:59:48Z</time>
      </trkpt>
      <trkpt lat="45.30226" lon="5.84083">
        <ele>1325.4389648438</ele>
        <time>2017-12-22T11:59:50Z</time>
      </trkpt>
      <trkpt lat="45.3023" lon="5.84099">
        <ele>1322.4389648438</ele>
        <time>2017-12-22T11:59:52Z</time>
      </trkpt>
      <trkpt lat="45.30223" lon="5.84106">
        <ele>1319.4389648438</ele>
        <time>2017-12-22T11:59:54Z</time>
      </trkpt>
      <trkpt lat="45.30216" lon="5.84093">
        <ele>1319.4389648438</ele>
        <time>2017-12-22T11:59:56Z</time>
      </trkpt>
      <trkpt lat="45.30215" lon="5.84085">
        <ele>1318.4389648438</ele>
        <time>2017-12-22T11:59:57Z</time>
      </trkpt>
      <trkpt lat="45.30209" lon="5.84072">
        <ele>1316.4389648438</ele>
        <time>2017-12-22T11:59:59Z</time>
      </trkpt>
      <trkpt lat="45.30203" lon="5.84057">
        <ele>1316.4389648438</ele>
        <time>2017-12-22T12:00:01Z</time>
      </trkpt>
      <trkpt lat="45.30196" lon="5.84054">
        <ele>1313.4389648438</ele>
        <time>2017-12-22T12:00:02Z</time>
      </trkpt>
      <trkpt lat="45.30182" lon="5.8405">
        <ele>1311.4389648438</ele>
        <time>2017-12-22T12:00:04Z</time>
      </trkpt>
      <trkpt lat="45.30168" lon="5.84051">
        <ele>1311.4389648438</ele>
        <time>2017-12-22T12:00:06Z</time>
      </trkpt>
      <trkpt lat="45.30154" lon="5.84056">
        <ele>1310.4389648438</ele>
        <time>2017-12-22T12:00:08Z</time>
      </trkpt>
      <trkpt lat="45.3014" lon="5.8406">
        <ele>1309.4389648438</ele>
        <time>2017-12-22T12:00:10Z</time>
      </trkpt>
      <trkpt lat="45.30126" lon="5.84061">
        <ele>1308.4389648438</ele>
        <time>2017-12-22T12:00:12Z</time>
      </trkpt>
      <trkpt lat="45.30113" lon="5.84063">
        <ele>1308.4389648438</ele>
        <time>2017-12-22T12:00:14Z</time>
      </trkpt>
      <trkpt lat="45.30102" lon="5.84064">
        <ele>1306.4389648438</ele>
        <time>2017-12-22T12:00:16Z</time>
      </trkpt>
      <trkpt lat="45.30091" lon="5.84065">
        <ele>1304.4389648438</ele>
        <time>2017-12-22T12:00:18Z</time>
      </trkpt>
      <trkpt lat="45.30085" lon="5.84065">
        <ele>1304.4389648438</ele>
        <time>2017-12-22T12:00:19Z</time>
      </trkpt>
      <trkpt lat="45.30075" lon="5.84068">
        <ele>1302.4389648438</ele>
        <time>2017-12-22T12:00:21Z</time>
      </trkpt>
      <trkpt lat="45.30065" lon="5.84071">
        <ele>1300.4389648438</ele>
        <time>2017-12-22T12:00:23Z</time>
      </trkpt>
      <trkpt lat="45.30051" lon="5.84073">
        <ele>1297.4389648438</ele>
        <time>2017-12-22T12:00:26Z</time>
      </trkpt>
      <trkpt lat="45.30043" lon="5.84076">
        <ele>1297.4389648438</ele>
        <time>2017-12-22T12:00:28Z</time>
      </trkpt>
      <trkpt lat="45.30034" lon="5.84077">
        <ele>1295.4389648438</ele>
        <time>2017-12-22T12:00:30Z</time>
      </trkpt>
      <trkpt lat="45.30022" lon="5.84078">
        <ele>1293.4389648438</ele>
        <time>2017-12-22T12:00:33Z</time>
      </trkpt>
      <trkpt lat="45.30012" lon="5.84077">
        <ele>1293.4389648438</ele>
        <time>2017-12-22T12:00:35Z</time>
      </trkpt>
      <trkpt lat="45.30002" lon="5.84076">
        <ele>1292.4389648438</ele>
        <time>2017-12-22T12:00:37Z</time>
      </trkpt>
      <trkpt lat="45.29989" lon="5.84074">
        <ele>1290.4379882812</ele>
        <time>2017-12-22T12:00:40Z</time>
      </trkpt>
      <trkpt lat="45.29981" lon="5.8407">
        <ele>1290.4379882812</ele>
        <time>2017-12-22T12:00:42Z</time>
      </trkpt>
      <trkpt lat="45.29974" lon="5.84067">
        <ele>1290.4379882812</ele>
        <time>2017-12-22T12:00:44Z</time>
      </trkpt>
      <trkpt lat="45.29968" lon="5.84063">
        <ele>1289.4379882812</ele>
        <time>2017-12-22T12:00:46Z</time>
      </trkpt>
      <trkpt lat="45.2996" lon="5.8406">
        <ele>1287.4379882812</ele>
        <time>2017-12-22T12:00:48Z</time>
      </trkpt>
      <trkpt lat="45.29951" lon="5.84062">
        <ele>1286.4379882812</ele>
        <time>2017-12-22T12:00:50Z</time>
      </trkpt>
      <trkpt lat="45.29944" lon="5.84065">
        <ele>1283.4379882812</ele>
        <time>2017-12-22T12:00:52Z</time>
      </trkpt>
      <trkpt lat="45.29939" lon="5.84073">
        <ele>1278.4379882812</ele>
        <time>2017-12-22T12:01:13Z</time>
      </trkpt>
      <trkpt lat="45.29934" lon="5.84079">
        <ele>1277.4379882812</ele>
        <time>2017-12-22T12:01:15Z</time>
      </trkpt>
      <trkpt lat="45.29931" lon="5.8409">
        <ele>1276.4379882812</ele>
        <time>2017-12-22T12:01:17Z</time>
      </trkpt>
      <trkpt lat="45.29934" lon="5.84097">
        <ele>1273.4379882812</ele>
        <time>2017-12-22T12:01:25Z</time>
      </trkpt>
      <trkpt lat="45.29932" lon="5.84103">
        <ele>1274.4379882812</ele>
        <time>2017-12-22T12:01:32Z</time>
      </trkpt>
      <trkpt lat="45.29936" lon="5.84107">
        <ele>1275.4379882812</ele>
        <time>2017-12-22T12:01:40Z</time>
      </trkpt>
      <trkpt lat="45.29931" lon="5.84113">
        <ele>1271.4379882812</ele>
        <time>2017-12-22T12:01:43Z</time>
      </trkpt>
      <trkpt lat="45.29927" lon="5.84118">
        <ele>1267.4379882812</ele>
        <time>2017-12-22T12:01:55Z</time>
      </trkpt>
      <trkpt lat="45.29919" lon="5.84117">
        <ele>1265.4379882812</ele>
        <time>2017-12-22T12:01:58Z</time>
      </trkpt>
      <trkpt lat="45.29912" lon="5.84121">
        <ele>1265.4379882812</ele>
        <time>2017-12-22T12:02:02Z</time>
      </trkpt>
      <trkpt lat="45.29908" lon="5.84126">
        <ele>1263.4379882812</ele>
        <time>2017-12-22T12:02:08Z</time>
      </trkpt>
      <trkpt lat="45.29903" lon="5.84129">
        <ele>1265.4379882812</ele>
        <time>2017-12-22T12:02:12Z</time>
      </trkpt>
      <trkpt lat="45.29898" lon="5.8413">
        <ele>1261.4379882812</ele>
        <time>2017-12-22T12:02:16Z</time>
      </trkpt>
      <trkpt lat="45.29894" lon="5.84132">
        <ele>1260.4379882812</ele>
        <time>2017-12-22T12:02:19Z</time>
      </trkpt>
      <trkpt lat="45.29887" lon="5.84134">
        <ele>1258.4379882812</ele>
        <time>2017-12-22T12:02:21Z</time>
      </trkpt>
      <trkpt lat="45.29879" lon="5.84137">
        <ele>1256.4379882812</ele>
        <time>2017-12-22T12:02:23Z</time>
      </trkpt>
      <trkpt lat="45.29872" lon="5.84138">
        <ele>1256.4379882812</ele>
        <time>2017-12-22T12:02:25Z</time>
      </trkpt>
      <trkpt lat="45.29863" lon="5.8414">
        <ele>1254.4379882812</ele>
        <time>2017-12-22T12:02:27Z</time>
      </trkpt>
      <trkpt lat="45.29858" lon="5.8414">
        <ele>1254.4379882812</ele>
        <time>2017-12-22T12:02:29Z</time>
      </trkpt>
      <trkpt lat="45.29852" lon="5.84143">
        <ele>1252.4379882812</ele>
        <time>2017-12-22T12:02:31Z</time>
      </trkpt>
      <trkpt lat="45.29844" lon="5.84148">
        <ele>1251.4379882812</ele>
        <time>2017-12-22T12:02:33Z</time>
      </trkpt>
      <trkpt lat="45.29842" lon="5.84158">
        <ele>1248.4379882812</ele>
        <time>2017-12-22T12:02:35Z</time>
      </trkpt>
      <trkpt lat="45.29835" lon="5.84164">
        <ele>1248.4379882812</ele>
        <time>2017-12-22T12:02:37Z</time>
      </trkpt>
      <trkpt lat="45.29828" lon="5.84167">
        <ele>1242.4379882812</ele>
        <time>2017-12-22T12:02:48Z</time>
      </trkpt>
      <trkpt lat="45.29823" lon="5.84171">
        <ele>1239.4379882812</ele>
        <time>2017-12-22T12:02:49Z</time>
      </trkpt>
      <trkpt lat="45.29811" lon="5.84169">
        <ele>1236.4379882812</ele>
        <time>2017-12-22T12:02:51Z</time>
      </trkpt>
      <trkpt lat="45.298" lon="5.84173">
        <ele>1232.4379882812</ele>
        <time>2017-12-22T12:02:53Z</time>
      </trkpt>
      <trkpt lat="45.29788" lon="5.8418">
        <ele>1229.4379882812</ele>
        <time>2017-12-22T12:02:55Z</time>
      </trkpt>
      <trkpt lat="45.29773" lon="5.84184">
        <ele>1227.4379882812</ele>
        <time>2017-12-22T12:02:57Z</time>
      </trkpt>
      <trkpt lat="45.2976" lon="5.8418">
        <ele>1226.4379882812</ele>
        <time>2017-12-22T12:02:59Z</time>
      </trkpt>
      <trkpt lat="45.29751" lon="5.84183">
        <ele>1227.4379882812</ele>
        <time>2017-12-22T12:03:01Z</time>
      </trkpt>
      <trkpt lat="45.29739" lon="5.84188">
        <ele>1225.4379882812</ele>
        <time>2017-12-22T12:03:04Z</time>
      </trkpt>
      <trkpt lat="45.29726" lon="5.84192">
        <ele>1224.4379882812</ele>
        <time>2017-12-22T12:03:07Z</time>
      </trkpt>
      <trkpt lat="45.29721" lon="5.84194">
        <ele>1221.4379882812</ele>
        <time>2017-12-22T12:03:09Z</time>
      </trkpt>
      <trkpt lat="45.29716" lon="5.84196">
        <ele>1220.4379882812</ele>
        <time>2017-12-22T12:03:11Z</time>
      </trkpt>
      <trkpt lat="45.29708" lon="5.84201">
        <ele>1216.4379882812</ele>
        <time>2017-12-22T12:03:13Z</time>
      </trkpt>
      <trkpt lat="45.29701" lon="5.84205">
        <ele>1211.4379882812</ele>
        <time>2017-12-22T12:03:15Z</time>
      </trkpt>
      <trkpt lat="45.29695" lon="5.84212">
        <ele>1207.4379882812</ele>
        <time>2017-12-22T12:03:17Z</time>
      </trkpt>
      <trkpt lat="45.2969" lon="5.84228">
        <ele>1202.4379882812</ele>
        <time>2017-12-22T12:03:20Z</time>
      </trkpt>
      <trkpt lat="45.29685" lon="5.84238">
        <ele>1198.4379882812</ele>
        <time>2017-12-22T12:03:22Z</time>
      </trkpt>
      <trkpt lat="45.29681" lon="5.84247">
        <ele>1195.4379882812</ele>
        <time>2017-12-22T12:03:24Z</time>
      </trkpt>
      <trkpt lat="45.29678" lon="5.84255">
        <ele>1194.4379882812</ele>
        <time>2017-12-22T12:03:26Z</time>
      </trkpt>
      <trkpt lat="45.29673" lon="5.84259">
        <ele>1189.4379882812</ele>
        <time>2017-12-22T12:03:45Z</time>
      </trkpt>
      <trkpt lat="45.29667" lon="5.8426">
        <ele>1186.4379882812</ele>
        <time>2017-12-22T12:04:22Z</time>
      </trkpt>
      <trkpt lat="45.29663" lon="5.84257">
        <ele>1185.4379882812</ele>
        <time>2017-12-22T12:04:24Z</time>
      </trkpt>
      <trkpt lat="45.29658" lon="5.84254">
        <ele>1184.4379882812</ele>
        <time>2017-12-22T12:04:26Z</time>
      </trkpt>
      <trkpt lat="45.2965" lon="5.84255">
        <ele>1183.4379882812</ele>
        <time>2017-12-22T12:04:30Z</time>
      </trkpt>
      <trkpt lat="45.29644" lon="5.84258">
        <ele>1183.4379882812</ele>
        <time>2017-12-22T12:04:32Z</time>
      </trkpt>
      <trkpt lat="45.29635" lon="5.84259">
        <ele>1181.4379882812</ele>
        <time>2017-12-22T12:04:34Z</time>
      </trkpt>
      <trkpt lat="45.29624" lon="5.84257">
        <ele>1179.4379882812</ele>
        <time>2017-12-22T12:04:36Z</time>
      </trkpt>
      <trkpt lat="45.29619" lon="5.84253">
        <ele>1179.4379882812</ele>
        <time>2017-12-22T12:04:37Z</time>
      </trkpt>
      <trkpt lat="45.2961" lon="5.84249">
        <ele>1178.4379882812</ele>
        <time>2017-12-22T12:04:39Z</time>
      </trkpt>
      <trkpt lat="45.29604" lon="5.84246">
        <ele>1178.4379882812</ele>
        <time>2017-12-22T12:04:41Z</time>
      </trkpt>
      <trkpt lat="45.29599" lon="5.84242">
        <ele>1177.4379882812</ele>
        <time>2017-12-22T12:04:43Z</time>
      </trkpt>
      <trkpt lat="45.29595" lon="5.84245">
        <ele>1174.4379882812</ele>
        <time>2017-12-22T12:04:45Z</time>
      </trkpt>
      <trkpt lat="45.29588" lon="5.84245">
        <ele>1171.4379882812</ele>
        <time>2017-12-22T12:04:47Z</time>
      </trkpt>
      <trkpt lat="45.29582" lon="5.84248">
        <ele>1168.4379882812</ele>
        <time>2017-12-22T12:04:50Z</time>
      </trkpt>
      <trkpt lat="45.29578" lon="5.84245">
        <ele>1166.4379882812</ele>
        <time>2017-12-22T12:04:54Z</time>
      </trkpt>
      <trkpt lat="45.29569" lon="5.84254">
        <ele>1165.4379882812</ele>
        <time>2017-12-22T12:04:57Z</time>
      </trkpt>
      <trkpt lat="45.29564" lon="5.84259">
        <ele>1164.4379882812</ele>
        <time>2017-12-22T12:04:59Z</time>
      </trkpt>
      <trkpt lat="45.2956" lon="5.84262">
        <ele>1163.4379882812</ele>
        <time>2017-12-22T12:05:01Z</time>
      </trkpt>
      <trkpt lat="45.29554" lon="5.8426">
        <ele>1160.4379882812</ele>
        <time>2017-12-22T12:05:06Z</time>
      </trkpt>
      <trkpt lat="45.29552" lon="5.84252">
        <ele>1156.4379882812</ele>
        <time>2017-12-22T12:05:08Z</time>
      </trkpt>
      <trkpt lat="45.29549" lon="5.84246">
        <ele>1154.4379882812</ele>
        <time>2017-12-22T12:05:10Z</time>
      </trkpt>
      <trkpt lat="45.29542" lon="5.84243">
        <ele>1153.4379882812</ele>
        <time>2017-12-22T12:05:12Z</time>
      </trkpt>
      <trkpt lat="45.29529" lon="5.8424">
        <ele>1151.4379882812</ele>
        <time>2017-12-22T12:05:15Z</time>
      </trkpt>
      <trkpt lat="45.29519" lon="5.84239">
        <ele>1148.4379882812</ele>
        <time>2017-12-22T12:05:18Z</time>
      </trkpt>
      <trkpt lat="45.29514" lon="5.84236">
        <ele>1144.4379882812</ele>
        <time>2017-12-22T12:05:23Z</time>
      </trkpt>
      <trkpt lat="45.29509" lon="5.84237">
        <ele>1141.4379882812</ele>
        <time>2017-12-22T12:05:25Z</time>
      </trkpt>
      <trkpt lat="45.29505" lon="5.84239">
        <ele>1140.4379882812</ele>
        <time>2017-12-22T12:05:27Z</time>
      </trkpt>
      <trkpt lat="45.295" lon="5.84238">
        <ele>1140.4379882812</ele>
        <time>2017-12-22T12:05:30Z</time>
      </trkpt>
      <trkpt lat="45.29496" lon="5.84239">
        <ele>1139.4379882812</ele>
        <time>2017-12-22T12:05:33Z</time>
      </trkpt>
      <trkpt lat="45.29489" lon="5.84236">
        <ele>1136.4379882812</ele>
        <time>2017-12-22T12:05:36Z</time>
      </trkpt>
      <trkpt lat="45.29477" lon="5.84238">
        <ele>1136.4379882812</ele>
        <time>2017-12-22T12:05:38Z</time>
      </trkpt>
      <trkpt lat="45.29471" lon="5.84238">
        <ele>1134.4379882812</ele>
        <time>2017-12-22T12:05:40Z</time>
      </trkpt>
      <trkpt lat="45.29458" lon="5.84239">
        <ele>1132.4379882812</ele>
        <time>2017-12-22T12:05:43Z</time>
      </trkpt>
      <trkpt lat="45.29447" lon="5.84238">
        <ele>1132.4379882812</ele>
        <time>2017-12-22T12:05:45Z</time>
      </trkpt>
      <trkpt lat="45.29428" lon="5.84238">
        <ele>1131.4379882812</ele>
        <time>2017-12-22T12:05:47Z</time>
      </trkpt>
      <trkpt lat="45.29412" lon="5.84234">
        <ele>1129.4370117188</ele>
        <time>2017-12-22T12:05:49Z</time>
      </trkpt>
      <trkpt lat="45.29394" lon="5.84226">
        <ele>1128.4370117188</ele>
        <time>2017-12-22T12:05:51Z</time>
      </trkpt>
      <trkpt lat="45.29385" lon="5.84222">
        <ele>1127.4370117188</ele>
        <time>2017-12-22T12:05:52Z</time>
      </trkpt>
      <trkpt lat="45.29379" lon="5.84218">
        <ele>1127.4370117188</ele>
        <time>2017-12-22T12:05:53Z</time>
      </trkpt>
      <trkpt lat="45.29363" lon="5.84217">
        <ele>1126.4370117188</ele>
        <time>2017-12-22T12:05:55Z</time>
      </trkpt>
      <trkpt lat="45.29352" lon="5.84216">
        <ele>1121.4370117188</ele>
        <time>2017-12-22T12:05:57Z</time>
      </trkpt>
      <trkpt lat="45.29348" lon="5.84214">
        <ele>1122.4370117188</ele>
        <time>2017-12-22T12:06:02Z</time>
      </trkpt>
      <trkpt lat="45.29342" lon="5.84214">
        <ele>1119.4370117188</ele>
        <time>2017-12-22T12:06:15Z</time>
      </trkpt>
      <trkpt lat="45.29337" lon="5.84216">
        <ele>1121.4370117188</ele>
        <time>2017-12-22T12:06:19Z</time>
      </trkpt>
      <trkpt lat="45.2933" lon="5.84217">
        <ele>1122.4370117188</ele>
        <time>2017-12-22T12:06:25Z</time>
      </trkpt>
      <trkpt lat="45.29326" lon="5.84217">
        <ele>1120.4370117188</ele>
        <time>2017-12-22T12:06:32Z</time>
      </trkpt>
      <trkpt lat="45.29322" lon="5.84212">
        <ele>1117.4370117188</ele>
        <time>2017-12-22T12:06:38Z</time>
      </trkpt>
      <trkpt lat="45.29315" lon="5.84213">
        <ele>1113.4370117188</ele>
        <time>2017-12-22T12:06:42Z</time>
      </trkpt>
      <trkpt lat="45.2931" lon="5.84212">
        <ele>1114.4370117188</ele>
        <time>2017-12-22T12:06:45Z</time>
      </trkpt>
      <trkpt lat="45.29306" lon="5.84215">
        <ele>1114.4370117188</ele>
        <time>2017-12-22T12:06:47Z</time>
      </trkpt>
      <trkpt lat="45.29301" lon="5.8422">
        <ele>1114.4370117188</ele>
        <time>2017-12-22T12:06:50Z</time>
      </trkpt>
      <trkpt lat="45.29297" lon="5.84225">
        <ele>1114.4370117188</ele>
        <time>2017-12-22T12:06:53Z</time>
      </trkpt>
      <trkpt lat="45.29294" lon="5.8422">
        <ele>1114.4370117188</ele>
        <time>2017-12-22T12:07:01Z</time>
      </trkpt>
      <trkpt lat="45.29298" lon="5.84225">
        <ele>1111.4370117188</ele>
        <time>2017-12-22T12:07:17Z</time>
      </trkpt>
      <trkpt lat="45.29291" lon="5.84241">
        <ele>1108.4370117188</ele>
        <time>2017-12-22T12:07:19Z</time>
      </trkpt>
      <trkpt lat="45.29288" lon="5.8425">
        <ele>1105.4370117188</ele>
        <time>2017-12-22T12:07:20Z</time>
      </trkpt>
      <trkpt lat="45.29278" lon="5.84267">
        <ele>1099.4370117188</ele>
        <time>2017-12-22T12:07:22Z</time>
      </trkpt>
      <trkpt lat="45.29275" lon="5.84275">
        <ele>1097.4370117188</ele>
        <time>2017-12-22T12:07:23Z</time>
      </trkpt>
      <trkpt lat="45.29268" lon="5.84291">
        <ele>1092.4370117188</ele>
        <time>2017-12-22T12:07:25Z</time>
      </trkpt>
      <trkpt lat="45.29259" lon="5.8431">
        <ele>1086.4370117188</ele>
        <time>2017-12-22T12:07:27Z</time>
      </trkpt>
      <trkpt lat="45.29242" lon="5.84335">
        <ele>1082.4370117188</ele>
        <time>2017-12-22T12:07:30Z</time>
      </trkpt>
      <trkpt lat="45.29236" lon="5.84352">
        <ele>1080.4370117188</ele>
        <time>2017-12-22T12:07:32Z</time>
      </trkpt>
      <trkpt lat="45.29229" lon="5.84364">
        <ele>1075.4370117188</ele>
        <time>2017-12-22T12:07:34Z</time>
      </trkpt>
      <trkpt lat="45.29222" lon="5.84376">
        <ele>1071.4370117188</ele>
        <time>2017-12-22T12:07:36Z</time>
      </trkpt>
      <trkpt lat="45.2922" lon="5.84397">
        <ele>1067.4370117188</ele>
        <time>2017-12-22T12:07:38Z</time>
      </trkpt>
      <trkpt lat="45.29217" lon="5.84419">
        <ele>1066.4370117188</ele>
        <time>2017-12-22T12:07:40Z</time>
      </trkpt>
      <trkpt lat="45.29211" lon="5.84442">
        <ele>1065.4370117188</ele>
        <time>2017-12-22T12:07:42Z</time>
      </trkpt>
      <trkpt lat="45.29207" lon="5.84452">
        <ele>1064.4370117188</ele>
        <time>2017-12-22T12:07:43Z</time>
      </trkpt>
      <trkpt lat="45.29204" lon="5.84472">
        <ele>1059.4370117188</ele>
        <time>2017-12-22T12:07:45Z</time>
      </trkpt>
      <trkpt lat="45.29202" lon="5.84492">
        <ele>1055.4370117188</ele>
        <time>2017-12-22T12:07:47Z</time>
      </trkpt>
      <trkpt lat="45.29198" lon="5.84512">
        <ele>1052.4370117188</ele>
        <time>2017-12-22T12:07:49Z</time>
      </trkpt>
      <trkpt lat="45.29196" lon="5.8453">
        <ele>1052.4370117188</ele>
        <time>2017-12-22T12:07:51Z</time>
      </trkpt>
      <trkpt lat="45.29191" lon="5.84548">
        <ele>1050.4370117188</ele>
        <time>2017-12-22T12:07:54Z</time>
      </trkpt>
      <trkpt lat="45.29196" lon="5.84551">
        <ele>1050.4370117188</ele>
        <time>2017-12-22T12:07:55Z</time>
      </trkpt>
      <trkpt lat="45.29196" lon="5.84558">
        <ele>1039.4370117188</ele>
        <time>2017-12-22T12:08:21Z</time>
      </trkpt>
      <trkpt lat="45.29194" lon="5.84566">
        <ele>1038.4370117188</ele>
        <time>2017-12-22T12:08:24Z</time>
      </trkpt>
      <trkpt lat="45.29191" lon="5.84574">
        <ele>1039.4370117188</ele>
        <time>2017-12-22T12:08:27Z</time>
      </trkpt>
      <trkpt lat="45.29189" lon="5.84581">
        <ele>1039.4379882812</ele>
        <time>2017-12-22T12:08:29Z</time>
      </trkpt>
      <trkpt lat="45.29184" lon="5.84586">
        <ele>1035.4370117188</ele>
        <time>2017-12-22T12:08:33Z</time>
      </trkpt>
      <trkpt lat="45.29179" lon="5.84587">
        <ele>1035.4370117188</ele>
        <time>2017-12-22T12:08:36Z</time>
      </trkpt>
      <trkpt lat="45.29173" lon="5.84589">
        <ele>1037.4370117188</ele>
        <time>2017-12-22T12:08:42Z</time>
      </trkpt>
      <trkpt lat="45.29169" lon="5.84589">
        <ele>1036.4370117188</ele>
        <time>2017-12-22T12:08:47Z</time>
      </trkpt>
      <trkpt lat="45.29163" lon="5.8459">
        <ele>1035.4370117188</ele>
        <time>2017-12-22T12:08:49Z</time>
      </trkpt>
      <trkpt lat="45.29155" lon="5.84592">
        <ele>1036.4370117188</ele>
        <time>2017-12-22T12:08:51Z</time>
      </trkpt>
      <trkpt lat="45.2915" lon="5.84597">
        <ele>1035.4370117188</ele>
        <time>2017-12-22T12:08:53Z</time>
      </trkpt>
      <trkpt lat="45.29145" lon="5.84603">
        <ele>1036.4370117188</ele>
        <time>2017-12-22T12:08:55Z</time>
      </trkpt>
      <trkpt lat="45.29138" lon="5.84608">
        <ele>1034.4370117188</ele>
        <time>2017-12-22T12:08:57Z</time>
      </trkpt>
      <trkpt lat="45.29132" lon="5.84615">
        <ele>1033.4370117188</ele>
        <time>2017-12-22T12:08:59Z</time>
      </trkpt>
      <trkpt lat="45.29126" lon="5.84621">
        <ele>1030.4370117188</ele>
        <time>2017-12-22T12:09:01Z</time>
      </trkpt>
      <trkpt lat="45.29121" lon="5.84625">
        <ele>1028.4370117188</ele>
        <time>2017-12-22T12:09:03Z</time>
      </trkpt>
      <trkpt lat="45.29122" lon="5.84632">
        <ele>1032.4370117188</ele>
        <time>2017-12-22T12:09:11Z</time>
      </trkpt>
      <trkpt lat="45.29124" lon="5.84639">
        <ele>1030.4370117188</ele>
        <time>2017-12-22T12:09:23Z</time>
      </trkpt>
      <trkpt lat="45.29119" lon="5.84647">
        <ele>1029.4370117188</ele>
        <time>2017-12-22T12:09:24Z</time>
      </trkpt>
      <trkpt lat="45.29118" lon="5.84654">
        <ele>1028.4370117188</ele>
        <time>2017-12-22T12:09:25Z</time>
      </trkpt>
      <trkpt lat="45.29117" lon="5.84673">
        <ele>1025.4370117188</ele>
        <time>2017-12-22T12:09:27Z</time>
      </trkpt>
      <trkpt lat="45.29123" lon="5.8469">
        <ele>1022.4379882812</ele>
        <time>2017-12-22T12:09:29Z</time>
      </trkpt>
      <trkpt lat="45.29126" lon="5.84706">
        <ele>1019.4379882812</ele>
        <time>2017-12-22T12:09:31Z</time>
      </trkpt>
      <trkpt lat="45.29122" lon="5.84724">
        <ele>1018.4379882812</ele>
        <time>2017-12-22T12:09:33Z</time>
      </trkpt>
      <trkpt lat="45.29118" lon="5.8473">
        <ele>1016.4379882812</ele>
        <time>2017-12-22T12:09:34Z</time>
      </trkpt>
      <trkpt lat="45.29111" lon="5.84737">
        <ele>1014.4379882812</ele>
        <time>2017-12-22T12:09:36Z</time>
      </trkpt>
      <trkpt lat="45.29105" lon="5.84739">
        <ele>1013.4379882812</ele>
        <time>2017-12-22T12:09:38Z</time>
      </trkpt>
      <trkpt lat="45.29103" lon="5.84745">
        <ele>1007.4379882812</ele>
        <time>2017-12-22T12:10:15Z</time>
      </trkpt>
      <trkpt lat="45.29108" lon="5.84743">
        <ele>1002.4379882812</ele>
        <time>2017-12-22T12:10:18Z</time>
      </trkpt>
      <trkpt lat="45.29114" lon="5.84748">
        <ele>998.43798828125</ele>
        <time>2017-12-22T12:10:21Z</time>
      </trkpt>
      <trkpt lat="45.29116" lon="5.84754">
        <ele>995.43798828125</ele>
        <time>2017-12-22T12:10:25Z</time>
      </trkpt>
    </trkseg>
  </trk>
</gpx>